GFSCGP_sfc_wetblb_000.txt.gz
Wetbulb
45.19 40.74 36.30 38.65 40.64 42.02 39.64 37.28 36.22 38.51 42.74 42.29 40.22 39.37 42.38 42.47 40.43 41.21 41.62 42.54 43.29 45.01 45.53 46.27 46.40 46.40 45.95 46.01 46.55 46.93 46.91 46.63 45.94 44.86 44.43 43.66 43.85 45.06 45.28 46.32 50.66 50.40 49.60 49.37
42.03 38.11 42.43 44.35 44.05 41.62 40.27 38.00 36.86 40.30 43.74 41.68 40.68 40.02 39.58 41.09 40.25 41.73 42.74 42.81 43.70 43.98 45.62 46.92 46.50 43.92 45.65 45.79 45.88 45.97 46.32 46.42 46.06 44.74 44.54 44.75 43.78 44.26 45.38 45.88 46.11 49.05 49.01 47.72
39.25 42.01 45.48 43.37 41.60 40.24 38.27 37.73 37.41 38.37 41.12 40.93 40.47 38.19 38.73 42.08 43.07 43.82 43.50 43.65 44.29 44.59 45.32 45.80 46.92 45.12 44.50 45.47 45.79 46.62 46.46 46.26 46.49 46.14 44.56 43.94 43.64 43.54 43.80 43.92 44.40 46.21 47.69 48.19
41.73 44.21 42.44 41.93 40.80 40.12 36.02 41.58 41.52 40.07 37.66 32.85 39.74 31.16 37.42 39.29 40.18 42.18 42.98 42.63 43.39 45.01 45.58 45.53 45.02 44.63 45.33 46.16 45.52 45.95 46.97 46.81 46.78 46.29 44.22 43.44 45.47 44.90 46.32 46.57 43.84 45.24 47.40 47.13
40.39 39.91 39.95 40.23 40.16 42.23 39.55 42.97 41.62 40.62 36.58 35.11 37.12 32.60 36.73 39.60 38.73 41.19 41.03 43.13 42.61 43.08 44.23 43.79 43.69 44.67 45.59 46.28 46.32 46.50 46.83 46.98 48.03 47.34 45.97 44.66 44.08 45.64 46.57 43.00 42.79 42.91 44.23 45.76
41.77 43.41 42.21 40.91 43.94 43.93 44.76 42.37 40.74 39.74 36.60 29.05 35.38 33.31 33.72 37.28 39.72 40.92 42.39 43.06 44.20 43.08 43.34 45.33 45.74 46.05 46.25 46.53 46.43 47.71 47.08 47.59 48.03 47.71 47.02 44.91 43.74 45.35 43.94 43.91 43.37 43.13 41.65 41.55
42.37 41.59 43.15 45.14 41.24 43.63 41.21 36.52 27.70 26.33 25.60 26.29 37.84 33.81 34.55 39.44 42.39 43.21 43.22 42.04 42.16 43.79 44.09 43.99 44.98 45.34 45.66 45.55 45.90 46.59 46.57 47.75 49.01 46.82 46.68 46.47 45.46 45.36 44.36 44.69 44.15 43.46 41.75 41.04
35.93 33.27 42.48 45.19 41.64 38.53 38.96 37.83 27.65 23.74 22.09 26.93 36.29 31.22 36.26 42.45 43.20 43.81 43.70 43.96 45.27 42.74 45.02 44.58 45.35 45.44 45.76 46.09 46.13 46.91 47.50 46.37 46.70 46.20 46.30 45.02 44.80 44.43 44.25 42.89 42.03 39.68 41.11 40.30
34.68 36.52 44.36 44.88 44.87 42.98 40.04 34.43 39.75 31.40 23.97 24.15 30.89 36.78 41.26 42.16 44.16 43.95 43.18 44.07 43.79 43.66 43.90 44.65 45.78 45.68 44.67 44.51 45.10 45.28 44.95 46.03 46.04 44.93 42.97 40.92 40.35 40.50 38.17 37.54 38.68 39.42 39.40 39.99
40.84 35.02 42.48 44.73 45.41 44.19 41.09 42.49 32.91 30.40 20.72 25.13 30.26 31.85 33.60 40.00 42.40 44.10 42.09 41.30 42.62 42.96 43.95 44.97 44.75 45.05 44.98 44.42 44.91 45.38 45.35 45.34 44.92 41.12 40.59 39.07 37.93 38.23 38.13 38.06 37.43 37.59 38.85 40.90
41.38 38.94 37.02 41.06 40.54 38.20 37.21 35.52 37.58 38.14 31.92 26.87 25.09 30.04 39.07 41.55 42.60 43.15 43.74 42.81 41.32 42.67 42.71 43.58 45.55 46.66 47.16 46.99 46.34 44.99 43.92 43.53 40.21 39.18 39.17 38.04 37.22 37.65 36.91 36.59 36.85 37.28 38.34 39.59
42.13 35.80 29.84 36.39 42.24 43.87 40.86 38.66 37.83 27.56 30.24 29.20 27.51 32.45 44.22 42.49 44.91 42.93 42.09 43.00 43.24 42.24 42.93 43.61 44.47 44.88 44.60 44.27 43.50 43.80 43.64 40.35 39.10 39.09 38.36 37.49 36.43 35.44 35.04 35.59 36.26 36.93 37.20 38.40
40.83 32.78 27.09 31.95 36.78 40.62 38.66 40.30 39.15 36.39 30.12 28.43 22.01 28.43 43.66 44.25 42.14 42.77 41.66 42.22 42.49 42.78 43.00 43.49 43.60 44.16 43.99 43.59 43.35 43.82 42.94 39.06 39.34 38.76 36.49 34.94 34.40 33.79 34.41 34.64 35.30 36.33 36.88 36.61
43.43 37.18 32.11 27.59 31.97 37.02 35.47 38.45 39.29 34.93 23.35 30.19 32.32 34.04 38.53 41.24 41.51 41.50 41.59 41.86 41.29 42.73 43.71 43.40 42.92 43.07 43.38 43.17 43.08 43.15 39.26 39.44 39.34 38.37 34.31 33.44 33.25 33.59 34.04 34.10 34.98 35.97 36.02 35.60
40.79 32.77 35.35 36.83 38.44 38.62 38.71 38.02 38.14 35.60 34.72 28.97 32.40 33.45 37.37 38.53 39.24 40.87 42.03 42.99 43.03 42.87 43.02 42.76 42.42 42.30 42.50 42.47 42.62 40.04 39.73 39.92 38.68 35.95 35.29 35.42 36.35 36.07 35.58 34.86 35.34 37.31 36.87 35.81
41.43 31.13 32.71 34.18 38.35 37.92 35.61 37.62 36.98 36.23 36.29 34.75 35.05 34.48 40.07 41.92 41.92 41.92 41.83 42.64 42.06 42.08 42.94 42.98 43.50 43.37 42.84 42.50 41.17 39.94 39.48 39.66 39.97 39.75 40.19 39.85 39.35 38.94 38.01 38.08 38.57 37.51 35.53 34.13
36.48 30.47 28.02 30.62 33.81 32.94 30.27 33.18 34.32 35.52 36.94 35.09 30.11 34.89 40.36 40.36 41.45 41.79 42.16 42.46 42.01 41.78 41.79 42.03 43.05 42.79 41.65 40.15 39.44 38.63 39.10 40.06 41.09 40.65 40.60 40.56 40.32 39.43 38.34 38.35 37.07 33.96 31.36 29.60
31.71 29.23 29.18 27.79 31.05 25.57 35.64 39.50 39.28 36.17 37.20 38.14 39.24 39.44 40.83 41.38 42.67 43.55 43.99 42.85 41.58 41.94 42.62 42.86 42.42 40.94 39.85 39.14 38.54 38.67 38.92 39.71 39.44 39.11 39.58 38.82 38.44 36.92 35.20 32.76 31.14 28.99 28.48 27.55
39.80 33.62 29.24 26.72 28.65 31.89 35.00 37.80 34.56 32.26 34.46 39.81 39.26 40.94 41.51 41.63 41.30 39.63 41.79 43.49 43.82 43.30 43.16 42.48 40.18 39.06 38.42 37.25 37.50 37.73 37.45 38.32 36.47 32.54 32.54 32.92 32.82 32.34 31.54 29.45 27.21 27.18 25.99 25.59
37.03 32.09 26.93 29.11 25.64 24.56 31.13 37.30 42.10 40.66 29.99 40.82 41.01 40.38 40.14 39.35 35.69 39.05 42.87 43.18 42.92 43.35 41.12 38.53 38.38 37.59 36.46 37.20 35.86 32.00 31.66 31.76 31.80 32.84 32.81 33.32 33.02 31.26 29.25 27.77 26.83 25.98 24.47 24.93
26.50 30.02 24.79 19.54 22.73 26.47 35.67 39.70 41.96 25.12 29.78 37.99 40.64 41.47 41.22 40.28 41.00 43.09 43.40 41.95 41.45 38.27 37.99 38.19 37.58 36.48 37.02 38.74 36.74 31.19 30.70 30.75 33.26 33.37 33.02 32.01 31.38 30.10 28.75 26.54 25.37 24.16 23.82 23.66
28.24 24.50 27.82 26.35 27.06 25.91 40.18 40.52 33.52 36.95 38.25 41.05 41.18 41.37 41.56 41.84 41.34 41.10 40.80 40.75 38.91 36.42 36.74 37.17 36.41 36.19 38.49 34.20 32.23 30.48 29.27 32.74 32.84 32.00 31.10 30.31 29.94 29.11 27.85 25.20 24.43 24.02 22.92 19.45
31.87 33.26 29.58 30.23 30.00 37.38 40.42 41.64 41.71 43.29 42.05 40.47 41.57 43.44 41.72 40.43 39.75 40.08 37.44 36.54 36.32 35.36 34.78 35.66 35.46 36.84 35.49 32.14 31.84 30.27 30.30 31.61 30.71 29.31 28.56 28.25 28.04 26.97 25.88 23.92 23.16 22.30 21.10 17.36
37.38 40.04 32.92 34.00 37.51 39.26 41.07 43.65 44.48 42.67 41.29 44.36 44.35 43.52 42.75 40.15 40.30 37.59 37.81 36.66 35.62 34.30 33.33 34.81 36.45 34.46 33.40 31.51 30.51 30.10 30.73 30.35 28.85 27.78 27.69 27.53 25.94 25.34 24.05 24.00 23.73 22.65 17.10 16.04
39.12 39.80 37.02 36.83 39.44 40.68 41.64 41.90 42.99 44.33 44.98 42.62 42.63 41.84 41.02 39.59 38.69 37.16 35.61 35.64 34.56 33.57 34.24 35.39 36.38 35.62 32.66 30.70 29.75 30.16 29.60 29.23 28.21 27.83 27.63 26.22 25.20 23.20 23.53 23.75 23.19 22.35 21.29 19.74
40.24 38.40 35.80 35.27 40.98 40.22 41.20 43.67 43.24 41.49 40.27 39.68 38.87 38.50 38.82 38.77 37.70 36.98 35.23 34.12 33.89 33.38 36.09 35.70 35.82 32.11 31.45 30.26 29.35 30.13 29.88 28.40 27.35 27.08 26.10 22.54 21.56 20.57 22.50 22.31 22.51 26.56 26.13 26.80

GFSCGP_sfc_wetblb_003.txt.gz
Wetbulb
43.66 39.48 35.34 36.64 38.60 39.81 37.95 35.75 34.58 36.88 41.01 41.30 38.56 38.52 41.29 40.44 39.28 39.38 38.25 40.61 42.77 44.21 43.64 44.19 44.33 44.04 44.54 44.83 45.48 44.72 44.77 44.85 45.07 44.24 43.80 43.28 43.59 43.99 44.71 45.10 47.22 49.97 50.43 49.49
41.11 36.84 40.60 42.49 42.26 39.96 38.63 36.19 35.12 38.82 41.95 39.76 39.32 38.72 38.32 40.16 39.27 39.73 40.46 40.96 42.55 43.28 43.70 44.07 43.83 42.77 44.31 44.33 44.72 44.85 45.52 45.50 44.82 43.99 43.78 43.98 42.93 43.29 43.81 44.52 45.35 48.48 50.18 49.72
37.89 40.36 43.43 42.05 39.59 38.45 36.54 35.83 35.25 36.88 39.47 38.68 38.39 37.19 37.67 40.84 41.96 42.66 42.29 41.99 42.24 43.23 43.86 44.35 44.72 43.20 42.85 43.44 43.91 44.99 45.27 45.13 45.22 44.99 43.67 43.07 42.64 42.77 42.39 43.52 43.11 44.97 48.07 50.22
40.09 42.09 41.40 39.78 38.78 38.38 34.26 39.32 38.90 38.49 36.30 32.06 37.29 30.30 36.72 37.60 38.57 40.78 41.31 40.50 40.91 42.90 43.69 44.05 44.48 44.15 43.92 44.30 44.04 44.61 45.03 44.85 45.45 45.28 44.28 42.86 43.64 44.20 46.50 46.07 45.62 45.41 45.28 47.20
38.82 38.43 39.19 38.99 39.54 40.44 38.77 41.73 39.02 38.47 35.24 33.94 35.81 31.12 35.88 38.12 36.77 38.08 39.14 41.28 41.21 42.38 42.71 42.98 43.64 43.23 42.68 43.79 43.85 44.61 45.85 46.79 46.89 46.25 45.46 44.83 43.58 45.30 46.28 45.48 42.32 43.09 43.16 44.90
40.84 42.16 41.18 40.05 42.24 42.70 43.65 40.15 38.77 37.46 34.87 28.21 33.11 32.23 31.64 35.03 37.65 39.07 41.19 41.35 41.87 42.23 43.11 44.37 44.62 44.92 45.46 45.00 45.12 45.53 46.11 46.58 47.41 46.94 46.37 44.60 43.15 43.99 43.63 43.81 42.43 43.47 41.40 41.91
40.91 41.11 43.25 43.84 40.34 42.73 40.63 35.11 26.13 25.12 24.67 25.49 35.69 31.82 33.40 38.94 40.64 41.28 41.33 42.13 42.46 41.77 41.81 42.77 42.44 44.64 44.80 44.33 44.23 45.07 44.84 44.86 45.00 44.82 44.87 44.70 43.86 42.96 42.51 42.88 42.91 41.29 38.82 38.41
34.19 31.46 41.04 44.45 40.04 37.46 37.57 35.91 26.40 21.85 21.17 25.83 34.54 29.89 35.06 40.81 42.36 42.92 44.14 42.10 43.27 43.60 43.38 43.48 44.75 43.86 43.22 43.45 43.88 43.91 44.17 44.27 44.73 44.31 43.30 42.57 41.75 41.66 42.45 41.31 40.35 39.01 37.47 36.64
33.51 35.09 42.78 43.40 43.36 41.26 38.47 33.36 37.95 29.25 22.64 23.22 29.87 35.43 39.09 41.02 42.42 42.30 41.49 42.26 41.43 41.80 42.48 42.59 42.85 43.49 43.14 43.35 43.94 43.72 43.99 44.04 44.15 42.32 39.84 40.18 39.71 39.55 39.94 37.64 37.16 36.72 36.99 38.87
39.38 34.05 40.52 42.90 43.39 42.84 40.36 40.68 31.95 30.18 19.83 22.76 29.57 30.73 32.77 37.87 39.77 41.41 39.81 39.20 39.97 40.42 41.20 42.73 43.05 43.69 44.26 43.99 43.60 43.44 43.33 43.08 42.55 38.83 39.45 40.34 39.16 37.81 37.45 36.66 36.35 36.48 37.82 40.00
39.52 37.44 35.69 39.21 38.42 36.25 36.86 34.71 35.47 35.74 30.46 24.83 21.78 28.89 38.09 38.38 40.17 40.19 39.61 40.02 39.91 40.53 41.12 42.45 43.34 43.95 43.87 43.71 43.42 42.78 42.71 42.42 39.95 38.06 38.23 38.40 38.65 36.59 35.74 35.35 35.88 36.71 38.72 39.57
40.31 34.66 28.93 34.25 40.51 42.07 39.93 37.00 35.81 29.88 27.45 27.58 24.03 29.81 40.63 40.64 41.12 40.62 39.53 41.50 41.84 42.07 42.39 43.06 43.45 43.62 43.10 42.88 42.81 42.16 42.05 40.61 38.42 38.76 38.47 38.83 37.08 35.45 33.98 34.48 35.58 36.55 37.30 38.08
39.66 32.17 26.21 30.86 35.40 37.83 36.73 37.88 37.34 33.43 29.24 27.99 22.18 27.13 40.35 42.37 40.01 40.73 39.97 40.67 41.55 41.96 42.99 43.77 43.65 44.16 43.76 43.03 42.52 42.10 42.28 38.28 38.65 38.41 37.99 36.27 33.64 32.50 32.89 34.67 36.32 36.80 36.71 36.70
42.80 35.50 31.01 27.07 30.70 35.33 34.07 36.56 37.14 34.31 22.94 28.15 29.79 33.27 38.05 37.99 38.41 39.66 40.37 41.08 41.74 41.98 43.25 43.02 43.24 42.63 42.27 42.87 42.34 41.93 39.31 38.90 38.65 37.62 34.84 32.15 31.74 32.13 32.74 33.80 35.20 36.08 37.07 35.86
39.50 32.27 33.91 34.95 36.61 36.84 37.04 36.55 37.46 34.72 33.93 30.78 32.45 32.20 35.94 37.37 38.70 39.95 41.41 41.54 41.77 42.55 42.42 42.39 42.92 42.29 41.96 41.77 41.03 40.02 38.93 38.94 38.73 37.84 34.86 34.39 36.28 36.05 34.78 37.33 38.07 37.58 37.29 37.34
39.46 30.11 32.10 31.51 36.57 36.71 34.78 36.66 35.95 36.12 35.52 34.10 33.68 32.70 37.87 40.03 41.01 40.90 41.27 41.55 41.18 41.05 41.94 42.85 41.83 41.98 41.91 41.30 39.60 38.74 38.50 38.41 38.93 37.83 38.56 39.95 39.93 39.72 39.14 38.87 38.79 37.73 37.96 37.13
35.73 29.97 28.57 24.79 32.62 30.68 27.08 31.19 33.75 34.28 34.93 34.12 29.32 33.50 38.06 39.01 39.82 40.46 40.79 41.09 40.64 40.60 40.83 40.62 40.87 41.22 41.09 39.06 38.54 37.37 37.35 38.46 37.81 37.85 39.34 40.03 39.19 39.55 38.88 38.47 38.41 37.27 32.65 30.47
31.69 29.42 28.30 23.45 30.89 21.97 34.17 37.54 37.57 35.15 36.15 36.57 36.00 38.12 39.42 39.90 41.54 41.69 42.33 41.07 39.79 41.39 41.39 40.94 42.02 40.28 38.99 38.48 37.10 36.52 37.10 37.15 37.38 36.08 33.44 34.22 35.21 34.60 32.88 31.84 30.49 28.79 28.10 27.49
36.43 33.09 29.91 29.56 28.06 29.40 34.82 36.62 33.64 32.28 32.75 37.77 38.24 39.01 39.91 41.31 39.50 38.37 41.50 40.32 40.27 39.97 40.55 41.54 40.13 38.63 37.29 35.68 34.85 32.55 31.53 32.47 32.35 32.41 32.60 33.21 33.01 31.11 29.83 28.56 27.10 26.98 25.93 25.81
35.23 29.70 27.03 28.41 26.00 24.49 31.40 35.64 38.61 38.65 30.01 39.05 39.47 39.19 39.55 38.97 34.94 38.19 42.05 40.97 40.50 40.68 41.88 39.07 37.94 36.99 35.58 36.12 33.11 33.11 31.32 31.40 31.23 33.22 32.44 31.42 31.16 29.75 27.88 26.52 25.87 25.98 24.86 25.63
26.38 29.51 27.05 27.71 26.31 27.15 34.52 37.73 39.19 28.79 30.85 38.17 40.33 41.07 39.50 37.72 40.95 41.48 40.89 40.07 40.46 40.36 39.11 38.25 36.51 35.22 35.96 35.27 32.28 29.69 29.31 29.58 31.36 31.68 31.21 30.46 30.51 29.15 27.48 25.89 25.64 24.30 24.04 23.56
28.41 27.12 24.31 26.75 25.57 23.43 38.47 39.76 33.95 37.96 39.13 39.50 39.41 38.90 39.03 40.84 40.46 39.69 39.80 39.88 39.66 36.78 36.19 35.82 34.52 34.74 35.48 31.71 30.59 28.71 27.88 30.07 30.11 30.18 29.47 28.71 28.27 27.62 26.57 24.68 23.94 23.53 22.26 20.03
31.09 33.17 28.35 32.16 30.55 37.08 38.84 41.35 42.11 42.53 40.04 38.22 39.03 43.02 42.87 39.89 38.91 38.35 38.57 39.05 37.22 35.64 34.20 33.94 33.33 34.42 35.82 31.98 30.76 29.73 29.29 29.92 28.95 28.13 27.36 27.29 27.23 26.24 25.14 23.64 22.75 21.97 20.69 18.06
37.37 39.84 31.96 33.76 37.90 39.25 41.75 43.32 44.78 42.64 41.14 43.77 42.09 40.36 37.74 36.23 36.68 37.08 37.93 37.14 35.64 34.74 32.37 32.30 33.47 34.20 34.33 35.48 31.40 30.66 30.25 29.65 28.21 27.46 27.26 26.90 25.31 24.34 23.30 23.62 23.66 22.21 18.26 16.68
39.41 39.56 36.57 37.17 40.52 41.18 41.99 42.68 42.85 44.18 41.83 39.34 39.55 38.93 38.32 37.66 36.87 37.00 36.26 35.70 34.54 32.75 32.47 34.15 34.30 33.79 33.67 33.08 28.76 29.27 28.80 28.85 27.69 27.81 27.32 25.45 24.80 23.50 23.14 23.08 22.87 22.89 21.49 18.77
40.67 38.66 35.56 35.70 41.37 40.72 41.87 42.32 41.94 39.85 38.95 39.44 38.75 38.32 38.81 37.58 36.26 36.36 35.44 34.79 33.04 31.91 33.08 34.60 33.60 32.71 30.79 28.95 27.66 28.20 29.19 28.05 26.89 26.99 26.25 22.49 20.86 20.65 22.84 21.40 21.76 25.66 25.06 25.78

GFSCGP_sfc_wetblb_006.txt.gz
Wetbulb
42.36 38.58 34.30 35.74 36.98 37.86 36.17 33.82 32.86 36.04 38.86 39.57 36.84 36.93 38.40 38.19 38.51 38.41 37.36 39.09 41.32 42.29 41.84 42.11 42.81 43.66 44.36 44.82 44.94 44.77 45.27 45.52 44.73 43.93 43.87 43.25 43.93 43.58 44.18 44.92 46.37 47.46 49.61 50.07
39.83 35.59 38.86 41.21 40.13 38.19 36.92 34.33 33.11 37.30 39.66 38.15 37.56 37.31 37.32 39.69 38.38 38.05 39.10 40.11 41.32 41.45 42.07 43.63 43.25 42.28 43.95 44.74 44.90 44.29 44.25 44.07 43.20 42.81 42.52 42.67 41.97 42.57 42.62 43.57 44.18 45.32 46.47 48.46
36.97 38.13 42.06 40.53 38.36 37.83 35.69 33.90 33.45 35.42 38.06 37.35 36.09 34.71 36.74 39.38 40.61 40.91 40.88 39.91 41.19 41.80 42.75 42.22 42.81 42.07 42.13 42.86 42.71 43.43 43.49 43.32 43.46 43.88 43.13 42.70 42.36 42.96 42.97 44.08 43.39 44.87 45.00 46.81
38.92 40.58 40.16 39.55 38.04 37.12 33.55 37.77 37.37 36.39 34.67 31.03 35.39 28.96 35.56 36.90 37.61 39.38 39.49 39.70 39.26 40.45 42.22 43.55 42.80 41.77 42.71 42.67 43.04 43.89 44.55 44.84 45.71 45.46 44.07 43.02 41.99 41.94 44.26 44.18 44.67 45.36 44.75 44.43
36.44 37.46 38.82 38.82 37.92 39.11 37.92 40.16 37.50 36.67 33.77 32.91 34.41 30.15 34.48 36.78 35.62 36.55 38.24 40.19 39.60 41.55 41.23 40.60 41.27 43.36 42.97 42.55 43.30 43.86 45.25 45.45 45.43 44.68 44.35 43.77 43.51 43.51 44.24 44.36 43.20 43.92 43.95 42.82
39.55 41.42 40.11 38.77 40.86 40.71 42.15 38.45 36.81 35.64 33.41 27.76 31.72 30.80 30.94 33.91 36.22 37.58 39.43 40.16 41.73 41.74 42.63 43.02 43.25 44.43 43.29 43.24 43.48 43.80 44.43 44.99 45.40 44.40 43.68 42.13 40.89 41.10 41.61 42.41 41.83 42.54 42.11 40.68
39.54 39.80 42.27 42.21 39.41 41.74 39.68 33.13 25.01 24.66 23.77 24.89 33.90 30.36 32.54 38.04 38.98 39.67 40.41 40.46 41.04 41.52 40.94 40.92 42.29 42.56 43.14 43.21 43.50 44.23 43.70 43.74 43.98 43.47 41.31 40.12 39.99 39.85 39.70 40.97 41.64 40.64 39.60 36.53
33.11 30.14 39.65 43.24 38.66 35.80 36.29 34.41 25.49 20.90 20.03 24.71 32.93 28.66 34.16 40.22 40.72 41.29 41.49 41.05 41.38 41.33 42.21 42.36 42.90 42.16 42.46 42.91 42.92 42.85 42.94 43.09 43.12 42.55 40.08 40.04 40.52 40.13 40.55 40.74 39.86 38.30 36.49 36.25
32.37 33.59 41.50 42.09 41.73 39.80 36.86 32.25 36.22 28.53 21.36 22.19 28.75 33.57 38.30 39.71 41.30 42.41 40.21 40.12 39.43 40.29 40.96 41.79 43.53 43.91 43.68 44.28 44.41 43.02 42.62 42.70 43.10 41.66 38.66 39.09 39.76 40.06 40.47 39.72 36.76 36.08 36.14 39.20
37.66 33.06 38.55 41.24 41.54 41.70 38.84 39.66 30.38 29.00 19.28 20.92 27.47 28.87 30.87 36.35 38.00 39.32 38.05 38.55 39.67 40.58 41.74 43.31 43.43 44.08 44.51 43.45 43.10 43.10 42.36 42.28 42.57 39.17 38.98 40.21 39.22 40.18 40.04 37.32 35.79 35.49 36.83 39.10
37.80 35.87 34.00 37.51 36.55 34.86 36.19 33.21 34.03 33.98 29.65 21.59 20.35 27.31 36.45 36.14 37.53 37.71 37.98 39.63 40.01 40.54 40.86 41.74 42.64 43.20 43.34 42.98 42.83 42.45 41.85 41.66 41.63 37.87 38.28 38.14 39.50 39.08 37.58 34.59 34.70 35.51 37.62 38.14
38.67 33.26 28.20 32.92 38.13 40.07 37.56 35.24 34.02 25.37 25.40 26.56 23.60 26.70 38.22 38.90 38.99 39.19 38.73 40.61 41.18 41.93 41.90 41.98 42.39 42.86 42.64 42.45 42.60 42.37 41.52 41.52 38.93 38.70 38.50 38.27 36.70 34.22 33.06 33.44 34.40 35.45 35.81 36.00
38.46 31.32 25.25 28.96 34.01 36.86 35.66 36.52 35.65 31.54 29.12 27.51 21.64 26.96 38.48 39.06 38.99 39.17 39.10 40.17 41.04 41.51 41.90 42.42 43.50 42.88 42.77 42.57 42.28 42.32 41.80 39.75 38.97 38.82 37.59 34.30 32.45 31.06 31.77 32.65 34.24 35.71 35.94 36.23
41.91 33.92 29.85 25.03 29.44 32.50 32.16 35.32 35.67 33.81 29.32 27.99 29.10 32.42 37.53 38.93 37.53 38.87 39.89 40.37 41.16 41.24 41.61 41.74 41.88 42.53 42.37 42.23 42.03 41.45 40.17 39.20 38.76 38.63 35.75 33.49 32.43 31.75 32.95 35.44 36.20 36.37 36.67 36.94
38.74 32.13 32.81 33.91 35.24 34.97 35.42 35.11 35.25 32.66 32.94 31.09 33.19 31.67 35.93 37.20 36.67 39.33 40.84 40.95 41.42 41.66 41.62 41.20 41.59 43.09 42.14 42.35 42.24 39.93 39.25 38.84 38.54 37.97 37.70 36.11 38.10 37.89 36.38 36.69 37.06 37.29 37.15 37.66
37.75 29.50 31.06 30.24 33.87 34.03 32.11 34.66 34.90 34.93 34.62 33.99 34.73 33.80 38.65 37.05 38.61 39.61 40.57 41.13 40.62 40.11 40.34 41.32 40.64 40.71 41.47 41.63 39.25 38.65 38.01 38.14 38.83 37.77 37.40 38.99 40.40 39.95 38.31 38.45 37.90 37.74 37.18 37.31
34.76 29.01 28.51 23.98 30.95 29.83 25.11 29.92 32.44 33.25 34.46 33.65 29.66 34.75 35.11 36.64 38.73 39.21 40.16 40.17 39.74 38.98 39.27 37.72 38.68 40.31 40.87 39.19 37.82 37.04 37.43 37.36 37.35 37.87 35.65 35.00 36.13 37.19 36.89 37.29 36.77 35.26 32.18 29.43
31.40 28.15 27.71 24.35 30.66 23.21 33.01 36.40 36.71 34.10 34.91 35.94 34.47 34.96 37.07 38.65 39.49 39.81 40.94 39.53 37.89 38.06 39.04 39.38 39.70 40.03 38.23 38.21 36.84 35.07 33.95 33.71 32.88 32.27 33.15 34.42 33.80 31.68 30.60 29.72 28.61 28.02 27.63 26.80
35.23 31.79 28.47 29.00 28.19 29.53 34.61 36.01 32.49 31.68 31.46 35.46 34.49 37.38 38.64 39.41 37.77 37.10 39.37 39.24 39.74 39.72 39.92 39.72 39.62 38.17 36.37 35.58 32.47 30.92 30.50 30.53 31.45 32.87 33.00 32.71 30.14 28.99 28.58 27.17 25.99 26.05 25.48 25.39
34.66 29.17 26.32 28.65 25.68 23.83 31.22 34.37 36.89 37.75 28.31 36.86 39.55 40.02 40.10 38.17 33.33 37.92 39.96 40.45 39.86 39.61 40.37 39.19 37.79 36.41 35.34 35.84 33.36 33.02 31.33 30.24 29.55 31.12 29.91 29.28 28.91 27.63 25.88 24.75 24.66 25.28 24.42 25.77
26.67 29.29 31.00 30.80 27.51 28.27 34.12 36.27 38.82 28.95 30.29 38.61 38.68 41.06 38.25 35.51 38.25 37.93 38.61 38.23 38.51 39.54 39.07 38.34 36.29 34.12 35.23 35.83 32.87 30.29 29.06 28.25 30.12 29.86 29.06 28.41 27.50 26.49 24.90 24.13 24.15 23.41 23.41 23.23
26.76 23.40 21.55 26.36 25.75 22.34 36.29 37.66 32.97 37.11 39.86 40.88 40.69 39.23 40.23 38.99 38.29 37.55 37.56 37.54 37.40 37.66 36.81 36.45 34.08 33.33 35.26 35.16 30.50 29.89 28.77 29.45 29.97 28.69 27.24 26.70 26.63 26.12 25.35 23.55 23.21 23.07 21.66 19.43
28.90 31.91 30.71 33.20 29.69 35.92 39.61 40.91 41.88 41.93 40.55 39.36 38.29 39.56 38.22 36.25 36.00 36.39 35.58 36.45 36.73 37.17 35.85 34.36 32.36 33.13 34.47 33.41 32.22 32.11 33.17 30.05 28.79 27.61 26.33 26.24 26.43 25.74 24.90 23.20 22.25 21.81 20.57 17.17
36.47 39.10 34.64 34.57 36.83 39.97 42.51 43.15 42.74 41.65 41.53 40.00 39.64 38.48 38.27 36.85 37.16 35.72 35.67 35.49 35.68 34.99 33.17 31.82 32.25 33.18 32.89 33.81 33.82 29.78 28.66 28.45 27.74 27.08 26.47 26.23 25.05 24.57 23.17 23.48 23.40 22.11 17.90 16.38
37.83 38.88 36.54 35.83 40.44 40.67 40.59 40.49 40.83 40.34 40.69 40.06 39.87 39.25 37.73 36.03 34.99 34.88 34.18 33.64 34.19 33.49 32.24 32.15 32.86 32.64 32.28 32.18 30.77 28.74 27.66 27.80 26.69 27.21 27.23 25.98 24.87 23.60 23.58 23.45 22.16 22.53 21.12 18.59
39.06 37.31 33.36 35.17 40.40 41.28 42.00 41.87 42.37 40.08 39.07 39.41 38.58 36.61 37.02 36.06 33.82 34.20 33.91 33.74 33.06 32.80 32.23 31.98 32.99 31.63 32.04 30.52 28.75 27.93 27.15 26.89 26.14 26.50 25.96 21.63 20.83 19.93 22.37 21.55 21.03 25.09 24.20 25.22

GFSCGP_sfc_wetblb_009.txt.gz
Wetbulb
45.97 43.91 40.56 41.50 42.48 42.26 41.47 39.74 39.24 41.53 43.45 44.08 42.19 42.61 43.49 44.30 44.43 43.82 44.61 45.86 47.27 49.03 48.64 49.28 49.70 50.62 51.70 53.39 54.86 55.70 55.20 54.96 54.43 53.24 52.72 53.31 52.82 52.88 53.36 53.61 53.55 53.61 53.92 54.60
44.21 40.53 42.92 43.14 42.70 41.98 41.31 39.71 38.95 41.73 42.89 43.50 42.96 42.56 42.82 44.42 43.35 44.08 45.81 46.53 47.78 48.35 48.59 48.50 49.74 50.84 51.67 53.04 52.89 51.00 50.46 50.82 50.72 51.40 51.81 51.81 51.43 52.14 51.80 52.29 53.23 53.55 52.98 53.01
41.19 41.90 43.96 43.14 41.65 41.55 40.78 39.61 39.01 39.34 41.96 42.82 41.67 41.33 42.23 43.74 44.68 45.35 46.13 46.81 47.57 48.97 49.20 49.24 49.69 50.31 50.52 49.99 49.66 49.82 50.26 51.20 51.73 51.74 52.04 52.44 52.51 52.48 52.18 51.99 52.03 52.53 52.76 52.47
41.64 43.43 43.02 42.66 41.16 41.46 38.49 41.79 41.56 39.98 39.87 38.06 40.86 36.48 41.00 41.65 42.83 44.03 45.22 46.43 47.76 48.39 49.19 49.39 49.50 49.56 49.59 49.56 51.35 51.76 51.84 51.92 51.50 51.73 50.67 49.75 48.59 47.76 49.55 49.88 50.37 50.78 51.86 51.61
40.41 42.20 42.10 41.78 41.37 43.07 41.52 42.68 41.15 40.70 39.80 39.11 39.84 38.30 40.46 42.02 41.07 42.63 45.05 45.63 47.21 47.49 47.92 47.48 48.64 48.99 49.29 50.27 50.59 51.17 51.27 51.09 50.94 50.29 49.20 49.06 48.57 48.84 48.93 48.86 48.62 48.82 49.91 50.41
42.68 45.67 44.14 43.42 43.98 44.15 44.12 41.91 40.00 39.49 38.87 34.78 36.68 36.78 37.93 40.82 41.29 42.88 45.10 46.39 46.37 46.70 47.04 48.08 48.85 49.36 49.62 50.65 50.85 51.20 50.92 50.70 50.94 50.40 48.72 48.33 47.77 47.58 47.55 48.02 47.60 48.20 48.62 48.13
41.91 42.60 45.25 44.84 42.95 45.11 43.52 38.50 34.02 33.79 33.56 33.12 37.10 36.02 38.12 42.05 42.54 43.76 44.40 45.03 46.19 47.24 47.38 47.93 48.28 48.63 49.19 49.74 49.97 50.25 50.08 49.68 50.02 49.78 47.68 47.32 47.87 48.02 47.17 46.65 46.53 46.35 46.29 45.90
36.50 35.49 42.41 45.15 42.74 40.45 40.50 39.01 33.69 26.84 29.18 31.83 36.26 33.85 38.22 43.30 45.15 45.25 45.07 45.02 45.69 46.22 47.24 47.87 47.77 48.04 48.62 49.18 49.39 49.65 49.35 49.31 49.63 49.70 47.64 47.24 47.75 46.79 45.74 46.14 45.92 45.57 44.06 44.12
36.76 36.67 43.87 44.41 44.49 43.57 40.47 37.72 39.74 32.36 26.12 31.33 34.63 38.26 41.78 43.78 44.22 44.58 43.52 44.68 44.94 45.82 47.00 47.32 48.25 48.87 49.13 49.23 49.40 48.89 48.62 48.77 49.15 48.85 46.76 46.49 45.96 45.49 45.06 44.97 44.14 43.20 42.80 44.14
40.68 36.01 41.13 43.17 44.78 44.55 42.57 42.55 36.01 35.92 28.15 25.91 32.77 33.46 36.65 39.11 41.32 41.85 42.70 43.98 45.40 46.84 47.74 48.57 48.95 48.98 49.01 49.39 49.13 49.33 49.35 47.90 47.93 47.53 45.33 45.06 44.97 44.62 43.32 41.57 41.09 41.56 42.77 44.63
41.25 38.95 38.02 40.66 39.80 38.85 40.41 38.32 37.48 37.35 34.60 30.24 27.38 33.31 41.36 40.96 42.18 42.37 42.79 43.88 45.23 46.72 47.67 48.19 48.42 48.90 48.51 48.74 48.92 48.64 48.43 47.28 46.91 44.41 44.20 44.18 43.31 41.24 39.60 39.73 40.56 41.24 43.10 42.70
41.91 37.44 33.76 36.83 41.16 43.08 41.43 38.46 37.14 32.31 29.64 32.60 30.93 31.56 42.09 43.21 43.81 43.46 43.89 44.25 45.81 46.77 47.30 47.63 47.73 47.94 48.10 48.04 48.10 47.89 47.48 45.82 44.06 43.79 43.91 42.45 40.18 38.59 38.68 39.52 40.17 41.15 40.53 40.71
42.36 36.25 30.74 32.52 37.48 40.33 39.25 39.69 37.20 35.63 34.29 32.10 29.70 32.53 41.64 42.43 42.20 44.03 44.12 45.00 46.21 46.44 46.93 47.20 47.14 46.85 46.72 46.26 46.33 46.50 45.35 43.78 43.92 43.48 42.49 40.31 39.23 38.48 40.24 40.65 41.17 41.54 41.25 41.16
43.61 36.84 33.59 30.27 33.03 36.61 34.85 37.23 37.76 37.77 33.30 32.66 33.37 35.70 40.36 42.29 42.28 42.85 43.15 45.01 46.02 45.95 45.98 46.01 45.74 44.74 44.59 44.85 44.80 43.88 43.43 43.49 42.64 42.62 41.55 40.21 39.62 40.03 40.42 40.83 40.98 41.02 40.75 40.28
42.34 36.35 36.03 36.36 37.56 37.10 36.79 36.46 37.11 35.76 36.93 32.85 35.76 36.08 39.83 42.07 42.16 42.53 44.66 44.73 44.47 44.90 44.74 43.75 42.32 41.82 43.12 43.45 43.61 42.86 42.78 42.18 42.59 41.73 41.29 41.03 41.49 41.41 39.72 39.28 39.63 40.35 40.21 39.87
39.84 35.15 35.51 33.04 35.35 34.98 33.24 36.06 36.45 36.93 37.21 36.54 37.40 36.69 43.13 43.41 42.78 43.24 43.12 43.15 42.94 42.84 40.84 40.53 40.63 40.50 41.48 42.42 41.62 40.80 41.01 40.94 41.68 40.65 37.97 37.63 38.02 38.85 38.70 38.76 38.81 38.82 37.48 35.57
38.44 35.23 32.54 29.43 32.62 32.52 29.90 33.03 35.29 36.55 37.82 37.65 33.63 38.82 40.27 40.59 41.55 42.90 43.10 42.52 40.16 38.44 38.92 39.07 40.13 41.08 41.77 41.85 40.48 39.92 39.90 39.88 39.53 37.44 37.04 37.54 38.09 36.35 35.58 35.19 34.80 33.97 33.41 33.45
33.80 33.17 32.41 31.17 31.67 25.68 36.69 39.58 39.65 37.51 38.45 39.38 37.90 38.80 40.38 41.96 43.21 43.32 41.56 39.67 38.69 38.81 38.46 39.25 40.51 41.68 42.58 41.44 40.17 38.93 38.47 37.63 36.93 36.55 37.28 37.56 35.69 33.96 34.02 33.60 32.61 32.22 32.39 31.58
38.14 34.74 31.35 29.52 29.48 32.55 36.49 38.91 37.29 35.69 36.09 39.20 39.62 40.77 42.01 43.64 43.03 40.26 40.02 39.97 38.20 37.78 40.18 40.55 42.38 42.35 41.15 39.56 39.86 36.63 36.21 35.99 36.02 36.26 35.81 34.45 33.81 32.90 32.44 31.37 31.07 31.31 30.74 30.52
36.14 33.77 34.44 30.95 28.19 26.19 35.06 37.99 40.58 40.36 32.66 41.07 41.61 41.85 42.02 41.57 35.30 39.10 38.04 39.21 39.73 40.18 40.97 41.10 42.58 41.20 38.96 39.50 39.75 37.70 37.25 36.22 35.29 34.53 33.69 33.54 32.68 31.98 31.23 30.69 30.32 30.63 30.32 29.38
30.29 31.40 30.28 30.97 29.21 32.74 37.73 39.02 40.46 31.64 34.15 40.07 41.56 42.24 40.57 37.66 37.52 38.49 39.57 39.34 40.46 40.57 39.79 41.64 41.61 38.72 38.59 39.69 39.28 36.62 34.61 33.79 35.55 34.29 33.24 32.49 32.00 31.46 31.40 30.11 30.42 29.60 29.14 28.15
31.60 30.80 28.35 28.64 27.79 25.83 38.96 39.38 36.28 40.58 42.26 41.94 42.00 41.85 38.67 39.54 38.55 38.00 39.37 38.84 38.75 38.88 39.53 40.51 39.50 38.09 38.32 39.15 37.70 35.41 35.16 37.69 37.68 33.89 32.52 32.00 31.83 31.14 30.08 29.64 29.65 28.98 28.45 27.29
32.33 35.37 33.31 33.76 34.00 39.41 41.07 42.54 44.36 42.52 41.68 40.51 40.51 39.73 38.70 37.06 36.79 38.20 38.36 38.34 38.72 38.77 39.08 39.57 38.25 37.17 37.76 38.93 37.93 35.72 37.70 37.56 35.38 32.86 32.15 31.71 31.43 30.75 30.34 29.10 28.80 27.88 27.85 26.69
37.35 39.23 37.04 35.50 39.86 40.99 42.73 44.41 43.39 42.41 40.54 40.88 41.18 39.83 39.45 37.94 38.25 37.91 38.07 38.07 37.38 37.90 37.48 37.79 36.65 36.43 36.84 38.84 36.98 36.40 36.17 34.39 32.56 31.78 31.81 31.59 30.83 30.29 30.74 29.53 28.77 27.37 27.20 25.72
39.99 39.95 37.31 36.32 40.81 41.83 41.88 43.28 42.80 41.32 41.80 40.44 40.83 40.15 39.43 38.71 37.97 37.67 37.11 36.55 36.38 36.54 36.48 36.58 35.91 36.08 36.94 37.17 36.22 34.65 33.25 32.50 31.33 31.31 31.27 30.78 30.31 29.23 28.60 28.92 27.78 27.23 27.53 25.52
40.85 39.49 36.93 36.26 42.26 41.33 42.02 43.70 42.71 40.18 39.37 39.58 38.98 38.04 38.18 37.88 36.99 36.83 35.83 35.85 35.66 35.27 35.76 35.17 34.96 34.68 33.21 33.08 32.08 31.92 31.48 30.81 30.28 29.68 30.02 29.96 28.94 28.45 27.57 26.99 26.52 26.32 25.20 24.87

GFSCGP_sfc_wetblb_012.txt.gz
Wetbulb
51.11 49.57 46.10 46.69 47.72 46.78 45.55 44.14 43.42 45.62 47.88 47.72 47.32 47.17 47.95 49.81 50.49 50.50 50.89 51.52 53.14 55.42 55.47 55.88 56.68 57.53 57.93 59.86 60.13 60.62 60.35 57.50 59.50 59.12 57.05 57.55 57.16 57.47 58.10 58.67 58.37 58.42 58.27 57.93
48.74 45.34 47.04 48.09 47.43 45.79 45.35 43.72 43.60 45.94 46.98 47.36 47.61 46.17 47.87 49.35 49.32 50.84 51.37 52.21 53.11 53.67 54.34 55.01 56.51 57.33 57.93 57.37 57.02 56.38 55.79 55.98 56.36 57.46 57.52 57.45 57.02 57.71 57.62 57.94 57.60 57.18 56.15 56.12
46.12 45.56 47.06 47.11 47.23 45.85 45.54 43.82 43.94 43.62 46.86 47.97 46.93 45.75 46.15 47.96 49.68 50.52 51.73 52.69 53.22 53.37 53.27 53.85 54.47 55.41 56.20 56.19 56.31 55.88 56.50 56.62 56.75 56.75 57.36 57.36 57.40 56.96 55.54 54.37 54.51 54.65 54.70 54.44
46.42 47.80 46.99 46.90 45.42 46.79 43.04 46.23 45.94 44.64 44.29 42.22 47.23 41.34 44.71 46.26 47.25 48.90 50.32 52.08 52.28 52.63 53.05 53.28 53.78 54.37 55.64 56.09 56.87 56.37 56.36 56.02 55.83 55.98 54.98 54.35 53.43 52.11 53.23 53.49 53.68 53.54 53.97 53.40
43.77 46.28 46.42 45.54 45.00 47.41 45.01 47.38 45.74 45.25 44.77 44.21 44.26 42.73 44.35 46.76 45.23 46.83 49.22 50.33 51.78 52.34 52.94 53.05 53.54 54.38 55.12 55.89 56.17 56.60 55.96 55.47 55.18 54.67 54.35 53.95 53.16 53.19 53.37 53.19 52.36 52.23 52.31 52.34
47.13 49.56 49.09 47.77 47.63 47.39 48.41 45.90 45.68 46.17 45.99 40.00 42.29 42.26 42.91 45.80 44.76 46.69 48.96 50.20 51.22 52.31 52.18 53.12 53.85 54.47 54.90 56.15 56.16 55.76 55.04 54.30 54.76 54.57 53.24 52.49 52.28 51.87 51.41 50.95 49.89 49.77 50.13 50.36
46.05 46.46 49.12 49.60 46.52 48.92 48.47 44.62 40.40 38.12 38.96 38.08 42.31 41.30 42.62 45.39 47.24 48.25 48.46 50.20 51.64 52.81 52.90 52.73 52.75 53.52 54.07 54.54 55.10 54.73 54.50 53.52 53.85 53.45 52.60 52.04 51.82 51.61 50.52 49.81 48.86 48.10 47.97 48.42
42.20 40.07 46.52 49.00 46.47 44.64 44.97 44.56 39.48 30.63 34.91 37.83 42.05 38.62 42.94 47.31 49.16 49.52 50.00 50.19 50.88 51.15 52.12 52.23 52.48 53.36 53.71 53.67 54.05 54.28 53.94 53.04 52.82 52.64 52.10 52.06 52.17 51.38 49.63 48.77 47.75 46.99 47.37 47.96
42.03 40.76 47.49 47.43 48.44 47.27 44.36 42.26 44.49 37.95 33.24 36.68 41.44 42.59 46.02 47.51 47.76 48.38 48.56 49.59 49.96 50.79 51.01 51.68 52.42 53.15 53.55 53.48 53.49 53.72 53.62 53.61 53.22 52.45 52.24 51.34 50.90 49.11 47.83 47.07 46.81 46.79 47.38 47.29
44.54 39.97 44.72 46.36 48.41 48.60 46.61 46.65 40.82 42.21 32.56 28.99 37.43 38.69 40.72 44.40 45.56 46.41 47.24 48.60 49.90 50.96 51.37 52.12 52.70 52.86 53.07 53.77 54.13 53.93 53.54 52.73 52.52 52.02 50.78 49.61 48.81 47.70 46.26 45.90 45.56 46.13 46.88 47.53
45.67 43.25 41.91 44.85 44.26 43.58 45.18 43.84 42.29 42.21 40.29 33.45 31.32 36.80 46.54 45.16 46.31 46.10 47.57 48.58 49.49 50.30 51.14 51.44 52.02 52.32 53.03 53.15 52.79 52.26 52.10 51.21 50.43 49.88 49.11 48.13 46.90 45.58 45.45 45.14 44.96 45.22 45.52 44.60
46.12 43.83 39.04 40.02 45.00 46.78 45.75 43.07 42.15 37.71 32.15 37.68 35.77 35.92 46.63 47.30 47.68 47.49 48.02 48.26 49.85 50.59 51.16 51.57 51.88 51.80 51.77 51.27 50.68 49.99 49.85 48.97 48.64 48.19 47.44 46.47 45.43 45.18 44.76 44.45 44.40 44.69 43.97 44.36
46.73 41.95 36.23 37.83 42.37 45.20 43.16 43.69 43.09 41.21 39.65 35.33 33.57 37.29 46.10 47.26 47.08 48.38 48.04 48.56 49.18 49.96 50.16 50.87 51.17 50.54 49.54 48.85 48.03 48.21 47.88 47.62 47.46 46.84 46.13 45.49 45.01 44.44 43.41 43.68 43.24 43.58 42.94 42.41
47.04 43.15 38.92 35.09 37.55 41.11 38.45 40.37 42.22 41.31 36.08 36.31 37.31 39.41 43.73 45.50 45.74 47.25 47.78 48.34 49.22 49.22 49.30 49.69 49.26 48.62 46.70 46.81 46.57 46.97 46.85 47.16 46.00 45.69 45.04 44.50 43.83 43.17 43.36 42.96 42.60 42.50 42.31 41.39
47.27 38.85 41.20 41.44 41.99 41.84 40.61 39.97 40.66 39.27 40.08 35.78 38.82 39.55 43.16 45.21 45.62 46.57 47.45 48.25 47.96 47.64 47.26 46.41 46.06 44.76 45.49 45.13 46.23 46.63 45.59 44.91 45.30 44.78 44.24 43.02 42.74 42.64 42.13 41.67 41.37 41.22 40.89 39.96
45.68 39.54 38.86 36.49 39.94 40.54 38.22 40.63 41.14 40.89 41.25 40.89 41.08 40.22 45.53 46.08 46.85 46.39 46.41 45.81 45.13 45.08 44.01 41.53 41.87 43.18 43.50 44.71 45.43 43.81 43.64 44.18 44.93 43.86 42.41 41.71 41.59 41.33 40.59 40.06 39.55 38.93 38.03 37.89
42.86 41.16 37.38 34.35 37.33 37.37 34.34 38.78 40.11 40.96 42.15 41.67 37.41 42.24 44.99 44.51 44.74 45.10 45.73 45.28 42.76 41.05 39.86 40.82 42.27 43.01 44.25 45.68 44.22 43.13 43.29 43.87 43.35 42.49 41.53 40.77 40.74 39.73 38.97 38.35 37.39 36.81 36.66 37.04
39.30 39.77 37.03 35.01 35.18 29.96 39.44 44.27 43.65 41.42 42.64 44.04 43.54 43.35 44.68 45.35 46.00 47.49 45.01 42.75 38.98 40.09 41.13 42.19 43.21 43.43 44.98 45.72 43.95 44.07 43.57 42.78 41.99 41.29 40.52 40.40 39.13 37.84 37.59 36.56 36.04 36.13 36.38 35.69
44.40 40.73 34.41 32.22 31.90 36.54 39.04 41.06 40.64 38.93 39.45 43.65 42.79 44.48 45.77 46.27 46.55 44.84 41.06 40.07 41.07 42.73 43.26 43.47 44.15 44.66 45.77 45.04 44.38 43.54 42.91 42.32 41.59 39.67 38.95 39.08 38.11 36.82 36.02 35.36 35.39 35.80 35.32 34.85
40.32 40.78 40.14 34.18 30.10 28.67 39.17 42.42 44.08 43.86 36.07 44.18 43.93 43.07 43.11 44.43 36.48 37.84 40.65 43.37 42.96 43.50 43.51 43.16 43.65 44.58 45.30 45.20 44.58 43.07 42.26 41.27 39.59 39.79 39.46 39.16 38.16 36.35 35.22 35.43 35.46 35.64 35.16 33.84
34.43 34.55 33.85 33.53 32.00 35.97 42.77 43.27 44.71 33.72 37.40 45.27 42.91 42.27 41.36 37.80 38.64 41.47 42.82 42.44 43.16 43.16 42.94 43.26 43.17 43.21 44.13 44.67 43.76 42.11 41.42 39.52 39.79 40.24 39.65 38.72 37.87 36.04 35.83 35.79 36.11 35.27 34.27 32.78
37.10 36.31 32.93 33.92 30.40 28.94 43.63 43.25 37.85 43.21 45.36 42.82 42.20 41.65 40.18 40.58 41.15 41.40 41.58 41.64 41.50 41.81 42.16 42.51 41.57 41.50 42.78 43.36 42.50 41.42 40.23 40.79 40.85 40.65 39.56 37.78 36.98 36.03 35.29 35.53 35.53 34.79 33.49 31.04
36.50 40.27 38.35 37.81 38.98 45.74 47.24 46.37 47.28 46.38 44.63 41.27 42.01 43.19 41.98 40.48 40.51 40.26 39.95 40.53 41.40 41.85 41.77 41.77 40.79 40.31 41.26 42.08 42.29 40.77 40.75 40.91 39.43 37.69 37.24 36.83 36.42 35.58 35.80 34.89 34.12 32.45 31.66 28.77
42.86 44.21 40.18 39.63 43.02 44.96 46.54 48.13 47.41 44.87 42.14 43.03 43.09 42.06 40.83 39.90 39.94 39.36 40.22 40.56 40.81 40.90 40.17 40.50 39.53 38.53 38.48 40.58 40.13 39.45 39.27 38.60 37.54 37.25 36.20 36.47 35.83 34.69 35.53 34.85 32.73 31.42 29.03 27.43
44.29 44.20 41.57 40.86 43.93 45.12 46.25 45.72 45.41 43.26 42.24 41.37 41.81 41.41 40.55 39.21 38.81 39.35 39.06 39.30 39.23 39.25 39.47 39.28 38.04 37.72 37.46 38.67 38.04 38.49 36.97 36.26 35.37 34.93 35.30 34.89 34.47 34.19 33.64 33.12 32.00 30.42 29.56 27.18
45.47 43.21 39.12 37.61 44.24 42.79 43.52 42.93 43.98 42.46 40.92 40.71 40.00 38.96 39.52 39.50 38.76 38.97 37.97 38.43 38.43 38.37 38.87 38.04 38.03 37.40 37.27 37.08 36.71 35.61 35.48 34.49 33.20 32.54 33.46 34.07 33.62 33.42 32.16 31.53 30.76 27.13 25.74 24.63

GFSCGP_sfc_wetblb_015.txt.gz
Wetbulb
52.89 49.96 48.32 48.72 49.08 48.17 46.79 45.40 45.05 47.37 49.44 48.06 47.75 48.55 49.53 51.78 52.62 53.06 53.86 53.82 54.27 55.77 59.71 59.25 59.10 59.95 61.12 62.96 63.36 64.18 63.09 60.32 60.58 59.99 58.31 58.28 57.89 58.64 59.24 59.80 59.71 59.74 59.03 58.08
49.35 47.96 49.24 49.73 48.88 47.59 47.09 45.71 45.71 47.66 48.67 48.27 48.73 48.15 49.66 51.04 51.75 53.00 53.15 54.25 55.48 55.92 56.01 57.12 58.47 59.36 59.38 59.51 59.67 59.24 58.50 58.31 58.40 58.55 58.51 58.90 58.37 58.61 58.91 59.33 58.66 58.22 57.29 56.57
47.92 48.31 49.17 48.85 47.99 47.18 47.60 45.95 46.32 45.66 48.58 49.73 48.27 47.08 47.77 49.97 51.69 52.67 53.56 54.17 54.53 54.51 54.37 55.45 56.50 57.74 58.72 58.30 58.32 57.99 58.13 58.25 58.13 58.14 58.39 58.04 58.15 58.07 57.14 57.08 56.52 56.76 56.53 55.65
48.27 50.11 48.37 47.84 47.06 48.45 45.44 48.19 47.41 46.67 45.81 43.40 49.10 43.16 47.23 48.69 49.17 50.74 52.21 53.23 53.71 53.91 54.74 55.45 56.26 56.76 57.52 57.85 58.38 58.15 57.64 57.39 57.33 57.56 56.73 56.31 55.15 54.16 55.38 55.59 55.77 55.21 55.02 53.94
46.68 47.48 47.73 47.02 47.18 48.96 46.82 49.64 47.96 47.69 46.57 46.24 45.85 43.20 45.71 48.72 47.18 48.89 51.09 52.40 53.48 54.23 55.12 54.93 55.58 56.35 57.16 57.99 58.24 58.10 57.30 57.03 57.19 57.08 56.14 55.05 54.30 54.59 54.89 54.52 53.85 53.04 53.11 52.84
48.91 51.74 50.76 49.50 49.70 49.34 50.65 48.92 48.20 48.64 47.11 40.98 45.08 44.10 44.97 46.84 48.04 48.58 50.66 51.82 53.01 53.83 54.43 55.07 55.74 56.30 56.69 57.77 58.01 57.86 57.12 56.72 56.65 56.69 55.99 54.53 53.53 53.08 52.19 52.00 50.87 50.92 50.85 50.65
47.98 48.17 50.90 51.13 48.80 51.01 50.07 47.24 41.96 39.83 40.14 39.73 45.23 42.47 45.25 48.13 49.52 50.31 50.24 51.92 53.48 54.57 54.74 54.45 54.71 55.36 55.57 55.88 56.52 57.07 56.55 56.08 56.35 55.27 55.03 54.76 53.50 53.06 51.78 50.84 49.89 48.48 47.93 48.50
44.26 42.13 47.93 50.24 48.46 46.43 46.73 46.79 41.23 32.90 36.27 39.53 44.76 39.54 45.00 50.01 51.16 51.45 51.84 52.08 52.83 53.17 53.86 53.83 54.37 54.95 55.50 55.54 56.22 56.20 55.77 55.24 55.90 55.66 54.87 54.62 53.63 52.04 50.79 49.58 47.78 46.93 47.04 48.11
44.07 43.26 49.26 49.53 50.75 49.71 46.54 43.88 46.82 40.87 38.75 38.24 42.13 44.91 48.54 49.98 49.57 50.27 50.32 51.36 51.70 52.37 52.70 53.22 54.28 54.81 54.90 55.14 55.48 55.45 54.88 54.38 54.43 54.58 54.15 52.88 51.78 50.37 48.77 47.63 47.20 47.25 47.48 47.46
46.65 42.47 46.67 48.36 50.25 50.29 48.38 48.71 42.67 43.88 33.12 30.66 38.88 39.90 42.10 45.94 47.63 48.69 49.34 50.07 51.28 52.24 52.93 53.64 53.87 54.40 54.50 54.85 55.06 55.04 54.26 53.48 52.93 51.74 51.94 50.84 50.16 49.21 47.48 46.91 46.27 46.19 46.61 46.77
47.67 44.93 44.56 46.81 45.87 45.13 46.75 45.98 44.36 43.63 41.27 34.60 32.70 38.21 47.26 46.64 47.75 47.79 48.97 50.26 51.10 52.15 52.66 53.00 53.41 53.80 54.10 54.52 53.99 53.17 52.53 51.90 51.19 50.69 49.96 49.15 48.32 47.42 46.81 46.11 46.12 45.23 45.27 44.76
47.88 45.55 40.95 42.35 47.33 49.13 47.65 45.27 44.27 38.94 35.66 39.22 37.37 37.23 48.39 48.45 48.55 48.84 49.29 50.49 51.22 52.10 52.24 51.77 51.59 51.98 52.16 52.27 52.22 51.36 50.78 49.51 49.36 49.19 48.29 47.37 47.10 46.83 46.20 45.38 43.92 44.04 43.42 44.45
48.42 44.47 38.49 40.52 44.91 47.32 44.45 45.39 44.44 42.73 41.09 36.21 35.31 37.66 47.79 48.81 48.76 49.56 49.15 50.21 50.59 50.16 49.93 50.50 51.03 50.96 49.90 50.41 50.02 48.75 48.90 48.55 48.55 47.37 46.39 46.19 46.08 45.51 43.62 43.30 43.01 42.88 42.80 42.43
48.09 44.96 40.39 36.98 39.87 43.04 40.68 42.51 43.69 42.84 37.32 37.88 38.63 40.95 45.23 46.46 47.12 48.18 48.92 50.20 49.61 49.40 48.79 48.86 49.41 49.28 49.48 48.20 47.49 47.72 47.89 47.90 46.70 46.00 45.52 45.11 45.02 43.91 42.81 43.25 42.79 41.99 41.93 40.80
48.39 40.45 43.15 43.46 43.37 43.13 42.08 41.73 42.41 40.85 41.52 37.52 40.30 41.14 44.02 46.23 46.75 47.77 49.19 49.25 48.31 48.35 48.32 47.71 47.61 46.91 46.38 46.25 46.58 47.15 46.89 46.31 45.96 45.00 44.74 44.45 44.32 43.18 42.24 42.10 41.26 40.89 40.30 39.47
47.38 41.16 41.33 38.90 42.83 42.33 40.14 42.07 42.68 42.63 42.57 42.39 42.30 41.17 47.58 48.38 48.83 47.96 47.52 47.58 46.51 46.10 45.93 45.85 44.71 45.16 44.85 45.15 45.62 46.44 45.77 45.68 45.22 44.25 43.58 43.90 42.79 41.57 41.58 40.61 39.92 39.27 38.75 38.44
44.54 43.13 38.96 35.66 40.73 39.18 35.89 40.78 41.54 42.55 43.90 43.27 38.41 42.98 47.11 46.14 45.61 44.66 45.60 46.31 45.88 43.38 42.63 44.94 44.42 44.92 45.20 45.38 46.17 46.05 45.20 45.79 44.45 43.61 43.37 42.79 41.95 40.94 40.19 39.29 38.68 37.96 37.63 38.01
43.54 41.59 40.43 36.55 35.89 31.04 42.29 46.65 45.57 43.32 44.11 45.49 45.32 45.88 46.82 44.96 45.83 45.79 46.89 45.78 43.01 43.37 44.12 44.90 45.09 44.74 45.08 45.70 46.05 46.70 45.90 44.88 43.98 43.13 42.71 42.27 41.46 40.45 39.12 38.81 37.65 37.58 37.48 36.94
47.51 43.51 36.72 34.26 34.20 37.91 41.16 42.87 42.45 40.89 40.72 46.23 45.13 45.90 46.74 46.91 46.66 44.14 44.78 44.90 44.54 44.35 45.17 45.07 45.26 44.85 44.72 45.02 45.62 45.15 44.07 43.62 43.17 42.29 41.27 41.01 40.94 39.16 38.12 37.55 37.04 37.21 36.79 36.24
44.41 44.84 41.31 36.29 31.30 29.78 40.53 45.13 46.58 46.23 36.96 46.04 46.37 44.97 44.28 44.13 38.58 41.24 45.56 45.65 45.30 45.53 44.84 44.28 44.74 44.59 44.25 44.13 44.41 43.26 42.51 42.13 41.85 42.08 41.26 41.31 40.16 38.73 37.58 37.37 36.95 37.31 36.79 35.57
36.25 36.84 36.63 35.10 33.84 37.09 44.43 45.53 46.86 34.75 38.49 46.79 46.57 45.13 42.09 39.92 41.73 43.83 45.01 44.81 44.97 44.41 43.76 44.73 44.25 43.26 43.33 43.53 42.99 41.45 41.48 41.03 42.07 42.09 41.74 41.22 40.34 39.01 38.09 37.38 37.36 36.70 36.11 35.36
37.09 36.16 33.43 36.25 32.58 29.98 46.30 44.96 39.07 44.52 48.06 46.74 43.95 42.08 41.67 43.54 43.31 43.58 43.47 42.54 42.70 43.03 43.43 43.56 42.50 41.99 42.55 42.35 41.37 40.22 39.99 41.86 42.56 42.17 40.26 38.67 38.71 37.93 37.41 36.84 36.65 36.06 34.91 33.37
38.38 42.30 40.32 40.45 40.12 47.33 47.93 46.42 48.38 48.97 46.97 44.68 41.86 43.39 43.80 42.88 42.56 42.34 41.44 41.94 42.30 42.48 41.99 42.13 41.16 40.72 41.04 41.13 40.59 38.74 39.80 40.76 39.91 39.46 38.12 38.62 38.03 37.42 37.44 36.24 35.38 34.12 33.75 31.10
45.14 47.80 42.56 42.30 44.51 45.27 46.39 48.11 48.13 47.99 46.07 44.55 43.21 44.17 43.31 41.99 41.60 40.74 41.30 41.32 40.90 40.74 40.19 40.58 40.12 39.34 39.01 40.10 39.93 39.50 39.07 38.26 37.44 36.25 36.46 36.74 36.30 35.93 36.48 36.01 34.99 33.15 31.87 28.89
45.95 46.51 43.85 43.23 46.04 45.82 47.69 46.82 46.19 46.25 45.28 42.90 45.28 43.75 43.03 41.44 40.70 41.09 40.31 39.76 39.79 39.65 39.90 39.97 39.34 38.89 38.82 39.63 39.17 38.88 37.79 36.79 35.56 35.08 35.10 35.05 35.57 35.41 34.93 34.54 33.74 32.46 31.88 28.64
46.14 44.66 42.81 40.30 45.89 44.46 44.66 45.66 46.55 44.88 44.13 43.55 42.56 41.64 42.26 42.29 40.74 40.35 39.25 39.67 39.41 38.98 39.36 39.42 39.32 39.07 38.95 38.38 37.24 36.97 37.45 35.98 34.09 32.68 33.55 34.55 34.33 34.02 32.32 32.80 31.95 28.25 26.98 25.70

GFSCGP_sfc_wetblb_018.txt.gz
Wetbulb
52.45 48.72 46.94 48.16 48.61 47.55 46.79 45.25 44.67 47.57 49.40 47.31 46.52 47.59 49.77 51.47 52.23 53.08 53.88 55.48 54.69 56.18 57.46 58.33 59.30 60.50 61.73 63.04 61.67 62.50 59.87 60.16 59.39 58.30 56.84 56.99 56.56 57.13 57.67 57.75 58.97 57.58 57.27 56.07
48.44 46.46 49.39 49.80 48.85 47.48 46.76 45.55 45.40 47.88 48.99 47.26 46.92 47.26 49.54 50.76 51.73 52.84 52.82 53.53 55.17 54.94 55.55 57.17 57.89 58.24 58.55 58.60 58.83 58.53 58.10 58.10 57.38 57.42 57.01 57.00 56.60 57.20 56.88 57.45 57.18 57.03 55.75 55.01
47.18 48.01 49.56 48.48 47.77 46.81 47.28 45.37 46.25 45.31 47.89 49.01 47.35 45.65 47.23 49.87 51.61 52.55 53.67 54.64 54.59 54.12 54.03 55.40 56.49 57.41 58.18 57.52 57.64 57.26 57.49 57.38 57.14 57.05 56.61 56.28 56.30 55.95 55.10 54.80 54.57 55.62 55.01 53.91
48.67 50.09 48.15 47.56 46.91 47.90 44.27 49.15 47.63 46.04 45.05 41.23 48.03 39.42 45.63 47.78 48.40 50.27 51.70 52.72 52.99 53.68 54.48 55.22 56.04 56.30 56.73 57.04 57.95 57.37 57.51 57.14 56.91 56.91 55.40 54.54 53.59 51.95 53.43 53.58 53.51 53.04 52.97 52.54
46.69 47.52 47.79 47.09 47.49 48.73 46.56 49.49 47.38 46.94 45.17 44.84 44.87 42.30 45.01 47.95 46.35 48.60 50.89 52.12 53.14 54.19 54.58 54.43 55.02 55.83 56.53 57.59 57.51 57.69 57.56 56.94 56.90 56.22 55.60 53.56 52.57 52.59 52.64 51.98 51.38 50.69 50.47 49.93
49.03 51.68 50.71 49.32 49.90 49.48 50.34 49.13 48.60 47.96 45.96 40.61 43.95 43.34 42.71 45.18 46.88 48.59 50.47 51.87 52.92 53.56 54.39 54.70 55.76 56.35 56.24 57.75 57.62 57.49 56.65 56.38 56.78 55.43 54.72 53.62 52.51 51.40 50.43 49.80 48.47 47.49 47.08 47.06
47.73 48.40 51.01 50.77 48.29 51.06 49.72 46.70 40.92 38.64 39.83 38.67 45.57 41.55 44.43 48.26 49.77 50.08 49.96 51.53 53.12 54.31 54.43 54.63 54.57 54.78 55.60 55.67 56.31 56.18 55.88 54.77 55.52 55.75 54.31 53.85 52.09 51.02 48.90 47.74 46.06 44.98 45.00 45.06
43.40 41.27 47.96 50.68 48.37 45.99 47.00 45.77 41.16 32.70 34.07 37.59 44.36 39.07 42.85 49.65 50.99 51.73 51.97 52.11 52.68 53.07 54.15 53.98 54.29 54.63 54.79 55.26 55.43 55.57 54.65 53.69 53.49 53.78 53.12 53.07 51.77 49.44 48.26 46.54 45.27 44.55 44.23 44.78
43.60 43.14 49.45 49.74 50.33 48.97 46.15 43.19 46.21 41.70 38.87 37.12 40.33 44.59 47.81 49.41 49.00 50.02 50.27 51.09 51.60 52.52 53.45 53.59 54.42 54.78 54.20 54.23 54.42 54.33 53.42 52.75 52.85 52.39 51.58 50.59 49.44 48.38 46.62 45.70 45.09 44.50 45.00 45.07
46.54 42.59 47.13 48.25 49.95 50.67 47.52 47.97 41.89 43.66 33.57 30.82 37.34 39.26 40.33 45.25 46.79 48.64 49.04 49.78 50.62 51.93 52.75 53.17 53.33 53.59 53.92 54.06 54.06 53.64 52.86 51.35 51.20 50.10 49.21 48.32 47.76 47.40 46.16 45.34 44.42 43.80 43.28 43.90
47.74 45.40 44.52 46.95 45.69 44.10 45.77 44.64 44.39 43.09 41.03 34.00 31.77 36.53 45.73 45.56 47.77 47.55 48.80 49.89 50.75 51.50 51.78 52.20 52.22 52.74 52.78 53.41 51.82 51.62 50.68 49.43 48.70 48.34 48.16 47.06 46.39 46.21 45.80 44.85 43.60 43.02 42.86 42.32
46.98 45.37 42.32 42.66 47.25 48.66 47.04 44.79 44.16 39.21 36.26 40.07 37.75 36.17 47.90 48.19 48.68 49.18 49.05 49.70 50.98 51.38 51.06 51.19 51.48 51.89 51.21 50.69 51.05 50.10 48.88 48.21 47.85 47.55 46.39 45.28 45.57 45.28 44.60 43.11 42.70 42.43 41.58 42.09
47.73 45.05 39.54 40.34 45.09 47.55 43.68 45.36 44.41 43.63 41.41 35.51 33.16 35.85 48.15 48.78 47.62 49.18 48.35 49.29 49.77 50.06 50.05 50.49 50.39 49.90 49.39 49.33 48.86 48.25 47.64 47.20 47.16 45.96 44.85 44.18 44.32 43.90 42.46 41.70 42.15 41.98 41.11 40.56
48.82 44.78 41.02 37.20 39.72 42.88 40.41 42.18 43.55 42.42 37.48 37.11 37.48 39.41 43.97 46.20 46.47 47.42 48.20 49.36 48.84 49.19 48.92 48.78 48.47 48.26 47.81 47.12 47.01 46.38 46.37 47.37 45.88 45.18 43.83 43.15 43.42 42.73 41.37 41.35 41.41 40.93 40.47 38.72
48.52 41.36 43.25 43.16 43.00 42.83 41.75 41.23 41.89 40.48 41.32 36.23 39.21 39.98 43.68 45.69 46.47 47.16 48.13 48.18 47.94 47.74 47.81 47.08 46.51 46.25 45.67 45.66 45.55 45.98 46.20 46.43 45.75 44.44 43.21 42.83 43.30 42.62 41.35 41.24 40.74 39.94 39.06 37.79
48.18 42.18 42.09 39.49 42.95 42.07 39.16 41.09 41.63 42.12 42.20 41.61 41.88 40.93 47.08 47.75 47.56 46.37 46.41 46.63 46.66 46.33 45.56 45.19 45.68 45.60 45.09 45.30 45.02 45.12 45.46 45.92 45.53 44.30 43.24 43.73 43.32 42.56 41.11 40.39 40.07 39.21 37.32 36.82
45.50 44.40 40.00 36.22 39.76 38.59 36.26 41.29 41.98 42.50 43.69 42.54 38.09 43.18 46.45 45.31 45.35 45.51 45.61 46.52 45.22 44.07 43.93 44.40 44.55 45.28 44.63 43.92 44.23 43.53 44.48 45.77 44.91 44.06 43.99 43.13 42.71 41.40 40.59 40.01 38.73 37.39 35.71 35.53
43.57 42.07 39.52 35.89 35.89 29.82 41.53 45.47 44.96 42.80 43.85 44.79 44.53 45.50 45.92 45.06 45.66 46.27 46.11 44.29 43.48 43.87 43.95 44.30 44.85 43.91 43.99 44.02 43.86 43.78 43.57 43.00 42.79 43.01 42.62 42.52 41.61 40.67 40.05 38.98 37.69 36.63 35.58 34.37
48.11 43.31 35.91 34.05 33.64 37.17 40.43 43.48 41.76 40.25 39.91 45.64 45.04 45.49 45.15 45.40 44.97 44.20 45.55 45.87 44.78 44.94 45.14 44.38 43.91 43.75 43.68 43.46 43.20 42.16 41.53 41.45 41.31 41.13 40.64 40.77 40.83 39.90 39.09 38.05 36.70 35.09 34.47 33.50
45.72 46.02 41.38 34.77 31.04 28.40 40.73 45.30 47.10 45.93 35.49 46.54 45.84 44.61 43.39 43.18 37.33 40.32 44.35 44.92 44.45 44.41 43.82 42.98 43.64 43.59 42.62 42.31 42.02 40.48 39.75 39.36 39.03 40.94 40.69 41.15 40.99 39.65 37.38 36.42 35.67 34.79 34.88 33.87
35.11 37.79 35.22 34.73 32.74 36.27 44.01 46.16 47.03 34.00 37.55 46.17 46.11 44.54 42.91 40.18 41.93 43.21 44.82 44.32 43.35 42.89 42.98 43.48 42.88 41.41 41.29 41.48 40.79 39.09 38.77 37.93 39.51 40.38 40.17 39.81 39.58 38.26 37.54 36.66 35.51 34.47 33.04 31.71
35.28 34.68 32.63 36.14 32.72 29.94 46.58 45.21 38.76 44.61 47.18 47.04 45.65 43.82 42.44 43.42 43.81 43.44 43.01 41.74 41.74 41.56 41.58 41.41 40.03 39.82 40.71 40.83 39.83 38.35 37.40 39.05 39.20 38.69 38.08 38.06 38.81 38.57 37.68 35.27 34.22 33.31 31.36 29.82
39.22 42.76 40.58 39.63 38.83 46.91 49.25 46.47 48.27 48.59 46.87 44.99 44.48 44.29 43.90 43.15 41.90 41.81 40.50 41.11 41.14 40.52 39.87 40.26 39.19 38.97 39.77 40.25 39.79 37.67 38.23 38.44 37.44 36.43 36.01 36.46 36.83 37.00 36.63 34.33 31.71 30.04 29.91 27.70
45.01 47.21 44.23 43.04 44.74 45.75 47.73 48.42 48.18 47.40 45.61 45.59 45.00 44.65 44.84 41.84 41.77 40.29 40.93 40.41 39.63 39.37 38.82 39.34 38.77 38.25 38.56 39.83 39.62 38.58 37.87 37.53 36.17 34.74 34.46 34.66 34.33 34.41 34.01 33.90 31.73 29.64 28.04 26.56
45.65 46.45 44.25 43.19 46.07 46.76 47.62 47.31 46.91 45.80 46.02 44.67 45.40 44.57 42.68 41.45 40.64 40.62 39.30 39.20 39.18 38.99 39.37 38.98 38.51 37.80 37.89 38.93 38.32 37.83 36.94 36.67 34.51 33.69 33.35 32.47 32.53 32.48 31.97 31.98 29.25 28.84 27.94 26.09
46.22 43.76 41.37 40.58 46.67 46.09 45.97 46.68 46.65 44.83 43.57 44.79 42.61 41.52 42.19 41.60 39.39 39.57 38.67 38.99 38.89 38.18 38.64 38.11 38.14 37.83 37.77 37.75 36.96 37.08 36.69 35.16 32.75 30.16 30.44 30.17 30.81 30.72 30.22 29.91 29.07 29.94 27.68 27.05

GFSCGP_sfc_wetblb_021.txt.gz
Wetbulb
48.53 43.36 40.11 41.89 43.92 44.57 43.46 41.58 40.95 41.22 45.71 43.40 42.42 41.09 43.86 46.15 45.95 45.03 47.01 50.20 51.04 52.11 53.56 54.51 54.77 54.96 55.43 54.81 55.19 54.39 53.99 53.03 53.25 52.36 51.24 51.19 50.79 51.58 52.20 53.23 53.15 53.77 52.89 52.16
44.82 41.22 45.64 47.89 46.86 45.43 44.03 42.45 41.57 43.46 46.33 42.97 40.29 41.45 43.42 46.84 45.90 47.45 49.30 49.38 50.05 51.13 52.39 53.75 53.73 52.85 52.40 51.90 52.59 52.67 52.65 52.55 52.48 51.51 51.21 51.78 50.70 51.66 51.80 52.22 52.65 52.75 51.05 50.37
42.44 44.71 48.81 47.03 45.91 44.59 44.26 42.32 41.75 41.86 44.17 42.82 41.83 39.37 42.64 46.76 48.43 50.24 49.94 50.41 50.53 50.70 50.93 52.49 52.61 50.99 50.63 50.66 50.98 52.26 52.33 52.33 51.83 51.71 51.45 50.87 51.11 50.23 49.89 50.08 50.19 49.57 49.24 48.62
44.89 47.99 47.10 45.54 45.30 44.74 41.90 46.96 45.52 43.89 40.53 35.28 40.72 32.26 39.54 43.90 45.42 47.41 47.80 46.80 47.63 49.45 51.60 52.45 51.43 50.61 50.73 50.54 51.37 51.80 51.96 51.82 52.60 51.81 50.28 49.37 47.93 47.07 48.43 48.13 47.80 47.35 47.17 46.76
43.53 44.96 45.64 45.18 45.14 46.56 44.25 47.31 44.89 43.84 39.83 38.17 40.26 35.42 38.23 43.69 43.20 45.05 46.13 47.98 47.89 48.40 49.34 49.63 50.48 51.16 51.39 51.61 51.11 51.53 52.02 51.91 51.65 51.40 50.51 48.63 47.71 48.04 48.17 47.09 45.52 44.61 45.15 45.78
45.46 48.80 46.93 45.51 48.22 47.54 47.76 45.97 45.17 43.84 40.32 31.27 40.70 38.57 39.51 40.53 44.34 45.31 46.92 48.14 48.77 48.34 48.94 50.14 50.95 51.93 51.22 51.09 50.85 50.63 51.02 51.30 51.42 51.46 50.33 48.40 47.11 46.44 45.10 43.79 42.80 42.80 43.10 43.55
44.69 45.64 47.18 48.95 44.83 47.63 45.44 41.26 31.39 30.23 29.91 29.52 42.84 39.83 40.36 44.30 46.57 47.24 46.86 46.86 47.65 48.34 47.85 48.39 49.06 51.29 51.64 49.08 49.67 50.38 50.12 49.75 49.97 50.03 49.26 47.78 45.91 44.78 42.95 41.73 41.10 41.01 41.15 40.92
39.10 36.44 44.78 48.37 45.21 41.93 43.25 41.39 29.76 27.58 26.65 30.09 41.51 35.71 38.01 46.22 48.08 49.22 49.10 48.08 48.69 48.38 48.76 48.17 48.74 48.57 48.77 49.59 49.09 49.35 49.37 49.27 49.35 48.77 47.40 46.26 45.82 44.47 43.02 42.14 41.42 40.76 40.72 40.79
40.27 39.55 46.40 47.44 47.22 45.64 43.19 36.98 42.14 35.29 31.63 28.01 35.32 40.02 44.60 46.57 47.35 47.97 47.54 47.86 46.81 47.89 48.51 49.25 48.58 48.47 48.03 48.10 48.64 48.35 48.17 47.86 48.51 46.56 45.62 44.77 44.76 44.06 42.55 41.59 40.75 40.54 40.08 41.98
43.52 38.07 45.18 46.49 47.01 47.42 44.05 44.71 35.36 33.83 26.25 25.94 32.27 35.49 36.52 42.32 44.56 46.90 46.92 45.80 46.86 47.72 47.77 47.22 47.48 48.04 48.19 47.91 47.83 47.32 47.49 46.19 45.16 44.24 44.87 43.70 42.69 42.50 41.67 40.86 39.76 39.79 39.44 40.07
43.53 41.80 40.34 44.36 41.60 40.22 41.38 40.21 40.46 39.05 33.02 26.30 23.83 29.71 40.39 42.80 45.91 45.52 45.63 46.67 45.64 45.55 45.61 46.61 47.23 47.28 47.37 47.26 46.69 46.33 44.49 43.90 43.35 43.00 42.45 41.37 41.08 41.34 40.99 40.37 39.71 39.34 39.26 39.23
43.51 40.69 31.29 39.63 44.41 45.87 43.22 41.51 41.12 28.77 30.50 29.52 27.99 29.82 42.93 43.43 45.36 45.04 44.67 46.12 45.76 45.96 45.76 45.91 46.44 46.27 45.51 45.19 44.87 44.55 43.12 42.78 42.48 42.23 41.77 41.02 40.99 40.56 39.76 39.27 39.40 39.05 38.15 38.37
43.97 38.37 29.61 35.70 41.02 44.03 40.14 42.68 42.58 40.17 32.59 29.58 22.50 27.29 44.14 46.93 45.05 47.07 44.64 44.97 45.53 45.24 45.29 45.03 44.71 44.38 43.92 43.32 43.03 42.42 42.10 42.65 42.35 41.84 40.30 39.41 39.67 39.74 38.46 38.04 38.74 38.78 37.83 37.10
45.78 41.25 35.22 29.75 35.11 38.41 35.83 39.20 39.80 38.01 28.36 29.68 30.66 35.47 40.61 42.82 43.51 43.74 43.38 43.85 43.57 44.25 44.33 43.56 42.86 43.16 42.74 42.89 42.04 41.68 41.75 42.55 42.46 41.60 40.18 40.12 39.23 40.53 38.05 38.11 38.05 38.52 37.24 35.74
43.66 35.91 38.92 39.64 40.10 40.00 38.41 37.94 38.13 36.35 36.24 29.29 33.25 36.62 40.50 41.07 41.56 43.05 44.41 44.82 44.34 43.46 43.29 43.15 42.30 42.11 41.52 41.11 41.04 41.12 41.37 41.77 42.16 41.54 40.58 40.48 41.28 41.20 38.41 38.70 39.63 39.03 37.17 35.56
44.27 33.69 33.55 32.43 40.14 38.81 35.38 37.77 38.51 38.38 38.96 37.92 38.03 37.14 43.36 43.48 43.45 42.49 43.34 43.63 42.52 41.98 42.49 42.29 42.32 42.12 41.88 40.81 39.91 40.37 40.07 40.49 42.22 41.31 41.14 41.98 40.94 39.91 39.98 38.80 39.17 38.34 36.05 33.39
40.86 33.45 30.17 28.82 35.80 33.54 27.69 35.23 38.72 39.22 40.35 38.84 31.95 38.16 41.99 40.61 41.01 40.38 40.66 41.54 41.43 40.82 41.03 41.57 41.94 42.21 40.67 39.24 39.90 37.97 38.21 39.02 38.30 38.54 39.25 39.84 39.77 39.96 39.92 39.61 39.49 36.95 33.74 32.27
36.47 34.28 31.03 24.55 26.51 17.36 37.56 42.43 42.06 39.65 40.62 40.87 41.37 41.34 41.25 40.31 40.72 41.20 41.89 40.56 40.32 40.83 41.84 42.24 42.16 41.31 38.88 38.45 37.84 37.85 37.77 37.24 37.03 37.01 38.76 39.13 39.02 38.54 38.21 38.41 37.26 34.88 32.70 31.90
44.07 33.63 25.66 25.25 25.57 31.14 37.72 41.38 39.01 36.46 35.56 42.94 41.63 41.53 41.11 41.43 41.59 38.79 41.80 41.26 40.33 41.31 41.44 40.13 38.46 38.35 37.26 36.95 37.09 36.54 35.86 35.73 35.77 37.41 37.71 37.98 38.53 37.39 36.80 36.10 34.05 34.49 32.92 31.39
42.06 36.49 29.16 27.82 19.27 16.44 33.24 42.31 44.69 42.79 28.68 43.37 42.87 40.66 39.86 39.64 29.51 35.37 40.63 41.78 41.83 39.37 38.55 38.16 37.83 37.07 35.88 36.24 36.35 35.64 34.69 34.38 35.28 36.44 36.27 37.28 37.45 37.15 36.79 34.76 34.99 33.96 30.98 31.04
31.64 32.13 24.73 22.74 18.58 28.39 40.20 43.76 44.80 28.50 30.00 42.34 42.55 40.75 39.33 35.70 36.65 39.86 41.28 41.36 38.61 38.62 38.11 37.61 36.25 34.87 35.18 36.00 35.86 34.52 33.91 33.85 35.58 35.96 36.10 36.28 36.92 36.51 37.09 34.85 33.47 31.66 29.00 28.21
28.50 27.12 24.21 29.00 26.98 22.83 43.62 42.48 33.85 37.57 42.96 43.46 41.75 40.20 41.00 41.66 41.66 41.91 39.50 38.29 38.51 36.27 35.65 36.37 34.63 34.47 35.32 36.15 35.40 33.64 33.22 35.12 35.46 34.74 34.16 33.90 34.52 35.59 36.22 33.79 32.42 29.43 26.71 25.91
31.71 34.71 31.38 32.38 30.74 39.98 43.55 42.02 43.65 44.60 43.36 41.23 40.71 43.27 42.73 41.65 41.18 38.64 37.56 37.55 36.65 34.60 34.11 35.27 33.90 34.60 35.61 35.65 35.40 33.40 33.81 34.73 34.19 32.71 32.00 31.59 31.94 32.73 32.56 28.78 26.45 26.10 25.61 21.51
39.97 43.45 34.31 36.10 41.03 42.39 42.97 44.67 44.83 43.92 42.29 43.06 44.01 43.09 43.24 41.09 38.38 37.33 36.77 35.36 34.71 34.07 33.44 34.21 34.58 33.90 33.83 35.18 35.72 34.16 33.93 34.11 32.57 30.76 30.60 30.73 30.05 30.18 29.64 28.63 27.17 25.52 21.13 19.51
38.73 42.19 39.57 35.86 40.93 42.19 43.99 44.67 44.25 43.38 43.80 44.16 45.11 44.53 40.61 38.48 36.84 35.41 34.55 34.34 33.96 32.94 34.07 34.41 33.49 33.62 33.72 34.70 34.47 34.06 33.61 33.18 31.18 30.07 29.64 27.97 27.36 27.58 27.74 27.16 25.20 25.47 23.66 22.26
42.88 39.45 34.56 31.97 41.94 41.44 41.98 43.37 45.05 44.02 43.52 43.27 42.22 39.02 39.93 36.75 34.76 34.68 33.05 33.22 33.07 32.88 33.91 34.09 34.47 33.79 33.80 33.98 33.78 33.67 33.85 31.68 29.40 27.81 26.92 26.02 25.14 24.75 26.31 25.87 25.55 29.35 27.93 28.89

GFSCGP_sfc_wetblb_024.txt.gz
Wetbulb
47.03 42.35 38.57 40.79 41.84 43.12 42.84 40.18 38.78 38.43 43.05 42.04 40.48 39.56 41.80 43.71 44.39 45.89 48.05 48.44 48.97 49.54 51.23 52.24 52.47 52.83 52.55 53.25 53.04 53.25 52.76 51.79 51.74 51.33 50.58 50.29 49.31 49.72 51.05 51.27 50.93 49.76 49.34 49.41
43.04 39.65 44.13 45.60 45.81 44.55 43.00 40.95 39.15 42.01 45.24 41.30 39.87 38.95 42.55 44.33 44.85 47.83 48.26 47.95 48.48 49.48 50.35 51.20 51.16 50.65 50.47 50.26 51.22 50.94 51.56 50.80 50.50 50.04 49.57 49.87 49.21 49.74 49.38 49.62 48.54 48.45 48.00 47.28
40.64 43.12 46.68 46.40 43.89 43.35 42.22 40.17 39.61 40.17 41.83 40.94 40.26 38.24 41.13 45.54 47.50 48.63 48.55 49.04 49.74 49.29 49.24 49.84 50.14 49.67 50.07 48.99 49.82 50.26 50.32 50.46 50.28 50.36 49.56 49.11 48.78 48.27 47.77 46.61 45.63 46.63 47.08 46.15
43.05 46.19 45.62 44.38 43.13 42.70 39.73 44.69 43.45 41.60 38.22 33.64 38.82 30.09 38.91 41.92 43.10 44.78 45.79 46.27 48.03 50.12 50.00 50.26 49.51 48.75 48.93 48.72 49.35 49.90 50.32 50.58 50.80 50.16 49.06 47.88 46.40 45.54 45.87 44.68 43.44 43.55 44.80 44.65
41.50 43.78 43.88 42.92 43.14 44.60 42.37 45.07 42.86 41.91 37.42 36.37 38.22 32.93 36.10 42.57 41.34 43.17 44.17 46.23 47.72 48.39 49.44 48.84 49.72 49.51 49.55 49.82 49.23 49.12 50.44 50.56 50.16 49.39 48.44 47.53 46.25 45.74 44.82 43.32 42.68 42.94 43.43 43.82
43.98 46.83 44.95 43.52 46.25 45.61 45.86 43.93 43.05 41.47 38.27 30.02 39.03 35.28 34.74 37.55 41.43 44.16 45.95 46.17 46.89 46.65 47.51 48.66 49.57 50.36 49.43 48.71 48.31 48.25 48.52 49.15 49.45 48.75 47.17 45.97 44.37 43.22 41.69 41.24 40.59 40.91 41.51 41.35
43.32 43.84 45.77 47.09 43.58 45.69 43.27 39.04 29.90 29.17 28.43 28.64 41.12 37.40 37.00 42.45 45.03 45.78 44.83 44.42 45.49 46.14 46.57 47.36 48.38 48.49 48.94 47.51 47.64 48.18 47.90 47.77 48.69 47.54 45.92 44.96 43.80 42.36 41.05 40.47 39.89 39.21 39.57 39.35
37.05 34.78 42.94 46.52 42.99 40.15 41.18 39.01 28.83 27.56 25.35 28.21 38.24 33.22 36.54 44.73 47.50 47.52 47.20 46.49 47.44 46.78 46.62 46.91 46.72 46.84 47.04 47.62 47.19 46.93 46.99 46.89 46.95 45.93 44.62 44.15 43.98 42.50 41.59 40.91 39.80 39.56 38.94 38.96
37.41 37.79 44.41 44.93 45.07 44.14 41.22 35.39 40.60 33.04 29.89 26.64 33.29 37.49 42.54 45.19 45.73 47.02 48.03 48.89 45.44 44.87 44.90 45.81 46.26 46.06 46.15 46.53 46.66 45.84 47.09 45.56 45.33 46.39 43.81 42.63 43.14 42.49 41.28 40.09 39.32 38.82 38.79 40.47
41.82 36.07 43.11 44.45 46.23 45.74 41.39 42.73 34.25 31.56 24.99 25.01 30.18 32.96 34.47 39.95 42.34 44.69 43.75 43.53 44.11 45.51 46.04 45.56 45.81 46.41 46.59 46.59 45.60 45.01 44.96 43.74 43.23 42.68 42.36 42.04 41.09 41.10 40.42 39.46 38.82 38.68 38.52 38.80
42.32 39.48 38.25 43.54 39.87 38.22 39.54 37.83 37.98 36.15 30.70 25.30 22.77 28.14 38.67 41.85 43.96 42.14 42.21 43.43 44.06 44.59 44.82 45.69 45.76 45.98 45.45 44.38 43.18 42.48 42.14 42.23 41.73 41.50 41.22 40.38 39.82 39.77 40.08 39.18 38.84 38.73 38.29 38.18
42.00 37.75 30.19 37.90 42.46 43.60 41.11 39.54 37.88 27.27 29.33 27.63 26.10 27.91 42.30 42.39 42.91 43.36 43.44 44.25 44.71 45.63 45.49 44.03 44.35 43.29 42.55 42.02 41.22 41.68 41.05 41.35 41.59 41.18 40.73 39.68 39.57 38.94 39.11 38.62 38.64 38.03 37.53 38.34
41.42 35.67 28.23 34.04 39.26 42.04 38.69 40.64 40.71 36.61 30.52 28.84 21.39 26.80 42.17 43.25 42.10 43.35 42.21 42.95 43.26 42.72 42.87 42.80 42.07 42.30 42.08 41.46 41.03 40.65 40.35 40.07 41.27 40.68 38.99 38.23 38.51 38.06 38.00 37.69 37.47 38.02 37.89 37.61
44.78 38.63 33.61 29.47 33.88 36.69 33.61 36.75 38.64 36.00 26.79 28.29 28.44 32.98 37.91 40.23 40.18 41.15 41.73 41.69 41.12 41.27 41.74 41.39 40.99 40.99 41.09 40.46 40.07 39.70 39.52 39.42 39.88 39.78 38.95 38.33 38.09 38.80 37.80 36.68 38.31 39.18 39.92 38.58
41.62 34.36 36.62 36.92 37.88 37.53 35.93 35.27 35.28 34.21 34.15 29.32 31.81 33.62 37.80 39.44 40.11 41.42 42.66 41.86 41.42 41.08 41.46 41.40 41.06 39.81 39.77 39.52 39.13 38.23 38.09 38.82 39.60 38.40 38.16 38.45 39.33 38.77 37.19 37.66 38.56 38.85 38.31 38.57
41.98 32.27 32.52 30.76 37.87 36.80 32.89 35.36 36.08 36.41 36.46 36.01 36.19 35.47 41.21 41.34 40.34 40.63 41.81 40.89 40.68 41.30 40.76 40.21 40.36 40.68 40.88 39.73 36.85 37.33 36.98 37.35 37.54 36.83 37.73 38.99 38.58 38.35 38.30 38.32 37.90 36.88 38.27 37.69
38.13 31.77 28.09 25.90 33.19 31.75 26.45 33.91 37.00 36.71 37.32 36.77 31.72 36.32 39.56 38.40 39.56 38.94 39.20 40.20 39.82 38.89 39.15 40.41 40.75 40.82 39.77 36.14 36.59 35.61 35.97 36.62 35.92 36.70 37.90 37.99 37.67 37.28 36.92 37.43 37.57 37.60 34.08 33.98
34.73 31.92 27.63 22.31 23.59 16.00 34.24 40.16 40.32 37.88 38.42 39.43 38.86 38.57 39.37 38.87 39.12 39.45 40.02 39.06 38.77 39.44 39.72 39.82 38.57 36.88 35.76 35.44 35.33 35.43 35.57 34.92 35.28 36.66 36.66 37.16 37.34 36.63 36.28 35.25 35.79 34.90 33.58 32.87
40.54 30.31 26.08 20.20 23.95 28.05 34.89 39.26 37.64 35.45 34.69 41.00 39.27 39.29 39.52 39.66 38.98 37.04 40.11 39.87 39.17 39.29 39.74 36.77 35.51 35.54 34.55 34.58 35.09 34.64 33.58 33.64 34.91 34.55 34.62 35.61 36.07 35.88 35.95 35.30 34.69 32.51 31.08 29.03
39.12 32.92 26.20 27.70 16.54 15.33 29.98 40.00 42.80 40.70 29.38 42.05 41.23 39.24 38.76 37.94 28.31 33.10 39.80 39.64 40.13 38.08 36.42 34.74 34.47 34.43 33.42 34.07 34.26 33.15 32.27 32.94 33.22 34.10 34.23 35.05 35.79 35.09 34.53 33.83 32.44 31.49 29.55 29.53
29.06 26.02 24.32 16.43 16.13 26.11 35.52 41.62 42.44 28.48 30.07 41.42 41.21 39.65 38.35 35.16 35.45 38.26 40.57 39.64 37.00 35.98 35.34 34.88 33.91 33.12 33.31 33.52 33.25 32.09 32.37 32.11 33.78 34.27 34.19 33.50 33.45 33.69 33.91 33.93 33.34 30.72 27.94 26.98
29.06 27.07 23.90 23.46 17.21 21.45 40.18 40.52 33.49 36.63 40.89 42.11 40.58 39.76 38.76 39.29 40.10 40.80 38.23 36.50 35.80 33.80 33.85 34.04 33.24 32.88 33.29 33.64 33.65 31.69 31.16 33.31 33.80 32.85 31.99 31.17 31.05 31.47 31.45 29.23 27.00 27.06 25.43 24.83
30.37 32.08 30.00 31.91 30.98 37.93 41.10 40.35 41.30 43.14 41.71 40.69 39.91 41.69 41.93 41.62 40.68 37.19 35.39 34.55 33.99 32.70 32.13 33.48 31.61 32.59 33.50 33.55 33.40 31.85 32.67 33.21 32.66 30.84 29.51 29.60 29.91 29.98 28.61 26.00 25.34 25.06 24.37 20.37
38.12 41.30 33.42 34.61 39.01 39.78 41.35 43.02 43.40 42.92 41.37 42.09 44.05 43.96 43.78 41.66 37.22 33.72 33.60 33.03 32.27 31.23 31.12 31.87 32.12 31.79 32.00 33.50 33.84 32.89 32.94 32.64 30.94 29.33 28.77 28.90 27.31 28.33 27.80 26.57 26.34 24.35 19.55 17.89
35.91 40.31 37.88 34.02 38.95 40.68 42.62 41.99 42.31 41.95 42.48 43.49 44.88 44.20 41.73 35.36 33.14 33.35 32.14 31.74 31.36 30.83 31.85 32.25 31.78 31.71 32.17 32.91 32.73 32.77 32.51 31.86 29.71 28.85 28.70 26.74 26.22 26.09 26.96 26.06 24.78 25.26 23.47 21.73
40.75 38.40 33.96 31.99 39.89 39.65 40.48 42.20 43.18 41.59 42.64 44.27 42.79 35.62 34.75 34.16 32.70 32.51 31.09 31.46 31.20 31.14 31.94 31.78 32.35 32.12 32.37 32.20 31.73 32.08 31.88 31.63 29.58 28.08 26.86 25.29 24.36 23.10 25.58 25.42 24.82 28.36 28.19 29.86

GFSCGP_sfc_wetblb_027.txt.gz
Wetbulb
45.67 41.15 37.03 38.26 39.91 40.92 39.66 37.38 36.06 36.79 40.84 40.27 38.77 38.83 40.42 39.70 43.35 44.78 45.91 46.84 47.31 48.24 49.35 50.80 51.45 52.37 52.65 52.42 52.45 53.48 53.30 52.05 53.03 51.75 51.37 49.30 48.93 47.86 47.77 47.08 46.87 46.47 47.49 47.27
42.13 38.55 42.26 44.67 44.89 42.92 41.37 38.56 37.09 39.95 43.05 40.73 38.23 37.51 42.34 43.71 43.95 45.21 46.45 46.41 47.07 47.27 48.41 49.43 49.91 50.22 50.50 51.02 52.18 50.38 50.40 50.17 49.71 49.49 49.25 48.83 47.70 47.23 46.68 45.28 45.20 46.49 45.89 44.71
39.27 41.36 45.79 44.48 42.51 42.36 40.77 38.40 37.86 38.48 40.12 40.29 38.45 36.06 39.25 44.06 46.24 47.20 46.83 47.34 47.84 47.54 47.27 48.89 49.86 50.00 49.58 48.56 48.47 49.22 49.00 49.37 49.66 49.66 48.85 48.26 48.24 47.26 44.99 43.44 42.87 43.83 44.43 44.23
41.52 45.51 44.40 42.75 41.50 41.72 38.13 42.94 41.71 40.02 36.79 32.13 37.19 28.52 37.26 40.15 41.46 43.83 45.31 45.23 46.44 47.41 48.83 49.75 49.04 47.75 46.94 47.21 47.93 48.71 49.21 48.96 49.32 48.74 47.84 46.98 45.48 44.66 44.14 42.39 41.70 42.25 43.29 43.59
40.24 41.99 42.31 41.62 41.20 42.81 40.47 43.23 41.03 39.99 35.47 34.30 36.76 31.35 33.69 40.82 38.91 41.49 42.87 45.54 46.72 48.67 48.75 47.99 47.93 48.04 48.42 47.98 47.00 47.86 48.63 48.92 48.61 48.17 47.64 46.52 44.98 44.50 43.36 42.22 41.69 41.85 41.97 42.65
42.54 44.68 43.29 42.09 44.40 43.67 44.23 42.62 41.13 39.37 36.31 29.15 36.38 32.64 32.16 35.97 39.68 41.95 43.78 46.29 48.00 47.91 48.20 47.91 48.26 48.79 48.24 47.71 46.23 46.19 47.55 47.58 47.71 47.10 46.69 45.48 43.55 42.09 41.01 40.41 40.10 39.73 40.03 40.02
41.57 42.12 44.02 45.16 41.81 43.61 41.94 37.48 29.00 28.49 27.41 27.66 37.59 34.75 34.72 40.33 42.57 44.02 43.51 43.94 44.98 45.88 46.15 47.03 48.68 48.93 48.68 46.91 45.83 46.16 46.85 47.04 47.00 45.66 44.67 43.77 42.79 41.71 40.69 40.40 39.39 38.38 38.72 38.52
35.37 33.60 41.11 44.64 41.33 38.97 39.13 37.38 28.65 27.95 24.87 27.56 36.58 31.45 35.51 42.21 44.62 45.71 45.48 45.19 44.95 44.75 46.44 46.85 46.43 45.67 46.04 46.46 45.75 45.28 46.20 45.95 45.64 44.68 43.76 43.32 42.93 41.72 41.29 40.34 39.25 38.41 38.85 38.39
35.91 35.99 42.82 42.94 43.16 42.98 39.58 33.97 38.65 31.22 28.70 26.49 31.47 35.52 41.16 42.49 43.54 44.36 44.50 45.35 44.12 43.09 43.50 43.98 44.63 44.93 44.84 44.89 45.06 44.23 44.42 44.44 44.31 43.50 42.38 42.32 42.56 41.65 40.68 40.12 38.86 38.68 38.53 39.16
40.97 34.95 41.17 42.93 44.23 43.16 39.92 42.05 33.08 30.15 23.88 24.54 28.51 31.42 32.40 38.64 40.97 43.56 42.00 41.50 42.22 43.17 43.68 43.90 44.19 44.56 45.13 45.62 43.93 43.30 43.54 43.02 42.80 42.12 41.86 41.28 40.26 40.40 40.35 39.14 38.56 38.26 38.22 37.92
41.04 37.63 36.44 41.46 38.49 36.74 38.50 36.23 35.46 34.33 29.29 24.19 21.57 27.44 36.72 40.00 41.90 40.51 40.60 42.06 42.90 43.20 43.42 43.13 43.73 44.40 44.01 42.86 40.95 40.78 41.01 41.47 40.89 40.62 40.21 39.48 39.07 38.66 38.67 38.65 38.52 38.22 37.76 37.45
40.53 36.05 29.81 36.06 40.98 42.18 39.26 37.36 35.57 25.50 27.92 26.56 25.00 27.02 38.94 41.10 41.95 42.25 42.01 42.74 42.77 42.85 42.59 42.65 43.88 43.31 42.40 40.63 39.88 40.45 39.70 39.57 40.11 40.07 39.06 38.07 37.67 37.46 36.92 37.63 38.02 37.72 37.19 38.57
40.04 34.39 28.07 32.97 37.76 39.84 36.97 38.52 37.34 33.99 29.81 27.93 20.73 26.07 40.59 41.42 40.65 41.58 40.68 41.30 41.28 40.94 40.96 41.17 41.12 41.22 41.28 39.83 40.23 39.42 38.26 37.96 38.73 38.73 37.11 36.98 37.14 37.05 36.52 36.39 36.93 36.93 37.42 36.98
43.13 36.90 32.19 28.70 32.14 35.36 32.03 35.04 36.77 34.20 26.28 27.60 27.32 30.05 36.60 37.89 38.65 39.38 39.70 40.17 39.85 39.94 40.36 39.85 39.80 39.50 40.38 40.13 38.26 37.02 37.14 37.58 37.30 36.77 36.61 36.70 36.57 37.21 36.34 36.08 35.85 36.42 37.21 36.93
39.70 33.03 34.75 34.64 35.69 35.35 33.97 34.11 34.60 33.17 32.61 28.96 30.60 32.13 35.52 38.18 38.45 39.59 40.45 39.96 39.71 39.70 40.48 40.30 39.48 40.41 38.75 38.38 36.16 35.88 35.82 36.34 36.41 36.60 36.52 36.61 37.03 37.12 36.94 37.11 37.21 37.43 36.69 36.81
39.89 31.11 31.31 30.53 35.76 34.88 31.53 34.11 33.42 33.39 33.96 34.29 33.46 33.77 39.54 40.25 39.80 40.08 40.21 39.93 39.45 41.03 40.54 40.26 39.43 39.60 39.17 35.98 34.96 35.53 35.40 35.55 35.30 35.59 35.99 37.01 36.77 36.76 35.95 35.46 35.81 35.95 38.03 35.21
35.60 30.64 27.09 23.98 30.90 29.42 24.21 31.43 35.04 35.58 36.22 35.40 30.74 35.70 38.99 37.54 38.48 38.79 38.89 39.19 38.99 38.94 38.68 38.91 38.85 38.36 35.28 34.54 34.90 34.06 34.53 34.62 34.16 35.94 36.51 36.56 36.50 35.72 35.31 35.42 34.76 35.02 34.22 33.29
33.21 29.65 24.43 20.93 22.92 16.23 32.13 37.09 38.10 35.95 36.52 37.51 36.89 37.68 38.80 37.82 38.20 39.09 39.59 38.75 38.35 38.54 38.58 37.22 35.10 34.58 34.28 33.99 33.70 33.87 33.49 33.07 34.86 34.83 34.82 35.23 35.15 34.44 34.78 34.14 34.40 34.96 34.18 30.54
38.44 29.31 24.94 19.74 21.79 27.27 32.77 37.30 35.95 34.65 33.62 38.90 37.67 37.58 38.00 38.23 37.48 36.19 39.39 39.05 38.16 38.76 38.07 34.81 33.98 33.92 33.16 33.09 33.37 32.73 31.97 32.87 33.36 33.04 32.95 33.39 33.71 33.87 33.45 33.49 32.28 32.44 30.36 28.02
35.59 30.66 25.69 24.98 15.62 14.80 29.50 37.83 40.74 38.88 28.72 40.18 39.02 37.89 37.59 36.82 28.66 33.88 38.99 39.43 39.33 36.00 34.32 33.10 33.03 32.87 32.11 32.37 31.98 31.43 31.24 31.60 31.82 32.68 32.74 33.03 32.55 32.60 32.13 31.51 31.48 32.69 30.82 29.23
28.55 24.14 21.94 16.10 15.43 25.35 33.77 39.78 40.65 28.20 28.64 40.07 40.20 39.44 37.07 35.05 35.76 37.84 40.32 39.78 36.38 33.68 33.58 33.42 32.44 31.77 31.30 32.14 32.22 31.42 31.21 31.02 32.49 33.01 32.49 31.42 30.78 30.06 30.00 29.95 30.38 28.63 26.94 26.39
29.54 28.18 26.92 25.75 18.84 22.83 38.21 38.23 33.11 36.35 37.79 41.18 40.34 39.45 38.61 39.84 40.09 41.42 40.03 34.54 33.80 32.43 31.89 31.95 31.43 31.40 31.89 32.35 32.16 30.66 30.19 32.36 32.48 31.97 30.70 29.83 29.69 29.72 28.74 26.75 26.37 26.43 25.39 25.23
28.98 31.43 29.18 30.80 30.46 36.97 38.86 38.74 40.08 41.03 40.99 40.70 40.30 40.09 40.98 40.41 40.93 37.53 34.22 33.87 32.14 30.86 30.48 31.71 30.51 31.24 31.91 32.01 31.96 30.54 31.11 32.00 31.45 30.18 29.39 29.09 28.59 28.90 27.89 25.55 24.71 24.82 24.00 20.03
36.20 38.38 31.66 33.13 36.75 37.83 39.03 40.75 41.62 42.13 40.85 41.09 41.74 42.01 42.12 41.33 36.98 34.15 32.44 31.43 30.54 30.02 29.78 30.33 30.73 30.38 30.55 31.87 32.45 31.53 31.86 31.60 30.23 30.05 29.47 28.77 27.47 27.53 27.28 26.52 25.95 24.08 19.76 17.24
35.67 38.21 35.43 32.97 37.11 39.45 41.72 42.23 42.02 41.27 41.72 42.38 43.42 42.90 41.65 38.39 32.68 31.77 30.79 30.63 30.49 29.83 30.58 30.84 30.40 30.32 30.53 31.57 31.42 31.42 31.21 30.86 30.61 30.67 29.78 28.00 27.19 25.80 27.11 25.92 24.84 25.37 23.98 21.98
38.65 37.07 32.17 32.06 38.83 39.10 38.82 42.09 42.01 40.59 40.71 42.27 40.92 36.26 35.37 33.48 31.73 31.41 30.45 30.33 30.48 29.86 30.31 30.58 30.50 30.24 30.84 30.51 29.90 30.35 31.33 31.03 31.37 30.26 29.47 28.27 26.16 22.97 25.43 25.98 24.88 28.10 27.40 29.07

GFSCGP_sfc_wetblb_030.txt.gz
Wetbulb
44.82 40.74 36.75 38.91 39.34 39.26 38.28 36.13 34.79 34.76 39.39 38.66 37.62 38.41 40.29 39.71 43.56 44.04 44.71 45.67 46.07 46.51 47.90 49.29 50.76 51.71 52.50 54.17 56.66 57.39 54.76 54.74 54.68 52.40 49.49 47.24 46.17 45.31 44.60 44.53 45.95 47.10 46.78 45.59
41.34 37.74 41.04 43.49 42.49 40.86 39.30 36.70 35.41 38.04 41.17 39.10 37.32 37.26 41.02 42.85 42.60 43.86 44.36 44.65 45.17 45.96 47.36 49.23 49.53 49.88 51.71 53.25 54.54 54.32 53.56 53.35 50.74 49.03 47.72 47.06 45.20 44.35 43.67 43.60 43.85 43.86 44.31 44.48
38.93 39.69 44.26 43.23 41.72 41.01 39.21 37.10 36.08 36.78 37.99 38.86 36.91 34.85 38.20 42.44 44.40 45.38 45.47 45.34 45.77 45.98 46.77 48.37 50.07 50.34 51.26 50.68 48.64 48.88 48.58 48.34 48.57 48.39 48.17 46.36 45.86 45.14 42.76 41.70 41.47 42.63 43.82 43.75
40.81 43.90 42.72 41.19 40.36 40.10 36.34 40.99 39.60 38.08 35.00 31.66 35.59 29.18 35.05 38.46 40.83 43.38 44.40 43.89 44.48 45.85 47.52 48.71 48.56 46.84 46.09 45.86 46.84 47.41 48.07 47.89 48.18 47.59 46.75 45.49 44.35 43.69 42.59 41.25 40.94 41.27 42.61 42.60
38.97 40.28 41.04 40.29 39.35 41.20 38.82 42.24 39.97 38.01 35.06 33.39 35.26 31.20 32.59 40.08 38.79 41.26 42.79 44.26 44.40 45.89 47.24 46.94 46.18 46.04 46.36 46.59 46.88 46.62 47.90 48.11 47.77 47.29 46.46 45.22 43.45 42.43 41.78 41.01 40.35 40.40 40.96 41.80
40.94 43.23 41.83 40.45 42.91 42.15 42.92 41.31 39.58 37.80 34.86 28.48 34.21 31.54 30.78 35.30 38.94 41.27 42.88 44.51 45.50 45.56 45.42 46.79 47.04 47.39 46.64 46.10 47.17 48.00 48.35 47.33 47.28 46.75 46.15 44.85 42.63 41.16 40.42 40.37 39.58 39.36 39.74 39.91
40.48 40.65 42.78 43.49 40.55 41.91 40.82 36.51 28.07 27.82 26.36 27.11 35.42 32.46 33.74 38.18 41.10 43.57 43.08 43.97 45.27 45.41 45.43 45.94 46.63 47.52 48.16 46.79 46.16 46.87 46.53 45.98 45.79 44.99 44.16 43.46 42.58 41.87 41.40 40.58 39.55 38.36 37.86 38.06
34.24 32.59 39.63 43.11 39.99 38.16 36.87 36.43 29.22 27.29 24.79 27.38 34.78 30.41 34.74 40.99 43.18 45.01 45.04 45.24 44.50 44.30 45.47 46.42 47.49 45.80 45.66 45.78 44.88 45.56 45.43 45.38 44.62 43.86 43.21 43.06 42.61 41.34 40.74 39.88 38.87 38.49 37.67 38.04
34.55 34.65 40.99 41.46 41.84 41.39 37.67 32.74 37.01 30.53 28.37 25.99 30.05 34.46 39.32 41.17 41.04 42.84 43.72 44.08 42.93 42.97 44.53 44.81 44.52 44.25 44.25 43.50 43.46 44.11 44.28 44.23 43.55 43.20 42.65 41.93 41.62 40.82 40.23 39.60 38.59 38.17 38.13 39.26
39.64 34.10 39.33 41.08 42.62 41.89 38.25 40.69 31.86 29.21 23.52 23.82 26.95 29.34 31.69 37.20 39.37 41.70 41.78 41.76 42.14 42.35 42.36 42.99 42.96 43.28 43.55 42.83 42.08 43.10 43.44 42.75 42.90 41.87 40.75 40.25 38.69 38.44 38.10 38.11 38.05 37.94 37.85 37.35
39.36 36.55 35.45 39.49 36.96 35.76 37.30 34.59 33.31 33.05 27.92 23.01 19.94 27.47 35.66 39.72 41.25 41.27 41.05 41.52 41.52 41.44 41.59 41.70 41.68 42.06 41.57 41.07 40.89 40.36 40.36 40.86 40.18 39.43 38.82 38.06 37.31 37.11 36.75 36.77 37.20 37.29 37.17 37.26
38.92 35.10 30.20 34.76 39.10 40.35 37.76 35.66 33.73 25.07 26.84 25.78 24.54 26.15 37.00 39.16 41.70 41.52 40.59 41.54 41.36 41.73 40.79 40.84 41.34 41.01 40.18 40.13 39.92 39.45 39.75 39.13 37.67 38.29 37.62 36.53 36.61 36.47 35.86 35.76 35.84 36.09 36.27 36.92
39.39 33.73 28.40 31.83 35.42 37.64 35.26 36.80 35.13 31.82 29.06 27.57 20.44 25.27 39.30 39.43 39.53 40.08 39.69 40.13 40.22 39.61 39.54 39.76 40.03 40.43 40.90 38.72 38.91 39.63 37.54 36.85 36.87 36.38 35.55 35.68 35.63 35.60 34.95 34.78 35.00 35.51 35.57 35.87
41.98 35.15 31.90 28.45 30.47 33.46 31.72 34.94 34.92 33.02 25.21 26.70 26.62 28.95 34.61 37.46 38.37 38.84 39.32 39.46 38.86 39.08 39.36 38.82 38.91 40.16 38.73 38.86 38.99 36.11 36.26 36.26 35.71 35.67 35.18 35.12 35.06 35.10 34.61 35.00 35.07 35.36 36.02 35.37
38.27 32.44 33.10 32.89 33.82 33.50 32.09 32.67 34.22 32.58 31.56 28.77 29.60 30.18 33.78 37.76 38.21 38.34 39.21 38.78 38.58 38.71 39.20 39.23 38.38 38.31 39.83 38.14 35.82 35.52 34.99 35.11 35.19 34.91 34.93 35.17 35.41 35.37 34.78 34.76 34.81 35.11 34.98 35.92
38.16 30.74 30.28 31.16 33.97 33.00 31.14 32.72 32.48 32.25 31.74 32.33 31.26 31.63 36.60 37.98 38.99 38.61 38.71 38.58 38.43 39.01 39.17 38.80 38.97 40.08 39.39 35.59 33.83 34.44 34.30 34.19 34.38 33.29 34.95 35.58 35.37 35.32 34.67 34.20 34.00 34.01 34.41 35.33
33.73 30.14 27.76 24.77 28.88 27.72 24.14 30.86 32.65 32.50 33.82 33.30 29.71 33.80 37.74 36.61 37.92 38.03 37.99 38.58 38.47 38.47 38.72 39.55 39.77 38.20 34.99 33.46 33.73 33.02 33.24 33.41 32.76 34.54 35.10 34.83 35.00 34.49 33.76 33.90 33.17 32.98 32.69 30.49
31.53 28.73 23.47 20.17 22.27 16.03 30.96 35.16 35.07 34.47 35.31 35.67 35.12 36.06 38.16 37.42 36.98 38.94 39.44 38.62 38.04 38.04 39.27 38.49 35.12 34.14 33.54 32.96 32.49 32.37 32.38 31.87 33.68 33.52 33.20 33.28 33.06 32.48 32.70 32.33 35.18 31.70 32.28 33.10
35.49 28.37 23.53 18.99 20.57 26.85 31.52 34.80 34.69 33.55 32.86 37.73 36.61 36.58 36.80 37.30 37.71 36.96 39.52 39.16 38.88 39.44 37.94 36.05 34.09 33.60 32.93 31.89 31.86 31.45 30.89 32.07 32.21 32.06 31.99 31.93 31.95 31.06 31.33 30.89 30.33 30.72 31.10 30.27
33.59 30.14 25.70 20.48 16.10 14.81 29.29 34.70 38.58 37.60 29.02 37.63 38.50 36.70 36.55 36.67 30.41 36.26 38.71 39.25 39.21 38.73 34.86 33.28 33.15 32.39 31.20 31.50 31.22 31.04 30.64 30.85 30.72 31.68 31.59 31.74 30.80 29.58 28.70 28.67 28.84 29.93 30.15 28.25
27.51 24.20 21.12 16.69 15.11 24.46 32.64 37.65 38.84 28.00 29.76 37.72 38.92 37.66 36.13 35.11 37.20 37.87 38.55 38.67 37.58 33.62 32.88 33.54 32.84 31.56 31.03 31.27 31.36 30.59 30.15 29.90 31.15 31.72 31.51 30.63 29.69 28.99 28.29 26.87 28.37 28.48 26.79 26.27
29.46 28.77 27.87 23.96 15.83 21.86 36.56 38.24 32.95 36.24 35.56 39.10 38.86 38.32 38.64 38.05 37.42 38.52 38.84 33.80 32.95 32.97 33.16 32.18 31.37 30.89 31.17 31.18 30.86 29.75 29.19 30.98 31.21 30.81 30.16 29.17 29.04 29.34 28.51 26.25 26.06 26.17 24.87 24.83
28.96 30.98 27.54 29.37 29.59 36.16 37.22 37.82 38.63 38.81 38.63 39.11 39.12 39.89 40.27 38.86 38.93 36.01 32.23 32.58 32.83 31.47 30.96 31.26 30.97 31.04 31.34 31.01 30.97 29.65 30.46 30.91 30.51 29.70 29.35 30.66 30.50 28.43 27.89 25.87 24.69 24.25 23.52 19.90
34.67 36.16 29.74 31.93 35.31 36.08 37.48 38.59 41.19 40.17 40.26 40.73 41.29 40.79 41.07 40.17 37.63 33.18 33.44 32.22 30.23 30.49 30.28 30.62 30.62 29.83 29.90 30.80 31.13 30.48 30.48 30.39 29.78 29.42 29.39 30.29 29.45 27.84 27.35 26.81 25.98 24.01 19.84 17.33
34.53 36.14 33.84 32.21 36.42 36.60 39.54 40.56 40.19 40.79 40.94 40.78 41.95 41.75 41.16 35.67 34.03 35.09 32.10 30.09 31.02 30.52 30.59 30.71 30.14 29.66 29.58 30.40 29.90 29.57 29.43 29.61 28.82 29.04 29.84 29.77 29.69 27.37 26.29 26.33 24.82 26.01 24.59 22.71
36.83 35.66 31.35 30.77 37.28 37.43 38.06 40.27 41.65 40.76 40.75 41.81 40.45 37.33 35.93 36.64 34.30 32.11 31.16 31.55 30.94 29.84 30.08 30.03 29.91 29.37 29.88 29.66 28.42 29.09 29.46 29.27 29.05 29.06 30.26 30.19 29.15 26.42 25.20 25.91 26.48 28.39 27.92 28.35

GFSCGP_sfc_wetblb_033.txt.gz
Wetbulb
47.12 44.93 42.18 43.65 43.66 42.15 41.55 40.82 40.38 41.80 43.77 44.47 42.40 42.99 44.46 45.65 49.20 49.32 50.14 50.98 51.26 51.32 51.98 54.73 56.59 58.92 59.50 59.84 59.39 59.24 56.04 55.62 55.96 54.07 51.32 50.77 50.80 50.52 50.64 51.10 51.02 51.17 51.17 50.81
45.36 42.14 44.58 45.63 44.40 43.16 42.25 41.24 40.76 42.72 43.03 44.04 42.38 42.63 45.02 46.29 46.58 48.67 49.96 50.19 50.71 51.31 53.31 53.98 55.35 57.76 59.74 58.33 56.52 57.75 59.12 56.40 56.44 54.67 54.25 53.88 51.99 50.91 50.24 49.89 49.87 50.44 50.51 49.96
43.05 43.84 45.80 45.32 43.80 43.84 42.55 41.88 41.25 41.40 42.59 43.28 42.38 41.37 42.73 45.44 46.98 47.59 48.45 49.80 51.21 53.41 52.72 53.02 55.00 56.88 57.99 57.75 58.56 58.21 57.00 56.52 55.76 54.66 53.02 51.52 50.80 49.82 49.23 49.00 49.40 49.49 49.55 49.07
44.54 46.15 44.38 43.71 43.04 43.86 41.06 44.31 42.76 41.48 40.80 38.64 41.26 37.27 40.78 43.20 44.26 46.01 47.62 49.94 51.44 51.74 52.44 52.60 52.76 52.70 52.96 53.04 54.30 55.40 54.79 54.34 53.87 53.52 53.02 52.46 52.67 51.35 50.49 49.89 49.80 49.60 49.01 48.77
43.04 44.13 43.53 43.05 42.90 44.72 42.76 44.98 43.26 41.43 40.61 40.56 40.30 38.88 39.76 42.94 42.64 44.91 47.36 48.93 49.88 51.06 51.82 51.13 50.84 51.03 51.90 52.27 53.19 53.83 53.67 52.91 53.18 53.39 53.38 52.95 51.18 50.06 49.35 49.49 48.47 48.63 48.43 47.89
44.22 47.08 45.87 44.97 45.10 44.89 45.47 44.46 42.93 41.75 40.49 35.74 38.76 38.23 38.70 41.04 43.57 45.66 47.84 48.46 49.12 49.99 50.77 50.88 51.44 51.74 51.68 52.22 52.54 52.96 53.58 52.29 52.75 52.66 52.21 51.71 50.72 49.54 49.85 49.72 49.12 48.63 48.06 47.81
43.35 43.58 45.91 46.91 44.64 45.58 44.90 42.18 35.69 34.65 35.17 33.77 38.52 36.88 40.57 42.51 44.95 48.24 47.64 48.53 49.20 50.38 50.66 50.78 50.51 50.57 51.11 51.74 52.49 52.84 53.14 51.43 51.45 51.40 51.30 51.08 50.78 50.34 49.48 49.21 48.47 47.43 47.26 47.09
38.48 37.18 43.40 45.61 44.57 43.01 41.37 42.09 36.70 29.22 30.93 34.41 37.83 35.47 40.95 44.79 46.16 49.76 49.68 50.03 49.73 50.02 50.51 50.52 50.92 51.61 51.83 51.12 51.14 52.14 51.73 50.65 50.26 50.20 50.44 50.64 49.99 49.42 48.12 47.01 46.80 46.47 46.18 46.14
38.95 38.29 44.58 44.59 45.64 45.40 41.03 38.10 41.23 34.52 31.55 32.45 36.13 39.40 43.51 43.93 44.64 46.86 48.19 48.32 48.85 49.73 49.84 50.51 51.09 51.06 50.86 50.43 50.26 50.90 50.25 49.34 48.46 49.68 49.48 47.98 47.61 47.14 46.91 46.55 46.09 45.54 45.73 44.93
42.48 37.63 42.36 44.03 45.52 44.82 43.50 43.16 37.16 36.08 28.85 27.37 32.57 34.18 37.94 41.09 42.53 45.38 46.83 47.67 48.80 48.83 49.01 49.60 49.44 48.68 48.91 48.90 48.51 49.20 49.04 47.62 48.31 47.99 47.14 46.17 45.72 45.05 44.73 44.79 44.28 44.23 44.63 44.63
42.99 41.41 39.70 42.79 41.22 40.87 41.22 38.93 36.97 37.31 33.81 29.49 27.55 33.79 41.98 43.25 44.74 44.98 47.40 48.65 47.77 47.67 47.70 47.68 47.46 48.02 47.23 46.34 46.59 47.16 45.82 46.68 45.86 44.88 44.87 44.69 43.84 43.73 43.54 43.14 43.46 43.42 43.62 43.40
42.55 39.57 36.47 39.29 42.53 44.07 42.59 40.12 38.86 33.84 30.83 31.23 31.39 34.35 41.18 43.50 45.76 46.43 47.19 45.94 46.50 46.62 46.42 46.29 46.20 45.93 45.30 45.16 44.36 43.42 44.72 43.11 43.71 44.66 43.61 42.88 42.96 42.76 42.57 42.16 42.00 42.16 41.03 41.47
42.82 38.38 34.32 36.41 39.65 42.07 40.60 40.05 37.49 35.62 35.03 31.63 33.00 34.52 41.60 43.25 43.35 45.91 46.12 45.15 44.72 44.78 44.63 44.98 44.59 44.83 44.60 43.11 44.07 43.89 42.63 42.50 42.66 42.66 42.48 42.33 42.01 41.78 41.07 40.64 40.70 40.96 40.54 40.79
43.98 38.01 37.37 34.71 36.32 38.15 36.90 38.15 37.56 37.82 33.29 32.42 34.01 35.92 38.94 42.30 42.60 43.11 43.86 44.50 44.32 43.86 43.48 44.38 44.27 43.85 42.81 43.06 43.11 41.49 41.72 42.03 41.75 41.73 41.65 41.44 41.29 40.58 40.31 40.19 39.96 39.95 40.17 39.98
42.39 37.42 37.15 36.27 36.63 36.91 36.47 36.87 36.95 36.16 36.32 35.16 35.76 35.00 39.41 41.68 44.15 44.05 43.81 43.19 42.55 42.52 42.58 43.11 43.24 43.15 43.20 43.16 40.63 40.60 40.88 41.02 41.40 40.12 40.32 40.69 40.61 40.51 39.82 39.22 39.31 39.39 38.64 38.70
40.30 36.04 35.87 34.63 35.70 35.13 34.88 36.38 36.55 36.85 36.06 36.34 35.78 36.02 41.27 42.14 42.99 42.39 42.58 42.36 41.96 42.36 42.74 42.83 42.18 42.71 42.78 40.78 40.32 39.48 39.59 39.52 39.80 38.61 39.29 40.14 39.58 39.41 38.79 38.41 38.35 38.43 37.87 37.48
37.43 35.36 33.26 30.32 31.15 31.46 30.35 35.34 36.61 36.27 37.19 38.88 35.09 40.74 41.73 40.91 41.02 42.69 42.26 42.37 42.29 42.48 42.66 42.09 41.96 42.22 41.42 39.76 39.06 39.04 38.96 38.64 37.69 38.15 39.26 38.56 38.19 37.68 37.56 37.61 37.55 37.30 37.38 36.36
34.62 32.16 29.16 29.90 27.34 25.71 36.32 39.05 38.55 37.71 38.97 38.74 38.68 39.95 41.94 42.00 42.04 42.90 43.88 43.30 42.46 42.66 42.72 41.85 40.79 39.16 39.16 39.28 38.66 37.96 37.42 36.89 37.11 38.19 37.47 37.40 37.19 36.65 36.49 36.15 35.92 36.41 37.58 37.00
37.39 32.90 27.43 29.96 27.44 30.98 35.54 35.33 36.52 36.25 37.61 40.39 39.90 40.58 40.54 40.60 42.27 42.44 43.75 44.40 44.35 43.81 43.04 42.33 39.96 39.32 38.88 38.30 37.34 36.49 36.24 36.66 36.73 36.09 36.64 37.05 36.54 35.41 34.91 34.78 34.39 35.12 35.87 35.75
35.49 34.21 34.35 26.74 27.47 25.34 34.10 37.37 41.75 41.37 34.59 40.93 41.42 39.94 39.69 41.13 38.97 43.07 43.50 43.58 43.62 43.48 41.65 38.05 38.07 37.70 37.72 36.92 36.37 35.97 36.03 35.56 35.33 36.02 36.27 36.58 36.15 34.74 34.29 33.91 33.47 34.68 36.24 35.41
33.45 31.40 30.97 23.10 29.36 30.94 36.31 38.87 42.12 33.58 36.08 39.90 42.06 41.50 40.33 40.65 44.21 42.74 43.22 42.24 42.17 39.58 36.75 37.01 37.01 36.94 36.51 36.22 36.10 35.63 35.04 34.74 35.51 36.04 36.00 35.96 35.25 34.22 34.42 33.62 33.41 33.13 33.56 32.67
33.46 31.56 30.15 25.64 26.64 28.17 38.74 41.01 37.70 41.79 41.11 41.88 42.42 42.04 41.76 42.74 41.27 40.83 40.70 38.36 36.22 35.48 35.83 36.26 35.73 35.61 35.63 36.06 35.46 34.73 34.33 35.52 35.94 35.87 35.24 34.87 34.51 33.93 33.23 33.04 32.62 31.97 31.54 30.47
32.81 36.22 33.93 33.62 34.94 40.16 40.38 42.42 42.91 42.11 41.92 43.28 42.84 43.00 42.99 41.07 41.14 39.01 35.42 34.87 34.87 34.67 34.38 34.98 35.31 34.97 35.29 35.37 35.26 34.17 35.44 35.42 34.90 34.35 34.29 34.30 34.15 33.79 33.60 31.84 31.53 30.54 30.46 29.34
37.00 37.92 35.69 35.53 39.22 38.35 40.53 42.05 42.00 43.29 43.64 44.73 44.71 44.50 43.55 42.49 40.62 35.57 34.31 35.39 34.64 34.04 34.44 34.38 34.15 33.64 33.56 34.16 34.19 34.57 34.53 34.07 33.43 33.30 33.83 33.97 33.40 33.32 32.96 31.94 31.35 30.26 29.66 29.00
37.90 37.69 36.44 35.86 38.96 39.53 41.06 42.00 44.27 43.77 44.18 43.94 44.47 44.24 43.84 41.77 35.57 35.29 35.52 33.25 32.76 33.52 33.86 34.17 33.50 33.00 32.21 33.60 33.81 33.76 33.40 33.20 32.36 32.88 33.19 33.57 33.30 32.32 32.06 31.12 30.90 30.26 30.78 29.80
38.53 38.35 36.25 35.71 40.45 40.84 41.49 43.31 44.48 43.42 43.44 43.86 43.18 39.54 38.52 38.47 36.03 34.70 32.06 32.69 32.99 33.39 32.98 32.98 32.47 32.04 32.59 32.62 32.06 32.46 33.06 32.59 31.88 31.88 32.94 33.46 32.80 32.29 31.60 30.81 30.54 30.23 29.51 29.22

GFSCGP_sfc_wetblb_036.txt.gz
Wetbulb
50.88 47.62 44.57 46.41 47.10 46.57 45.56 45.09 44.37 45.96 47.71 47.48 46.53 47.84 48.99 52.97 55.60 55.18 55.71 56.73 57.49 58.04 58.37 60.59 62.33 63.17 64.08 63.89 63.02 63.55 61.84 57.93 58.23 56.87 55.77 54.46 52.50 53.19 55.00 55.82 55.56 55.91 55.77 54.34
48.92 45.85 47.85 48.75 47.64 46.64 46.04 45.15 45.10 46.01 46.75 48.09 48.10 47.73 49.36 50.88 54.68 55.86 56.15 56.51 57.07 57.03 58.52 59.93 62.08 62.48 62.49 62.82 63.84 62.58 62.13 61.36 60.47 60.30 58.84 58.61 57.37 56.67 56.39 55.88 55.57 55.57 54.12 53.33
46.35 47.16 49.19 48.49 47.35 46.44 46.43 45.44 45.22 44.84 46.54 48.64 48.21 46.61 48.14 49.40 51.66 53.48 55.00 57.06 57.25 57.95 58.63 59.70 61.31 62.78 61.97 61.73 62.67 62.90 63.72 63.12 61.79 59.86 58.58 57.74 56.64 55.63 54.94 54.71 54.95 54.65 53.88 53.39
47.86 49.01 47.95 47.91 46.43 47.46 44.55 47.65 46.94 45.78 45.42 42.33 47.45 40.79 47.23 49.29 49.07 50.83 53.27 55.20 57.03 58.36 59.38 60.76 60.68 61.31 62.60 62.92 63.85 63.63 62.65 61.34 59.84 59.22 57.86 56.84 56.85 55.17 56.65 55.56 55.61 54.49 53.26 53.20
46.09 47.40 47.30 46.52 46.40 47.61 46.19 48.24 47.17 46.50 46.00 45.12 44.72 42.44 46.56 48.68 47.94 49.38 52.21 55.05 57.26 58.28 58.79 57.94 58.20 59.44 60.62 61.42 61.44 60.97 59.98 58.99 58.45 57.89 58.36 57.94 56.42 56.45 55.60 55.32 53.21 53.88 54.18 52.58
48.30 50.70 49.78 48.62 48.87 49.19 50.05 48.67 48.17 47.76 46.54 39.67 43.94 43.05 42.73 46.28 48.27 50.52 52.24 55.25 56.31 56.43 57.01 56.51 56.65 57.09 57.02 58.21 58.27 57.99 57.50 57.19 57.71 57.78 57.48 56.99 55.53 54.35 53.67 53.25 51.99 51.29 51.53 51.63
47.23 47.41 49.82 50.47 47.97 49.61 49.16 46.17 40.43 37.79 38.47 37.11 43.70 42.08 43.62 47.70 49.52 51.91 52.44 54.79 55.38 55.90 55.40 54.88 54.80 55.19 55.77 56.42 57.21 57.86 57.33 56.40 57.22 57.01 56.53 55.67 53.85 52.55 51.37 50.96 50.65 50.27 50.05 50.29
42.65 40.64 46.80 48.92 48.32 46.32 46.24 45.21 39.76 30.85 34.31 39.02 42.85 39.79 45.89 49.36 50.42 53.10 54.88 55.61 55.16 55.00 55.34 55.01 55.31 55.82 56.04 56.48 57.37 57.05 57.08 55.57 55.68 55.17 53.59 53.23 52.20 53.42 52.74 51.48 50.95 50.10 49.33 49.04
43.04 41.98 47.91 47.94 49.47 48.90 45.11 43.31 46.57 40.30 37.33 37.92 42.02 44.42 48.22 48.90 49.05 52.07 53.59 54.34 54.05 54.35 55.05 55.08 55.62 56.18 56.33 56.27 56.30 56.63 55.61 54.37 52.65 51.51 51.32 50.80 52.80 51.37 50.60 49.64 49.36 48.39 47.50 46.32
47.14 41.49 45.85 46.83 49.12 48.84 47.75 48.26 41.16 42.67 32.43 30.94 38.48 39.49 42.28 45.62 47.54 50.20 52.25 53.11 53.61 54.67 55.04 55.11 55.49 55.65 56.09 56.09 55.19 55.44 54.28 52.67 49.79 49.84 51.13 51.62 50.85 49.79 48.67 48.75 46.44 45.90 46.06 45.85
49.25 45.98 43.73 46.32 45.21 44.94 44.97 44.38 43.20 43.51 40.90 34.51 33.41 39.40 47.57 46.96 49.12 49.69 52.41 53.64 53.86 54.48 54.68 54.91 55.17 55.13 54.94 54.08 53.64 52.87 50.98 48.83 48.44 48.40 49.08 49.25 48.18 47.73 47.78 47.17 45.69 45.38 45.53 44.94
48.11 47.14 42.27 43.86 46.52 47.81 47.17 45.73 45.13 38.86 36.28 39.16 38.34 39.02 46.47 48.77 50.67 51.53 52.18 53.41 54.58 54.88 54.71 54.55 54.01 53.39 52.22 51.50 50.97 50.06 48.32 46.99 46.80 47.91 47.64 46.81 46.95 46.66 46.54 45.30 44.62 45.13 44.22 43.95
48.37 45.16 39.95 40.90 44.13 46.44 44.73 46.11 45.07 42.88 42.38 37.96 36.91 39.33 46.59 48.68 49.15 51.13 51.97 53.12 53.14 53.04 52.73 52.72 52.33 51.58 50.70 49.71 48.80 46.55 45.45 45.67 47.36 46.82 46.14 46.00 45.71 45.53 44.77 43.96 44.42 44.10 43.17 42.95
47.78 45.93 43.53 39.20 41.76 45.03 42.38 44.00 44.59 43.84 38.38 38.92 39.72 40.97 43.88 46.47 48.07 49.93 51.47 52.72 52.17 51.48 50.80 51.04 50.71 50.64 49.28 48.22 45.68 46.02 46.33 46.57 46.38 45.30 45.06 45.11 45.00 44.89 44.56 43.67 43.58 42.79 42.71 42.19
48.51 43.20 43.42 42.33 41.95 41.93 42.18 42.64 43.42 41.90 42.72 38.93 41.58 41.02 43.79 45.84 47.54 49.46 51.65 51.86 50.95 49.72 49.46 50.06 50.01 49.63 48.31 47.31 47.42 47.04 46.54 46.18 45.24 44.03 43.77 43.84 44.72 44.11 43.41 42.90 42.31 42.05 41.85 41.72
46.24 42.65 41.84 39.71 41.06 40.74 39.63 42.69 42.90 43.61 43.47 42.93 43.46 42.61 48.10 48.55 48.52 49.28 49.65 49.90 49.38 49.17 49.24 49.26 49.62 49.01 47.89 47.40 46.75 45.76 45.17 44.08 44.10 43.29 42.65 43.23 42.94 42.13 42.11 41.66 41.08 41.19 41.38 41.33
45.21 42.87 39.96 36.10 37.51 37.82 35.91 41.16 42.91 43.22 44.93 44.39 40.98 45.48 47.36 46.11 46.54 47.94 49.16 49.56 49.28 49.43 49.14 49.01 48.70 47.89 47.33 47.02 45.48 44.30 43.59 43.60 42.83 42.30 42.03 42.25 41.48 41.03 40.82 40.55 40.32 40.23 40.26 40.70
42.39 41.90 39.14 36.88 33.87 31.76 40.74 43.30 43.36 43.86 45.04 46.16 45.35 46.15 46.60 47.10 48.72 49.22 50.78 50.47 49.56 49.58 49.42 49.37 48.67 47.22 47.26 44.95 44.22 43.83 42.89 42.20 41.79 41.01 40.86 40.77 40.52 39.86 40.07 39.79 39.48 39.71 39.78 39.51
44.22 41.56 35.24 36.79 34.36 38.20 40.57 40.42 39.92 39.88 41.13 45.88 45.11 46.12 46.27 46.78 47.31 48.53 50.32 51.04 50.79 50.58 50.54 50.20 48.91 46.00 44.36 43.31 43.10 42.31 41.43 41.13 39.94 39.62 39.66 40.11 40.11 39.51 39.52 38.90 38.85 38.85 38.76 38.66
41.81 42.37 41.93 35.04 35.54 33.78 39.85 42.44 45.63 45.15 38.56 45.10 46.14 45.83 45.74 46.59 43.50 45.88 50.37 50.03 50.34 50.94 50.63 47.80 44.48 43.31 41.44 42.54 41.92 40.96 40.08 39.32 38.51 38.94 39.64 40.14 39.87 39.21 38.70 38.53 38.19 38.48 38.45 37.16
39.03 39.13 37.57 36.13 36.62 38.88 42.90 43.08 45.87 36.31 39.19 46.64 47.00 47.52 47.01 45.65 47.93 48.68 50.44 49.98 50.68 49.74 47.10 43.58 40.66 39.81 41.46 41.09 40.77 39.58 39.06 38.11 39.03 39.77 39.74 39.20 39.23 38.76 38.74 38.49 38.57 37.89 37.21 36.56
39.38 38.21 37.03 35.33 35.00 33.11 43.79 44.56 40.86 45.78 48.24 47.08 48.08 48.65 48.28 49.26 47.36 47.28 48.54 47.80 46.37 44.26 41.16 41.09 40.10 39.54 39.93 40.18 39.48 38.16 37.35 39.19 39.56 39.31 38.49 38.26 38.58 37.87 37.15 37.60 37.88 36.97 36.33 34.84
38.64 42.85 42.04 41.07 42.16 44.71 46.23 47.61 48.94 48.63 47.79 48.29 48.49 49.14 48.78 48.19 47.01 46.16 45.74 44.51 42.27 41.10 39.99 41.73 41.31 38.52 39.05 38.74 38.68 36.67 38.42 38.83 38.33 37.44 37.38 37.87 37.58 37.18 37.25 37.05 36.01 35.40 35.33 33.65
42.97 43.28 42.06 40.41 44.27 45.08 46.45 47.97 48.74 48.93 48.23 48.81 49.34 49.42 49.56 48.45 48.18 44.87 42.65 40.97 40.34 39.12 39.09 37.81 38.58 37.69 36.71 37.28 36.88 38.01 37.93 37.78 36.94 36.29 36.44 37.11 36.99 36.57 37.15 36.05 34.71 34.28 33.32 31.87
44.09 43.55 42.10 42.01 45.24 45.96 46.53 46.89 47.92 48.56 49.78 49.16 49.74 48.88 48.72 48.83 46.75 42.87 40.91 39.84 38.54 35.74 36.10 38.23 37.33 37.15 36.56 36.50 36.59 37.48 37.03 37.18 35.74 35.65 35.91 36.18 36.71 36.27 36.03 35.61 34.35 33.33 33.78 32.71
44.12 42.90 42.20 41.58 43.92 44.05 45.72 48.22 48.74 47.87 48.27 48.88 48.20 45.38 45.83 46.41 43.01 41.94 38.12 36.43 35.77 35.67 37.56 37.06 36.52 35.30 35.28 35.37 36.01 36.40 36.59 35.84 34.92 34.35 35.01 36.03 35.86 35.21 34.53 34.27 33.20 31.76 30.52 30.50

GFSCGP_sfc_wetblb_039.txt.gz
Wetbulb
52.92 48.36 45.73 47.10 48.47 47.94 46.35 44.79 43.96 46.20 47.90 46.93 46.47 47.81 49.98 53.89 54.32 55.09 56.69 57.57 57.94 58.45 60.51 61.94 63.29 63.75 63.77 66.14 64.40 63.53 62.69 62.66 61.75 59.11 58.59 55.74 55.10 54.51 55.33 55.79 57.10 57.54 57.52 55.76
48.82 45.78 48.93 49.57 48.21 47.21 46.16 45.50 44.78 47.56 47.94 47.84 46.67 47.06 50.08 52.61 53.75 54.95 55.80 57.29 58.32 59.29 60.22 61.33 63.02 63.87 64.32 64.79 64.04 63.62 63.05 62.26 63.58 60.32 61.22 60.62 58.31 57.53 58.26 57.42 57.85 57.99 55.95 55.09
46.25 48.48 50.49 48.37 47.43 45.95 46.36 45.07 45.82 45.72 47.63 48.26 48.23 46.75 49.26 51.99 54.87 56.26 57.13 57.84 58.64 59.37 59.47 60.89 62.22 63.26 63.84 63.13 62.93 64.17 63.44 63.92 63.33 63.15 61.27 60.19 59.61 58.43 57.07 56.75 56.55 56.27 55.07 54.60
48.20 51.07 49.17 47.91 46.19 47.54 44.76 49.08 47.64 46.51 45.84 42.08 49.01 40.31 47.35 50.82 51.64 53.90 55.76 57.58 58.23 59.21 60.43 61.59 62.45 62.15 63.25 63.57 65.18 64.27 63.71 63.32 62.34 60.99 59.47 58.25 56.69 55.72 57.08 57.11 57.33 56.32 55.17 54.11
47.02 48.48 47.92 46.50 47.70 49.52 46.88 49.69 48.34 47.32 46.11 45.73 46.01 42.67 44.94 50.99 49.42 51.54 54.34 56.53 58.40 59.90 60.93 61.62 62.64 63.39 63.85 64.02 63.53 63.50 63.06 61.53 60.43 60.00 59.41 58.46 57.80 58.26 58.11 57.68 55.77 55.13 54.70 53.89
47.47 53.08 50.89 50.08 50.28 50.11 51.07 48.81 48.61 48.20 46.35 40.72 44.67 43.55 43.58 47.28 49.76 52.07 54.11 56.03 58.25 59.78 60.78 60.87 61.86 61.70 61.25 62.71 62.64 61.77 60.71 59.60 59.74 59.20 59.48 58.67 57.14 55.54 54.41 54.70 53.31 52.64 52.14 51.92
48.28 48.71 51.27 51.76 48.46 50.51 49.73 47.23 40.59 38.77 39.38 38.11 45.85 43.28 44.92 49.52 51.34 52.55 53.66 55.78 58.37 59.27 59.28 58.68 58.36 58.49 59.14 59.68 60.02 59.45 58.96 57.86 58.66 58.92 58.47 57.47 56.00 54.42 52.17 52.79 51.60 50.51 50.42 50.41
42.65 41.74 48.75 51.27 49.83 47.42 47.99 46.83 41.18 33.21 35.19 38.89 45.69 39.88 46.13 52.17 52.73 54.00 55.90 57.11 57.95 57.91 58.43 57.37 57.04 57.34 57.69 58.16 58.68 58.57 58.18 57.13 58.20 57.66 56.55 55.49 53.99 52.57 52.46 51.76 51.05 50.10 49.38 48.97
43.63 42.58 50.00 50.15 51.07 49.99 47.21 43.80 48.74 42.43 42.44 38.67 41.23 45.53 50.43 51.41 51.22 53.45 55.06 56.37 56.52 57.23 57.25 56.50 56.87 57.51 57.71 58.11 58.54 58.54 57.59 56.67 56.55 55.27 54.35 53.17 52.39 51.92 51.16 50.49 50.41 49.28 48.46 47.29
48.00 42.45 47.96 48.86 50.97 50.85 48.96 50.10 42.45 43.22 33.78 32.98 39.70 40.84 43.64 47.09 48.69 51.90 53.92 55.20 56.09 57.01 56.73 56.63 57.11 57.58 58.14 58.52 58.80 58.91 58.20 55.89 54.56 53.67 52.71 51.53 51.53 50.98 49.99 49.62 48.06 47.29 47.08 46.57
49.81 46.93 45.89 48.07 46.69 45.59 47.17 45.35 45.61 45.12 43.47 36.17 34.60 41.32 47.78 47.08 49.73 50.95 53.66 55.62 56.43 56.52 56.46 56.74 57.27 57.94 58.25 58.37 57.78 57.26 55.98 53.83 52.95 51.81 50.58 50.79 49.98 49.22 48.47 48.27 47.72 46.31 46.23 45.56
50.53 47.68 42.91 45.00 49.58 50.46 49.62 47.31 47.15 40.86 38.68 41.25 40.48 40.28 48.51 49.64 50.39 52.10 53.10 55.17 56.83 56.95 57.05 57.37 57.50 57.64 57.28 56.57 56.26 55.01 53.25 52.04 51.19 49.65 48.71 49.54 49.15 47.96 47.22 46.86 45.85 46.06 45.23 44.90
50.86 45.36 40.16 42.48 46.53 48.88 46.37 47.45 47.22 46.65 44.58 40.13 38.66 40.62 49.09 49.78 49.25 50.99 52.16 54.17 55.84 56.37 56.77 57.10 57.14 56.41 56.07 55.12 54.51 52.88 51.96 50.30 49.03 47.53 49.03 48.41 47.56 47.24 46.52 45.60 45.42 45.38 44.60 43.77
50.10 46.52 43.76 39.84 43.10 47.12 44.89 46.43 47.52 45.69 40.70 40.33 41.11 43.05 45.93 47.62 48.20 49.58 51.27 53.12 54.87 55.69 56.13 56.49 56.10 55.67 55.16 54.25 52.93 51.70 49.85 48.94 47.90 48.42 47.92 46.87 46.70 46.46 45.66 45.28 45.13 44.58 43.71 43.05
50.61 44.73 46.16 46.24 46.22 45.96 45.51 45.09 45.58 44.46 44.72 41.71 43.14 43.41 45.62 47.03 47.70 49.65 51.07 52.03 53.09 53.99 54.62 54.70 54.68 54.59 54.30 52.65 51.63 49.98 49.75 48.87 48.44 47.28 46.17 45.79 46.17 45.72 45.07 44.40 44.29 43.59 43.21 43.01
50.45 44.87 45.59 42.92 46.18 45.34 43.45 45.22 45.43 44.92 45.33 44.83 44.85 44.14 49.05 50.06 50.32 49.45 49.85 51.03 51.53 53.04 53.70 53.66 53.86 53.82 52.71 51.15 50.07 50.23 49.04 48.01 47.61 45.82 45.05 44.95 44.30 44.25 43.73 43.51 42.99 42.53 42.29 42.44
48.55 45.96 42.47 38.20 41.71 41.44 37.16 42.94 44.35 45.16 46.47 45.96 42.71 46.76 49.37 48.59 48.38 49.05 49.61 50.78 50.94 52.25 53.10 53.24 53.35 53.32 52.35 51.24 50.44 48.62 47.28 46.55 44.97 44.76 43.96 43.11 43.46 42.55 42.67 42.24 41.84 41.32 41.37 41.70
47.31 46.03 43.41 38.81 36.04 30.91 43.02 45.79 45.06 44.49 46.07 47.28 46.99 47.53 48.42 48.20 50.10 50.96 51.51 51.41 51.57 52.18 52.91 53.48 53.49 53.13 52.49 51.60 49.29 46.78 46.73 45.29 44.31 43.22 42.23 42.34 42.28 41.76 41.63 41.23 40.99 41.05 41.25 40.28
48.65 45.35 38.87 37.70 36.66 40.84 42.51 43.63 42.66 41.82 42.27 46.86 45.76 46.82 47.87 49.36 49.63 49.82 51.99 51.95 52.15 53.15 53.84 53.97 54.00 52.99 51.35 48.49 45.97 45.52 43.92 43.45 42.27 41.36 41.16 41.22 41.47 40.72 40.52 40.17 40.40 40.81 39.96 39.65
45.02 46.48 42.60 37.88 34.82 32.61 42.52 45.00 47.38 46.66 39.35 46.89 47.16 46.99 46.78 48.39 44.46 47.96 51.08 51.60 52.05 53.31 53.78 53.27 53.07 51.32 48.33 46.26 44.97 44.04 43.20 42.53 41.02 40.42 40.21 41.05 40.97 40.17 39.68 39.92 39.90 40.38 39.75 38.68
41.17 41.65 39.02 39.01 38.30 41.56 46.09 45.96 47.71 38.01 41.11 48.31 48.69 48.54 48.57 47.08 49.53 51.68 52.05 51.80 52.93 53.21 53.12 52.79 50.34 47.00 46.29 45.58 44.37 42.77 41.85 40.21 40.19 40.87 40.74 40.36 40.23 39.80 39.98 39.64 39.73 39.33 38.90 38.20
40.91 40.70 38.22 41.17 35.97 33.40 46.77 46.53 41.71 47.70 49.22 49.52 49.71 49.76 50.08 51.12 51.31 50.39 50.69 51.19 51.62 51.40 50.01 47.48 45.69 43.99 43.03 43.63 41.78 39.94 39.67 40.38 40.57 40.07 39.43 39.30 39.19 39.03 38.92 38.68 38.58 38.77 38.55 36.57
41.33 45.69 44.58 43.66 43.79 47.69 48.38 47.61 49.63 50.17 48.97 49.32 49.68 50.58 50.73 50.13 50.20 50.53 49.82 49.89 49.16 48.23 45.33 44.67 42.89 41.98 40.21 39.85 39.68 37.56 38.92 39.84 39.52 38.66 37.94 38.19 38.99 39.26 39.10 37.81 37.73 37.25 36.70 35.36
46.45 47.15 44.50 42.89 45.82 46.51 47.88 49.27 49.87 50.63 50.14 50.96 51.22 50.65 50.99 50.01 50.78 50.44 48.47 47.13 45.02 44.64 43.13 42.50 40.08 37.95 37.73 39.25 38.50 38.59 38.57 38.55 37.49 36.51 37.01 37.79 37.84 38.05 38.32 37.94 38.00 36.46 34.56 34.05
47.02 46.65 44.46 44.42 46.75 47.70 48.32 49.36 50.30 50.21 51.06 51.12 51.79 51.53 49.71 50.32 50.33 48.87 45.63 44.01 42.91 40.43 39.14 38.19 37.61 37.21 37.47 38.17 37.46 38.30 37.79 37.51 36.52 36.54 36.75 36.63 37.18 37.41 37.37 37.67 37.50 36.03 35.81 34.50
47.52 45.86 44.48 43.96 46.51 46.54 47.69 49.88 49.79 49.48 48.66 48.95 49.19 48.22 47.51 48.38 46.50 45.30 41.81 39.86 38.09 37.06 37.09 36.83 37.12 37.30 37.17 37.03 36.86 37.40 37.70 37.31 36.36 35.33 35.82 36.55 36.38 36.69 36.67 35.71 34.62 34.24 32.10 32.02

GFSCGP_sfc_wetblb_042.txt.gz
Wetbulb
52.25 47.60 44.98 47.23 48.31 47.59 46.52 44.86 44.07 46.04 48.29 46.86 45.97 46.60 48.22 51.99 53.89 54.54 54.98 55.14 55.21 55.34 57.34 59.48 60.75 61.56 63.38 64.11 62.81 62.36 61.31 60.98 60.04 58.93 57.05 56.42 55.29 54.53 54.81 54.29 55.03 55.84 55.92 54.68
48.93 44.27 48.79 49.57 49.02 47.67 46.10 44.69 44.59 45.85 47.04 46.18 45.97 45.10 48.77 50.58 52.30 54.85 55.23 55.19 55.77 56.25 56.91 59.80 61.15 62.07 63.37 63.52 63.57 62.12 61.51 61.13 60.79 60.20 58.93 58.20 56.73 54.86 54.90 55.20 55.89 56.65 55.23 53.42
45.57 46.82 50.35 48.67 46.89 45.03 45.68 44.82 45.09 44.51 46.48 46.23 46.01 43.27 46.70 50.23 52.24 53.92 55.80 57.13 57.56 57.38 57.82 59.34 60.71 61.83 63.32 63.38 62.32 62.40 61.61 61.21 61.70 60.00 60.85 59.48 57.24 56.02 55.48 54.86 54.89 54.67 54.37 53.48
47.12 49.95 48.94 48.17 45.72 47.02 43.50 48.96 47.21 46.50 44.53 39.45 47.20 38.39 45.27 48.02 49.54 52.14 53.67 55.09 56.62 58.00 59.57 60.01 60.97 61.56 63.13 63.21 62.72 63.19 62.67 62.21 62.60 61.76 58.68 56.81 55.09 53.50 54.46 54.49 55.09 53.48 53.66 53.03
45.18 46.13 47.18 46.91 47.09 49.03 45.23 49.55 48.01 46.98 44.50 44.12 42.71 40.09 44.10 48.52 47.14 50.51 54.19 55.79 57.00 58.38 59.28 59.61 61.00 61.86 61.94 62.17 62.78 63.35 62.98 61.55 60.84 59.49 58.55 56.95 56.29 55.18 55.22 55.00 53.99 53.89 53.51 52.90
47.56 51.95 50.20 48.99 49.87 49.63 51.01 48.23 48.06 47.21 45.42 37.88 41.14 40.75 42.10 44.75 47.32 49.42 53.33 55.37 56.97 58.42 59.28 60.74 61.49 62.27 61.37 62.82 63.02 62.51 61.34 59.83 59.01 58.78 58.47 57.59 56.44 54.77 53.59 53.36 52.51 52.07 51.29 49.68
46.92 46.93 50.85 51.78 47.42 50.08 48.45 45.26 39.45 33.26 34.58 37.23 44.42 42.32 44.42 47.79 51.38 52.74 52.87 54.84 56.92 58.69 59.59 60.27 60.41 60.77 60.77 60.64 61.26 60.90 59.76 57.63 58.32 58.02 57.89 57.36 55.56 53.79 51.29 51.27 50.46 48.67 48.02 47.85
41.72 40.55 47.78 50.57 48.13 45.09 46.15 45.35 37.97 31.87 31.59 38.30 45.05 39.88 44.47 51.15 52.74 53.72 55.13 55.56 57.57 58.43 59.40 58.92 59.65 59.12 59.26 59.70 59.31 58.88 58.24 56.91 57.38 57.76 57.06 56.02 53.97 51.79 51.18 51.60 49.47 47.62 46.69 46.13
41.54 41.48 49.24 50.43 50.30 49.73 45.95 43.37 47.98 41.92 43.19 39.34 40.28 42.59 49.65 51.03 51.03 52.67 53.68 55.40 56.38 57.30 57.82 57.45 57.94 57.76 57.91 57.76 57.84 57.62 57.02 56.68 56.81 56.20 54.43 52.69 51.87 51.07 49.44 48.54 48.35 46.68 45.89 45.75
46.41 39.08 47.21 49.50 50.52 50.09 47.24 48.86 42.40 43.15 33.79 32.01 38.09 40.28 42.02 46.57 48.27 51.09 53.01 54.48 55.86 56.85 57.05 56.84 56.27 56.58 56.92 57.58 57.85 58.39 57.75 55.88 55.71 53.99 52.62 51.65 50.98 49.86 48.85 48.47 47.19 45.41 44.65 44.24
47.12 43.09 43.46 48.20 45.84 44.01 46.33 44.61 44.53 43.72 43.45 36.18 34.27 38.55 47.13 47.27 49.35 49.95 52.96 55.07 56.01 56.41 56.50 56.29 55.90 56.84 57.21 57.65 57.82 57.70 56.95 54.81 53.34 52.37 51.49 50.23 48.76 48.28 48.00 47.02 45.54 44.43 43.85 43.46
49.78 47.46 43.18 44.55 49.42 50.44 48.43 46.26 46.35 41.63 38.38 41.75 40.42 38.98 48.99 49.58 50.21 51.48 52.26 54.81 56.38 57.04 57.00 56.55 56.46 56.70 56.78 56.92 56.83 56.28 55.73 53.58 52.30 51.03 49.44 48.94 48.52 47.83 47.27 46.09 44.92 43.90 42.91 43.28
50.45 46.00 39.71 41.45 45.92 48.74 45.56 46.16 46.25 46.47 46.31 40.21 37.56 39.35 48.98 49.07 48.66 50.41 51.36 53.19 55.48 56.63 56.53 56.41 56.40 56.10 56.30 56.25 55.55 55.32 54.19 51.93 50.68 48.99 48.06 47.52 47.44 46.06 45.99 44.96 43.89 43.63 42.78 42.04
50.93 46.98 42.64 38.38 41.47 45.90 44.24 45.46 46.11 45.56 40.75 40.09 40.11 41.76 45.65 47.47 47.86 49.17 50.48 51.97 53.38 55.33 55.75 55.95 55.93 55.99 55.81 55.90 54.91 53.75 51.69 50.62 49.01 48.44 47.55 46.47 46.74 46.48 44.85 43.82 43.25 43.07 42.69 41.62
50.07 42.69 44.32 44.38 45.57 45.86 45.21 45.14 45.45 43.76 44.58 40.27 42.92 42.64 45.54 47.84 48.75 49.54 51.92 51.72 51.64 52.35 54.46 55.01 55.78 55.45 55.52 54.77 54.00 52.15 50.82 49.02 49.29 47.74 46.53 45.87 46.29 45.48 44.70 43.56 42.83 43.09 42.20 41.49
50.50 44.08 45.61 43.37 46.13 45.50 42.95 44.40 44.66 44.72 44.69 44.11 44.35 43.97 49.36 49.84 50.29 49.54 49.78 49.43 49.64 51.17 53.19 54.69 55.50 55.67 54.86 54.09 52.01 51.44 49.24 48.80 48.19 46.44 45.52 45.85 44.66 44.43 42.93 42.21 42.54 42.16 41.51 41.00
48.38 46.65 43.57 39.47 42.58 40.90 35.36 42.25 43.59 44.21 45.91 45.57 41.57 46.53 49.34 48.21 48.46 49.48 50.20 50.02 50.39 51.09 51.91 53.91 54.28 54.30 54.33 52.96 51.58 49.46 49.35 48.66 46.17 44.82 44.76 44.03 43.79 42.94 42.14 42.15 41.24 40.29 39.84 40.12
48.44 47.08 45.08 39.57 35.82 31.32 42.36 46.64 44.98 43.28 44.18 45.45 45.80 46.05 46.82 47.86 49.19 50.05 51.05 50.63 51.07 52.41 52.16 53.64 54.00 54.07 53.96 52.44 51.06 49.70 47.70 45.58 44.29 44.03 43.06 43.10 42.56 41.43 41.31 40.83 40.25 40.06 39.84 38.76
50.80 46.61 40.12 36.84 36.20 40.39 42.62 44.19 43.34 42.34 42.02 45.82 44.99 45.84 46.78 48.24 48.90 49.39 51.67 51.76 51.14 51.69 52.65 53.27 53.97 53.65 53.08 51.30 48.92 46.64 45.17 44.03 42.33 41.91 41.75 41.17 40.98 40.46 39.96 39.32 39.13 39.22 38.64 37.58
46.38 48.89 43.61 38.78 35.57 30.95 42.96 45.11 47.39 46.42 38.82 46.86 46.78 46.56 46.86 47.45 43.16 46.57 51.29 52.04 51.53 52.30 52.62 52.63 53.33 52.93 50.29 47.20 46.10 44.52 41.90 41.90 40.85 40.39 40.11 40.77 40.47 39.63 38.75 38.44 38.38 38.74 38.19 37.48
40.78 42.08 37.78 37.97 37.79 40.99 46.21 46.67 47.56 38.24 40.63 48.09 48.23 48.10 48.10 46.59 49.07 50.86 51.61 51.38 52.30 52.33 52.30 52.74 50.53 47.94 46.07 45.54 44.13 41.87 40.53 39.62 40.18 40.62 40.81 40.18 39.85 39.17 38.88 38.05 37.67 36.96 36.20 35.36
39.94 40.31 37.56 41.87 35.17 32.93 47.33 45.94 41.51 47.08 49.76 48.95 49.06 49.40 49.41 50.53 50.78 51.42 50.68 50.43 51.01 50.53 48.08 47.47 44.50 41.98 41.57 41.79 40.77 38.74 38.12 39.88 40.20 39.59 38.99 38.70 38.32 38.09 38.00 37.12 36.53 36.57 35.38 33.66
41.81 45.76 43.87 43.06 42.41 48.53 49.13 47.90 49.91 50.55 49.02 49.43 49.58 49.83 49.86 49.35 49.17 50.23 50.07 49.79 48.81 45.93 45.00 44.04 41.28 39.70 39.27 39.13 38.45 36.44 37.82 39.35 39.10 37.83 36.80 36.87 37.60 38.02 37.87 36.17 35.26 34.54 34.08 31.06
47.30 48.63 45.99 44.74 46.21 47.12 48.27 49.55 50.41 50.40 49.60 50.14 50.82 50.71 50.44 48.91 50.01 49.74 48.04 46.09 42.25 40.85 40.52 39.76 38.77 37.87 37.22 37.84 38.20 38.73 38.24 37.76 36.90 35.90 36.23 36.55 36.44 36.14 36.36 36.11 35.43 33.88 32.21 30.71
47.21 47.47 44.82 44.76 46.95 47.71 48.93 49.42 49.21 49.70 50.34 49.55 50.42 48.33 47.08 48.61 47.53 45.59 42.79 40.20 38.69 38.06 37.98 37.94 36.86 36.30 36.75 38.20 37.91 38.19 37.98 37.71 35.85 35.79 36.12 35.81 35.74 35.39 35.77 36.37 35.18 32.04 32.54 32.19
48.08 46.23 44.73 44.25 46.95 47.14 45.66 46.75 47.87 46.12 45.35 45.93 46.08 43.28 42.78 42.56 40.01 38.84 37.06 37.00 36.76 36.10 36.72 36.05 36.32 36.63 37.32 37.86 37.37 37.78 38.00 37.02 35.76 34.73 34.61 33.92 33.98 33.58 33.95 33.41 32.57 34.12 32.35 32.91

GFSCGP_sfc_wetblb_045.txt.gz
Wetbulb
49.43 42.72 39.65 42.97 45.55 45.98 43.96 42.40 40.48 43.31 46.24 44.10 44.70 43.58 46.13 48.64 50.92 50.09 50.86 51.12 50.57 50.90 55.13 57.40 57.85 60.12 60.64 60.89 59.66 58.93 57.57 57.71 57.43 55.81 54.16 52.95 51.80 51.70 50.68 50.44 51.95 52.69 52.69 50.93
45.66 40.59 47.36 48.69 48.06 45.77 44.59 42.90 42.48 44.87 45.10 42.69 41.44 42.14 45.49 48.21 49.58 51.23 50.35 49.12 48.99 50.13 53.70 54.92 55.08 60.34 60.72 60.10 59.60 58.75 57.90 57.75 57.93 56.41 54.67 53.93 51.11 50.79 50.35 50.79 51.33 52.50 51.98 50.09
43.02 44.99 49.54 48.25 46.57 44.95 44.52 42.24 42.07 42.09 44.83 43.48 40.94 38.85 42.03 46.35 48.79 52.09 52.41 52.51 52.60 51.98 53.45 55.41 56.77 59.91 59.84 59.67 59.63 58.76 58.74 58.08 58.60 58.36 55.63 54.49 52.01 50.69 50.19 49.86 50.54 50.96 50.71 50.32
45.81 49.08 47.73 46.50 45.40 46.43 41.70 47.78 46.50 44.70 41.66 35.07 42.89 32.58 40.66 43.51 46.75 50.21 51.86 51.70 52.59 52.61 55.40 56.38 56.48 58.48 59.80 59.50 60.17 59.76 59.63 59.04 59.22 58.87 56.25 53.51 50.77 49.69 50.39 50.75 50.73 49.61 50.45 49.85
44.20 45.54 45.67 44.55 45.65 47.90 43.31 47.36 46.45 45.51 43.12 41.42 39.84 35.02 39.30 43.96 43.58 46.54 47.69 50.26 52.62 53.83 55.83 56.29 57.03 58.72 60.57 60.11 60.03 60.08 59.85 59.21 59.41 59.27 56.29 53.84 50.71 50.59 51.12 51.42 50.62 49.89 50.87 50.54
45.47 49.37 47.71 46.49 49.02 48.49 48.92 46.30 45.78 43.76 41.39 32.75 40.32 38.63 37.31 41.79 44.85 47.99 50.48 51.49 51.81 52.81 55.93 57.11 58.63 59.96 60.29 60.54 60.20 60.12 59.68 59.28 58.12 56.23 54.23 52.61 51.79 51.58 51.68 51.76 51.17 50.89 50.15 47.96
44.10 45.60 49.24 50.09 44.27 47.86 46.26 41.71 33.55 30.96 30.58 30.47 42.75 39.03 39.48 46.11 48.16 48.70 49.04 50.89 50.55 53.13 53.60 56.40 58.25 58.20 58.93 59.17 59.39 59.47 59.40 56.45 55.72 53.71 52.97 52.49 50.16 49.30 48.89 49.20 49.00 46.90 44.67 43.36
38.32 36.96 44.98 48.73 45.66 43.70 43.53 42.50 32.87 28.17 29.44 31.23 42.63 37.19 40.44 48.13 49.35 50.53 51.48 50.42 51.66 53.34 55.34 57.34 58.26 57.78 58.51 58.89 58.14 58.57 57.11 56.47 55.04 53.37 52.85 50.95 48.59 47.14 46.90 47.62 46.25 45.35 44.84 44.00
39.48 39.73 48.52 49.27 49.78 47.05 43.86 39.18 45.33 37.65 35.68 29.38 35.33 39.99 45.03 47.79 47.69 48.87 49.25 50.85 51.77 52.97 53.42 54.74 55.80 56.60 56.72 55.10 54.52 55.06 54.79 53.60 53.12 52.95 50.07 47.72 47.39 47.08 45.71 45.81 46.29 45.23 44.35 44.13
44.11 38.33 45.52 47.88 49.27 47.97 45.29 46.49 36.64 36.36 27.72 25.80 33.37 34.88 37.48 43.52 46.76 48.50 48.61 50.19 51.53 52.77 52.74 53.30 53.74 53.84 54.29 54.02 53.75 53.47 52.63 52.46 52.19 49.45 48.65 47.36 47.03 45.66 46.33 44.87 45.40 44.32 43.33 42.81
44.99 41.49 41.12 45.28 44.17 41.75 42.45 40.74 41.69 40.23 36.25 28.58 25.75 31.83 41.68 44.09 45.95 46.95 48.53 51.04 51.48 51.90 52.05 51.70 51.61 53.40 53.84 53.28 53.37 53.22 52.04 52.32 50.23 48.78 47.23 46.41 44.91 46.73 47.12 46.03 44.62 43.28 42.21 41.98
46.55 41.70 36.93 41.26 46.62 48.22 45.13 42.85 42.50 30.92 32.89 33.78 29.16 31.66 43.51 44.62 46.40 47.17 48.21 52.21 52.43 53.22 52.36 51.81 51.29 52.47 52.64 52.98 53.69 52.56 50.99 51.42 49.98 48.81 47.00 46.66 47.25 47.78 46.02 44.86 42.57 42.90 41.64 40.95
46.39 39.90 32.69 37.39 42.35 45.55 41.98 43.54 43.22 42.30 38.31 33.62 26.34 31.54 44.14 44.85 43.93 46.77 46.15 49.25 52.62 52.85 52.10 52.01 51.46 52.34 52.67 53.25 54.67 54.00 51.52 50.12 48.24 47.25 47.21 48.14 47.59 46.65 44.64 44.27 43.26 40.93 40.14 39.41
48.08 43.84 38.23 31.99 36.70 41.02 39.73 42.38 42.93 40.49 30.35 32.57 33.43 37.36 42.19 42.91 43.29 44.24 45.52 45.91 49.12 52.33 53.19 52.06 52.04 52.91 54.12 54.48 54.48 53.66 49.83 48.38 47.25 46.94 47.07 46.10 46.15 45.08 43.93 42.38 41.54 40.34 39.71 38.99
45.81 38.85 40.52 40.90 43.07 43.31 42.26 41.82 42.34 41.58 40.51 34.37 37.73 39.48 42.41 42.61 42.72 43.37 45.24 46.21 46.73 48.65 50.95 50.93 51.18 50.92 51.51 51.78 51.54 50.78 48.57 47.39 47.33 46.71 46.19 45.53 45.67 43.76 42.50 41.82 41.15 40.93 39.77 40.61
45.78 38.25 39.20 37.49 43.43 41.89 38.13 40.72 41.00 40.76 41.13 39.94 39.61 39.15 44.15 44.06 44.41 44.46 44.94 45.51 45.76 46.41 48.46 50.56 51.61 52.10 51.75 51.34 49.12 48.82 47.02 46.76 47.39 46.23 44.73 43.82 43.18 42.28 41.93 40.93 40.72 40.34 39.96 39.40
43.09 39.85 34.65 31.74 37.27 36.64 29.23 37.50 39.56 40.81 41.46 40.36 35.17 39.57 43.13 42.63 44.01 43.88 44.12 45.76 46.02 46.62 47.63 50.01 50.30 51.14 50.76 49.97 49.13 46.61 46.69 47.29 45.64 43.45 42.95 42.62 42.69 41.75 40.68 40.32 39.70 38.66 37.80 37.56
42.39 40.38 34.36 29.51 29.57 21.48 38.07 43.17 42.25 40.20 40.72 40.83 40.96 40.98 42.55 42.76 44.12 44.98 45.26 45.01 45.52 47.06 47.68 48.58 49.26 49.21 47.80 48.06 47.12 46.77 45.16 43.55 42.79 41.41 41.01 40.22 40.37 40.16 39.67 38.89 38.63 37.66 37.93 37.43
46.95 38.56 32.32 27.40 27.33 34.87 39.02 41.21 40.57 38.44 37.28 42.13 40.92 42.00 42.87 43.59 43.70 43.97 46.92 46.97 46.02 46.39 47.12 47.81 48.03 46.61 45.29 44.60 44.07 43.59 42.55 41.56 40.89 39.97 39.54 39.61 39.43 38.49 38.49 37.64 37.00 37.38 36.82 36.38
44.29 42.06 32.04 29.58 25.53 21.15 36.51 41.92 44.87 42.99 31.77 43.32 43.35 42.43 43.35 43.19 35.03 40.39 46.13 47.42 47.01 47.03 46.04 45.05 43.40 42.64 41.57 40.71 40.64 40.08 39.23 38.44 37.93 38.60 38.83 39.47 39.30 38.40 37.33 36.97 36.46 36.67 36.17 35.95
31.15 32.11 28.20 25.33 24.47 32.03 43.34 44.20 45.13 30.28 32.93 43.45 44.06 43.59 43.07 41.13 43.06 45.39 46.96 46.98 45.19 42.64 39.85 39.63 38.77 38.00 38.22 39.18 39.04 37.76 38.04 37.14 38.58 39.02 39.18 39.01 38.78 37.92 37.34 36.09 35.66 35.15 34.35 33.44
33.36 31.51 26.49 31.14 30.05 27.58 44.31 42.87 36.41 41.10 43.24 44.05 43.89 43.85 43.62 44.45 45.56 46.50 46.16 42.89 42.00 38.45 38.00 37.66 36.20 35.81 36.75 37.37 37.14 36.32 36.02 38.08 38.51 38.61 38.28 38.21 37.57 36.69 36.93 35.26 34.93 34.59 33.45 31.30
34.24 39.40 34.78 36.08 34.62 43.45 44.05 43.90 45.68 45.60 44.05 44.35 44.51 45.97 46.41 45.51 45.72 44.15 38.82 38.32 37.81 37.36 36.94 37.36 36.36 35.85 36.69 37.13 37.35 35.37 36.64 38.32 38.21 37.00 35.97 35.68 35.99 36.18 36.14 33.47 32.69 31.72 31.56 28.97
42.06 44.99 38.78 37.59 42.07 42.68 45.43 46.63 47.10 46.92 45.57 45.41 44.50 43.71 44.97 43.51 40.90 38.29 37.56 36.95 36.43 36.17 35.78 36.38 36.55 36.09 35.73 36.98 37.62 36.80 36.79 36.48 34.96 33.79 33.99 34.01 33.95 33.80 33.52 33.88 32.85 30.79 26.96 25.53
41.16 42.28 40.95 38.96 43.30 44.06 43.77 44.74 44.97 44.52 44.97 41.69 40.75 40.31 39.62 38.75 37.78 36.89 35.95 35.90 36.13 35.99 36.14 36.07 35.50 34.79 34.98 36.16 36.33 36.23 35.59 35.45 33.71 33.34 33.46 32.78 32.75 32.06 32.25 32.91 31.47 28.92 28.49 27.67
42.60 41.33 34.56 34.06 42.73 41.70 40.19 41.77 42.79 40.79 40.50 41.18 39.28 37.86 37.89 37.36 35.77 36.21 35.68 36.09 35.45 34.88 35.04 34.50 34.66 34.64 34.92 35.29 34.06 34.22 34.72 33.97 32.60 31.66 30.94 28.45 28.75 29.00 30.32 29.96 29.39 32.17 31.46 32.71

GFSCGP_sfc_wetblb_048.txt.gz
Wetbulb
48.13 41.98 38.86 42.45 43.58 44.77 43.89 41.35 39.95 41.87 45.08 44.52 44.74 42.24 44.02 51.67 53.70 52.09 51.58 51.13 50.89 54.33 56.93 57.23 57.31 57.71 57.72 59.45 59.35 58.60 57.17 56.30 56.10 54.78 52.90 52.18 51.59 51.94 50.76 50.53 51.31 51.78 51.62 50.53
43.91 39.43 46.26 47.50 47.37 45.70 43.67 41.10 40.48 42.86 45.27 43.83 41.13 41.27 43.15 50.21 52.27 53.19 52.77 51.30 51.14 51.97 54.39 55.88 56.45 56.70 58.64 58.46 58.60 58.01 57.23 56.38 55.96 55.52 53.78 53.36 51.40 50.79 49.69 49.94 50.51 51.43 49.29 48.50
41.09 43.91 48.07 47.17 44.54 43.50 42.01 41.02 41.02 41.35 42.97 41.30 39.04 36.86 40.40 45.76 49.45 52.17 53.20 53.41 52.44 51.28 53.25 54.17 56.33 57.77 58.36 57.82 57.81 57.41 57.02 56.80 56.63 55.73 54.12 51.40 50.27 49.29 48.11 48.16 48.73 50.52 49.45 49.06
43.85 47.40 46.44 45.07 43.79 44.42 39.66 45.58 44.77 43.30 38.77 33.64 39.40 30.11 38.27 42.48 45.17 49.12 50.57 49.81 50.20 50.74 53.99 54.71 56.89 57.74 58.11 58.04 58.39 57.64 56.95 57.07 57.26 56.39 53.97 51.17 49.27 48.49 48.84 48.62 49.20 49.17 49.00 48.48
42.15 43.44 43.63 43.05 44.27 46.68 41.84 44.97 44.85 44.11 39.55 37.43 38.03 33.98 37.08 40.60 41.21 46.46 49.21 49.31 49.65 51.44 53.33 54.65 57.45 58.26 58.87 58.78 58.11 58.06 57.55 57.14 57.58 57.30 55.19 52.43 49.39 49.29 49.23 49.20 49.03 47.89 47.82 47.69
43.38 47.03 45.97 45.31 48.24 47.63 47.27 43.57 43.33 41.80 39.32 32.01 38.01 35.66 34.97 39.03 42.52 45.25 49.05 49.73 49.79 50.03 52.82 54.15 58.17 58.93 58.71 59.04 58.46 58.31 58.00 57.97 58.22 57.68 55.48 53.15 50.41 49.45 49.06 48.82 47.49 47.07 46.65 45.35
42.03 43.03 46.79 49.07 44.75 46.01 44.29 38.78 30.58 28.31 28.70 29.19 40.30 36.19 37.56 43.62 45.58 46.92 47.41 46.84 49.16 51.36 52.76 53.50 57.13 58.20 58.21 58.22 58.43 58.45 58.21 57.94 58.01 56.88 55.15 52.91 50.92 49.91 49.96 49.71 48.37 44.99 43.75 43.93
36.26 34.35 44.89 48.40 44.22 41.82 42.90 39.56 31.04 26.84 27.22 30.44 39.91 34.19 39.56 45.50 46.98 47.83 48.69 46.86 49.58 50.67 53.50 54.84 57.32 58.34 58.36 58.63 58.61 58.80 58.55 57.69 56.10 54.52 52.37 50.53 49.32 48.86 48.22 47.85 47.20 45.57 44.31 43.27
36.51 38.14 46.10 47.46 47.83 46.17 42.25 38.38 42.85 35.10 32.86 28.63 35.03 37.45 43.72 45.96 46.21 47.50 45.95 47.95 47.96 50.27 53.26 55.37 56.63 57.48 58.24 58.47 58.52 58.54 58.56 56.73 54.30 53.31 51.47 47.97 46.70 46.70 45.48 45.82 45.90 45.03 43.95 43.16
41.50 36.31 44.58 47.57 48.37 46.72 43.26 44.64 36.47 36.13 27.74 26.46 31.30 32.74 36.11 41.76 44.40 46.42 46.00 46.85 49.97 51.33 53.28 54.86 55.62 55.71 57.26 56.71 55.28 53.59 54.93 53.63 53.36 51.29 49.92 48.37 48.48 47.71 46.72 46.11 44.98 43.97 43.42 42.16
43.17 39.62 39.01 44.14 43.07 41.23 40.47 38.63 39.29 37.94 33.70 28.30 25.13 30.57 39.28 43.16 45.56 46.10 46.77 48.91 50.46 50.61 51.85 53.55 53.84 54.76 55.06 54.46 52.22 51.31 52.05 52.94 51.02 49.01 48.49 47.36 46.35 47.66 47.79 45.91 44.63 42.78 43.00 42.71
44.30 40.57 34.71 39.25 45.91 46.75 43.58 40.15 40.72 30.31 31.24 31.73 27.70 30.68 42.02 44.17 45.46 46.87 47.44 50.09 50.71 52.02 51.48 52.98 53.44 53.63 53.13 53.30 52.57 51.60 50.43 49.66 48.37 47.29 46.49 46.26 47.07 48.00 46.25 44.71 44.05 44.03 42.75 41.69
44.37 38.49 32.08 36.27 41.47 44.23 41.08 42.15 41.78 40.00 35.07 31.48 25.99 30.86 42.48 42.39 42.97 45.52 46.58 48.49 51.03 51.66 50.97 51.48 52.43 53.08 53.31 53.37 53.15 51.08 50.37 49.47 48.18 47.29 46.75 47.31 47.78 46.53 45.54 43.84 43.48 43.24 40.82 39.57
46.35 40.16 36.30 31.18 35.86 39.24 37.19 41.16 40.93 38.31 29.06 31.29 31.87 35.96 41.07 42.83 42.03 42.58 44.09 45.44 49.58 51.31 51.65 50.77 50.88 52.54 53.24 53.14 53.49 52.24 50.43 49.34 48.01 46.94 46.78 47.11 47.09 45.73 43.72 43.33 40.30 39.49 38.84 38.00
43.72 37.46 38.87 39.57 41.00 41.25 40.02 39.71 39.62 37.87 37.99 32.77 36.29 36.92 40.93 41.32 41.23 40.87 42.65 43.94 46.16 48.88 49.91 50.01 49.33 49.39 49.86 51.11 50.62 49.23 47.96 47.33 47.40 47.00 46.65 46.65 46.39 43.72 42.63 41.06 39.81 39.05 39.35 38.33
44.02 36.70 37.52 36.39 40.44 39.84 37.09 38.16 37.86 38.85 38.91 38.42 38.03 36.57 40.25 41.39 42.12 42.37 42.86 44.15 44.34 45.46 47.45 48.66 49.78 50.26 50.71 50.60 48.56 47.77 46.76 46.72 47.12 46.51 45.52 44.78 42.68 42.25 41.42 40.34 39.09 39.73 38.97 38.23
40.93 37.91 32.38 30.86 34.66 35.03 29.39 36.38 38.07 38.47 38.60 39.30 33.68 38.01 40.08 40.64 41.38 41.15 42.21 43.61 43.98 44.88 47.00 49.22 49.49 50.18 50.22 49.44 48.07 46.19 45.91 46.29 43.25 43.12 42.46 42.60 42.03 40.77 40.22 39.61 38.94 37.86 37.75 37.41
39.34 37.10 31.61 27.84 28.20 21.90 37.44 42.06 41.06 38.13 38.35 38.68 39.09 39.14 40.88 41.63 41.76 42.52 42.83 42.58 43.52 44.74 45.76 46.78 47.44 46.99 45.41 45.20 44.42 43.61 42.90 41.71 41.16 39.47 39.55 40.42 39.73 38.76 38.94 38.69 38.22 37.69 37.77 36.74
44.40 36.13 30.55 26.37 26.77 33.12 37.73 39.27 38.08 36.49 35.39 39.91 39.28 40.56 40.94 42.57 42.65 42.45 44.86 44.09 43.07 43.82 41.81 40.91 41.33 41.19 41.67 41.77 41.89 40.30 39.45 38.89 38.42 38.02 38.30 38.16 38.28 38.02 38.18 38.05 37.38 36.90 35.47 35.46
41.41 38.60 32.90 28.16 24.43 21.97 34.78 39.81 42.66 41.63 30.54 41.52 41.53 41.46 41.92 40.93 34.53 38.75 43.09 40.86 38.40 38.37 38.48 37.84 38.30 38.20 37.80 37.91 38.17 37.39 37.20 37.57 36.60 36.95 37.44 38.26 38.94 38.96 37.88 36.83 35.62 35.46 34.89 33.91
31.05 30.99 27.78 23.22 23.39 29.15 39.24 42.37 42.91 30.06 31.32 41.80 42.32 41.86 41.25 40.07 40.76 42.19 39.61 37.93 37.88 37.28 36.74 37.05 36.53 35.92 36.73 38.06 38.29 36.73 36.84 35.91 38.48 39.65 39.87 40.03 39.13 36.84 35.68 34.35 33.97 33.21 32.61 31.74
32.73 29.59 25.41 28.17 23.50 25.72 43.37 41.39 35.97 37.89 41.44 42.23 42.27 42.03 42.44 42.91 41.40 39.82 37.91 36.89 36.33 35.39 35.57 36.13 35.50 36.39 37.41 37.84 37.46 36.40 36.23 38.15 39.07 39.04 37.74 36.70 35.47 35.31 35.16 33.00 32.43 31.94 30.71 29.37
33.54 35.55 32.32 34.15 32.70 41.11 42.89 42.29 43.30 43.79 42.78 42.70 43.26 44.25 44.15 39.61 37.37 37.05 35.65 35.82 35.82 35.40 35.11 36.06 35.57 35.76 36.73 37.04 36.29 34.34 35.62 36.81 36.88 35.94 34.30 33.82 33.82 33.98 33.64 31.27 30.20 29.37 29.19 26.82
39.98 43.79 38.05 36.91 40.59 41.98 43.33 44.42 44.42 43.41 40.31 40.26 41.31 41.71 41.24 37.37 37.02 35.80 35.67 35.40 35.19 36.44 36.53 36.89 36.09 34.94 34.85 35.91 35.80 35.23 35.27 35.07 33.57 32.19 31.96 32.00 31.52 31.51 31.26 31.15 30.70 29.38 25.14 23.31
40.04 41.09 38.25 38.19 40.62 41.75 41.65 41.60 40.87 39.73 39.88 38.89 38.86 38.72 37.83 36.84 35.75 35.55 34.96 35.95 35.87 35.28 35.02 35.44 34.71 34.61 34.39 34.64 33.89 33.90 33.88 33.71 32.19 31.45 31.47 30.88 30.40 30.24 29.95 30.79 30.87 29.58 28.70 28.07
40.96 39.03 34.46 33.36 41.94 39.31 38.40 39.60 41.01 39.12 38.44 38.37 36.90 35.87 36.57 36.40 35.08 34.95 33.77 34.86 34.57 34.22 34.87 34.53 34.09 33.34 33.08 32.27 32.20 32.63 33.04 32.22 30.83 30.12 29.91 28.88 28.04 27.92 28.85 29.30 30.07 32.10 31.47 31.49

GFSCGP_sfc_wetblb_051.txt.gz
Wetbulb
46.42 40.11 37.55 40.54 41.88 42.68 40.64 39.10 37.72 39.68 43.58 43.65 42.36 42.14 43.37 49.96 52.80 52.67 52.94 53.54 54.83 56.52 58.69 59.07 59.24 59.00 56.76 56.51 58.12 57.89 56.78 55.80 56.28 54.84 53.13 51.52 51.75 51.36 50.24 50.03 50.85 51.30 50.09 49.04
41.65 37.92 43.82 46.15 45.59 43.98 41.74 40.34 39.48 42.08 44.58 43.20 40.61 41.72 41.79 48.55 51.84 53.29 53.34 51.90 52.04 56.32 56.80 57.79 56.35 56.54 56.02 57.23 58.12 57.37 57.21 55.92 56.22 55.93 52.67 52.68 51.45 51.25 49.77 49.64 50.35 50.83 49.98 48.37
39.67 42.29 46.79 45.54 42.77 42.77 40.33 38.47 39.21 39.90 41.59 39.57 38.09 37.11 39.46 46.73 50.80 53.17 54.07 53.93 52.12 54.01 55.11 56.31 54.73 55.38 55.33 56.97 57.49 57.60 57.26 56.51 55.94 55.17 53.09 50.47 49.52 48.74 48.12 47.73 48.49 49.67 48.26 48.33
41.51 45.25 44.24 42.66 41.83 42.99 37.34 43.25 43.05 41.24 37.57 32.58 37.74 30.15 36.55 40.87 47.14 50.46 52.14 51.34 50.92 52.75 54.94 55.02 54.51 54.30 55.88 56.85 58.12 57.89 57.46 56.59 56.16 55.20 52.99 50.57 49.30 47.97 48.06 47.90 48.14 49.24 48.37 47.41
40.87 42.20 42.09 41.30 42.75 44.42 40.62 43.91 42.21 41.76 38.29 35.74 36.10 33.21 35.58 39.21 42.12 46.30 50.63 51.09 51.02 51.22 53.47 53.89 54.46 55.00 56.57 57.20 57.11 57.05 57.15 56.59 56.56 55.45 54.06 51.59 49.30 48.70 48.18 48.05 48.11 48.04 46.64 46.12
41.63 45.20 43.43 43.05 45.88 45.69 45.70 42.12 41.25 39.90 37.31 30.31 35.51 34.30 33.50 37.39 40.67 44.26 48.72 51.19 50.56 48.84 52.49 53.80 55.37 55.98 56.80 57.11 57.04 56.34 56.50 56.61 57.00 56.01 54.91 52.06 49.85 48.46 47.80 47.25 47.04 45.98 45.00 44.30
40.19 41.06 44.72 46.68 41.99 44.02 42.56 37.27 29.42 27.82 27.86 28.59 38.05 34.72 36.34 41.91 43.78 43.82 45.50 49.15 48.37 48.39 50.56 52.01 54.36 56.21 56.98 57.25 57.20 57.57 56.65 56.27 56.69 56.50 55.32 53.31 50.38 49.24 48.34 48.00 47.63 44.28 42.31 41.20
35.00 33.33 42.17 45.84 42.63 40.14 39.81 37.68 29.58 26.09 25.70 28.61 37.68 33.15 37.49 43.96 45.53 45.75 45.75 46.66 47.51 48.40 50.74 52.85 55.97 56.77 57.20 57.48 57.92 58.02 57.21 56.92 56.88 56.74 55.60 54.02 51.11 49.89 49.27 48.52 46.77 44.01 42.97 42.70
34.94 36.02 44.22 45.46 45.94 44.20 40.75 36.61 40.23 33.22 31.96 28.08 32.33 36.56 41.62 44.49 44.57 45.69 43.55 45.44 47.24 47.33 50.05 53.10 56.15 57.14 57.21 57.43 58.18 58.16 57.59 57.58 57.25 56.81 55.82 51.15 49.67 48.20 46.73 45.86 45.74 44.21 43.42 43.38
40.29 34.13 42.82 44.95 45.76 45.34 42.43 43.42 33.89 33.11 27.02 25.71 29.69 30.74 33.78 40.89 42.81 45.09 43.37 43.98 45.49 47.74 50.01 52.20 55.92 57.08 57.67 57.96 58.39 57.85 58.10 57.78 55.95 53.39 50.62 48.42 47.20 47.09 46.62 46.62 44.91 43.42 43.47 41.72
41.48 38.09 36.87 42.64 40.71 38.92 38.88 37.14 37.09 36.37 31.49 26.82 24.73 30.52 37.35 41.67 43.42 44.35 45.00 46.00 48.26 49.41 51.77 53.61 54.81 56.53 57.58 57.71 57.53 57.32 57.13 55.13 50.69 49.68 47.55 46.76 46.76 46.58 46.79 44.52 43.72 42.50 42.61 42.83
42.37 37.90 32.44 37.96 42.82 44.13 41.06 39.51 38.73 29.76 30.36 29.84 27.44 29.85 40.25 41.34 44.25 44.64 46.21 47.43 49.23 50.43 52.14 53.95 54.69 55.10 55.56 55.82 55.62 55.88 54.81 53.15 50.66 49.68 48.31 46.84 47.07 45.55 44.22 43.41 42.93 43.95 44.56 43.63
42.88 36.49 30.62 34.32 38.38 41.65 39.62 41.28 40.71 37.73 33.14 30.11 25.42 30.40 41.34 40.46 41.58 44.39 45.11 46.20 49.10 50.39 50.34 52.20 52.70 53.62 54.22 54.80 54.37 52.90 50.92 49.64 48.89 47.91 46.76 45.58 45.61 45.03 43.61 43.67 44.76 44.47 41.59 41.31
44.73 38.84 35.53 30.94 35.17 38.24 36.82 39.31 39.34 37.56 29.12 30.54 30.54 34.32 39.39 41.07 40.54 41.87 42.35 44.17 46.37 49.21 49.90 49.47 51.03 52.30 53.25 53.21 51.76 50.66 50.07 49.50 47.73 46.83 46.10 45.75 46.34 45.59 45.26 45.12 43.05 40.40 39.01 38.88
42.63 36.30 37.15 37.77 38.68 38.94 38.54 37.84 38.15 36.93 36.23 32.10 34.90 35.01 39.15 40.02 40.82 40.35 40.69 42.09 43.40 47.40 48.96 48.95 48.32 49.66 50.57 50.48 50.76 48.98 48.01 47.55 47.33 47.07 47.22 46.65 46.74 45.21 43.35 41.68 38.61 38.82 39.54 39.21
41.97 35.15 35.20 33.96 37.97 38.39 36.19 38.44 38.05 37.82 37.44 37.04 36.54 35.81 38.97 39.38 39.79 40.61 41.39 42.75 43.61 45.56 46.27 48.55 48.71 49.04 49.45 50.07 48.30 47.19 46.20 47.00 48.14 47.15 46.98 44.35 42.36 41.62 41.34 41.11 40.34 39.49 39.04 38.87
39.05 36.65 32.52 30.33 33.93 33.94 29.23 35.27 37.88 37.94 37.67 37.80 33.10 37.49 38.64 38.81 40.06 39.55 40.67 42.31 43.06 44.32 46.53 47.67 47.31 48.09 49.03 47.49 46.39 45.29 45.99 46.93 44.83 43.12 42.67 42.49 41.93 40.44 39.55 38.97 38.14 38.18 38.17 38.55
37.59 34.71 30.42 27.12 28.18 21.30 36.08 40.26 39.92 37.33 36.10 36.60 37.01 37.85 39.06 39.34 39.92 40.88 41.17 40.85 42.42 42.70 42.20 42.25 44.67 43.98 43.88 43.50 43.36 42.38 42.01 40.87 40.85 40.74 39.92 39.20 38.74 38.47 38.85 38.87 38.88 39.44 39.00 36.29
41.75 34.43 29.08 26.83 26.61 31.32 35.77 36.99 36.75 35.62 34.05 38.15 37.25 38.59 39.97 41.01 40.48 40.59 41.13 39.84 38.61 37.77 37.19 36.91 37.91 39.46 39.58 39.48 39.42 39.05 38.56 38.41 38.14 37.62 37.86 38.47 38.81 38.46 38.61 38.92 38.64 37.83 35.37 34.00
39.57 37.53 32.79 25.87 24.24 22.65 34.86 39.31 40.93 39.96 29.69 40.16 40.02 39.26 39.85 38.94 32.73 36.96 38.28 37.56 36.27 36.03 36.37 36.20 36.25 36.30 36.23 36.47 37.49 36.87 35.50 35.69 36.11 37.56 37.99 38.85 39.06 39.55 39.50 37.73 35.78 34.21 33.49 32.64
31.37 30.98 29.93 24.54 24.70 29.71 37.68 40.73 40.91 30.46 31.69 40.35 41.28 40.88 39.95 37.98 38.18 37.18 36.31 35.31 35.36 35.23 35.19 36.18 36.08 35.19 35.36 36.59 37.12 36.15 36.72 36.68 38.81 39.91 40.34 41.23 40.34 37.36 36.54 33.85 32.56 31.78 30.78 30.08
34.18 30.40 25.95 26.88 22.93 26.53 40.79 39.44 34.42 36.78 39.52 40.95 40.86 41.02 40.18 38.03 36.61 35.84 35.24 34.51 34.42 33.67 34.60 35.54 35.13 34.93 35.60 36.50 37.90 37.13 37.08 39.08 39.82 38.94 38.13 36.60 36.13 34.52 33.96 31.90 30.92 30.73 29.38 28.37
32.84 36.47 33.41 34.17 32.44 39.32 41.29 39.88 40.85 41.45 41.57 41.00 41.74 42.08 39.13 36.30 35.20 35.21 34.33 34.33 34.22 33.50 32.80 34.79 35.06 35.29 36.02 36.74 36.84 35.03 35.39 35.83 35.26 35.00 33.45 32.97 32.68 32.50 32.07 30.27 29.64 28.72 28.22 26.68
38.72 41.31 36.09 36.28 39.21 40.32 41.24 40.84 40.67 41.29 40.53 41.18 42.60 40.03 38.40 35.49 35.29 34.28 34.36 34.37 34.10 33.77 33.91 35.40 34.98 34.48 34.38 35.85 35.76 35.37 34.50 34.11 32.38 30.88 30.55 30.36 30.09 29.99 29.98 29.73 29.79 28.32 26.51 25.84
40.62 40.86 37.62 36.87 39.01 40.26 39.85 38.49 38.53 38.35 38.69 37.82 38.07 38.14 36.63 35.69 34.75 34.62 33.84 33.38 33.20 33.83 34.66 34.92 34.71 34.52 33.92 33.73 32.44 31.33 30.98 31.25 29.99 29.72 29.73 29.51 29.43 29.10 29.21 29.16 29.32 29.46 29.58 29.45
40.29 39.34 35.91 33.89 40.88 39.53 38.63 38.64 39.35 37.86 36.64 36.80 36.17 35.19 36.05 35.79 34.13 33.54 32.35 33.16 34.16 33.88 34.53 33.26 32.51 31.36 30.27 29.79 30.52 31.27 31.66 30.47 29.58 29.72 29.17 27.80 27.41 27.42 28.21 28.32 28.82 31.96 31.41 32.23

GFSCGP_sfc_wetblb_054.txt.gz
Wetbulb
45.18 39.73 35.97 39.69 40.91 41.09 39.16 37.74 36.24 39.16 41.89 42.08 41.18 41.16 44.38 48.44 50.44 49.56 50.28 51.57 53.66 55.00 56.59 57.20 56.99 57.15 57.97 55.52 57.82 57.79 56.21 55.29 55.77 55.61 54.06 52.29 52.01 51.78 51.42 52.66 52.55 50.97 48.88 47.86
40.81 37.59 42.35 43.98 43.48 41.79 39.94 38.16 37.03 40.48 42.60 40.55 38.18 39.11 41.02 47.18 49.02 50.81 51.11 52.22 53.40 55.42 56.28 57.44 57.16 56.79 55.92 55.68 57.98 57.27 57.01 55.81 56.17 56.37 52.36 52.78 51.55 51.63 51.28 52.18 50.65 50.30 48.72 47.37
38.55 40.90 44.89 44.28 41.57 40.51 38.96 37.94 37.59 38.30 40.84 38.78 37.09 36.37 38.73 44.71 50.42 52.44 53.43 54.04 54.38 54.79 55.51 56.89 56.84 56.06 55.97 55.35 57.19 57.40 57.09 55.98 56.45 55.28 52.66 50.26 50.90 50.30 49.85 48.18 48.44 49.29 48.75 47.57
40.51 43.77 42.33 41.32 40.58 41.42 35.86 41.74 40.93 39.84 37.47 32.19 36.62 29.38 34.36 39.23 46.62 50.72 52.10 51.92 53.40 52.90 56.32 56.43 56.79 55.37 55.83 55.86 57.19 57.61 57.11 55.98 55.96 54.33 53.02 51.10 50.45 48.85 48.99 47.96 48.19 48.92 48.05 47.44
39.19 40.30 40.61 39.62 41.07 43.02 39.77 42.79 41.11 39.55 36.72 34.49 34.02 31.43 34.75 37.38 39.85 45.78 50.38 52.12 52.37 52.20 54.69 55.84 56.64 56.21 56.04 55.70 56.49 57.52 56.91 56.19 56.21 54.73 53.83 52.08 51.05 51.12 50.43 49.37 47.81 48.27 45.97 45.70
40.33 43.56 41.93 41.45 43.86 43.51 44.23 41.54 39.78 38.21 35.58 29.55 33.96 32.38 32.68 35.35 39.29 43.49 48.56 51.84 51.94 50.73 52.14 54.77 56.06 54.75 54.59 54.81 55.31 55.79 56.35 55.98 55.98 55.36 53.95 52.23 51.83 51.17 50.15 47.57 47.24 45.95 44.52 43.73
38.57 39.36 42.76 45.00 40.44 42.94 40.47 36.01 29.17 28.04 27.58 27.77 36.20 33.42 35.50 39.92 41.92 42.84 44.16 49.30 51.85 51.78 49.93 51.52 51.84 52.72 53.47 54.74 55.39 55.74 55.99 55.82 56.19 56.09 55.06 53.77 52.63 52.62 49.98 47.76 47.59 44.52 42.11 40.88
33.46 32.47 40.86 44.15 41.32 38.68 38.12 36.87 29.30 25.58 24.89 28.01 35.47 31.66 37.05 42.11 44.17 44.57 44.70 44.44 49.10 49.37 49.94 50.86 52.29 53.42 54.36 55.44 55.76 56.09 55.84 56.52 56.09 56.79 56.07 54.06 53.80 51.10 49.44 47.99 47.27 45.33 42.96 41.10
33.25 34.34 42.08 43.98 44.25 42.13 38.85 35.03 38.70 31.95 30.65 27.06 31.05 35.58 39.46 41.67 42.18 44.54 43.83 43.27 44.29 44.80 47.12 49.57 51.74 53.72 55.18 55.87 55.84 55.99 56.49 56.93 56.88 56.73 56.39 54.33 53.10 49.97 48.59 47.42 45.89 43.51 41.90 42.75
38.83 32.46 40.75 43.09 43.72 42.99 40.09 42.07 33.40 31.95 26.68 25.45 28.39 29.79 32.01 38.42 41.13 42.89 42.93 43.42 43.54 45.55 46.40 48.76 51.56 54.19 55.71 56.64 56.59 56.79 57.34 57.33 57.20 56.49 56.17 54.84 52.09 49.96 47.62 45.85 43.72 43.57 42.97 41.70
39.46 36.19 34.52 40.62 39.16 38.10 38.05 35.91 35.53 34.95 30.39 26.27 23.88 29.30 36.88 38.66 41.67 42.07 42.43 44.06 44.40 45.49 47.61 49.12 52.56 55.06 55.82 56.09 56.61 56.85 57.55 57.11 56.47 55.57 54.40 51.68 48.50 47.53 46.37 45.65 44.35 43.40 43.06 42.92
40.88 35.98 30.86 36.72 41.04 42.01 39.19 38.09 36.71 29.43 29.59 29.12 26.67 28.57 39.37 39.37 40.37 42.26 44.29 45.13 46.14 48.57 48.93 50.62 52.08 53.94 54.81 55.79 56.23 56.89 57.27 57.13 55.11 52.73 49.98 47.71 46.81 47.23 47.05 44.23 44.74 43.85 44.04 44.61
41.52 34.52 29.03 32.46 36.49 39.42 38.32 39.39 38.91 36.01 32.35 29.37 24.63 29.88 40.23 39.82 40.12 40.78 42.40 43.94 45.97 48.72 49.44 51.10 51.90 53.07 54.90 55.48 55.76 55.51 55.13 54.45 50.54 49.68 48.42 47.79 47.14 46.38 45.31 44.44 44.11 45.50 45.03 43.18
43.82 36.77 33.38 30.11 33.23 36.61 35.48 38.01 38.26 36.60 28.82 30.35 29.74 33.47 38.06 39.67 39.66 40.80 41.51 41.59 42.68 46.54 49.40 49.56 50.32 51.63 52.27 52.80 52.58 51.90 50.03 49.84 49.69 48.63 48.46 47.48 46.83 46.03 43.69 44.74 45.36 44.26 41.69 40.23
41.48 35.24 35.59 35.81 36.84 37.46 36.87 36.59 36.39 35.42 35.14 31.76 34.52 33.42 38.26 38.96 38.38 38.85 39.48 40.21 41.06 44.24 47.47 48.62 48.87 49.51 50.37 50.68 49.66 49.18 48.37 47.16 47.71 46.77 46.68 46.70 46.33 45.50 45.07 44.20 41.36 40.62 40.34 37.95
40.02 34.72 34.27 33.28 36.10 36.02 34.37 35.66 36.13 36.19 35.59 34.95 34.83 34.67 39.38 37.59 37.96 39.47 40.45 42.53 43.73 44.79 45.32 46.48 47.96 47.94 49.34 49.06 48.19 47.04 45.63 45.46 47.15 46.18 45.67 45.54 44.60 43.59 41.01 40.15 40.05 39.60 39.00 38.66
37.84 34.95 31.00 30.26 32.67 34.01 29.47 34.94 35.98 35.99 36.59 37.14 32.44 37.29 37.74 37.00 38.84 37.59 39.16 41.04 41.85 42.21 42.77 45.31 45.62 46.48 47.16 45.96 45.01 44.33 45.36 45.76 44.60 43.17 43.15 42.53 41.82 40.45 39.56 39.30 38.60 38.05 38.84 39.69
35.91 34.05 30.14 26.58 27.89 21.16 36.23 38.77 38.66 37.31 36.80 36.53 35.45 35.31 37.04 38.02 38.59 38.76 38.65 40.05 38.21 37.57 37.37 38.12 40.51 40.77 40.93 41.38 41.03 40.49 40.75 40.49 39.93 39.55 39.47 39.41 39.06 38.62 39.03 39.60 40.18 40.26 39.94 39.09
39.74 32.91 28.51 27.44 26.77 30.84 33.91 36.54 36.17 35.09 34.54 37.32 35.66 37.11 38.35 39.53 39.23 37.81 37.33 36.34 35.39 35.22 35.15 34.71 35.41 36.37 36.82 37.32 37.99 37.45 37.06 37.34 37.65 37.95 38.31 38.83 39.31 39.25 39.30 39.52 39.25 39.81 37.94 35.16
38.32 35.91 31.66 25.49 23.69 22.12 33.01 37.95 39.27 38.34 29.90 38.50 38.46 37.98 38.47 38.31 32.05 35.19 35.10 35.36 34.05 34.30 34.60 34.05 34.58 35.06 34.89 35.32 36.32 36.15 36.26 37.54 37.34 37.99 38.31 40.00 41.01 40.93 40.41 39.58 37.41 35.53 33.16 32.22
31.29 29.35 27.19 22.09 23.64 29.73 37.96 38.86 39.87 29.91 32.17 38.57 39.59 39.47 38.46 36.85 35.81 34.55 34.34 33.51 33.90 33.82 33.99 34.62 34.64 34.29 34.93 36.32 36.95 35.90 37.48 37.50 38.94 40.65 41.87 41.39 39.89 37.84 36.31 33.82 32.29 31.13 30.25 29.41
34.86 31.53 26.14 26.21 23.04 27.20 40.13 38.85 34.81 36.94 37.61 39.10 39.60 39.93 38.80 35.05 34.39 33.90 33.63 33.04 33.23 32.63 33.30 34.20 33.95 33.70 34.44 35.54 36.79 36.32 37.71 39.28 38.73 37.92 36.27 35.53 34.41 33.43 32.75 30.62 30.25 30.10 29.20 28.18
34.51 37.17 34.03 34.65 34.11 39.25 40.06 38.96 39.89 40.05 39.54 39.89 40.35 40.46 37.82 34.79 33.80 33.76 32.73 32.52 31.84 31.93 32.57 33.55 33.39 33.39 34.06 34.62 35.35 34.32 34.41 34.67 33.87 32.19 31.16 30.91 30.66 30.42 30.14 29.68 29.22 28.79 28.33 26.66
37.55 39.45 35.71 36.18 39.01 39.71 40.84 40.74 40.44 40.44 40.65 41.56 41.29 38.82 37.45 34.49 34.14 32.85 32.86 32.53 31.85 31.41 31.52 32.86 33.38 32.57 32.34 33.07 32.84 32.55 32.81 32.76 30.51 29.46 29.10 29.35 29.02 29.57 29.03 29.04 29.03 27.54 25.78 26.14
38.28 40.11 37.08 35.84 38.43 39.72 40.79 38.59 38.87 38.19 38.93 38.22 37.63 36.89 35.83 34.63 33.40 33.24 32.21 31.61 31.65 31.72 32.76 33.29 31.65 31.20 31.08 32.32 31.91 31.81 30.99 30.27 29.56 29.29 28.93 28.54 28.21 27.36 27.81 27.93 27.72 28.04 28.02 27.75
39.73 38.29 35.73 34.65 41.85 40.51 39.76 38.60 38.95 37.91 36.84 37.08 35.80 34.61 35.07 34.88 33.39 32.60 31.18 31.70 32.05 31.69 32.24 31.02 30.89 30.82 30.10 29.10 28.03 28.79 28.78 28.07 26.96 27.01 27.20 26.14 25.71 25.09 25.96 26.00 25.55 29.36 29.56 30.78

GFSCGP_sfc_wetblb_057.txt.gz
Wetbulb
48.44 45.35 42.54 44.45 44.57 44.13 42.91 41.56 40.59 42.53 45.45 46.67 46.17 46.18 47.05 53.09 53.75 53.08 53.55 53.91 54.65 56.39 58.80 59.32 59.68 60.25 60.95 61.90 61.69 62.30 61.88 61.42 60.32 59.10 58.34 58.00 58.57 59.77 60.04 58.91 58.52 57.42 56.61 55.08
45.10 42.69 46.30 45.24 45.24 43.94 43.39 41.72 41.72 43.72 45.25 44.65 42.92 43.66 45.35 50.71 52.45 53.02 53.25 53.68 54.24 56.30 57.80 58.41 59.04 59.32 59.70 60.34 61.16 61.11 61.50 60.82 60.69 60.44 59.96 59.87 59.40 59.59 59.70 58.66 57.82 57.21 55.62 54.73
42.88 44.80 45.55 45.61 44.35 42.95 43.08 41.86 41.50 41.86 43.82 43.32 42.48 40.71 42.74 47.30 51.38 53.41 54.14 55.22 55.94 56.46 57.41 58.29 58.27 58.74 59.87 59.68 60.47 60.67 61.07 60.82 60.59 60.56 59.16 57.48 57.82 57.01 56.42 56.62 56.85 55.98 54.73 53.54
43.82 46.01 44.58 43.78 43.29 44.24 40.08 44.70 43.85 42.81 42.03 38.17 42.66 36.38 40.37 43.20 47.65 50.82 52.77 54.22 54.82 55.98 57.39 59.12 59.18 59.13 59.35 59.67 60.86 61.25 61.32 60.75 60.27 59.57 58.54 57.62 58.05 57.43 57.20 56.61 56.48 55.81 52.69 51.15
42.65 43.45 43.03 42.43 43.54 45.10 43.11 45.22 44.44 43.37 41.08 40.41 38.95 38.58 41.76 41.90 42.98 47.82 52.44 54.69 56.13 57.13 57.58 58.57 59.74 60.47 60.52 60.40 59.89 60.84 61.19 60.67 60.47 59.40 59.35 58.52 58.25 59.13 56.02 55.41 54.95 54.47 53.78 52.72
43.62 47.02 45.70 45.36 46.19 45.70 46.01 44.17 42.49 41.76 40.01 35.31 38.32 38.50 40.40 42.36 43.75 45.29 49.30 53.92 55.85 57.19 57.20 58.63 60.42 61.08 60.36 60.29 60.02 60.43 60.17 59.87 60.12 59.46 59.00 58.23 58.10 56.29 54.20 54.14 53.21 53.17 52.90 51.70
42.15 43.29 46.12 47.51 44.39 45.80 43.97 41.43 35.89 33.93 34.17 33.40 39.25 37.44 41.40 44.57 45.78 47.22 48.12 50.78 55.11 56.69 56.84 57.04 58.60 59.05 59.47 58.29 59.16 59.98 60.31 59.63 59.74 59.10 58.26 57.30 56.60 56.45 55.38 54.64 51.97 53.06 51.53 49.99
37.46 35.88 43.58 46.75 45.24 43.36 42.50 41.93 36.64 29.16 30.63 33.79 38.39 36.14 41.94 46.54 47.62 48.27 48.61 48.71 49.59 55.17 56.74 56.59 57.69 58.93 59.03 58.58 59.07 59.56 59.40 59.68 59.50 59.00 58.54 56.60 56.14 56.66 56.26 54.14 51.75 51.99 51.98 51.13
36.70 37.25 45.09 46.37 47.11 46.09 42.32 39.75 42.48 35.86 34.20 33.66 36.72 40.30 44.03 45.38 46.67 48.03 49.14 48.99 49.59 50.92 54.85 55.54 56.79 57.89 58.36 58.06 58.86 59.14 59.52 59.54 59.61 59.01 59.24 57.30 56.49 56.65 55.11 52.13 52.46 53.62 52.71 48.41
42.19 36.88 43.27 45.43 47.07 45.93 44.49 44.75 38.20 37.56 30.41 28.61 33.67 34.97 38.07 43.04 45.12 46.86 47.78 49.16 49.93 50.25 50.09 52.43 54.56 56.33 57.67 58.30 59.20 59.42 59.74 59.29 59.70 59.37 58.96 58.18 57.27 57.11 55.34 53.42 53.00 50.63 48.74 46.59
42.54 41.06 39.29 43.99 42.67 41.85 41.71 40.39 39.02 39.39 36.45 32.02 29.86 35.24 43.09 43.69 45.71 46.88 47.84 49.09 50.46 50.25 51.77 51.94 53.49 55.71 57.45 58.70 59.02 58.99 59.09 59.30 59.35 59.31 58.73 58.43 57.41 57.13 54.51 52.30 49.84 47.86 44.93 44.93
44.31 40.95 36.10 40.02 44.10 44.79 43.76 42.56 41.58 37.18 33.89 33.89 33.11 35.22 44.47 44.75 44.28 44.56 47.11 48.62 50.79 52.67 52.64 53.71 54.05 56.11 57.55 58.23 58.87 58.94 59.22 59.26 59.46 59.05 57.74 57.81 56.62 54.08 52.19 49.66 46.92 45.34 43.96 45.17
43.76 38.62 34.18 36.06 40.38 43.50 42.22 42.28 41.06 39.25 37.47 33.87 33.51 36.93 44.41 44.77 45.79 45.79 46.28 48.07 48.90 51.36 54.12 54.40 54.89 55.72 57.25 58.14 58.54 58.66 58.17 58.19 58.33 56.36 55.85 53.61 52.09 51.04 49.09 47.28 45.76 45.79 45.69 45.59
45.66 39.73 38.06 34.29 37.80 40.64 38.89 40.58 41.03 41.21 35.85 36.75 36.02 39.71 43.83 45.35 44.76 46.80 46.63 46.25 46.34 46.99 51.02 54.56 55.00 55.46 56.26 57.27 57.80 57.13 56.89 56.21 53.79 52.20 51.34 49.92 49.24 48.51 47.60 46.98 46.06 45.69 46.25 44.09
45.48 38.91 38.79 38.87 39.13 40.14 40.66 40.64 39.85 39.45 40.81 37.71 40.27 37.67 43.17 44.63 45.21 44.31 44.18 45.95 48.28 48.59 49.54 51.24 52.82 54.76 55.82 56.06 55.47 54.27 52.91 51.74 51.07 49.91 48.96 48.33 47.87 46.58 46.20 46.43 45.54 42.91 42.44 41.89
43.22 38.64 38.77 37.43 38.74 39.17 37.98 39.85 40.24 40.41 39.58 39.40 39.50 38.92 44.45 44.38 43.96 43.89 44.48 46.91 46.93 47.22 47.94 49.10 50.41 52.30 53.07 52.57 51.93 50.32 50.09 49.93 51.15 49.91 47.69 46.33 45.83 45.02 43.03 42.41 41.89 41.83 41.60 40.44
40.70 38.36 36.23 34.33 36.70 37.48 33.59 38.36 38.99 39.70 40.92 41.78 37.64 43.34 42.97 42.44 42.45 42.78 43.96 45.06 44.34 43.87 44.81 46.19 46.46 47.87 49.22 49.03 48.69 48.24 48.30 48.57 47.62 46.75 45.74 43.48 42.23 41.46 41.35 40.29 39.94 39.05 39.53 42.17
39.42 37.92 35.19 32.59 31.95 29.11 40.89 41.72 42.08 41.23 41.61 41.69 40.48 41.48 41.95 42.63 41.60 41.46 42.06 43.05 40.84 40.97 41.66 42.74 44.03 44.16 44.91 45.71 45.20 45.24 44.88 44.29 43.10 41.25 40.48 40.46 39.95 39.38 41.33 41.45 41.86 41.86 41.53 41.03
42.11 36.95 32.20 32.23 32.55 35.61 38.12 39.87 40.29 40.21 41.33 42.22 41.60 41.02 41.63 42.03 42.66 40.02 38.71 39.13 39.02 38.68 38.69 39.45 40.75 41.34 41.85 42.16 42.76 42.57 42.16 41.92 40.27 39.29 39.94 40.68 41.14 41.17 41.59 40.67 40.55 41.19 41.02 40.33
38.12 38.59 37.82 30.70 30.37 29.12 38.54 41.87 42.55 43.17 35.86 42.80 42.12 41.37 41.72 42.16 40.40 42.66 38.48 38.00 37.39 37.86 38.51 38.58 39.18 39.81 40.03 40.73 42.09 41.25 40.23 39.83 39.95 41.47 42.57 43.24 42.84 41.52 40.78 39.71 39.25 40.22 39.63 37.80
34.61 33.76 33.83 29.94 33.40 34.90 39.82 42.18 43.23 36.24 39.53 43.05 43.22 43.39 43.34 41.88 42.09 40.26 37.59 36.73 37.59 37.72 37.65 38.83 39.26 38.71 39.36 41.09 41.61 40.40 40.80 40.12 41.56 42.60 40.92 39.28 38.68 38.50 38.74 38.21 38.14 37.62 37.08 36.41
36.39 33.76 32.77 31.72 31.74 32.11 42.53 40.41 38.97 44.15 42.55 43.62 43.56 43.84 43.46 38.62 36.96 36.71 36.56 36.02 36.30 36.51 37.18 38.31 37.96 38.18 39.85 41.46 41.39 40.07 38.68 39.38 39.23 37.33 36.47 36.81 36.57 35.74 35.75 35.98 36.02 35.92 35.68 34.89
36.51 39.22 37.38 37.89 39.23 44.15 43.22 45.42 44.68 43.55 44.77 43.14 44.38 43.96 40.07 37.04 36.29 36.03 35.13 35.41 35.83 36.43 36.88 38.09 37.47 36.60 37.21 38.23 38.30 35.72 35.58 36.44 36.17 35.32 34.73 34.73 34.86 34.27 34.38 34.36 34.04 34.09 33.99 32.73
39.86 42.56 40.00 40.29 41.87 42.16 43.38 44.43 43.80 44.38 44.31 43.92 44.87 42.59 40.19 37.46 36.09 34.97 34.87 34.77 35.08 36.12 36.06 36.50 35.26 34.10 33.44 34.67 34.35 33.66 33.86 34.53 34.58 33.32 32.54 32.31 31.70 31.25 31.47 31.48 31.33 30.61 30.00 29.48
41.15 42.60 39.76 39.29 41.50 42.33 44.17 43.81 43.55 42.37 42.51 41.03 40.98 40.64 38.70 36.98 35.11 34.87 34.24 34.29 35.00 35.07 34.92 34.78 33.81 33.07 32.14 31.83 30.44 30.83 31.03 32.94 31.56 30.64 29.40 28.67 28.61 28.21 28.39 28.74 28.70 28.06 29.13 28.65
42.37 40.92 39.26 39.31 44.25 44.64 45.40 45.11 42.65 41.24 40.70 40.21 38.05 36.94 37.76 37.50 35.52 35.31 34.23 34.73 34.94 33.41 33.62 33.19 31.79 30.12 28.44 27.67 27.25 28.48 29.41 29.35 28.63 26.98 26.81 25.81 26.23 26.48 26.61 26.05 25.76 26.42 26.20 26.46

GFSCGP_sfc_wetblb_060.txt.gz
Wetbulb
52.40 48.60 46.01 46.86 48.12 48.22 46.73 45.11 43.81 46.59 49.11 49.60 48.67 49.13 50.03 55.57 56.47 57.05 56.77 56.89 58.05 58.83 60.96 62.42 62.30 63.45 62.98 62.39 62.83 63.58 63.79 64.59 65.37 64.28 62.18 61.16 61.11 62.53 63.58 64.94 65.44 64.40 63.66 62.73
49.02 46.12 49.30 49.79 48.86 47.78 47.21 45.02 44.32 46.88 48.62 47.86 47.87 47.50 49.67 52.51 55.60 56.97 57.12 55.84 57.03 58.77 60.38 61.23 61.99 62.34 63.02 62.41 62.78 63.37 64.26 65.47 65.21 64.52 62.97 61.82 61.74 62.89 63.47 64.54 64.49 64.17 62.88 62.10
46.40 47.76 49.59 48.90 48.03 46.43 46.73 45.26 44.66 44.33 47.48 48.92 47.67 45.51 47.00 50.47 54.23 55.99 56.98 58.39 58.10 58.34 59.16 60.67 61.18 62.10 62.81 62.94 63.25 63.42 64.27 65.13 65.07 65.25 63.64 62.44 62.45 62.75 62.39 62.71 62.30 62.51 61.87 61.04
47.92 50.61 47.83 47.73 46.64 47.70 44.07 48.20 46.89 45.70 44.85 41.05 47.50 39.09 45.06 48.31 50.91 53.43 56.05 57.96 58.91 58.93 60.00 61.37 61.91 62.13 62.82 63.10 63.96 64.12 64.42 64.87 65.00 65.44 63.55 61.61 60.20 59.26 61.44 62.76 62.56 62.68 61.21 60.08
45.58 47.27 46.89 45.73 46.64 48.54 45.36 48.58 47.34 47.15 45.42 44.36 43.97 41.63 45.09 47.13 46.64 50.54 54.58 56.65 58.60 59.99 60.17 60.44 62.04 62.77 63.61 64.15 64.23 64.40 64.08 64.39 64.96 64.88 64.39 62.68 61.11 60.76 62.49 62.88 61.81 60.80 59.22 57.49
48.01 50.79 49.53 48.42 48.93 49.05 49.69 47.83 47.13 47.44 45.62 38.93 42.98 42.36 43.45 45.66 47.22 49.41 52.12 56.00 57.97 59.62 60.54 61.03 61.91 63.94 64.14 64.84 64.95 64.65 64.17 64.08 64.90 64.83 64.33 63.81 62.84 62.04 61.30 60.54 60.27 59.79 59.35 57.74
46.30 46.82 49.53 50.10 47.54 49.23 48.54 45.99 39.23 37.39 37.80 37.14 43.64 41.90 44.35 48.22 50.16 50.85 51.77 53.61 56.04 59.29 60.93 61.42 61.17 62.14 63.65 64.24 64.62 64.46 64.46 63.74 64.43 64.90 64.36 64.13 63.85 62.78 60.25 59.54 60.33 58.98 57.21 55.29
41.35 39.30 46.54 50.07 48.29 46.36 46.81 46.09 40.31 31.88 34.36 37.65 42.68 38.91 44.36 50.06 51.44 52.90 53.93 54.33 54.32 55.62 59.96 61.52 61.82 62.48 63.18 64.06 64.53 64.44 63.39 64.01 64.18 64.24 63.79 63.80 63.26 62.22 59.94 59.02 59.93 59.73 55.35 52.25
41.74 41.23 48.11 49.53 50.04 49.58 46.17 43.32 47.19 40.94 40.32 39.42 41.47 43.94 48.25 49.53 49.84 51.89 52.09 53.29 54.56 54.63 58.12 60.21 61.98 62.85 63.76 64.08 64.33 64.17 63.24 63.33 64.00 63.85 63.92 62.81 61.84 60.56 58.55 59.32 59.19 58.04 54.46 53.24
45.88 40.39 46.57 48.44 50.47 49.72 48.14 49.34 41.77 43.56 33.56 32.09 38.71 39.76 42.01 45.29 48.17 49.19 50.27 51.87 53.91 55.77 55.76 57.92 60.01 62.07 63.16 64.22 64.75 65.03 64.86 64.31 64.74 64.68 63.24 60.94 60.39 60.42 60.01 58.61 58.80 56.14 53.96 55.46
47.89 45.23 43.64 47.29 45.94 45.37 45.64 44.66 44.84 44.86 42.46 36.11 34.67 39.67 47.83 47.24 48.88 50.46 51.98 52.57 53.98 55.49 56.51 56.78 58.14 59.72 61.55 63.19 63.31 63.47 63.48 63.56 63.83 64.00 63.22 60.37 59.88 60.07 59.96 58.79 56.63 54.53 53.83 52.57
48.64 45.55 41.03 43.17 47.87 49.12 48.42 46.59 46.32 40.44 38.01 40.91 40.04 39.65 49.69 50.52 50.73 50.17 50.88 52.02 54.46 56.17 57.41 58.23 58.10 59.00 59.84 61.06 61.94 62.37 62.71 62.64 63.02 63.36 62.30 59.98 59.76 58.95 58.69 57.17 54.28 52.91 49.87 47.19
48.12 43.76 38.65 40.26 44.00 47.15 45.32 46.72 46.83 45.83 44.25 40.05 38.66 40.69 50.18 50.14 50.32 51.53 51.33 52.12 52.78 54.46 57.13 58.69 58.82 59.16 60.03 60.72 61.31 61.78 62.25 62.31 62.57 61.42 59.23 58.28 57.70 56.52 54.13 51.01 47.85 46.11 45.47 45.01
48.70 45.50 42.03 37.92 41.19 44.74 42.78 44.71 46.19 45.01 40.37 40.69 41.57 42.96 46.91 49.14 49.86 51.45 52.29 52.15 52.21 52.26 52.94 57.57 59.08 59.79 60.41 61.01 61.16 60.51 60.12 59.41 57.53 56.44 54.64 52.26 51.55 50.06 48.23 46.90 46.33 45.79 46.74 45.89
48.84 42.39 44.16 44.45 44.81 44.72 43.96 43.45 44.54 43.21 43.95 40.74 43.09 43.30 47.04 49.60 50.85 51.60 50.61 50.70 52.28 52.95 53.20 54.73 58.01 59.67 60.60 60.73 60.79 58.10 54.95 53.47 52.81 51.69 50.79 49.88 49.12 48.30 47.11 46.71 46.12 46.55 46.21 44.24
48.17 42.63 44.53 42.12 44.77 44.01 42.25 44.17 44.62 44.97 44.73 45.21 45.33 44.63 50.33 51.72 50.81 49.63 49.46 51.19 51.70 52.14 52.85 54.26 55.95 57.85 57.62 57.69 57.06 56.29 55.55 54.41 53.24 50.66 48.26 47.37 47.32 46.76 45.81 45.89 46.42 47.05 45.62 44.27
45.75 44.05 41.89 38.49 42.94 42.16 36.95 42.86 44.26 45.08 46.80 46.47 43.09 47.48 50.45 49.66 48.98 49.34 50.13 51.05 50.70 50.69 51.63 52.52 53.88 54.93 54.95 54.71 54.80 53.77 53.34 53.61 52.04 49.59 48.05 47.74 48.43 47.48 47.35 46.12 43.57 40.94 41.46 41.00
45.33 44.45 43.66 38.72 37.52 32.77 43.60 47.54 48.37 46.30 47.11 48.59 48.24 48.76 49.67 49.81 50.26 49.18 50.51 50.84 49.02 49.48 49.84 50.73 51.77 51.99 52.59 52.80 52.32 52.12 51.57 50.22 48.82 47.62 47.18 46.53 45.56 43.82 43.63 43.79 42.95 42.25 42.18 41.75
48.64 45.14 39.91 38.20 37.00 41.63 42.20 43.69 45.03 44.89 45.34 49.70 48.70 49.72 49.44 48.31 47.66 45.78 46.81 49.38 48.73 48.18 48.55 49.02 50.11 50.47 50.91 50.54 50.54 49.56 47.89 46.61 45.02 45.15 45.47 45.86 46.05 44.50 43.58 42.85 42.10 42.62 42.59 42.28
44.89 45.30 43.67 37.55 36.29 34.45 43.34 48.10 50.03 49.07 41.73 50.06 49.58 49.02 48.23 47.42 44.39 48.48 45.78 45.71 45.41 46.70 47.15 47.25 48.18 49.01 49.00 49.07 49.28 47.65 46.26 46.20 45.63 45.72 45.28 45.37 46.24 45.10 42.56 40.68 40.99 44.16 44.35 42.67
39.30 39.25 38.79 38.59 38.26 42.07 47.20 47.12 48.71 39.85 43.64 50.69 50.85 50.28 49.18 46.85 49.50 48.78 45.88 45.05 45.90 45.88 45.73 46.88 47.51 46.90 47.39 48.05 47.78 46.10 45.88 44.71 45.40 45.42 44.46 43.54 42.09 42.54 42.89 42.08 42.01 42.07 41.68 40.48
40.05 38.75 37.95 40.17 37.97 35.93 46.89 45.59 44.30 49.95 50.84 51.91 51.14 51.41 50.35 48.70 46.05 44.67 44.40 43.43 43.67 43.78 44.30 45.54 45.29 45.53 46.63 47.38 46.77 45.20 43.74 44.40 44.12 42.82 40.20 40.55 40.52 39.44 40.02 40.05 40.72 40.58 40.19 38.77
40.55 44.01 43.02 42.34 44.07 49.59 48.96 51.30 51.88 51.62 52.04 50.58 51.65 51.23 51.32 45.35 43.99 43.72 42.63 42.78 43.34 43.86 44.33 45.07 44.56 44.07 44.62 45.06 44.43 41.84 41.42 41.87 41.07 40.23 39.31 38.98 38.78 38.46 38.20 38.08 37.48 37.12 36.20 34.50
44.43 45.54 43.26 43.88 48.67 48.04 49.01 50.67 49.91 50.49 50.35 50.10 50.90 50.97 48.39 45.64 44.15 42.72 42.00 41.86 42.35 43.18 43.05 43.04 41.63 40.20 39.39 40.40 40.27 39.70 39.57 40.13 39.16 37.63 36.94 36.89 34.50 35.24 34.80 35.17 34.35 33.97 33.04 31.90
47.36 46.34 45.27 46.38 49.20 47.05 48.40 50.37 51.67 49.81 49.19 49.10 50.10 50.10 47.94 45.84 43.50 42.20 41.25 41.35 42.36 42.29 41.75 41.80 40.46 38.81 37.32 37.38 36.30 36.67 37.38 38.12 36.39 34.83 33.64 33.09 32.88 32.52 33.19 32.60 31.72 30.79 31.31 28.76
47.26 46.25 43.97 44.62 50.68 49.70 51.59 51.92 53.28 50.24 48.94 48.93 48.31 47.17 47.21 45.60 43.05 42.35 41.25 42.03 41.43 40.41 40.52 39.53 37.84 35.67 33.38 32.45 31.53 32.41 34.71 35.02 33.60 31.68 31.21 29.88 31.32 31.54 31.32 31.23 31.53 26.11 25.78 25.70

GFSCGP_sfc_wetblb_063.txt.gz
Wetbulb
52.38 48.39 46.54 49.05 50.19 48.98 48.12 46.42 44.92 47.98 50.31 48.89 48.92 50.08 51.28 56.09 56.19 56.81 57.01 57.76 58.27 59.35 60.99 61.99 62.06 61.69 61.62 62.12 61.69 61.66 61.38 62.07 63.34 62.83 61.49 60.70 60.44 61.50 62.11 63.70 64.94 65.82 65.36 64.91
50.24 46.41 50.38 50.78 49.31 48.28 47.53 46.13 44.81 47.78 49.25 48.90 48.04 48.97 50.00 52.81 55.63 56.77 57.28 57.00 58.11 59.57 60.30 60.58 61.67 61.21 61.51 61.26 61.72 62.13 61.72 62.18 63.68 63.93 63.27 61.78 61.02 61.43 62.09 63.13 64.91 65.46 64.93 64.45
47.60 49.36 51.29 49.59 48.14 46.85 47.38 45.97 45.40 45.42 49.25 49.65 48.11 46.69 48.26 51.23 55.12 57.10 58.23 58.20 57.37 58.94 59.71 60.45 60.70 61.72 61.75 61.56 62.07 62.95 63.36 63.52 64.05 64.22 63.76 62.00 61.69 61.77 61.57 62.12 63.32 64.68 64.69 63.58
48.83 50.98 48.92 48.40 47.57 48.68 44.80 49.08 47.58 46.79 45.41 41.06 48.73 39.46 46.70 49.13 51.11 54.39 56.29 58.21 58.03 58.42 59.88 61.44 61.91 62.22 62.75 62.75 63.29 63.55 63.87 64.27 64.70 64.96 63.78 61.92 59.74 58.46 60.54 61.78 63.10 62.97 63.52 62.65
46.97 47.92 48.17 46.89 48.07 49.64 46.75 49.93 48.00 47.53 46.42 45.85 46.11 42.03 44.68 48.96 47.08 50.58 55.11 57.66 58.89 59.18 59.40 60.19 61.96 63.10 63.73 64.15 63.98 64.57 64.02 63.89 64.71 64.89 64.67 63.23 61.52 61.02 61.87 62.21 62.87 62.56 62.99 62.92
48.93 51.66 50.28 49.56 50.37 49.98 50.51 48.32 48.03 47.88 46.51 39.66 43.60 43.62 42.72 45.98 47.48 49.27 51.98 55.65 58.46 59.31 59.44 59.96 61.97 63.23 63.46 64.56 65.29 64.85 64.34 64.02 64.95 65.19 65.01 64.67 63.41 62.84 60.84 61.62 62.27 62.32 61.93 61.43
46.75 47.86 50.45 51.20 48.05 50.33 49.03 46.11 39.54 38.21 37.75 37.75 45.74 42.98 44.60 49.39 50.37 51.01 51.48 53.29 56.94 59.30 60.20 60.33 60.22 61.78 63.04 63.40 64.34 64.85 64.73 63.73 64.59 65.00 65.06 64.79 64.56 64.30 63.25 62.47 61.75 60.98 60.94 59.44
41.65 40.21 47.57 50.55 48.67 47.38 47.43 46.56 40.85 33.17 35.31 36.21 44.94 39.91 44.06 50.75 51.56 52.64 53.89 54.96 56.14 57.34 59.57 60.72 61.45 61.15 62.65 63.79 64.47 64.81 64.37 63.88 64.46 65.20 65.22 65.64 65.62 64.99 64.80 61.16 59.68 60.52 60.34 60.41
42.37 42.43 49.45 50.06 50.66 50.10 47.61 44.23 48.89 42.97 43.29 39.73 42.43 45.13 48.34 50.01 49.64 51.47 52.27 53.67 55.57 56.57 57.51 59.97 61.67 62.56 62.26 63.60 64.94 66.00 64.96 64.83 65.12 66.00 66.21 66.18 66.13 65.32 64.94 63.76 62.62 59.77 61.12 58.35
46.97 41.96 47.57 48.93 50.74 50.86 49.22 50.74 42.85 43.88 34.44 33.82 39.67 41.76 42.07 46.66 48.66 49.64 50.78 52.02 53.51 56.15 57.40 59.38 61.30 62.70 63.73 64.45 65.92 66.83 66.33 65.38 65.18 65.51 65.41 64.83 64.62 63.62 63.47 62.79 61.10 60.37 59.97 57.33
48.65 46.27 44.86 48.72 46.52 45.56 46.73 46.19 46.65 45.74 42.83 37.27 35.92 40.89 48.87 47.68 49.32 49.92 51.58 52.24 53.63 54.95 57.37 58.67 59.90 61.75 63.47 64.60 65.45 65.66 65.82 65.61 65.64 66.00 65.31 64.38 62.62 61.47 60.85 60.60 59.55 59.59 59.25 57.56
49.13 46.67 42.78 44.32 48.91 50.21 49.27 47.06 47.14 41.24 40.07 42.61 41.70 41.86 50.92 50.69 51.38 51.76 51.92 52.69 54.26 56.08 56.73 58.90 59.76 60.55 61.20 63.09 64.30 64.96 65.34 65.48 65.73 65.98 65.77 62.53 61.51 60.64 59.33 58.95 58.67 58.11 54.73 51.27
48.77 44.44 39.86 41.74 46.03 48.66 46.46 48.34 48.68 47.90 46.41 41.10 39.23 41.30 50.70 51.34 51.01 52.04 52.13 53.02 54.33 55.77 56.57 58.02 59.65 60.19 60.89 61.93 62.87 63.58 64.06 64.11 64.29 64.41 63.97 60.82 59.48 58.54 54.28 50.86 49.55 47.77 47.21 46.38
49.84 45.92 43.34 39.48 42.54 46.08 43.38 45.47 47.18 46.48 42.25 41.70 42.00 43.87 48.08 49.25 50.24 51.57 52.41 53.59 54.17 54.86 55.52 57.66 58.84 60.30 61.72 62.34 62.66 63.17 62.88 62.54 61.94 60.20 56.80 54.26 52.67 50.68 48.90 47.65 46.70 45.90 46.03 46.26
49.13 42.70 44.75 45.16 46.16 45.93 45.14 44.97 45.54 44.55 45.38 41.99 43.93 44.50 47.21 49.09 50.82 52.29 53.74 53.81 53.61 54.30 54.34 55.29 58.76 60.00 61.37 62.13 60.95 58.83 56.35 55.58 55.22 53.14 51.39 50.18 49.55 48.79 47.87 47.68 46.61 46.65 46.28 45.53
49.65 43.83 45.02 42.80 45.57 45.37 43.27 44.95 45.45 45.18 45.14 44.90 45.13 44.64 50.21 51.29 51.71 51.69 52.28 52.31 53.60 54.40 54.82 56.07 58.06 60.65 60.93 61.10 58.68 55.25 53.14 51.95 51.94 49.88 48.59 48.67 48.33 47.45 46.88 46.56 45.34 44.87 44.40 43.82
47.37 45.87 43.28 39.27 44.48 44.27 40.14 43.92 44.93 45.62 46.88 46.44 43.10 47.33 50.46 50.28 50.62 51.33 52.27 53.46 53.78 54.10 54.92 56.25 58.13 59.14 59.07 58.48 57.39 55.00 53.54 52.43 50.52 49.40 49.09 48.94 48.73 47.84 48.03 47.51 46.08 45.12 44.80 43.51
46.53 45.63 45.22 40.20 40.11 33.79 44.18 49.09 48.43 46.53 47.39 48.51 48.36 49.05 50.37 50.67 51.85 53.02 53.89 54.25 53.61 53.70 54.25 55.39 56.45 56.61 56.99 57.21 56.45 55.87 54.97 53.55 52.24 51.46 50.86 50.14 48.89 47.65 47.27 46.78 46.32 44.58 42.75 42.03
49.90 46.94 43.21 39.08 38.68 42.00 44.42 46.48 46.56 45.58 45.38 49.47 48.68 49.73 50.64 51.88 52.14 50.77 52.86 54.85 53.67 53.48 54.10 54.67 55.19 54.94 54.84 54.42 54.10 52.83 52.03 51.26 49.98 48.94 48.30 48.16 48.18 46.91 46.32 44.72 43.73 44.77 43.26 43.45
48.09 49.11 45.10 41.25 36.03 33.59 43.38 48.26 51.26 50.57 42.93 50.75 50.71 50.48 50.57 51.25 46.40 49.57 51.85 53.51 52.35 52.29 52.45 52.60 53.36 53.56 53.04 52.64 52.30 50.76 49.84 49.72 48.69 48.48 48.18 48.14 47.58 46.55 45.55 44.88 44.59 44.80 45.73 44.10
41.33 43.01 40.83 40.05 38.65 42.09 47.86 49.56 51.46 41.31 44.16 51.43 51.63 51.59 51.34 49.91 51.35 53.18 51.83 50.77 51.35 51.10 51.16 51.90 52.03 51.50 51.53 51.91 51.56 49.95 49.46 48.10 48.16 48.14 47.58 46.77 45.35 44.37 45.45 44.62 44.03 42.97 42.22 41.70
40.32 39.72 40.02 41.22 39.25 36.68 49.78 48.42 45.20 50.54 53.76 53.44 53.40 53.23 52.94 53.67 51.97 50.94 50.27 49.45 49.52 49.17 49.32 50.55 49.83 49.78 50.44 51.00 50.15 48.48 46.92 47.67 47.18 46.40 44.30 43.76 43.30 42.17 42.46 42.05 41.54 41.20 41.37 39.95
40.53 45.73 42.69 44.27 44.37 51.16 50.69 51.48 52.72 54.22 53.97 54.56 54.30 54.33 54.41 52.31 50.17 49.57 48.72 48.52 48.59 48.59 49.05 49.37 49.03 48.62 49.29 49.89 49.30 46.57 45.87 45.61 44.52 43.58 42.30 41.37 40.97 40.51 40.43 39.68 38.79 38.73 37.81 36.49
47.06 49.75 45.93 46.70 49.22 50.20 51.61 52.95 53.21 54.05 54.04 54.78 54.52 54.97 54.40 51.79 50.32 49.04 48.32 47.95 47.89 48.48 47.95 48.42 47.67 46.92 46.06 46.61 45.78 44.89 44.44 44.05 42.68 40.83 39.87 39.09 38.59 37.13 37.03 36.99 36.41 35.91 34.90 33.65
45.52 47.03 45.70 45.53 47.96 49.24 51.80 52.61 52.95 53.95 54.21 53.61 53.18 53.99 53.81 51.98 49.72 48.79 47.58 47.49 47.81 47.72 47.73 46.90 45.26 43.93 43.15 43.28 42.51 42.70 42.42 42.10 39.83 38.27 37.04 35.99 35.42 35.42 35.04 34.60 33.23 32.36 30.77 28.79
46.48 45.41 45.06 44.11 49.05 50.34 50.88 53.67 55.05 54.34 53.97 53.07 52.52 52.29 53.29 51.99 49.38 48.67 47.50 47.43 47.32 46.28 45.62 44.39 43.33 42.04 40.50 39.69 38.93 39.57 40.24 39.40 37.04 34.95 34.09 33.79 33.88 33.56 33.83 33.62 31.25 26.48 26.92 26.33

GFSCGP_sfc_wetblb_066.txt.gz
Wetbulb
49.91 45.51 43.58 46.64 48.79 48.81 47.60 45.32 44.66 47.29 50.13 48.99 47.34 48.29 50.39 52.02 54.22 55.37 55.71 56.42 56.87 56.97 59.26 60.20 60.02 58.66 57.75 58.73 58.53 58.82 58.56 60.92 61.06 59.73 59.38 59.10 59.23 59.45 59.75 60.48 61.50 63.56 63.63 63.60
47.20 43.84 48.45 49.94 50.03 48.10 47.01 45.04 44.48 47.51 49.79 48.08 46.89 46.85 50.37 52.89 53.28 54.48 55.32 55.91 56.90 57.35 58.33 58.82 59.29 58.53 58.09 58.86 59.81 60.09 60.50 61.17 61.28 60.81 60.40 59.58 59.79 60.09 59.88 60.70 61.63 63.49 63.43 63.56
45.04 48.03 50.99 49.11 48.29 45.97 46.14 44.36 44.81 45.38 47.97 48.64 47.18 44.80 47.60 50.65 53.61 54.47 56.34 56.95 57.87 57.99 57.78 58.61 58.71 58.96 59.35 59.00 59.61 59.92 60.28 60.41 61.26 61.51 61.21 60.55 60.04 59.50 59.26 59.71 60.48 62.95 63.71 63.19
47.16 50.33 49.38 48.09 46.65 47.51 43.65 48.09 47.79 46.34 44.77 40.29 47.57 37.34 46.04 48.63 49.69 52.73 54.32 56.13 56.15 57.97 58.72 58.79 59.42 58.58 59.12 59.27 60.38 60.81 60.66 60.37 61.19 62.41 61.35 59.81 57.53 56.22 58.28 58.76 60.50 62.75 63.49 62.64
45.48 47.43 47.29 46.26 46.55 48.91 46.39 49.97 48.47 46.96 44.53 44.32 44.51 41.37 45.20 48.39 47.14 49.30 53.37 55.85 56.44 57.28 58.46 58.48 58.67 59.94 60.11 60.81 60.38 61.24 61.90 61.45 61.79 62.12 62.03 60.95 58.87 58.55 58.65 59.78 59.62 61.77 61.77 61.42
47.47 51.53 49.57 48.67 49.65 49.99 50.29 47.98 47.53 47.19 44.65 38.27 43.23 42.52 42.23 45.44 47.81 49.67 53.30 55.88 57.49 57.42 58.26 59.85 60.88 61.21 61.34 61.97 62.03 61.37 61.75 61.95 62.58 62.83 62.28 62.00 59.99 59.31 58.11 58.70 58.98 60.84 60.88 60.92
45.34 46.35 49.72 50.23 46.99 49.50 48.19 44.91 38.08 36.63 36.94 36.84 45.42 42.79 44.89 48.18 50.35 51.30 51.29 55.19 57.21 58.11 57.87 58.37 60.06 60.89 61.40 61.54 62.02 62.38 62.00 61.50 62.28 63.11 62.88 62.04 62.85 60.60 60.21 59.27 59.86 60.24 60.00 58.87
39.74 38.69 46.76 49.72 47.77 45.74 45.98 44.76 39.28 31.98 31.68 36.92 43.58 39.61 43.74 50.25 51.96 51.99 52.64 54.94 56.33 57.62 58.85 58.41 58.59 60.96 61.41 61.91 62.50 62.80 62.52 61.92 62.61 62.75 63.26 63.40 62.95 63.04 61.91 61.64 61.01 59.84 59.59 59.23
40.14 40.63 48.23 49.59 49.76 48.68 46.44 43.49 47.88 40.96 41.51 37.83 38.99 45.26 48.36 50.28 49.47 50.54 51.74 53.61 54.63 55.74 57.26 59.02 60.02 60.07 61.54 61.90 62.55 63.03 63.02 62.94 62.96 62.69 62.92 62.67 63.65 62.87 62.78 62.86 61.49 59.89 59.75 59.66
44.70 40.72 47.08 48.33 50.00 49.24 47.17 49.89 42.14 43.40 32.79 32.77 38.71 40.79 41.85 46.38 47.89 49.95 49.96 52.08 54.05 56.76 57.93 58.02 59.95 60.85 61.21 62.74 63.06 63.58 63.68 63.51 63.66 63.74 63.58 63.55 63.65 63.95 63.67 62.77 61.25 60.47 59.68 56.69
46.87 44.80 44.77 47.99 45.13 44.18 45.06 44.71 46.53 45.70 43.01 36.94 35.31 39.10 47.94 47.72 49.60 49.33 51.47 52.39 54.07 55.59 56.89 58.11 59.32 61.42 61.95 62.42 63.04 63.74 64.06 63.74 63.70 63.85 63.81 63.38 64.08 62.66 61.49 60.07 59.45 59.26 58.20 57.13
47.44 46.05 41.32 43.51 48.25 49.61 47.90 45.87 47.03 41.09 39.54 42.11 40.26 40.02 50.01 50.21 51.06 51.74 51.55 52.88 54.70 55.60 56.55 58.19 59.48 60.14 60.92 62.42 62.86 63.90 64.43 64.28 64.51 64.54 63.37 63.19 62.44 60.74 59.77 57.94 57.44 57.00 54.83 54.14
47.30 42.99 38.92 40.26 45.38 47.92 44.59 46.80 47.26 47.32 46.19 41.18 36.94 40.04 50.61 51.00 50.99 52.02 52.77 52.74 53.78 54.84 55.70 57.50 58.69 59.13 59.88 61.05 62.51 62.96 63.40 63.48 63.93 62.05 62.10 61.59 59.60 57.96 52.80 51.22 50.15 49.18 48.78 47.83
48.28 45.85 42.70 38.19 41.97 45.23 42.96 44.86 47.34 46.48 40.57 41.80 42.20 43.73 48.25 48.94 49.71 50.79 51.90 52.76 53.44 54.60 55.01 55.84 57.42 58.89 60.18 61.31 61.94 62.18 61.07 60.34 58.72 57.99 55.13 52.42 51.20 49.70 47.87 47.72 47.81 46.59 46.88 46.55
49.27 42.79 44.88 44.59 45.59 45.56 44.93 44.11 44.29 42.92 44.90 41.71 43.88 43.53 46.64 49.26 49.98 51.68 54.03 53.75 53.17 53.65 54.55 55.47 57.03 58.87 60.36 60.27 58.58 57.47 56.49 56.04 54.51 52.41 50.29 49.15 49.12 47.92 47.43 46.45 46.91 46.39 46.14 45.71
48.01 42.83 44.62 42.51 45.16 44.92 43.35 45.14 45.03 44.69 44.82 44.73 45.50 45.04 50.13 50.76 51.18 50.76 52.52 52.60 52.49 53.70 55.08 55.95 57.34 59.41 60.23 57.63 54.87 53.67 52.21 51.31 51.21 48.86 47.83 48.04 47.59 47.32 46.30 46.79 44.97 44.28 43.78 43.14
44.93 42.96 41.34 37.33 43.56 43.09 37.50 43.73 44.60 45.32 46.65 45.92 42.33 46.83 49.59 48.90 50.00 51.16 52.00 52.12 52.55 54.70 55.23 55.88 57.68 59.94 57.64 55.57 54.18 51.99 50.23 50.09 49.22 48.65 48.09 47.79 47.84 46.50 46.03 45.78 44.37 43.41 42.94 43.24
45.15 44.03 42.05 37.65 37.89 31.34 43.48 48.66 47.52 45.90 46.75 47.50 47.36 48.17 49.25 49.77 51.28 52.93 53.98 53.55 53.94 54.86 55.17 56.74 58.04 57.76 56.59 55.46 54.01 52.80 51.82 50.54 49.72 49.29 49.03 48.54 48.03 46.68 45.98 45.79 45.34 44.23 42.77 41.13
46.81 45.31 38.22 35.90 36.10 40.84 43.42 46.32 46.15 45.00 44.62 48.87 47.94 48.87 49.79 50.68 52.82 51.63 54.28 55.46 55.08 54.68 55.59 56.27 56.83 56.42 55.86 55.15 54.78 53.46 52.07 51.36 50.51 49.35 48.57 47.83 47.18 46.07 45.85 43.80 42.49 42.49 42.42 42.41
45.33 47.51 42.19 39.92 34.00 31.44 43.15 48.26 50.55 49.95 40.06 49.62 49.89 50.30 50.24 51.33 46.24 49.85 53.03 54.92 54.27 54.62 55.04 54.83 54.94 54.57 53.74 53.08 52.51 51.03 49.84 49.00 47.69 47.56 47.32 47.42 46.96 45.53 44.28 43.80 43.42 43.61 43.73 43.45
38.96 40.75 37.96 37.18 36.12 41.05 47.49 49.11 50.30 39.52 42.05 51.61 52.04 51.85 52.02 50.31 52.19 52.92 53.33 53.60 53.96 53.45 53.04 53.64 53.32 51.99 51.68 51.82 50.81 49.24 48.77 47.61 48.26 48.12 47.42 46.68 45.89 44.97 44.92 44.41 44.06 43.13 40.36 39.79
38.38 37.80 37.44 38.71 35.21 33.87 50.51 48.95 43.21 48.31 52.57 53.76 53.31 53.52 54.37 52.68 52.40 51.91 52.42 51.79 51.47 50.92 51.41 52.11 51.18 50.58 50.74 50.90 50.11 48.46 47.01 47.96 47.68 47.03 45.31 44.45 44.52 43.45 42.58 40.35 39.26 39.13 38.96 36.33
37.59 42.81 40.86 42.35 42.06 51.08 50.37 50.48 52.17 54.15 54.29 53.93 54.40 54.49 54.86 52.60 51.20 51.16 50.38 50.25 50.29 50.31 50.33 51.34 50.07 49.17 50.05 50.35 49.59 46.75 46.31 46.63 45.24 43.65 42.19 40.84 40.93 40.90 40.61 38.53 36.61 35.84 34.82 31.89
45.93 48.43 43.43 42.86 48.16 49.73 51.94 51.55 53.10 53.51 53.42 54.69 54.80 55.14 54.89 52.81 51.52 50.26 50.05 49.59 49.15 49.51 49.52 49.84 48.79 48.12 47.69 48.77 48.35 46.52 45.46 44.55 42.99 40.66 39.51 38.97 37.14 36.08 35.59 35.21 34.52 33.45 30.46 29.46
44.90 46.82 45.20 44.11 47.84 48.63 49.77 50.53 52.45 52.80 54.18 54.21 54.22 53.81 53.30 53.31 51.13 50.36 49.30 48.83 48.94 48.95 48.90 48.86 47.63 47.18 46.64 46.14 44.52 44.42 43.74 42.97 40.56 38.81 36.92 34.57 34.19 34.12 33.09 30.22 30.16 28.17 26.23 26.74
46.24 44.29 42.66 43.19 48.78 49.87 50.24 52.20 53.13 52.07 52.87 54.21 53.36 52.54 53.14 54.00 51.69 50.72 49.06 49.03 48.82 48.22 48.10 47.38 46.65 44.63 43.32 42.51 41.63 41.71 42.11 40.62 37.44 34.69 33.82 32.33 31.77 30.51 31.66 29.42 27.51 28.47 26.86 27.41

GFSCGP_sfc_wetblb_069.txt.gz
Wetbulb
46.32 39.89 38.86 40.69 42.89 44.30 43.79 42.89 40.54 43.05 47.68 46.07 44.62 43.41 46.26 49.54 51.38 50.42 51.15 52.88 53.73 54.33 56.44 56.39 55.39 55.11 55.19 55.26 54.54 54.79 55.61 55.72 56.54 55.46 54.72 56.78 55.33 55.44 55.88 56.76 59.89 59.73 59.50 60.31
43.62 39.54 44.84 46.43 46.45 45.58 45.31 42.26 40.59 45.46 47.97 44.83 41.41 40.52 47.46 48.80 48.84 50.44 51.44 52.37 53.65 54.93 55.16 56.23 55.62 55.32 54.40 52.69 53.22 54.10 54.75 55.20 57.28 57.92 57.62 56.01 56.74 55.66 55.80 56.44 57.64 60.67 60.03 60.32
41.30 44.56 47.59 46.36 44.80 44.09 43.86 41.49 40.83 42.27 45.43 45.06 41.60 39.99 44.84 49.30 50.48 51.55 53.14 54.87 54.55 55.05 54.62 55.27 54.34 54.02 53.98 52.21 52.92 53.87 55.01 56.46 58.41 58.09 57.13 55.68 56.11 55.91 55.58 55.27 57.07 60.33 61.52 61.76
43.59 47.78 46.49 45.40 44.12 45.29 40.19 45.77 45.43 44.97 41.39 35.07 41.72 32.67 41.82 45.69 48.24 50.20 52.56 53.61 53.77 54.91 56.00 55.87 54.29 53.14 54.31 54.88 55.68 56.27 56.74 58.12 58.57 58.18 57.34 56.28 55.97 55.24 56.34 55.70 56.27 60.60 61.48 61.69
42.55 45.16 44.57 43.73 45.29 47.01 43.45 49.16 46.51 45.40 40.35 37.84 38.71 35.37 41.00 45.35 44.52 47.03 48.73 53.04 53.67 54.73 55.07 54.90 54.71 54.79 55.22 56.33 57.26 57.43 57.81 57.90 58.52 58.55 58.27 56.94 55.56 55.61 55.25 55.54 56.56 59.86 60.96 61.27
44.08 47.70 46.92 46.35 48.06 47.63 48.41 46.49 45.11 43.24 39.66 31.70 38.54 39.11 38.07 40.71 44.51 47.53 49.40 52.58 53.10 54.64 55.57 56.10 56.57 57.07 56.73 57.55 57.46 57.80 57.42 57.40 58.13 58.49 58.78 59.08 57.67 54.70 54.08 55.29 55.87 58.68 60.27 60.45
42.08 43.45 46.93 48.78 44.21 46.90 45.14 39.99 32.19 29.67 29.17 28.99 43.08 39.73 40.06 46.72 48.11 48.67 49.12 51.94 52.49 54.05 55.43 55.92 55.80 55.70 56.50 56.58 57.05 57.55 57.86 57.38 57.89 57.97 58.62 58.68 58.69 56.23 54.99 54.70 56.20 58.08 58.79 59.66
36.02 34.53 44.02 47.55 45.47 42.63 42.26 40.70 32.96 27.96 27.39 32.57 41.93 36.28 39.96 47.74 49.31 49.72 50.48 53.47 54.05 53.49 55.07 55.78 56.24 56.99 56.68 57.17 57.40 57.85 57.81 58.44 58.92 58.65 59.19 59.44 59.05 58.18 57.44 56.62 57.19 59.06 59.12 59.01
36.65 37.24 46.73 46.99 47.73 46.55 43.28 38.54 43.90 38.28 37.94 34.28 38.30 41.33 45.63 46.84 46.35 47.46 47.73 49.84 52.37 53.40 54.41 55.53 57.14 57.53 58.02 57.89 58.21 58.33 58.28 58.67 59.57 59.52 59.93 59.83 59.62 59.53 58.24 58.59 58.18 59.24 58.78 57.37
41.89 37.34 44.86 46.30 47.74 47.17 44.54 46.97 38.44 40.46 30.56 29.91 36.46 38.02 37.60 43.36 45.79 46.18 45.38 45.79 48.86 51.13 52.18 54.76 55.93 58.47 59.20 59.62 60.06 60.01 60.04 59.57 59.73 59.84 59.94 60.47 60.30 59.70 59.96 59.64 57.65 57.99 58.11 56.85
43.75 40.98 40.54 44.88 42.64 42.39 42.11 40.77 43.23 43.36 38.61 30.20 28.64 34.03 43.60 44.45 48.01 45.44 46.11 47.58 49.19 49.98 50.96 52.43 53.67 56.95 59.76 60.31 60.24 60.32 60.40 60.55 60.44 60.63 59.97 60.06 59.26 59.81 59.64 59.13 58.94 59.14 57.66 55.85
44.21 42.05 36.53 39.12 45.60 47.98 45.22 42.40 43.40 35.18 35.68 37.67 32.44 34.20 47.11 45.95 46.57 47.26 47.42 48.71 48.76 51.21 52.01 53.18 53.82 54.89 56.40 59.30 60.00 60.25 60.80 61.04 61.28 61.42 60.80 60.14 59.11 59.55 58.90 59.16 59.37 57.51 56.09 54.96
44.31 39.57 33.25 36.33 42.65 45.49 42.37 43.75 44.42 44.82 41.70 35.99 29.23 34.00 47.24 47.74 46.79 47.60 46.22 47.63 49.13 49.37 51.72 52.95 53.93 54.49 54.87 56.81 58.80 60.04 60.77 61.01 62.87 61.39 59.50 59.12 57.36 58.32 57.77 54.04 53.28 53.28 51.42 50.56
46.11 41.47 38.07 32.56 37.75 42.96 39.78 42.65 43.64 42.27 33.24 35.49 35.96 39.70 44.89 46.52 45.55 46.61 46.92 47.80 47.89 49.15 50.76 52.29 52.64 53.77 55.80 57.70 56.89 56.15 56.01 60.88 59.58 55.99 53.43 52.16 51.32 50.59 50.05 49.51 48.59 47.76 47.74 47.20
43.96 37.17 39.89 40.53 43.74 44.39 43.24 42.24 42.21 41.67 42.44 36.73 39.73 41.44 43.98 45.08 45.71 46.92 48.03 48.86 48.74 49.57 49.75 50.91 52.20 53.75 55.53 54.24 52.99 52.11 52.36 52.26 52.18 50.95 49.65 47.99 48.36 48.77 48.33 46.93 46.52 46.21 46.00 45.10
43.99 37.32 40.41 38.47 42.96 43.64 41.65 43.14 42.70 42.81 41.93 40.85 43.88 42.50 47.58 47.13 46.82 47.82 49.31 49.40 49.56 49.26 50.57 51.76 55.19 56.54 55.03 53.46 51.41 50.82 49.67 50.21 50.06 49.13 47.94 47.74 46.63 46.45 45.83 45.58 45.62 44.02 43.95 43.89
41.32 39.68 38.13 33.53 40.42 40.69 33.56 40.47 41.82 43.46 43.52 42.24 37.63 42.02 45.85 45.01 45.62 45.77 47.31 48.79 49.43 50.62 51.49 53.14 56.58 55.81 53.69 52.14 50.79 48.91 48.30 48.97 48.70 48.10 47.52 47.40 46.74 45.75 45.25 44.71 43.84 43.02 42.58 42.67
41.51 40.48 38.19 33.53 34.54 28.67 39.32 46.02 46.08 43.79 44.73 44.34 43.40 43.70 45.26 45.44 45.42 46.28 47.22 48.38 50.66 51.23 51.40 55.26 54.74 53.45 52.31 50.93 49.57 49.07 49.08 48.45 47.58 47.16 47.10 46.80 45.92 44.90 44.40 43.89 43.11 42.55 41.57 40.01
43.83 41.43 33.57 32.66 32.74 37.46 41.10 43.63 43.42 42.22 41.25 44.93 43.16 44.66 45.75 46.04 46.53 46.32 49.64 50.24 50.43 50.90 51.95 52.93 53.72 52.52 51.58 50.67 50.17 49.60 49.36 48.91 48.44 47.53 47.07 46.47 45.85 44.88 44.71 43.20 41.82 40.38 39.24 40.26
43.23 42.09 37.14 33.12 30.06 28.05 38.75 45.33 48.09 46.56 35.02 46.25 46.32 45.33 45.91 46.00 39.16 42.91 49.31 50.75 50.68 51.70 52.80 52.68 53.12 52.56 51.37 50.53 50.34 48.81 48.47 48.43 47.51 47.46 46.68 45.59 45.33 44.14 41.82 40.21 39.89 40.66 41.25 41.46
32.34 33.85 31.35 30.77 31.85 35.92 44.74 46.87 48.29 35.72 35.44 47.20 47.51 46.18 45.99 43.67 44.95 47.30 49.71 49.29 50.67 50.98 51.36 51.67 51.31 50.09 49.09 50.16 49.41 47.27 46.34 45.27 45.67 45.83 45.91 45.75 43.96 42.41 42.43 41.79 41.15 40.72 39.28 36.16
34.15 32.93 31.88 32.64 32.01 30.44 47.29 45.72 40.82 43.14 46.73 48.00 47.05 47.80 47.58 48.08 47.54 49.31 49.75 49.41 49.25 48.93 49.70 49.81 48.26 47.35 47.20 47.73 47.27 45.46 44.31 45.72 45.87 45.08 44.10 43.24 43.38 43.69 42.76 39.35 36.99 37.14 35.78 32.93
34.03 38.70 36.38 38.09 35.89 44.95 47.62 46.58 48.44 49.90 48.84 48.72 48.18 48.37 49.17 47.04 47.23 49.09 48.64 47.66 47.55 47.32 47.79 47.77 46.88 46.05 46.17 46.51 46.65 44.18 44.31 44.75 43.76 42.59 41.69 39.62 39.43 38.87 37.84 35.82 34.04 32.90 31.64 28.43
41.79 44.77 39.91 40.58 43.56 44.80 47.02 49.19 50.03 50.44 49.51 50.48 49.28 48.90 50.19 48.36 47.68 46.99 46.71 45.96 45.85 45.49 45.50 45.63 45.84 45.01 44.38 45.24 45.10 44.00 43.67 42.72 41.20 37.86 36.61 35.44 34.07 32.96 31.90 32.84 31.59 28.75 26.10 25.42
41.91 44.62 42.69 41.13 44.77 45.57 46.76 47.72 48.61 49.58 50.64 50.75 50.68 50.00 48.27 48.34 47.00 46.73 45.23 45.16 44.80 45.23 45.03 45.49 44.57 43.81 42.96 42.97 42.12 41.95 40.72 39.87 37.61 35.36 33.06 31.40 30.90 28.80 27.46 27.71 26.70 24.76 24.78 26.73
41.68 40.82 39.35 37.07 45.07 44.37 45.63 48.10 49.12 48.38 49.21 50.01 50.03 49.31 48.88 49.00 47.48 46.63 45.16 45.28 44.77 43.93 44.27 44.09 42.78 40.09 39.16 39.65 39.21 39.85 39.67 36.62 33.23 31.22 30.06 27.68 26.85 26.69 26.53 25.38 25.28 27.68 27.30 27.97

GFSCGP_sfc_wetblb_072.txt.gz
Wetbulb
44.88 39.51 38.09 39.67 40.32 41.53 40.83 39.33 37.94 41.65 46.04 45.02 43.40 41.69 45.20 46.19 49.35 49.37 51.31 51.63 52.61 54.16 55.41 54.75 54.17 53.99 54.89 55.64 56.36 56.79 56.19 56.54 57.18 55.54 54.74 55.11 54.88 54.40 55.20 56.80 58.30 58.57 58.68 58.80
41.87 38.73 44.31 44.27 43.68 42.10 41.27 39.30 38.98 43.14 46.25 43.86 40.73 39.39 44.35 47.38 48.53 50.38 52.01 51.82 52.00 53.46 53.96 53.93 53.42 52.77 53.78 54.24 54.64 54.26 55.57 55.43 55.62 55.52 54.15 55.94 54.47 54.20 56.50 56.09 58.01 58.82 58.20 58.63
39.67 43.11 46.55 44.11 42.08 40.94 41.08 39.44 39.91 40.25 43.09 42.68 39.75 37.58 42.63 47.59 48.63 49.91 51.76 52.56 52.87 53.29 53.20 53.72 53.33 52.38 53.28 53.44 53.36 53.31 54.90 54.87 55.46 55.92 54.37 54.37 54.78 54.11 54.15 53.97 55.58 58.36 58.58 58.55
40.86 46.18 44.64 42.62 41.39 42.65 38.16 44.18 43.61 41.99 39.69 34.36 39.16 30.96 39.81 43.84 46.25 48.57 49.97 50.66 51.83 53.87 54.37 54.50 53.70 52.92 52.62 52.40 53.05 53.16 53.96 53.59 55.21 56.61 54.98 54.45 54.54 53.84 54.99 54.45 54.84 56.72 59.07 58.93
39.40 42.60 42.47 41.61 42.96 45.65 41.71 45.85 44.80 43.74 39.42 35.86 36.63 33.31 37.53 42.72 42.48 45.24 48.69 50.68 52.59 54.42 54.05 54.03 53.60 53.82 53.32 52.22 52.00 52.63 53.46 54.23 55.68 57.09 56.09 55.92 54.64 55.85 54.81 53.80 54.15 55.73 58.77 59.64
41.38 46.35 45.08 44.54 46.72 46.36 47.40 44.45 43.34 40.69 37.65 30.81 36.31 35.65 34.92 38.63 42.89 44.98 50.08 51.71 53.06 54.30 54.49 54.73 54.34 53.96 51.92 51.84 51.97 52.62 52.97 54.04 55.86 57.40 56.75 56.00 55.47 53.34 53.21 54.62 54.12 54.99 58.32 59.45
39.29 40.51 44.77 45.68 42.06 45.23 44.72 38.53 31.20 29.50 28.67 28.20 40.70 37.06 38.28 43.73 45.95 46.82 49.70 51.56 53.26 54.77 54.50 54.31 53.04 52.43 52.32 51.89 52.22 53.50 54.25 54.39 56.36 57.44 56.99 56.20 55.46 54.02 54.26 54.12 54.98 54.58 57.19 58.48
33.11 31.38 40.73 45.39 42.90 41.49 41.29 39.59 32.21 27.23 26.35 30.24 39.72 34.42 39.28 45.87 48.68 48.59 49.95 52.92 53.89 53.74 54.53 54.46 54.34 53.61 53.27 53.79 54.49 55.03 55.04 55.42 56.73 57.05 57.22 57.62 57.15 56.95 56.00 55.10 55.75 55.72 56.49 58.44
33.56 34.19 43.79 45.62 46.35 45.69 41.20 36.84 42.78 36.34 36.52 30.84 35.13 40.71 43.70 44.79 44.60 45.76 46.82 50.79 51.98 53.04 53.99 54.17 54.85 54.80 54.77 54.92 55.28 56.20 56.31 56.40 56.93 56.81 56.78 56.67 57.37 57.70 57.27 56.40 54.82 56.31 57.35 58.27
39.31 33.59 42.36 44.06 46.64 45.87 43.47 45.49 37.12 38.46 29.46 27.42 33.99 35.61 36.17 41.50 43.67 43.93 45.05 47.75 50.41 52.66 54.17 54.94 55.42 55.54 56.09 56.51 56.59 56.88 57.09 56.75 57.15 57.29 57.13 56.70 57.02 57.72 58.35 56.22 55.37 56.28 56.24 55.86
42.29 37.51 37.44 43.19 41.35 39.70 40.53 39.81 40.92 41.94 37.69 30.07 27.45 32.17 41.55 43.27 44.60 44.20 44.23 46.62 48.03 50.94 51.20 53.46 55.49 56.66 56.97 57.07 56.90 56.81 56.81 56.96 57.13 57.98 58.10 57.43 57.75 58.16 58.16 57.10 57.00 57.63 57.34 57.32
42.91 38.75 33.58 37.43 44.58 45.94 42.99 41.84 40.86 34.29 34.94 36.87 31.35 33.17 43.82 44.62 45.83 45.37 45.12 47.32 47.84 49.40 50.01 52.13 54.59 55.73 56.53 57.03 57.27 56.89 57.35 57.37 57.87 58.93 59.63 58.92 58.16 58.49 58.12 58.20 58.37 58.77 57.58 56.78
41.72 36.80 31.23 33.76 40.62 43.40 40.40 42.27 42.87 42.46 39.77 35.38 30.36 33.52 45.40 45.29 45.14 45.64 44.15 45.65 48.13 49.35 49.74 50.48 51.35 52.79 55.56 57.34 57.88 58.26 58.42 58.55 60.20 59.78 59.65 58.70 58.72 58.78 58.69 58.75 57.84 55.55 54.46 55.62
44.86 38.60 36.09 31.42 35.11 40.49 38.02 41.53 42.94 41.38 33.33 35.40 35.39 39.89 43.70 44.16 44.70 45.21 44.94 45.94 46.39 48.54 50.54 50.33 50.64 52.38 55.46 55.71 56.69 57.87 58.57 59.52 59.20 56.83 56.28 56.02 55.01 55.32 56.54 55.52 54.17 53.25 53.17 50.28
42.71 35.60 38.04 39.10 41.31 41.59 40.45 40.48 42.02 40.07 39.55 36.47 39.38 40.04 43.38 44.41 45.19 45.92 46.39 46.64 46.12 47.07 49.40 50.54 50.37 54.09 53.60 54.03 54.08 54.18 53.39 52.45 54.15 52.23 51.53 49.69 49.67 49.81 48.89 48.87 48.51 48.21 47.93 47.77
42.58 35.17 38.04 35.91 40.66 41.05 38.63 41.26 42.62 42.50 40.69 41.35 41.33 40.66 46.21 47.48 45.40 45.81 47.01 47.31 45.84 47.37 47.34 49.67 52.53 54.38 52.63 52.33 51.94 52.35 51.43 50.91 51.58 50.15 48.40 48.20 47.90 47.66 47.19 46.29 45.57 45.21 45.01 44.96
39.47 37.37 34.49 30.80 39.04 38.86 33.32 38.49 41.00 41.58 42.70 41.55 37.35 42.34 46.80 46.28 45.92 44.65 46.14 46.78 46.48 47.24 50.49 52.67 54.22 54.37 52.45 51.87 51.36 50.64 50.36 50.56 49.77 48.60 47.88 47.70 47.30 46.09 45.37 45.08 44.49 43.65 43.23 43.34
39.59 37.70 35.18 29.14 33.80 27.61 37.57 45.05 45.01 42.56 43.84 44.53 42.92 43.39 44.23 45.08 45.49 44.85 46.07 46.97 47.88 49.08 51.62 53.63 54.18 52.09 50.82 50.70 50.34 50.08 50.29 49.74 48.96 48.30 47.39 46.96 46.35 45.17 44.75 44.22 43.67 42.91 42.52 41.77
42.63 39.73 31.44 29.92 30.40 35.12 38.79 42.44 42.77 41.61 40.61 45.27 43.03 44.10 44.46 44.00 44.97 43.55 46.80 47.90 50.36 48.84 52.44 53.06 52.69 50.59 49.19 48.63 49.26 49.27 48.56 48.32 47.93 46.96 46.55 46.18 45.47 44.21 43.99 42.90 41.88 40.90 40.39 40.85
42.26 40.83 35.13 29.54 28.10 24.81 36.10 44.15 47.12 46.16 35.60 45.61 45.55 44.42 44.53 43.78 37.54 41.51 47.40 49.75 49.65 51.29 52.57 51.87 51.04 50.71 49.61 48.80 49.02 47.80 47.23 47.33 46.90 47.03 46.39 46.12 45.18 44.62 43.05 41.82 40.91 39.58 40.20 40.89
31.73 32.47 29.49 27.87 27.42 32.76 41.84 45.42 47.30 35.84 35.93 46.06 47.08 45.79 44.34 42.19 43.78 45.75 48.83 49.38 50.75 51.90 51.78 51.95 51.31 50.04 49.09 48.96 48.20 46.73 46.53 46.11 47.51 47.08 46.04 45.05 43.67 41.63 40.87 40.46 39.94 39.35 38.16 36.52
34.50 32.04 30.43 29.93 26.84 27.31 44.92 44.99 39.73 42.17 45.24 46.53 46.63 47.33 46.28 45.56 46.07 47.05 48.38 48.56 49.36 49.74 50.03 50.97 49.28 48.16 48.78 48.40 46.91 44.68 43.31 44.55 45.08 44.46 42.78 41.94 41.56 41.88 41.05 39.55 38.22 37.00 34.36 30.95
32.16 35.66 33.25 34.46 33.61 42.47 46.03 46.47 47.51 47.48 45.89 46.76 47.18 48.31 48.30 46.14 45.91 47.33 47.31 47.95 48.55 48.82 47.65 47.98 46.43 45.11 45.36 45.94 45.57 43.05 43.22 43.30 42.77 42.15 41.34 41.32 40.50 39.44 37.68 35.71 34.14 33.25 31.95 29.39
38.56 42.52 37.14 37.71 41.15 43.85 46.01 47.65 48.64 48.55 47.08 48.68 48.47 48.12 48.02 46.30 45.75 46.26 46.11 45.32 45.48 45.81 45.84 46.06 45.77 44.50 42.94 43.90 44.16 43.40 42.67 42.30 40.57 37.73 36.99 35.23 31.48 30.83 30.72 30.30 29.77 28.81 26.29 26.35
36.02 40.83 39.05 38.61 41.92 44.96 45.47 47.61 48.31 49.24 49.02 47.94 48.96 48.30 47.28 47.23 46.53 45.35 45.47 46.07 45.79 44.31 44.70 45.56 44.40 42.95 41.66 42.08 41.12 41.30 40.14 39.52 36.09 34.26 32.18 29.39 28.88 28.26 26.90 25.25 25.22 25.73 26.30 27.20
40.73 39.97 36.56 35.49 44.11 43.37 44.40 46.69 49.23 47.52 46.52 48.29 48.43 48.43 46.56 47.94 46.28 45.43 43.70 44.21 44.49 43.19 43.89 41.03 39.63 37.31 34.53 35.51 36.57 37.93 38.01 36.01 33.07 30.24 29.02 28.34 27.15 26.23 26.17 25.16 25.57 29.02 28.34 28.73

GFSCGP_sfc_wetblb_075.txt.gz
Wetbulb
43.49 38.59 37.17 39.73 40.16 39.52 38.64 36.90 35.46 38.71 43.20 41.25 40.70 39.30 43.48 44.60 48.16 47.76 50.69 51.87 52.08 53.66 54.48 55.40 55.87 55.79 55.97 56.18 56.60 57.28 56.35 56.37 56.56 55.98 55.23 54.93 54.82 56.20 57.01 58.56 58.33 58.21 57.48 57.00
39.99 36.98 43.08 42.92 41.75 40.58 38.99 36.53 36.35 40.19 43.70 41.25 39.99 39.95 42.34 44.55 46.20 48.28 49.21 50.27 51.56 53.64 53.94 53.05 52.58 54.45 54.92 54.73 55.91 56.59 55.54 56.09 56.39 56.29 56.22 56.37 55.38 55.39 56.12 56.82 57.09 58.24 57.91 57.49
37.94 40.94 45.14 43.00 40.39 39.21 38.48 36.60 36.95 37.89 40.85 40.87 39.24 37.26 40.89 44.98 47.08 48.32 49.33 51.35 51.75 52.86 52.46 52.73 52.49 52.17 54.21 53.77 55.02 55.37 55.04 55.15 56.32 56.04 54.27 55.00 54.94 54.59 53.88 53.46 55.10 56.62 57.60 57.81
38.84 43.65 42.63 40.92 39.64 40.16 35.07 41.54 41.35 39.79 36.72 32.44 37.60 29.99 36.29 41.94 44.64 46.86 48.67 48.81 50.01 52.50 53.67 52.99 52.37 50.67 51.83 53.53 53.95 53.88 54.80 54.73 55.36 55.18 52.98 53.48 52.66 51.93 53.31 53.63 53.86 55.62 57.20 56.92
37.37 40.03 39.98 39.25 41.01 42.24 39.03 43.62 41.61 40.53 36.80 34.43 34.73 31.55 35.72 40.15 41.42 43.98 47.88 48.72 49.26 52.33 53.32 52.62 52.50 52.36 52.15 53.26 53.16 52.91 53.30 54.69 55.47 54.98 53.43 52.92 51.26 52.04 52.56 53.16 53.57 53.34 56.15 57.30
39.12 43.48 43.05 42.07 44.52 44.42 45.63 42.15 41.00 38.87 36.25 29.42 34.90 33.94 32.99 37.20 41.65 44.41 46.21 48.93 50.07 51.64 53.10 53.45 53.54 53.53 52.59 51.72 51.78 52.28 51.85 52.34 53.85 54.43 54.66 52.70 52.68 52.75 52.62 52.32 52.64 52.75 54.33 56.61
37.32 38.81 41.47 44.51 40.47 43.15 41.79 36.70 29.40 27.56 27.86 27.65 37.83 34.91 36.39 41.53 43.36 45.72 46.29 48.18 49.96 51.80 52.95 53.07 52.51 52.28 52.51 50.60 50.68 51.29 51.35 51.74 52.85 53.77 55.03 54.49 54.08 53.32 53.57 53.96 54.10 53.28 53.38 55.34
32.35 29.40 39.04 42.41 41.49 38.19 38.65 37.75 29.97 26.78 25.63 28.56 37.48 33.25 37.88 44.78 46.13 46.86 47.80 49.92 51.05 51.46 53.41 53.21 53.19 52.31 52.15 50.76 50.28 51.21 51.19 51.42 52.46 53.63 54.99 55.84 55.10 55.02 54.91 54.86 55.32 54.58 54.49 55.28
31.43 32.29 40.82 42.53 43.83 43.90 38.43 34.88 41.35 34.15 33.92 30.09 33.23 38.14 42.98 44.74 43.81 44.69 45.74 48.64 49.59 51.30 53.08 53.55 53.91 52.82 52.19 50.61 50.52 50.86 51.49 51.91 52.65 53.73 54.96 55.79 56.13 55.41 55.45 54.87 53.64 54.53 53.96 55.32
37.41 31.18 39.95 42.09 43.77 43.76 41.62 44.02 36.03 34.83 28.20 26.65 31.15 33.65 35.23 40.95 42.34 42.90 43.30 46.34 49.81 51.94 53.06 54.04 54.48 53.77 53.12 52.61 51.95 51.83 52.42 52.79 53.64 54.49 55.51 56.20 56.46 56.31 56.33 55.13 54.10 53.59 54.47 55.74
39.15 35.86 35.47 40.96 38.55 37.39 38.59 38.21 39.62 38.91 34.36 27.87 26.77 30.74 40.47 42.43 43.64 43.10 43.54 46.40 49.63 51.28 51.94 53.45 54.37 55.27 54.69 54.29 53.73 53.48 53.38 54.04 54.69 55.29 55.74 55.16 54.78 54.73 56.20 56.06 54.88 55.14 56.01 56.35
39.80 36.53 32.39 35.77 41.85 43.77 41.75 39.13 40.98 32.37 33.05 33.63 30.16 32.59 43.32 43.61 43.93 42.54 43.31 45.60 48.82 51.40 52.54 53.70 54.14 54.63 54.63 54.72 54.97 54.52 54.86 55.47 56.56 57.37 57.54 56.56 56.83 56.46 56.39 56.64 56.45 56.93 57.01 57.47
40.14 34.73 28.86 32.58 37.92 41.34 38.78 39.75 40.44 40.31 38.60 33.12 28.94 33.18 44.51 44.37 43.78 44.82 43.35 44.31 46.48 49.79 50.66 51.97 53.50 54.17 54.63 55.12 55.22 55.55 55.68 55.76 56.73 57.46 57.47 57.49 57.40 57.27 57.35 56.75 57.17 57.35 57.73 57.87
44.04 36.36 34.67 30.46 32.96 39.01 36.36 39.48 41.41 39.96 33.03 33.83 34.72 38.01 43.14 44.86 43.26 44.84 44.63 44.45 44.66 46.60 49.14 50.43 51.30 52.56 54.26 55.00 55.62 55.77 55.68 55.98 56.47 57.21 57.02 56.81 57.31 57.19 57.48 57.46 57.37 57.77 58.18 56.53
41.80 34.47 36.08 38.07 39.59 40.95 39.93 39.38 40.06 36.98 38.53 35.73 37.70 39.13 42.85 44.78 44.88 45.31 44.90 45.08 44.83 45.88 46.76 49.26 50.20 50.98 51.87 52.23 53.64 54.34 54.88 55.53 56.89 56.58 56.64 55.69 53.70 53.35 53.32 54.83 55.87 53.83 52.82 52.44
42.17 35.22 37.25 35.02 39.01 40.71 38.61 40.34 39.05 38.25 39.42 39.08 39.59 39.01 44.36 46.88 44.87 44.23 46.02 45.39 45.17 45.53 46.42 48.29 49.70 53.09 52.55 52.70 51.66 52.23 53.06 52.50 53.65 52.31 52.84 50.89 50.96 50.06 48.79 48.25 47.53 46.96 46.57 46.71
39.55 35.70 33.40 30.45 37.78 37.98 31.59 36.26 39.58 39.18 40.32 39.89 35.77 40.82 44.97 44.06 45.26 45.19 45.31 45.11 46.10 45.83 46.48 48.04 51.19 53.51 52.43 51.74 53.15 52.69 51.66 52.16 51.69 51.26 49.82 49.17 48.97 47.74 46.68 46.62 45.94 45.09 45.63 45.43
38.43 37.23 32.84 30.16 33.51 25.72 35.99 43.01 43.29 41.11 42.42 44.18 42.61 42.89 43.77 44.95 47.29 45.63 45.95 45.83 45.58 45.77 46.13 47.85 51.04 52.30 50.96 51.39 51.93 50.96 51.27 51.03 50.14 49.56 49.40 49.04 48.32 46.32 45.71 45.33 44.50 43.44 43.21 42.50
42.15 39.00 33.41 29.47 28.89 33.14 36.66 40.81 41.42 39.47 39.28 44.28 43.42 44.17 43.66 43.42 43.20 43.23 46.40 45.04 46.41 47.22 48.63 49.82 51.44 50.96 51.85 51.53 51.04 50.41 49.94 49.60 48.89 48.03 48.21 47.74 46.29 45.10 44.66 43.45 42.31 42.16 41.91 41.89
40.36 40.62 35.44 31.81 27.18 22.78 34.31 42.55 45.94 44.56 33.84 45.01 44.70 43.66 42.97 42.41 37.15 40.97 44.95 45.50 46.09 47.76 50.82 50.13 49.31 50.31 50.11 50.23 50.64 49.70 48.65 48.38 47.72 47.32 46.61 46.13 45.64 44.63 43.21 41.97 41.12 41.67 42.34 41.80
31.92 31.55 31.19 31.39 30.67 32.28 39.89 43.70 46.40 34.81 34.24 45.35 45.96 46.06 45.09 40.89 43.22 44.59 44.67 47.07 48.74 50.48 51.04 50.24 49.45 48.62 48.83 49.68 49.98 48.67 48.18 47.50 47.70 46.91 45.99 45.48 44.98 43.40 42.84 41.86 41.16 41.06 40.63 37.85
31.74 30.34 26.15 29.90 28.32 28.04 43.48 43.52 38.64 41.41 44.43 46.55 45.63 45.76 45.79 44.89 44.48 45.70 46.21 47.52 49.49 49.94 49.73 49.72 48.36 47.69 48.48 47.99 47.47 46.55 46.56 47.43 46.91 45.66 43.90 42.75 42.31 41.86 41.28 40.36 39.05 37.34 35.44 32.45
30.37 34.78 31.66 35.58 33.09 42.12 44.66 44.84 46.81 47.14 45.76 45.82 46.21 46.42 46.91 46.21 45.15 45.16 46.12 47.78 48.48 49.28 48.59 48.51 47.99 46.62 46.73 46.81 46.27 43.56 43.04 44.74 43.78 42.83 41.66 40.84 40.21 39.37 38.00 37.55 34.01 32.11 32.23 29.75
34.78 40.44 36.16 37.51 41.25 43.17 45.23 46.09 47.95 48.11 47.44 47.64 46.70 46.53 46.34 46.54 46.42 44.95 45.39 46.38 46.31 46.65 46.42 46.42 46.06 44.55 43.09 44.15 44.44 43.26 42.77 42.49 41.44 39.52 36.48 35.47 33.35 31.76 31.43 31.52 32.08 31.24 30.32 29.55
34.52 39.00 38.78 38.67 41.38 43.73 44.16 45.13 45.72 47.23 48.77 46.84 47.17 47.07 46.93 46.88 46.43 46.25 45.47 45.24 45.28 44.58 44.66 45.29 44.09 42.13 41.33 42.23 41.98 42.21 41.60 39.74 35.55 33.60 32.67 31.06 29.37 27.75 26.91 27.42 28.46 27.87 27.81 29.83
37.06 36.46 34.59 33.46 40.74 42.06 41.73 45.08 46.88 46.70 47.43 47.00 46.86 47.64 47.53 47.11 46.18 44.85 44.09 44.13 44.03 43.42 42.85 39.98 37.25 37.08 37.17 37.69 36.44 36.88 37.50 35.80 32.95 30.25 29.78 29.11 27.69 26.71 26.69 25.70 25.30 28.78 28.43 29.03

GFSCGP_sfc_wetblb_078.txt.gz
Wetbulb
41.39 36.74 34.69 38.45 39.07 38.62 36.78 34.78 33.92 36.08 40.01 39.37 38.48 37.40 41.22 41.68 46.84 46.84 49.08 51.11 51.72 53.07 54.11 55.30 55.94 55.37 55.85 56.84 57.27 57.58 56.86 57.28 57.38 56.86 56.48 56.68 56.78 57.65 58.33 58.23 57.67 55.93 56.01 56.01
37.75 35.67 41.69 41.88 41.01 39.43 37.87 35.07 35.30 38.12 41.25 39.72 37.80 38.61 40.77 42.37 44.49 47.13 47.62 50.02 50.94 52.12 54.10 55.25 55.37 55.07 55.05 55.78 56.85 56.91 56.72 56.70 56.83 56.66 57.51 57.16 55.64 56.70 58.19 58.28 57.77 57.51 55.89 55.44
36.69 38.81 43.32 41.32 38.70 37.75 37.73 35.98 36.01 35.64 38.12 38.84 37.14 35.66 38.20 42.50 44.59 46.33 47.42 49.63 51.65 52.58 53.64 54.00 53.91 54.13 54.86 54.88 55.72 56.31 56.10 56.24 56.73 56.97 56.36 55.54 55.55 55.85 55.23 55.01 56.02 56.36 56.96 56.08
37.46 42.32 40.85 40.04 38.64 39.37 33.66 39.92 39.77 37.59 34.93 30.13 36.40 28.43 35.79 39.05 42.27 44.73 46.01 47.18 50.13 52.42 53.73 53.52 53.25 52.71 53.46 54.05 55.30 56.49 55.95 55.72 56.55 56.59 55.95 54.28 54.65 54.42 55.36 54.26 55.27 55.81 56.82 57.00
35.94 38.25 38.65 37.62 39.03 40.78 37.79 41.16 39.10 37.87 34.42 31.97 33.68 29.58 34.26 37.80 39.82 42.55 44.93 46.50 48.32 51.98 53.10 52.75 52.62 52.83 53.68 54.19 54.16 54.00 54.80 54.68 55.77 55.00 55.49 53.66 52.57 53.31 53.83 53.80 53.99 54.18 55.85 56.74
37.70 41.17 40.58 40.30 42.62 42.08 44.19 39.56 38.38 37.15 34.37 27.65 34.18 32.64 31.79 35.40 40.29 42.34 45.05 45.93 47.20 50.45 52.81 53.39 53.20 52.49 52.13 53.13 53.02 52.17 53.27 53.89 54.87 54.64 52.84 53.00 51.49 51.94 51.50 52.14 53.10 53.64 53.72 55.57
36.16 37.10 39.44 43.26 37.92 41.32 39.61 35.19 27.91 26.27 26.65 27.34 35.38 32.35 36.35 40.08 42.36 43.40 44.56 45.23 46.21 49.74 52.01 52.33 51.39 51.05 51.22 50.74 51.21 51.60 52.07 52.66 53.93 54.28 54.07 52.48 52.60 51.93 52.02 51.84 52.70 51.66 52.51 52.56
30.39 28.23 37.61 41.36 40.34 37.76 37.76 36.17 28.56 25.58 24.99 28.20 35.36 31.50 36.30 43.73 44.99 45.34 45.69 46.29 46.69 49.23 52.02 52.42 52.45 51.86 51.29 51.45 51.46 51.74 51.40 51.84 52.03 53.09 53.59 54.19 52.48 53.11 53.17 52.46 52.41 52.23 52.34 52.65
30.31 30.43 39.53 41.13 42.21 42.69 37.25 34.81 39.20 32.21 31.79 29.14 31.68 36.26 40.69 43.26 42.88 43.26 43.50 44.20 45.90 48.43 51.24 52.33 52.69 52.36 52.05 51.56 51.05 51.44 51.65 51.88 51.86 52.10 53.00 53.15 54.01 52.96 52.42 53.13 52.97 53.04 52.92 53.56
36.06 29.73 37.88 40.16 41.51 42.25 39.57 41.77 33.68 32.81 27.24 26.12 29.56 31.91 33.37 39.76 41.98 42.58 42.48 43.67 46.35 48.49 50.86 52.23 52.86 52.55 52.66 52.24 51.53 51.40 51.80 51.61 51.93 51.76 52.35 52.90 53.04 53.62 53.19 53.03 52.93 53.13 53.64 53.87
36.41 34.14 34.03 38.39 36.08 35.35 36.37 36.82 37.37 37.59 33.16 28.01 25.70 30.04 39.29 41.30 42.69 42.56 42.55 43.62 45.72 48.29 50.08 52.30 53.03 53.33 52.82 51.92 50.79 51.02 51.47 51.51 51.37 51.60 51.76 51.81 53.29 54.01 54.72 55.05 55.07 54.56 54.47 54.44
38.18 33.70 29.42 34.08 39.79 40.81 39.91 37.34 38.63 31.89 30.82 31.14 29.17 32.59 41.97 43.10 42.80 42.17 42.18 43.60 45.53 48.37 49.57 51.55 53.13 53.54 52.34 51.73 50.62 50.44 51.19 51.66 52.55 53.31 53.99 54.20 55.25 55.58 55.67 55.95 56.26 56.52 55.37 55.46
41.71 33.34 26.57 30.84 36.59 38.37 37.13 38.00 39.80 39.82 36.55 31.24 28.84 32.39 43.18 43.05 42.97 44.09 43.33 43.71 43.93 46.92 48.28 49.88 50.98 51.94 53.15 52.55 52.22 51.59 51.64 51.84 52.93 54.08 54.73 54.79 55.32 55.54 55.56 55.42 55.73 55.61 55.58 55.49
43.57 37.91 31.22 27.47 30.56 34.90 33.98 37.46 39.15 39.39 30.73 31.18 32.23 36.07 39.93 42.91 43.28 44.18 44.68 44.40 43.35 45.06 47.47 48.18 49.60 51.21 52.44 53.18 53.41 53.24 53.07 53.23 53.45 54.19 54.58 54.64 55.55 55.94 55.60 54.11 53.96 55.07 55.63 55.98
41.30 33.55 34.13 35.98 36.60 37.56 37.71 37.62 38.96 36.70 35.35 32.95 34.95 36.93 42.64 43.20 43.94 46.02 45.39 44.28 43.52 44.38 45.82 46.94 47.88 48.91 51.15 51.32 52.32 53.23 53.40 54.02 54.37 54.71 54.81 54.68 55.60 56.09 55.46 54.25 54.31 54.21 54.45 55.45
41.56 33.96 34.57 32.70 36.41 36.91 35.28 37.34 37.53 37.18 37.28 36.81 36.36 36.58 43.97 45.20 45.69 44.37 45.69 45.35 43.94 44.05 45.24 46.43 47.50 47.79 48.43 49.50 50.37 51.25 51.71 52.81 54.23 54.30 54.26 55.03 54.05 54.22 54.03 52.60 51.69 51.69 50.77 50.23
38.62 34.40 31.64 28.59 35.26 35.59 30.39 35.35 36.59 37.44 39.07 38.35 33.99 38.38 43.75 43.53 43.55 44.06 45.45 45.11 45.32 44.48 45.33 47.05 48.47 50.06 51.56 50.73 49.89 49.93 51.72 50.62 53.02 53.42 53.24 52.69 51.30 50.29 49.27 48.54 47.64 47.09 46.03 45.63
36.44 34.62 32.84 28.46 30.73 23.05 34.59 41.23 42.11 39.92 40.64 40.98 40.73 41.84 44.24 45.00 45.29 44.50 45.56 45.80 44.95 45.88 45.83 45.55 47.69 49.08 50.00 50.30 49.86 51.32 52.86 51.95 51.65 51.32 50.38 49.86 49.55 47.96 47.06 46.68 45.79 44.00 43.98 43.41
39.90 37.20 31.79 29.86 28.63 31.54 34.79 39.35 39.97 37.84 37.20 42.10 41.74 43.63 45.41 45.57 40.97 41.57 43.95 45.50 47.43 47.06 47.75 46.48 47.51 48.86 50.61 51.14 51.25 51.27 51.06 50.61 50.27 49.24 48.84 48.90 48.39 46.61 46.03 44.29 43.04 42.70 42.27 42.09
38.35 39.20 34.81 31.20 28.43 24.84 33.09 40.09 44.14 42.94 32.30 43.57 44.07 42.71 42.22 41.34 35.35 39.92 43.63 44.25 46.09 44.51 46.53 47.78 49.35 50.14 49.93 50.06 50.95 50.28 49.51 49.26 48.14 48.21 47.58 47.51 47.35 46.14 43.84 42.24 41.89 42.60 42.57 41.29
33.87 33.24 32.74 31.17 28.73 32.73 39.68 42.05 44.13 32.22 34.35 44.51 45.85 44.84 43.32 40.18 42.42 44.89 44.39 44.95 46.26 47.27 48.15 48.76 49.40 49.51 49.48 50.76 50.78 49.02 48.84 47.80 47.61 46.95 46.29 45.86 44.84 43.36 42.56 41.77 42.08 41.58 37.23 34.35
30.85 28.99 29.16 31.91 29.59 27.44 42.62 43.56 37.80 40.27 43.53 44.93 45.54 45.80 45.94 46.03 45.70 45.81 45.13 45.71 47.28 48.33 48.68 48.48 48.22 48.55 49.67 50.51 50.07 48.44 46.81 46.67 46.40 45.44 43.86 42.86 42.60 42.30 41.40 39.76 38.44 36.85 34.15 31.49
28.80 32.98 30.68 32.59 32.45 40.24 42.76 44.06 45.89 46.66 45.11 45.31 45.78 46.25 46.37 45.54 45.76 45.58 45.59 47.09 47.70 47.56 48.91 48.25 47.51 46.95 47.74 48.61 48.91 45.93 45.52 45.03 43.80 42.41 40.95 40.13 39.37 39.41 39.24 37.18 35.28 33.66 32.80 30.72
32.62 37.62 33.73 34.83 37.82 40.35 42.80 45.19 47.35 47.52 46.68 47.44 47.40 47.06 46.41 45.70 45.32 45.56 44.95 46.18 46.07 46.68 46.53 47.11 46.90 45.69 44.46 44.83 43.94 43.13 43.30 43.18 41.41 38.63 37.28 36.78 34.79 33.49 33.52 33.54 33.75 32.98 31.53 30.02
32.33 35.07 34.76 34.89 38.11 40.30 42.50 44.71 46.35 47.23 47.31 46.92 46.41 46.06 46.94 46.37 45.42 46.24 45.30 44.82 44.64 44.24 43.84 43.92 43.32 42.16 41.87 42.16 41.54 41.31 40.60 40.28 37.59 36.24 34.67 32.67 31.99 30.72 28.69 28.18 29.17 29.16 29.56 31.00
35.56 34.47 32.01 30.55 38.35 38.29 39.68 43.61 45.54 44.93 45.43 47.37 45.81 45.95 46.60 45.40 43.98 43.87 43.36 43.20 42.14 40.38 39.53 38.41 37.84 36.24 34.48 33.87 34.35 36.25 37.33 36.31 33.35 30.06 28.05 27.98 28.01 27.21 26.80 26.24 26.10 29.78 29.71 30.32

GFSCGP_sfc_wetblb_081.txt.gz
Wetbulb
44.21 41.02 38.30 41.68 42.95 41.71 41.35 39.14 38.50 41.14 43.58 42.54 42.23 42.22 44.96 47.71 48.79 49.18 51.30 53.34 54.43 55.25 57.45 57.58 56.37 56.42 56.35 57.47 57.98 57.33 56.44 57.01 58.03 57.48 57.78 57.78 57.40 58.50 58.57 58.88 58.26 58.60 58.15 57.30
40.58 38.17 42.67 43.72 43.44 42.42 41.09 38.89 38.90 41.52 43.60 42.54 42.57 42.37 46.05 46.95 48.52 50.41 51.00 52.76 54.56 56.00 55.52 55.84 56.08 56.23 55.72 56.55 57.60 57.64 57.02 57.17 57.56 57.70 58.06 58.13 57.80 58.62 58.51 58.70 58.03 58.41 58.94 57.88
38.36 41.05 44.32 42.66 40.88 40.00 40.61 39.37 39.66 39.06 41.23 43.50 41.60 40.62 43.80 46.65 48.05 49.28 51.53 53.51 55.21 55.86 55.38 55.49 55.25 55.48 55.33 56.01 57.07 57.36 57.18 57.37 57.43 58.23 57.58 57.24 57.32 57.38 57.12 57.28 57.01 58.89 58.69 58.55
39.91 43.50 41.47 40.98 39.79 41.34 36.94 42.51 41.50 40.18 38.51 34.83 41.88 34.06 41.22 45.43 45.92 47.63 49.74 51.70 53.77 55.67 56.84 56.44 54.91 55.10 55.18 55.82 57.50 57.64 57.52 57.23 57.47 57.70 57.22 56.37 55.84 55.26 56.69 56.52 57.11 58.25 59.64 58.67
38.35 39.50 39.34 38.79 40.05 42.17 39.43 43.43 41.55 41.26 38.75 37.45 37.97 35.71 39.64 42.64 43.99 47.18 49.73 50.61 52.84 55.13 56.92 56.57 55.63 55.76 55.12 55.73 56.41 57.07 57.48 57.47 57.47 57.42 57.32 56.60 56.32 57.06 57.69 57.43 58.34 59.33 59.90 59.45
39.62 43.45 42.57 41.64 43.25 43.55 44.47 41.79 40.77 40.06 38.27 31.63 36.66 37.20 38.56 42.48 45.04 47.29 49.01 50.50 51.77 53.90 56.20 57.41 57.45 56.80 54.37 55.35 55.36 56.36 56.41 57.59 58.12 57.67 58.05 56.72 57.44 57.67 56.71 56.65 58.14 58.83 59.63 59.92
37.01 39.00 42.42 43.99 40.11 42.86 42.19 39.11 32.21 31.00 31.08 29.92 39.43 36.64 40.38 44.83 46.03 47.94 49.16 50.76 51.34 53.62 55.35 56.11 55.71 53.93 53.69 53.92 53.88 54.84 55.35 56.15 57.68 57.05 56.79 57.65 57.54 58.05 57.85 58.29 58.69 58.69 58.56 58.69
31.08 29.83 39.51 43.10 41.82 39.20 39.96 39.29 32.57 26.52 29.00 32.81 37.75 34.73 40.49 47.61 48.96 49.38 49.65 50.67 50.42 52.28 54.91 55.77 56.20 55.78 54.74 53.29 53.17 53.90 55.39 56.20 56.97 57.18 56.33 56.36 57.64 57.19 57.26 57.48 58.11 57.91 58.86 58.82
31.23 31.13 40.12 42.08 44.22 43.95 38.92 35.55 41.46 34.96 35.79 33.72 36.80 40.24 44.90 47.69 46.73 47.94 48.52 48.61 49.62 51.54 53.89 55.19 56.08 56.40 56.07 54.89 53.89 54.24 55.93 56.63 56.88 57.04 57.75 56.97 56.78 57.43 56.98 57.20 57.97 58.41 58.38 57.83
37.67 31.84 39.69 41.37 43.00 44.11 42.33 43.65 34.78 36.45 28.24 27.71 34.02 35.90 38.73 43.16 45.45 46.99 47.90 48.98 49.65 51.13 53.49 54.82 55.65 56.01 56.42 56.11 55.62 55.71 56.20 56.13 56.47 57.08 57.42 57.20 57.01 57.60 57.63 58.05 57.52 57.63 58.50 58.33
39.10 36.32 36.52 40.14 37.88 37.29 38.23 38.11 39.67 39.37 36.72 31.32 30.02 35.30 44.70 46.00 47.21 47.12 48.29 48.85 48.91 51.66 53.12 54.68 55.86 56.65 56.53 56.58 55.62 55.12 55.67 55.59 55.82 56.02 56.68 57.20 57.27 57.64 58.11 57.65 57.78 57.95 59.17 58.69
40.80 36.38 31.70 35.15 41.68 42.47 41.87 39.27 39.92 35.57 33.70 36.01 35.64 36.63 45.84 47.34 48.18 47.04 48.43 48.30 48.58 50.95 53.71 55.23 55.85 56.22 56.00 55.90 55.36 54.93 55.55 55.34 56.38 55.98 55.86 56.08 56.86 57.44 57.33 56.21 57.50 59.05 58.60 58.77
38.89 36.33 30.03 31.97 37.21 40.23 38.31 40.63 41.03 40.57 39.18 36.23 34.12 36.91 46.59 46.24 47.52 48.67 48.28 50.23 50.19 49.69 52.51 54.80 55.63 55.39 55.54 55.67 54.97 54.89 55.14 55.88 55.88 55.94 55.11 54.44 55.04 55.26 55.41 55.87 57.06 59.02 58.83 58.42
42.01 35.92 33.91 29.55 32.51 37.12 35.79 39.19 40.71 40.19 35.11 35.96 36.65 39.49 43.99 46.20 47.01 48.76 48.57 49.95 50.36 49.17 51.03 53.58 55.10 55.86 55.90 55.69 55.41 54.83 54.94 55.91 55.83 54.92 55.15 54.90 54.91 56.01 55.65 55.57 57.23 58.48 58.57 58.36
40.69 31.55 34.15 36.09 37.12 38.10 37.73 37.56 39.57 38.97 39.75 36.37 38.98 39.97 43.67 46.29 47.72 49.09 48.46 49.28 49.30 49.17 48.92 51.40 53.66 55.10 56.01 55.77 55.41 55.35 55.35 55.17 55.50 55.31 55.25 55.38 56.63 56.67 57.17 57.65 57.69 58.48 58.40 58.26
39.56 32.62 34.85 33.26 37.34 37.86 35.68 38.76 38.66 39.99 40.18 39.76 39.80 40.01 46.36 48.36 48.95 48.28 48.91 48.19 49.11 49.52 48.79 50.31 51.49 52.79 54.11 54.83 55.71 55.50 55.26 55.17 55.42 54.98 55.17 56.09 56.54 56.96 57.18 57.52 57.73 56.99 56.86 57.40
33.18 34.38 33.50 29.59 35.49 34.61 31.94 36.75 38.52 39.83 41.40 41.58 37.79 42.95 47.22 46.18 46.40 47.76 48.29 47.68 48.23 49.65 49.44 49.08 51.25 52.22 53.13 54.47 55.22 55.42 55.74 56.25 55.63 55.23 55.56 56.00 56.57 56.34 57.10 56.87 54.76 55.00 54.74 52.03
33.52 33.85 33.92 29.97 32.85 26.58 37.65 42.47 42.79 40.71 42.32 43.73 43.43 44.77 46.78 47.24 48.33 48.33 49.76 49.12 48.49 48.68 50.25 49.95 49.95 51.91 53.63 54.24 54.49 55.53 55.57 55.71 55.71 55.78 55.94 56.33 55.89 54.69 51.73 51.19 50.60 47.58 46.73 46.03
36.78 33.21 31.63 29.35 29.67 31.87 37.33 40.98 41.20 40.09 40.28 44.67 43.82 45.14 46.18 47.83 46.35 48.21 48.34 47.91 47.53 49.37 50.75 51.51 51.75 51.83 53.33 53.93 53.86 54.31 53.95 54.71 54.71 53.81 52.62 52.25 52.09 50.12 49.35 47.85 45.41 44.46 43.81 43.29
35.69 35.86 34.08 32.22 27.86 24.67 35.20 41.77 45.63 45.31 36.76 44.81 45.25 45.09 45.54 44.99 41.99 44.88 47.14 49.25 48.50 49.30 48.62 48.76 50.45 52.27 53.25 53.26 54.13 53.21 52.24 51.93 50.71 50.60 50.58 50.92 50.34 48.81 46.61 44.14 43.36 43.48 42.38 39.74
32.12 33.60 30.44 30.67 29.61 34.27 41.06 43.35 45.98 34.97 38.15 45.65 47.28 47.01 45.82 44.70 47.26 49.24 48.78 48.63 48.91 50.58 50.58 50.64 51.46 51.55 52.63 53.32 53.40 51.73 51.26 49.54 49.08 48.57 47.54 46.88 45.99 44.43 43.62 42.98 42.17 39.05 36.62 34.18
32.89 31.34 30.86 31.91 29.80 28.12 43.62 44.45 39.43 44.05 46.23 47.22 47.49 47.42 47.54 47.84 47.42 48.62 47.67 48.54 49.75 49.63 49.10 50.41 50.67 50.23 51.04 52.14 51.91 50.31 47.95 47.45 46.93 45.69 44.10 43.41 42.99 42.45 41.96 39.60 37.39 35.91 34.12 31.79
30.08 35.80 34.00 35.60 35.36 42.42 44.06 45.34 47.61 48.12 47.10 48.77 47.98 49.24 49.88 48.44 47.69 49.05 48.06 48.03 47.95 48.24 47.97 48.41 48.24 48.57 49.76 50.24 49.45 46.16 45.43 44.96 43.70 42.21 40.79 40.31 39.95 39.32 38.68 37.03 35.24 33.79 33.40 31.56
35.28 38.98 36.93 36.99 39.42 40.28 42.66 45.44 46.74 47.33 47.52 49.26 49.06 48.65 48.75 47.73 47.42 47.31 47.60 46.70 46.43 47.38 47.02 46.10 45.67 44.46 43.62 45.19 45.80 44.98 44.06 43.42 41.68 39.76 38.61 37.65 35.98 34.58 34.56 35.08 34.81 33.49 32.34 31.11
36.09 37.40 36.14 36.52 39.13 41.58 43.02 44.35 44.46 44.67 44.96 46.32 48.88 48.96 47.77 47.57 47.16 47.29 46.10 44.98 44.15 43.91 44.72 44.95 43.23 41.82 41.43 41.97 41.87 42.70 42.44 42.48 39.17 37.21 35.49 33.69 32.47 31.20 29.54 29.71 30.44 30.27 31.09 32.13
38.13 36.76 35.42 34.41 39.52 39.60 40.54 43.24 42.98 42.27 43.65 45.69 46.97 46.84 45.18 46.82 44.71 43.34 40.48 40.11 39.30 38.34 38.16 36.95 35.43 34.30 34.08 35.39 36.15 37.57 38.99 37.90 34.74 32.04 31.63 31.01 30.07 29.48 29.44 28.16 27.58 30.71 30.55 30.55

GFSCGP_sfc_wetblb_084.txt.gz
Wetbulb
44.80 42.99 40.57 43.52 44.69 45.60 45.53 44.08 43.89 46.84 47.12 45.59 45.66 46.01 47.88 50.14 52.07 53.07 55.07 56.21 57.47 58.10 60.49 61.83 59.15 58.78 59.20 59.67 58.32 57.45 56.60 58.45 59.95 58.63 57.87 57.99 56.92 58.01 58.58 58.22 58.41 58.34 57.85 57.73
42.71 40.00 44.83 45.50 45.90 44.89 44.85 42.93 43.22 46.19 46.62 45.84 45.88 45.78 47.82 49.19 51.83 53.20 54.27 56.00 57.29 58.54 59.82 60.45 58.98 59.32 59.03 59.25 58.49 57.29 56.71 57.23 58.07 59.37 59.17 58.63 58.25 58.51 58.29 58.52 58.53 58.39 58.05 56.73
39.73 42.77 45.43 44.94 44.00 42.62 43.37 42.57 42.96 43.01 45.94 47.26 45.60 44.20 46.43 48.18 51.67 53.20 54.87 56.28 57.57 58.65 59.54 59.83 59.06 59.16 60.25 59.34 58.24 57.40 57.34 56.90 58.13 58.98 58.72 58.41 58.08 58.68 57.78 58.49 57.47 58.34 59.59 58.65
41.31 44.13 43.82 43.23 42.16 43.58 39.70 45.26 44.37 43.31 42.28 39.18 44.96 38.06 44.76 47.84 49.51 51.31 53.54 55.88 57.04 58.35 60.00 60.59 59.79 58.87 59.60 59.56 59.05 58.63 58.11 57.80 58.11 59.01 57.86 56.98 55.32 54.89 57.43 58.22 58.17 58.42 60.33 60.02
41.25 41.70 40.72 41.00 42.75 44.66 41.72 45.81 43.93 43.94 42.76 42.68 42.70 39.78 43.63 46.31 46.23 49.01 51.77 54.59 57.17 58.66 60.08 60.60 60.43 60.07 60.59 59.19 58.47 58.94 58.64 58.14 58.01 58.44 57.90 57.41 56.14 56.87 58.90 57.31 56.52 56.65 60.15 60.97
41.62 45.91 44.04 43.08 44.97 45.65 46.33 44.40 44.30 44.00 42.55 36.24 40.86 40.61 41.66 45.29 47.75 49.76 51.58 53.26 55.88 57.86 59.66 61.29 61.69 60.84 60.70 59.26 57.68 58.79 57.97 57.96 57.82 58.03 58.41 58.01 57.31 56.72 56.47 55.76 55.03 55.74 59.53 60.69
36.17 39.20 43.75 45.31 42.30 45.22 44.52 41.75 36.58 34.90 35.13 34.60 42.13 39.88 42.40 47.88 49.94 50.69 51.36 53.02 55.41 57.58 59.00 60.44 60.65 60.31 59.80 58.23 57.50 57.60 57.75 57.49 57.88 57.86 58.13 58.86 58.21 57.28 56.67 57.57 56.17 55.66 58.90 59.10
32.54 30.94 37.37 41.61 41.35 40.30 41.66 42.23 37.83 30.99 33.62 37.28 41.90 37.35 42.69 49.77 51.69 52.64 53.25 54.09 55.20 56.81 58.80 60.21 61.11 61.19 59.58 59.03 58.68 57.03 56.97 56.80 58.26 58.27 58.92 59.88 60.40 59.35 58.41 57.46 56.63 59.49 60.07 60.79
34.92 34.28 41.94 42.81 43.52 43.08 41.89 39.48 45.23 39.44 39.81 36.01 40.38 43.97 48.04 49.95 50.46 51.59 52.26 53.19 54.13 55.48 58.08 59.57 60.97 61.18 60.30 59.78 59.19 57.37 57.05 58.15 58.80 58.63 59.33 59.92 60.47 60.66 60.94 60.49 60.10 60.75 61.93 60.97
39.58 33.95 40.89 42.15 44.79 45.03 42.98 45.25 37.81 39.55 30.59 30.42 37.78 40.12 41.89 45.55 48.26 50.10 51.46 53.12 54.66 55.19 57.08 59.45 60.52 61.20 61.00 60.59 59.81 58.58 59.55 59.77 60.81 60.68 60.32 60.12 60.29 60.66 60.93 61.32 61.00 61.53 62.13 62.03
42.17 38.90 38.83 42.31 39.76 38.77 40.22 39.61 41.23 41.98 39.57 33.94 33.40 39.37 47.78 47.59 49.63 50.02 51.90 53.32 53.48 55.21 57.00 58.79 60.11 61.41 61.75 61.52 60.18 59.01 59.69 60.19 60.50 60.87 61.17 60.80 60.50 60.33 60.95 61.40 61.52 61.51 62.50 61.81
42.82 40.52 34.62 37.82 43.90 44.91 43.77 41.89 42.05 36.77 35.98 39.49 38.38 39.29 49.66 50.30 51.53 51.74 52.30 53.30 53.19 55.52 57.33 59.07 59.72 60.52 60.90 61.14 60.79 59.75 59.82 60.02 60.73 60.88 60.95 60.94 61.06 60.84 60.68 61.24 61.88 62.54 61.83 61.92
41.36 37.70 33.79 35.22 40.09 43.26 40.27 42.18 42.74 42.79 42.13 38.23 36.74 39.90 49.48 50.43 50.74 51.94 52.72 53.84 54.51 53.64 56.42 58.61 59.25 59.41 60.08 60.70 60.85 60.32 59.91 59.89 60.50 60.49 60.45 60.52 60.61 60.54 61.08 61.13 61.60 61.52 61.46 61.33
42.20 37.20 34.25 31.99 35.45 40.09 37.63 40.22 42.32 41.86 37.39 37.44 39.20 40.89 46.45 48.24 49.15 50.97 52.27 53.66 54.28 54.58 54.60 57.54 58.97 59.52 60.13 60.61 60.91 60.80 60.25 60.35 60.04 59.77 59.39 59.54 60.12 60.26 60.47 60.75 60.50 60.35 60.43 60.07
41.17 33.84 36.10 36.99 38.76 39.38 39.12 39.67 40.95 40.07 41.49 38.80 40.97 41.76 45.02 47.52 49.58 51.02 52.38 52.75 52.87 53.33 53.56 55.28 57.74 59.60 60.05 60.32 60.84 60.80 61.05 60.40 60.35 59.25 58.68 58.66 59.47 59.79 59.55 59.84 60.05 59.31 59.30 60.04
39.23 34.45 36.36 34.28 38.58 39.34 38.03 40.14 41.43 42.06 42.05 42.48 43.00 42.72 49.01 50.58 51.37 51.10 51.66 51.86 52.10 52.59 53.31 54.17 55.59 58.63 59.59 59.69 60.46 60.21 60.21 60.25 60.30 59.29 58.75 59.30 59.20 59.14 59.19 59.48 59.38 59.14 59.22 59.53
35.56 34.94 32.02 30.13 37.45 37.13 33.73 39.31 41.33 42.60 44.04 43.26 40.30 45.29 49.13 48.42 48.91 50.29 51.18 51.98 52.14 53.20 52.85 53.15 54.03 56.11 59.12 60.20 60.17 60.14 60.32 60.73 59.76 59.44 59.30 59.09 59.11 58.94 59.22 59.38 59.45 59.17 59.31 59.24
34.48 35.00 34.45 30.42 33.89 26.30 38.34 42.72 44.59 43.54 44.77 45.85 45.64 46.95 48.47 49.18 50.94 52.15 52.69 51.82 51.66 51.79 51.78 52.04 53.24 55.21 57.02 59.76 60.55 61.11 60.82 59.95 59.30 59.14 59.04 59.22 59.11 58.97 59.20 59.17 59.04 59.15 57.93 56.18
39.50 35.87 31.68 28.42 31.41 35.40 35.81 37.62 40.41 41.84 42.66 47.29 46.35 47.76 49.31 50.49 51.25 50.98 51.91 53.09 53.53 53.42 52.98 54.01 54.21 54.36 56.60 58.14 59.78 59.97 60.23 59.82 58.91 58.48 58.68 58.94 58.95 58.67 58.25 56.79 55.47 52.65 48.09 45.96
38.83 38.44 34.35 31.70 28.44 26.52 36.12 40.88 45.01 45.54 38.66 48.15 49.00 48.71 49.07 49.73 45.49 49.10 52.59 54.14 54.79 55.08 55.22 53.27 53.40 53.09 54.60 56.65 57.68 58.61 58.81 58.97 58.16 58.74 58.68 57.90 56.88 55.18 54.17 49.88 45.97 44.51 43.08 40.41
32.77 32.31 30.07 30.56 29.37 35.12 42.78 44.77 46.35 34.95 37.71 47.48 48.77 49.95 49.64 48.78 50.47 52.33 52.84 53.88 54.61 54.52 53.76 53.60 53.57 53.39 54.84 56.55 57.53 56.89 57.50 56.69 56.32 55.49 54.77 53.51 52.47 49.04 46.06 43.69 42.00 39.55 37.06 35.21
31.36 30.57 30.81 31.12 30.38 28.61 45.14 44.44 38.67 42.61 48.60 49.13 49.10 50.11 50.56 51.14 51.55 52.52 52.29 52.31 52.71 51.56 50.74 52.43 52.60 51.83 53.80 55.86 56.29 54.29 52.21 51.08 50.27 48.36 45.99 44.81 44.22 43.49 41.47 39.32 37.39 36.12 34.28 32.33
31.76 37.53 34.74 36.87 36.47 43.42 44.21 44.25 47.36 47.86 46.88 47.46 49.39 51.57 52.08 51.54 51.23 51.99 51.88 51.49 49.99 49.17 48.40 49.85 49.49 48.65 50.46 52.44 52.09 47.45 45.99 45.41 44.39 43.24 41.92 41.04 40.52 39.71 39.05 37.25 35.53 34.06 33.41 31.50
38.86 41.72 38.23 37.62 41.17 41.87 43.14 46.20 45.44 47.16 46.86 48.84 49.80 49.96 51.71 51.21 52.47 51.33 50.82 49.91 49.26 47.30 46.23 46.12 44.99 43.50 43.54 44.88 45.22 44.59 43.81 43.13 41.11 39.11 38.19 37.62 36.51 35.94 36.21 35.93 35.41 34.22 32.74 31.16
40.30 40.90 37.93 38.11 41.41 43.74 44.45 45.43 44.76 44.29 45.88 46.18 49.20 51.14 51.32 51.65 51.15 50.74 48.61 46.54 45.35 44.89 43.61 42.32 41.00 40.18 39.79 41.55 42.37 42.54 41.36 40.41 37.54 35.51 34.44 33.03 32.33 31.69 30.37 30.47 31.71 30.95 31.53 31.92
41.93 39.52 37.78 37.72 39.72 40.49 43.28 44.30 44.26 42.64 42.26 42.24 44.09 48.98 48.45 50.41 48.31 46.53 42.46 41.34 40.10 38.65 37.52 36.13 35.66 35.07 34.89 35.70 37.26 39.55 40.00 38.60 36.00 33.52 32.34 31.94 31.14 30.57 30.34 29.19 28.27 30.73 30.46 30.85

GFSCGP_sfc_wetblb_090.txt.gz
Wetbulb
44.03 39.33 36.86 40.03 43.25 43.76 43.99 42.78 42.60 45.52 49.19 47.97 48.03 48.30 49.38 51.52 52.44 51.95 52.87 53.40 54.11 56.12 59.89 62.05 62.79 62.57 62.52 61.43 59.89 58.13 58.02 59.38 59.12 57.46 56.18 55.57 54.92 55.51 55.98 56.30 56.53 56.44 56.42 56.56
43.04 37.71 41.70 42.46 43.42 43.57 43.05 41.32 41.14 44.74 47.92 46.88 47.03 46.59 49.25 50.67 51.39 52.38 52.21 52.08 54.05 55.39 58.27 60.88 61.96 61.52 61.80 60.45 59.18 58.21 58.40 59.09 58.80 57.99 56.97 56.13 55.30 54.93 55.13 55.71 55.82 55.73 56.12 56.30
41.98 43.81 44.75 42.79 40.75 40.71 42.90 41.43 41.48 41.25 45.85 47.65 46.45 44.70 46.93 49.77 51.55 52.60 53.42 53.78 53.26 55.45 57.52 59.87 61.04 60.54 61.54 59.81 58.27 58.10 57.75 58.88 58.72 58.11 56.97 56.49 55.42 54.68 53.72 53.99 54.70 55.48 56.05 56.37
44.14 46.40 44.42 44.13 42.31 41.74 39.33 44.91 43.74 42.30 40.60 37.07 46.10 37.63 45.42 48.30 49.59 51.70 52.70 53.39 53.20 54.51 58.22 60.13 61.01 60.34 60.38 60.50 59.06 58.30 58.67 58.73 58.87 57.95 56.11 54.81 53.12 51.71 53.18 53.35 54.22 55.57 56.34 55.83
41.08 42.62 42.07 41.64 42.37 44.98 41.52 45.64 43.48 42.68 40.30 40.68 41.28 39.55 42.73 47.53 46.61 49.52 52.05 52.87 53.69 55.99 56.61 59.63 60.91 61.02 60.83 60.89 58.88 58.14 58.56 58.67 58.82 57.77 56.71 54.59 53.34 54.11 54.80 54.54 54.07 54.05 54.91 55.66
42.58 46.76 45.16 44.35 45.62 45.69 46.69 43.78 43.33 42.93 40.32 32.96 39.73 40.23 40.60 44.02 47.71 50.38 51.66 52.86 54.51 55.38 56.88 60.23 61.97 61.99 61.15 61.49 59.31 58.14 57.60 57.91 58.83 58.38 56.92 55.31 53.98 54.07 54.05 53.11 53.20 54.43 54.96 56.28
38.38 40.32 44.18 46.48 42.19 44.98 43.98 40.72 33.26 30.47 30.90 31.36 41.73 40.09 42.85 47.68 50.12 51.48 51.94 53.09 55.74 55.84 56.86 58.47 61.07 60.74 60.79 60.45 58.92 58.23 57.79 56.63 57.99 58.26 57.73 55.74 54.70 54.35 54.24 53.28 53.20 53.73 54.62 56.16
34.57 31.85 40.42 44.78 42.61 40.71 41.08 40.31 34.09 26.21 29.79 33.46 42.16 37.98 42.66 50.17 51.47 52.60 52.95 54.38 55.70 55.57 57.53 58.42 61.16 61.15 61.16 60.89 59.31 57.77 57.85 57.09 57.79 58.12 57.92 57.42 56.00 55.18 55.16 54.43 54.55 54.78 54.97 55.66
36.44 36.09 43.13 42.45 43.25 43.96 41.01 37.20 42.72 36.72 37.65 33.66 37.63 42.65 48.06 50.51 50.01 51.62 52.09 52.92 53.84 55.66 56.95 57.65 60.98 61.63 61.06 60.96 59.71 58.14 57.52 57.73 57.55 57.49 58.13 57.99 57.36 56.08 55.65 55.45 55.79 55.51 55.64 56.19
40.92 35.02 42.70 42.25 42.06 42.82 41.62 44.65 35.87 37.45 28.09 27.16 34.39 38.16 40.36 46.68 48.65 50.44 51.37 52.63 54.00 55.21 55.57 57.49 59.77 61.65 61.66 61.56 60.29 58.90 57.93 57.63 57.75 57.92 58.00 58.24 58.08 57.29 57.08 57.36 55.59 55.59 55.53 55.61
44.42 40.22 38.58 42.45 37.85 37.15 37.50 36.16 37.56 37.71 36.90 31.01 30.29 36.19 47.18 47.01 49.08 50.66 52.39 53.76 54.73 55.69 56.17 57.49 59.25 62.11 61.71 62.19 60.39 59.05 58.27 57.86 57.70 57.95 58.11 58.32 58.45 58.00 57.02 57.34 57.67 56.60 56.07 55.70
42.57 40.33 35.09 37.93 43.52 44.45 42.60 38.24 37.86 32.44 33.44 38.07 36.13 35.35 47.93 49.35 50.75 52.69 52.39 54.09 55.60 56.53 57.03 57.71 59.14 61.80 61.63 61.13 60.62 59.59 58.73 58.37 58.45 58.61 58.39 58.04 58.67 58.87 58.43 57.63 57.67 58.12 56.83 56.38
39.44 37.33 31.88 34.92 39.75 42.97 40.67 42.22 41.71 40.80 39.75 35.33 32.66 36.88 48.10 50.59 50.06 52.50 52.06 54.50 54.91 56.39 57.73 57.99 59.04 60.79 61.46 60.94 60.89 60.03 59.38 59.01 59.61 58.93 58.52 58.25 58.88 59.06 59.05 59.06 59.04 58.65 58.08 57.34
41.42 36.33 33.57 29.65 33.70 38.38 36.46 40.51 41.70 41.00 35.98 36.83 37.33 39.40 44.02 46.68 47.37 48.96 50.91 54.20 54.70 55.16 56.13 58.13 58.94 59.85 61.31 61.52 61.06 60.82 59.67 59.72 59.68 60.10 58.68 58.12 58.24 58.99 59.16 59.95 60.17 60.20 59.20 58.76
39.93 32.61 35.27 36.18 37.18 37.73 37.11 37.55 40.09 39.44 40.14 36.46 39.21 40.04 43.96 46.25 47.73 49.13 51.68 52.34 53.23 53.42 54.11 56.10 58.07 59.08 60.30 61.16 61.38 61.54 60.43 59.73 59.91 59.76 59.75 59.05 59.21 59.60 59.30 59.53 59.72 60.41 60.43 59.86
41.35 34.44 36.49 34.16 37.73 37.95 36.00 37.77 38.67 39.72 40.42 40.26 40.74 40.69 46.84 48.25 49.05 49.40 51.14 52.01 51.28 52.75 53.92 55.05 56.15 58.40 59.66 60.54 61.45 61.74 61.10 60.15 60.32 59.57 59.53 60.38 60.80 60.55 59.58 59.36 59.62 59.76 59.71 59.76
37.11 35.57 33.59 29.18 35.87 35.73 31.62 37.28 38.29 38.81 41.35 41.23 38.00 43.18 47.33 47.21 47.86 48.78 50.47 52.01 51.94 52.83 54.33 54.63 54.84 56.31 58.12 60.34 61.10 61.31 61.65 61.54 60.41 59.86 59.86 60.17 60.31 60.24 60.28 60.62 60.21 59.51 58.67 58.93
35.89 35.01 34.41 29.88 32.45 23.55 36.40 42.28 44.03 41.49 42.95 44.22 43.89 44.74 47.13 49.05 49.55 49.91 52.38 51.74 52.56 54.03 54.56 55.38 55.81 56.25 56.76 57.00 60.63 61.42 62.55 61.87 60.49 60.09 60.05 60.30 59.80 59.83 59.87 59.75 59.44 59.34 59.29 58.50
39.82 35.68 31.37 28.18 28.60 32.98 36.48 39.69 40.72 39.76 39.30 43.80 43.78 45.50 47.85 50.41 50.08 49.75 53.97 54.58 54.48 55.18 55.79 55.61 56.50 56.74 56.87 56.40 56.82 60.71 61.01 61.48 61.09 60.19 59.93 60.14 59.73 59.19 58.89 58.54 58.31 58.25 57.93 57.73
39.48 38.68 33.51 31.49 25.88 24.14 37.47 42.91 46.37 45.06 35.69 44.49 43.01 43.34 45.21 47.97 44.32 48.14 53.87 54.94 55.01 55.41 55.37 55.23 56.28 56.39 56.30 56.93 56.27 56.45 59.66 59.89 59.90 60.66 60.45 60.42 60.21 59.33 58.13 57.62 56.66 50.24 45.29 40.71
33.59 33.93 30.37 30.60 28.07 32.89 41.25 42.87 44.02 34.18 35.46 44.51 45.87 44.21 45.67 43.95 45.96 49.24 52.51 54.23 55.18 54.99 54.32 54.86 54.59 53.24 53.65 55.59 56.65 56.03 56.44 57.33 59.40 59.81 58.23 55.13 54.94 53.80 49.56 45.17 43.02 41.26 38.03 35.54
32.09 31.12 30.49 32.00 28.51 25.95 44.87 43.83 37.72 41.27 45.45 45.47 45.67 45.14 45.49 48.39 49.62 49.96 50.08 52.98 52.75 51.89 51.25 50.67 49.72 48.17 48.68 51.47 53.41 50.03 48.22 49.09 48.93 47.01 45.27 44.92 44.85 43.53 42.06 39.19 38.03 36.74 35.02 33.05
32.63 36.71 34.45 34.48 34.50 43.31 42.49 43.46 44.78 45.30 43.49 43.19 43.72 45.10 48.82 49.01 50.04 50.63 51.47 50.42 48.11 47.13 45.73 45.46 44.01 42.92 42.94 44.12 45.58 45.48 43.78 43.68 42.45 40.99 39.98 39.85 39.60 38.81 39.12 37.87 36.73 33.92 32.39 30.37
39.81 43.04 37.98 36.29 40.34 42.45 42.97 44.67 44.44 45.03 43.92 43.15 43.91 44.66 46.59 47.22 48.92 48.29 47.00 44.89 42.28 40.25 38.59 39.24 38.47 36.34 36.06 39.43 39.33 38.87 39.05 39.15 37.50 36.62 35.03 34.38 33.83 34.02 34.57 34.20 33.56 32.24 30.65 29.29
39.16 40.45 39.10 38.24 41.05 42.56 42.68 42.70 42.19 42.61 43.79 42.87 43.74 43.46 44.16 45.12 43.83 40.91 38.29 37.57 36.38 36.40 35.51 35.09 34.82 34.69 34.54 35.53 36.02 36.67 36.21 35.60 33.28 32.46 31.68 30.74 30.34 30.04 29.70 29.89 29.84 29.39 30.00 29.89
38.63 36.66 36.37 35.54 38.72 40.04 39.83 39.87 40.96 40.68 41.03 42.21 41.51 41.11 43.07 41.18 38.66 37.29 33.94 33.15 32.72 31.93 32.77 32.85 32.81 32.81 33.20 34.14 34.10 34.22 34.25 33.99 32.25 30.44 29.81 29.28 28.77 28.20 27.90 27.18 27.01 30.09 29.55 29.90

GFSCGP_sfc_wetblb_093.txt.gz
Wetbulb
39.79 33.88 31.82 34.71 37.47 39.92 39.83 38.96 38.32 40.81 44.14 43.70 42.89 43.10 45.35 48.63 47.38 46.52 46.91 47.53 47.68 48.92 55.01 58.24 58.98 58.19 57.93 57.48 56.77 56.63 56.85 58.86 58.10 57.04 56.13 55.77 55.09 55.59 56.17 58.10 58.94 60.20 61.28 60.66
37.15 33.41 38.09 39.72 39.30 38.32 38.10 37.04 36.75 40.39 43.66 43.73 41.85 41.95 45.06 47.83 47.26 48.03 47.20 46.98 47.79 48.76 54.30 57.53 57.78 57.76 57.50 56.27 56.39 56.39 57.22 58.69 57.73 57.11 56.71 55.90 55.12 55.32 55.38 56.08 56.26 57.07 58.28 58.89
36.50 40.46 42.57 39.76 38.01 36.34 36.14 35.84 37.47 38.28 41.11 41.78 41.09 39.85 42.47 47.10 48.25 49.26 49.08 49.32 48.31 50.13 54.05 56.76 56.98 56.86 56.71 55.78 55.66 56.35 57.56 58.59 57.87 57.48 56.15 55.20 54.73 54.42 53.60 53.38 53.92 55.60 56.83 57.68
40.78 44.67 43.47 40.68 37.51 38.51 33.52 38.76 39.16 40.00 37.54 32.08 42.36 30.97 39.94 43.99 45.67 48.84 49.23 49.39 49.50 47.91 56.48 57.17 56.70 56.53 55.84 55.92 56.33 56.80 57.73 58.39 57.69 56.87 55.26 53.43 52.57 51.77 53.18 53.14 53.66 54.66 56.02 55.86
37.96 40.27 39.45 38.98 39.61 41.50 37.93 40.76 39.79 40.58 36.54 35.44 37.46 34.23 36.86 43.28 43.50 46.69 47.79 49.12 50.29 48.40 56.50 56.77 56.67 57.24 56.33 56.29 56.04 56.25 57.72 58.05 57.21 56.32 55.29 53.53 52.21 52.41 53.42 53.50 52.98 53.86 54.91 55.65
38.43 42.34 40.49 40.04 42.64 42.80 43.95 41.68 41.45 39.75 38.15 30.22 35.77 35.46 33.79 39.46 43.76 47.00 49.03 49.95 49.16 48.70 56.42 57.56 57.89 58.02 56.39 56.20 55.83 56.46 57.32 57.58 56.94 56.04 55.05 52.58 51.63 52.20 51.87 52.22 52.66 52.93 54.09 54.30
34.93 36.39 39.79 42.22 37.63 42.02 40.40 37.21 28.51 27.28 28.50 26.90 38.48 36.06 36.76 43.62 47.23 48.15 48.46 50.11 49.46 50.97 55.66 57.09 56.56 56.64 56.49 55.65 55.36 56.12 56.89 57.30 57.12 55.92 54.67 53.84 53.82 53.43 52.62 52.29 53.08 52.30 52.52 53.45
28.39 27.13 35.96 40.31 38.40 37.42 38.80 37.95 29.76 24.40 26.31 31.23 38.48 33.84 38.77 47.50 48.86 50.42 50.32 49.31 49.74 49.56 56.07 57.33 57.24 57.07 56.96 55.90 55.59 55.76 56.35 57.11 57.18 56.23 55.16 54.32 54.77 54.51 53.63 52.95 53.47 53.24 52.76 52.94
32.16 32.89 41.36 40.09 40.67 41.92 37.92 34.69 40.56 34.37 35.47 31.59 34.38 38.31 43.62 47.76 48.82 49.66 48.80 48.61 48.84 50.26 55.30 57.56 57.68 57.89 57.39 56.22 55.74 55.52 55.65 56.71 57.45 57.32 56.03 54.89 54.75 54.69 54.07 53.23 52.74 53.87 54.20 54.41
38.48 32.14 41.20 42.14 41.32 41.65 39.65 42.43 33.90 34.71 25.21 23.62 31.20 34.24 35.65 42.12 46.28 48.33 48.31 47.40 48.33 50.99 54.17 57.80 57.94 58.03 58.18 57.08 56.40 56.10 56.15 56.21 57.05 57.66 57.29 56.03 55.25 55.08 54.94 54.46 52.87 53.97 54.12 54.97
40.66 36.72 36.43 41.81 35.43 34.82 36.22 36.03 37.83 36.66 33.81 26.03 26.23 32.35 44.23 44.81 46.37 47.07 48.55 48.82 49.62 49.79 50.39 54.10 58.36 58.62 58.99 57.94 56.31 56.00 56.04 56.59 56.50 57.29 57.67 57.34 56.18 55.57 55.32 55.06 54.14 54.98 54.60 55.43
37.93 37.65 32.36 36.04 42.46 43.02 39.08 36.61 36.23 29.69 29.28 32.62 32.19 32.47 47.17 45.71 48.05 48.70 48.67 49.98 51.15 50.54 51.33 52.49 58.70 58.60 58.37 57.54 56.29 56.00 55.93 56.27 57.05 57.43 57.34 57.44 57.52 56.88 55.30 55.19 55.29 54.96 54.60 54.34
37.20 32.99 29.05 31.63 37.26 41.16 38.34 39.08 38.70 36.95 35.41 30.92 27.81 31.63 45.10 45.80 47.97 49.58 48.86 49.72 51.44 51.67 51.82 52.75 58.49 58.06 58.35 57.51 56.71 56.17 55.92 55.71 56.77 57.33 56.94 57.30 57.48 57.18 56.11 55.30 56.06 56.03 55.10 54.29
40.04 33.75 30.60 26.62 30.83 34.89 32.48 36.04 38.85 37.97 31.38 31.40 32.36 35.14 40.46 43.53 45.70 48.61 49.35 49.78 49.37 50.80 52.25 53.11 57.41 57.91 58.58 58.16 57.37 56.86 56.55 56.65 56.63 56.86 56.76 56.65 57.08 57.49 57.17 55.88 55.93 56.42 56.25 55.03
37.95 30.10 33.29 34.42 35.81 36.18 35.02 34.85 35.68 34.44 37.67 33.43 35.83 37.35 41.43 43.29 44.35 46.40 48.02 49.33 49.74 50.66 51.83 53.17 53.84 57.64 58.28 58.04 58.12 57.80 57.25 57.06 57.23 56.80 56.41 56.13 56.91 57.31 57.88 57.85 57.31 56.60 56.37 56.38
40.62 32.62 35.01 32.72 36.50 36.58 34.39 36.64 36.50 36.42 36.74 37.04 38.25 36.92 44.35 46.25 47.43 48.18 49.38 49.33 49.00 49.87 51.65 52.15 53.13 55.18 58.46 58.55 58.33 58.41 57.67 57.41 57.90 57.52 56.41 56.83 56.83 57.08 57.37 57.64 57.97 57.69 57.22 56.93
35.46 33.57 30.09 27.89 34.35 33.21 28.52 34.12 36.38 37.46 38.80 37.69 33.58 40.03 44.90 44.96 46.37 46.92 47.99 50.16 49.83 50.27 51.84 52.44 53.13 52.97 53.02 54.62 58.66 58.42 58.29 58.25 57.61 57.07 58.03 57.62 57.42 56.89 57.29 57.55 57.40 57.49 57.67 58.43
34.17 33.20 31.15 27.42 29.60 19.41 34.26 40.32 40.44 40.52 40.65 41.44 42.03 42.73 43.70 44.41 46.30 48.67 49.57 49.56 51.51 51.55 51.87 52.34 52.84 53.15 53.19 53.46 53.71 54.88 59.06 58.35 57.47 57.29 57.37 58.49 58.39 57.65 57.66 57.74 56.98 56.98 57.12 57.06
37.72 33.39 26.38 25.01 24.84 30.46 34.61 39.70 39.05 37.15 37.63 41.86 40.72 41.68 43.45 45.55 46.44 47.54 48.74 50.05 51.38 51.36 52.27 52.11 52.53 52.08 52.25 52.40 53.94 54.47 55.36 58.68 57.97 57.47 57.71 58.03 58.31 58.27 58.43 57.85 57.36 57.47 57.43 56.80
37.14 35.70 29.55 26.48 24.50 20.34 35.49 40.13 43.85 42.67 33.07 42.92 43.27 42.40 42.19 43.37 39.84 42.21 48.16 50.58 49.94 49.29 49.69 49.26 48.74 47.77 46.74 47.24 51.38 52.20 50.29 52.59 55.90 57.89 58.40 58.28 57.75 57.48 57.33 57.13 54.61 46.81 47.21 40.52
30.49 30.74 26.79 26.17 26.14 29.78 39.82 41.52 44.23 33.07 33.07 42.01 43.01 43.33 43.95 41.13 44.62 48.16 50.60 49.21 48.21 46.19 45.70 46.66 45.34 43.24 43.16 44.07 48.40 45.75 45.75 45.15 46.78 46.64 55.58 56.94 56.32 56.74 53.96 47.52 44.07 41.18 38.14 35.70
29.70 29.17 26.66 26.93 26.38 23.20 41.09 41.16 36.30 37.98 41.69 40.58 40.89 42.69 45.23 46.13 48.33 50.31 48.15 44.13 43.05 41.63 41.90 42.19 41.32 40.18 40.85 41.00 42.90 41.13 39.94 42.43 43.18 43.41 43.32 44.26 46.53 44.80 43.43 41.15 39.29 38.33 35.91 33.24
29.27 33.32 28.71 30.88 30.08 39.61 41.84 40.34 42.82 42.25 39.05 39.14 39.93 42.07 43.03 43.22 42.88 42.60 41.80 40.31 38.41 37.83 37.75 38.80 37.81 37.78 38.42 39.00 38.44 36.77 36.72 37.94 38.86 38.87 38.32 38.32 40.32 41.20 41.45 38.06 34.88 33.76 33.78 31.73
38.04 40.64 36.13 34.00 39.04 40.57 41.13 41.93 42.11 41.88 40.77 40.41 40.92 41.79 41.71 39.58 38.75 38.07 37.29 36.05 35.86 35.12 34.66 36.31 36.54 35.50 35.41 36.90 36.66 35.54 35.01 34.30 33.15 32.22 32.59 33.98 33.69 32.78 33.52 34.43 34.96 33.22 31.87 30.36
37.48 38.29 38.05 37.40 39.47 39.21 38.49 38.70 39.29 39.74 41.29 40.71 40.63 39.85 38.29 37.11 35.64 34.76 33.21 32.42 32.23 32.58 33.14 33.21 32.40 31.73 31.75 34.34 34.83 34.97 34.18 32.95 30.55 29.83 29.56 29.40 29.53 29.17 28.43 28.84 29.36 28.51 29.67 30.45
36.77 33.54 32.82 31.03 34.53 37.46 35.79 37.43 38.89 37.67 37.25 39.45 38.03 36.94 35.52 34.92 32.69 31.66 29.43 29.49 29.59 29.47 29.97 29.60 29.70 29.60 29.74 30.87 31.88 33.93 34.18 32.79 30.44 28.53 27.95 27.33 26.91 26.83 27.79 26.59 26.53 29.90 29.28 29.92

GFSCGP_sfc_wetblb_096.txt.gz
Wetbulb
39.84 33.22 29.73 34.63 38.72 39.32 37.95 36.32 34.82 35.82 41.87 40.33 39.32 40.07 41.67 43.82 46.12 46.19 47.37 46.98 46.03 45.37 50.32 57.37 57.81 57.77 57.52 57.35 56.79 56.55 56.90 58.14 58.38 57.64 56.62 56.47 56.25 56.64 57.96 59.99 62.07 62.35 62.67 61.25
35.21 31.70 36.51 38.34 37.53 36.46 35.73 34.03 34.47 38.28 40.75 39.90 38.50 39.13 42.20 43.80 45.20 46.22 46.30 47.82 46.50 44.99 52.85 56.22 56.43 56.77 56.57 56.14 56.31 56.26 57.04 57.27 57.59 57.49 56.88 56.24 55.84 55.61 56.60 57.10 58.58 61.88 62.38 61.35
33.17 37.47 40.11 37.71 35.97 34.51 34.10 32.69 33.38 34.08 38.17 39.78 38.57 38.15 40.33 44.27 46.19 47.90 49.07 49.49 48.49 47.00 52.84 54.96 55.66 55.58 55.66 55.36 55.34 55.84 56.52 56.89 57.35 57.03 55.92 55.14 54.72 54.39 53.85 54.61 55.67 57.46 61.17 60.63
38.24 41.42 38.37 38.45 35.53 36.15 31.28 37.53 36.30 34.97 32.65 29.40 38.06 30.07 38.08 41.73 43.43 45.74 47.70 48.78 48.75 46.40 54.22 55.63 55.61 54.98 54.94 55.08 55.64 56.18 56.83 57.06 57.08 56.06 55.20 53.94 53.13 52.07 53.24 53.59 54.36 55.91 58.43 59.87
34.67 38.13 38.96 38.02 39.29 38.83 34.89 39.05 36.89 35.47 33.87 33.69 34.79 30.90 34.63 40.44 40.70 43.68 46.43 48.60 50.01 47.46 53.32 55.09 55.45 55.30 55.28 55.08 55.32 55.94 56.85 56.82 56.64 55.30 54.89 54.12 53.15 53.48 53.35 53.09 53.64 54.53 55.69 57.17
35.72 39.90 37.27 37.91 40.75 40.96 41.97 38.65 39.10 37.16 34.73 27.24 34.01 32.78 33.91 35.69 40.55 43.77 47.34 49.33 50.27 46.62 53.38 55.85 56.48 55.93 55.24 55.14 55.24 55.44 56.33 55.77 56.25 55.57 54.77 54.10 53.18 52.78 52.38 52.30 52.70 53.85 54.98 55.18
33.42 35.47 38.52 39.64 35.15 38.94 38.16 33.63 26.79 24.77 25.95 25.83 36.39 33.42 35.33 41.23 44.20 45.43 46.30 48.89 50.42 50.51 52.06 55.07 54.91 54.30 54.74 54.34 54.42 55.12 55.74 54.63 55.76 55.16 54.37 52.17 52.24 52.15 52.46 52.46 52.55 52.80 53.29 54.00
26.70 25.48 34.82 38.33 36.50 34.02 34.94 34.40 27.22 22.90 24.15 27.29 37.30 31.14 36.53 45.50 47.22 48.50 49.92 51.04 51.28 51.41 54.44 55.16 55.24 54.69 54.66 54.47 54.52 55.24 55.46 54.74 55.47 54.65 53.92 52.55 52.11 52.74 53.11 53.37 53.26 53.01 53.30 54.04
28.00 28.48 37.45 38.22 40.04 38.63 34.81 32.62 37.63 31.48 32.04 27.54 31.46 35.73 40.84 45.02 45.70 48.03 49.57 49.47 48.92 49.10 54.64 55.32 55.82 55.40 54.91 54.53 54.69 54.97 55.50 55.51 55.48 54.85 54.67 53.25 53.22 53.12 53.42 53.19 53.49 53.15 52.80 53.87
35.95 30.02 39.11 40.99 37.98 38.18 38.14 40.05 31.03 31.54 24.43 23.19 28.68 30.35 33.02 40.18 42.94 47.18 47.57 48.65 49.40 51.40 55.18 55.83 56.09 55.91 55.68 55.35 55.51 55.20 55.91 55.77 55.76 55.46 55.12 53.91 53.72 53.54 53.97 53.56 51.97 52.66 52.42 53.77
39.13 35.26 34.50 39.37 33.47 32.79 33.87 32.40 36.31 35.36 31.58 25.26 23.06 29.14 42.90 42.52 44.64 44.50 46.83 48.88 49.34 49.83 53.64 56.10 56.57 56.78 56.58 55.92 55.45 54.85 55.06 55.89 55.74 56.13 55.60 54.37 54.03 54.52 54.12 53.51 53.26 53.17 53.59 53.21
37.52 36.17 31.78 34.51 41.09 42.15 37.97 35.08 35.53 28.94 28.70 30.72 28.85 31.25 45.27 45.07 46.79 46.35 46.14 49.00 51.07 51.37 51.35 56.35 56.74 56.92 55.86 55.03 55.19 54.82 54.85 55.19 56.18 56.61 56.94 55.30 54.79 54.78 54.43 53.99 53.40 54.26 53.68 54.12
37.28 32.82 28.74 30.85 36.96 38.70 35.84 37.43 37.20 38.00 33.16 28.69 24.28 30.09 44.05 45.42 45.94 47.53 47.07 48.76 50.16 50.78 50.71 51.61 56.71 56.71 55.82 55.24 55.04 54.82 54.92 55.12 55.85 56.77 57.06 56.73 55.53 54.72 54.28 54.40 54.47 53.83 54.39 53.82
40.05 32.79 29.13 26.00 28.41 33.46 32.28 34.26 35.68 34.21 29.28 29.30 30.10 33.94 39.83 43.07 43.78 45.94 46.75 48.66 49.00 49.45 51.05 52.91 55.74 56.60 56.62 55.91 55.31 55.27 55.14 55.69 55.60 56.04 56.31 56.42 56.82 56.15 55.23 54.95 54.89 54.55 54.07 53.63
37.68 28.83 32.85 33.94 34.72 34.61 34.29 33.23 34.45 33.31 33.55 30.59 35.24 36.14 40.63 42.91 45.06 47.06 48.86 49.63 49.82 50.05 50.26 52.95 54.52 55.92 56.51 55.91 55.91 55.92 55.31 55.60 55.99 55.62 55.06 55.49 56.67 57.51 57.18 55.98 55.16 55.31 54.19 53.82
38.89 31.14 33.16 31.19 34.89 34.73 33.04 35.16 35.26 36.01 36.23 35.75 37.37 36.51 44.25 45.73 46.40 46.81 48.38 48.98 48.85 50.11 51.06 51.43 52.99 55.55 56.76 56.76 56.07 56.21 55.71 55.53 55.93 55.17 54.74 55.51 56.15 57.16 57.31 56.61 55.69 55.45 55.29 54.78
33.31 31.59 28.27 26.80 32.30 32.21 27.95 33.30 35.15 36.22 38.89 38.33 33.28 39.78 42.91 43.08 44.51 45.29 47.65 49.21 49.95 50.48 50.50 51.05 50.92 51.42 52.27 53.98 57.62 56.42 56.54 56.85 55.92 55.40 55.73 55.87 55.69 55.38 56.20 57.25 56.57 55.58 55.20 55.56
31.96 31.29 29.41 27.11 27.38 18.10 33.70 40.90 41.48 38.76 39.51 40.17 39.64 40.49 42.19 42.68 45.90 47.18 48.78 47.88 47.65 48.68 48.10 47.72 47.44 47.90 47.72 49.42 52.24 53.98 58.05 57.20 56.57 56.06 56.01 56.19 56.01 55.57 55.36 55.72 56.37 56.84 56.86 55.78
35.87 31.67 26.81 23.84 22.62 28.86 33.86 37.85 38.28 37.01 36.32 41.84 39.64 41.79 42.81 43.77 45.84 44.95 49.87 47.69 46.04 45.73 46.45 45.31 45.34 45.03 44.85 46.25 47.98 48.66 48.68 53.59 56.86 56.54 56.57 56.94 56.52 55.81 55.79 55.57 56.08 56.71 57.07 56.87
35.12 33.90 28.77 26.07 23.68 20.39 34.06 40.25 42.46 42.03 33.56 39.96 40.69 40.65 41.75 43.01 37.85 41.40 48.81 46.97 44.91 44.70 45.27 44.28 43.53 43.09 42.43 43.47 45.67 44.75 44.75 45.01 45.84 47.16 48.76 54.67 57.56 57.11 56.39 56.08 55.77 56.21 56.19 53.82
28.51 28.58 26.45 26.16 24.34 28.96 38.65 41.07 42.47 28.44 31.62 39.34 39.92 41.51 42.60 40.58 40.32 41.90 42.50 41.16 41.78 41.33 41.18 43.06 42.16 40.65 40.26 41.13 43.02 41.01 40.47 40.83 42.86 43.64 44.19 47.57 49.05 53.23 55.46 56.01 51.21 44.56 42.04 41.02
29.37 27.38 26.40 27.43 24.57 22.57 40.17 40.08 33.71 36.68 40.43 40.02 39.72 41.33 41.92 42.40 43.16 42.18 39.91 38.86 37.84 37.35 38.62 39.36 38.82 37.34 38.13 38.27 39.44 37.75 36.43 38.06 38.75 38.72 37.77 37.48 40.60 44.28 44.58 43.01 41.10 39.80 38.08 34.24
29.81 32.68 29.18 30.59 29.15 39.87 40.01 38.59 40.83 40.39 38.03 37.70 37.94 39.15 39.69 37.87 38.33 38.27 36.97 36.13 35.44 34.66 34.96 36.61 36.02 35.24 35.36 35.99 35.76 34.47 34.45 35.02 34.41 33.67 32.89 33.86 34.13 35.05 37.95 39.05 37.91 35.50 35.65 33.70
37.72 39.95 33.89 34.56 38.39 38.73 38.98 39.79 39.69 40.07 38.11 38.22 37.53 37.27 37.20 35.66 35.46 34.60 33.77 32.98 32.79 32.05 31.98 32.86 33.11 32.32 32.54 34.29 34.36 33.82 33.68 33.10 32.00 30.81 30.15 30.16 29.64 30.16 32.19 32.39 33.59 33.02 32.01 31.58
35.74 36.58 34.84 35.57 35.95 36.43 35.69 36.77 37.61 37.09 38.30 37.45 35.80 35.21 33.96 33.83 32.64 31.77 30.25 30.05 30.10 29.91 30.20 30.52 30.38 30.50 30.98 32.64 33.01 34.04 32.95 32.18 29.89 29.31 29.12 28.80 28.54 28.19 28.17 28.86 30.19 29.97 30.63 31.63
35.56 32.72 30.30 28.61 33.49 36.00 33.76 35.26 36.96 35.10 35.80 35.00 34.12 32.27 32.31 31.56 30.41 29.62 27.47 27.67 27.52 27.36 28.01 28.11 28.64 29.05 29.42 30.85 31.05 31.94 31.31 30.20 28.61 27.08 26.55 26.94 27.48 27.50 27.65 27.06 27.23 30.73 30.52 31.03

GFSCGP_sfc_wetblb_099.txt.gz
Wetbulb
37.04 32.16 30.27 33.15 37.48 38.44 37.33 35.22 33.42 33.90 40.33 38.14 37.26 37.90 39.67 41.09 42.54 42.80 43.22 44.14 45.06 46.03 48.02 50.83 55.54 57.39 57.72 57.77 57.48 57.36 56.70 58.07 58.63 57.21 57.18 57.48 57.82 57.76 59.77 61.88 62.31 61.89 62.46 60.38
33.59 30.17 34.89 37.44 37.98 36.04 34.98 33.11 31.97 35.62 39.60 38.15 37.56 37.19 39.60 40.36 42.38 43.60 43.97 44.27 45.60 46.02 49.52 53.87 55.78 56.65 56.71 57.06 56.93 56.40 56.69 58.03 58.07 57.83 57.22 55.67 56.38 56.50 57.64 58.67 60.50 62.04 62.19 60.55
32.01 34.48 38.20 36.37 34.17 33.18 32.29 31.50 31.01 32.96 34.30 35.23 34.66 34.75 37.03 41.28 42.84 45.01 45.78 46.15 47.49 46.98 47.70 53.15 55.30 55.96 56.14 56.55 55.88 56.14 57.34 57.06 57.31 56.24 54.77 55.09 54.95 54.89 54.83 55.75 57.60 59.13 62.03 60.75
34.99 38.33 36.66 34.70 33.43 33.95 29.41 35.80 35.20 33.28 29.95 25.09 34.43 26.22 34.43 37.88 41.18 43.31 45.47 46.34 47.16 47.03 48.67 53.89 55.21 55.40 55.94 55.98 55.92 56.39 56.72 56.10 56.44 56.20 54.54 53.96 53.28 52.75 53.85 54.48 55.15 56.78 59.44 60.88
34.23 36.04 34.99 33.16 34.57 35.71 32.30 37.25 35.05 34.14 30.00 28.21 30.28 29.17 31.99 39.22 37.95 41.10 43.71 45.35 46.87 47.78 46.62 52.79 54.86 55.81 55.99 56.11 55.36 56.35 56.18 55.57 55.92 55.66 53.68 53.09 53.51 53.90 53.75 53.68 54.31 55.81 57.02 59.95
34.10 37.07 35.69 37.01 39.12 39.60 39.88 35.75 35.25 33.06 30.13 24.56 30.25 30.97 31.83 33.96 38.10 41.15 44.55 46.68 49.54 47.57 45.97 53.16 55.74 56.07 55.51 55.47 55.34 56.01 56.00 55.93 55.90 55.16 52.96 52.56 53.28 52.86 52.37 52.80 53.27 54.39 55.23 57.04
30.41 33.08 35.25 38.05 32.93 36.10 35.50 31.50 25.38 24.08 25.67 24.49 34.98 31.82 34.51 39.06 43.00 43.31 45.18 47.69 49.56 49.32 46.74 51.16 54.24 54.39 54.89 54.10 54.77 55.34 55.43 55.22 54.98 54.17 52.97 53.01 52.96 53.55 52.66 52.71 53.18 53.77 53.99 54.47
24.50 24.72 32.56 36.46 35.04 31.80 32.28 32.03 25.75 21.94 22.59 26.30 34.10 28.98 33.13 42.40 45.00 47.21 48.06 48.91 49.56 50.01 50.40 51.84 54.67 54.55 54.63 54.36 54.49 55.06 55.00 54.75 54.61 53.88 53.01 53.59 52.85 53.58 53.40 53.38 53.75 54.06 54.31 54.47
26.12 26.67 35.32 36.43 37.25 36.99 32.77 30.55 35.73 29.70 29.04 26.49 29.74 34.09 38.33 42.14 44.27 45.43 46.09 47.08 47.00 48.68 51.27 52.06 54.90 54.57 54.49 54.51 54.25 54.49 54.86 55.03 54.51 53.77 52.40 51.36 52.15 52.53 53.01 52.83 53.48 53.61 54.32 54.82
32.48 27.04 37.07 39.38 37.02 36.81 35.92 37.83 28.96 29.35 23.38 22.47 26.41 27.96 29.95 38.81 42.24 43.92 44.48 44.84 47.05 49.31 50.88 53.67 54.99 54.57 54.65 54.49 54.45 54.97 55.55 54.83 54.70 54.02 52.41 51.68 52.02 52.38 52.76 53.78 53.01 52.70 53.36 54.30
34.85 33.18 32.13 38.28 32.99 30.84 32.38 31.68 34.00 33.33 29.41 25.90 23.13 25.84 39.86 40.52 42.26 44.16 45.50 46.23 47.70 49.12 50.08 54.61 55.33 55.04 54.79 54.92 54.63 54.99 55.19 54.97 54.63 54.48 52.75 51.94 52.07 52.28 52.44 52.53 52.88 52.01 52.78 53.38
36.25 33.95 27.43 31.47 39.07 40.24 34.29 32.83 34.09 27.62 26.71 28.43 27.14 28.46 43.54 41.34 45.47 46.33 46.19 47.35 48.14 50.32 49.71 50.34 55.57 54.93 54.82 54.47 54.69 54.67 55.30 54.89 55.21 54.93 53.67 52.32 52.84 52.46 52.25 52.08 52.45 53.11 51.74 52.64
35.98 31.53 26.65 28.56 34.46 37.01 35.41 36.23 34.76 34.95 30.89 27.15 24.76 28.28 42.23 43.59 44.86 46.94 45.96 47.13 47.86 49.88 50.79 50.75 55.30 55.23 54.42 54.51 54.67 54.20 54.93 55.40 55.48 55.08 54.30 53.01 52.36 52.71 52.36 52.10 52.32 53.54 52.86 52.46
39.14 32.94 29.37 25.74 27.28 34.32 30.28 34.61 34.81 32.57 27.97 27.42 29.14 32.70 39.40 42.18 42.78 45.89 47.38 46.92 48.49 49.54 51.06 50.55 52.84 55.64 55.00 54.86 54.73 54.49 54.42 55.42 55.85 55.30 54.78 53.53 52.60 52.95 53.19 53.62 53.43 53.29 53.72 52.89
38.41 29.39 32.56 34.16 34.64 33.85 33.20 33.33 34.32 31.43 32.32 28.18 32.67 34.32 39.84 42.27 43.58 45.30 47.60 49.25 49.22 48.14 49.55 49.39 52.84 55.06 54.85 54.26 54.73 54.81 54.47 55.01 55.82 55.39 54.99 54.67 54.30 54.06 53.55 53.86 54.19 53.64 53.54 53.60
38.91 31.23 32.96 30.30 32.54 32.18 30.77 33.81 33.81 33.74 35.08 34.56 34.16 34.79 42.73 44.92 45.94 46.26 47.61 48.91 47.95 49.41 48.48 47.73 48.84 49.59 53.79 55.05 54.65 55.18 54.91 55.28 55.00 54.75 54.99 55.55 55.83 55.45 54.53 53.95 54.38 54.30 53.62 53.43
33.50 31.94 27.99 25.65 30.53 29.58 26.89 31.55 33.32 36.60 37.63 37.91 33.84 38.25 42.40 42.45 44.70 45.78 46.69 47.05 46.94 46.67 46.39 45.71 45.70 46.27 47.21 49.43 51.94 54.90 55.80 56.19 55.98 55.44 55.38 55.02 55.00 54.95 56.33 56.10 55.04 54.11 54.02 53.82
32.06 30.96 28.26 25.15 26.49 16.26 32.12 41.34 39.47 38.07 38.80 39.65 40.09 40.35 41.71 41.88 46.32 47.11 46.30 45.21 44.82 44.23 44.47 44.10 44.09 44.33 45.49 46.90 47.71 49.00 54.24 56.36 55.76 55.38 55.41 55.35 54.76 54.51 54.92 56.40 56.02 55.24 54.80 54.18
36.16 31.29 25.31 21.35 22.27 26.52 34.08 36.87 37.36 36.31 34.77 38.85 38.28 40.57 42.37 43.51 45.39 40.98 42.49 43.88 43.25 43.60 44.27 43.57 43.78 42.86 42.61 44.58 45.10 45.69 46.00 49.90 54.46 51.66 54.49 56.06 55.71 55.24 54.88 54.49 55.58 56.03 55.14 54.55
34.38 32.78 27.09 24.14 22.06 16.97 31.90 39.26 41.23 41.00 32.50 38.39 38.64 40.40 40.27 40.97 36.39 38.18 41.19 40.89 40.66 40.85 40.96 41.45 40.72 39.63 39.29 40.56 43.71 43.11 43.10 43.39 43.33 44.00 45.05 47.17 50.74 56.03 55.34 55.04 54.69 55.45 55.77 55.16
27.81 27.60 25.58 24.18 21.81 27.05 36.83 39.60 41.24 28.60 29.77 38.44 39.13 40.45 42.55 39.52 39.78 40.98 41.33 39.48 38.57 37.96 37.77 39.08 37.98 36.79 36.64 38.40 39.81 37.93 38.00 37.91 39.71 40.30 40.21 40.55 41.77 45.29 48.00 55.28 55.38 55.14 54.63 44.06
29.15 27.04 26.09 27.33 22.46 21.39 38.80 38.91 31.34 34.75 39.21 38.56 39.03 39.78 39.44 40.00 40.07 39.19 38.30 37.42 35.68 34.76 34.70 35.98 35.64 35.06 35.85 36.06 36.46 33.87 33.06 35.13 35.78 35.57 35.76 35.09 36.05 37.67 40.53 40.63 40.58 39.70 39.20 35.94
29.92 32.57 27.65 29.42 28.50 37.96 37.99 37.00 38.83 38.79 36.28 37.06 37.07 37.57 37.85 35.71 35.78 35.64 34.75 34.25 33.56 32.69 32.47 33.48 33.45 33.53 33.99 34.68 34.03 32.22 31.82 32.82 32.74 31.87 31.21 31.60 32.75 33.50 34.31 34.79 34.66 34.20 33.91 32.49
33.75 38.77 35.10 33.72 37.28 35.90 37.27 38.04 37.11 38.25 36.08 35.58 35.33 34.56 35.01 33.73 33.83 32.67 31.78 31.05 30.31 30.70 30.49 31.38 31.34 30.94 31.21 32.94 33.45 32.22 32.02 31.66 30.47 29.27 29.13 29.81 29.51 29.71 31.20 32.47 33.15 31.96 31.20 29.22
34.08 35.58 33.06 33.69 33.99 35.73 34.03 34.71 35.30 36.67 35.67 33.72 32.81 31.87 31.49 32.83 30.53 29.82 28.45 28.00 28.27 28.33 29.00 29.66 29.52 29.52 29.71 31.25 31.02 30.48 30.55 30.68 28.57 28.19 28.49 28.50 28.68 28.76 28.85 29.49 30.13 30.23 31.51 31.90
34.05 31.17 29.74 25.64 33.27 34.40 32.64 34.07 35.45 32.00 30.61 30.73 31.41 30.61 30.18 30.10 28.53 28.09 26.22 26.56 26.47 26.30 27.31 27.20 27.66 28.19 28.70 29.72 28.81 29.24 28.64 27.80 26.83 26.86 26.78 27.16 27.60 27.84 28.04 27.73 27.48 30.69 31.20 31.59

GFSCGP_sfc_wetblb_102.txt.gz
Wetbulb
37.60 33.22 28.50 31.42 36.01 36.88 34.46 33.17 32.46 32.62 38.65 37.26 36.64 37.02 37.01 40.03 40.26 39.18 40.55 42.32 43.11 44.28 46.87 48.41 50.44 47.51 55.16 56.51 57.31 58.01 58.30 56.95 57.69 58.36 58.24 58.14 58.76 58.88 60.36 61.31 61.90 61.84 62.21 60.36
33.81 30.08 34.56 36.23 36.10 35.76 34.66 32.60 31.32 34.46 38.08 37.17 35.97 36.87 37.82 38.01 38.57 40.30 41.74 41.53 43.30 44.51 46.30 47.79 53.51 53.55 55.35 56.63 57.05 58.25 58.08 57.65 58.10 58.50 58.92 57.84 58.03 57.55 58.88 60.57 61.78 61.88 62.20 60.38
32.22 34.96 37.53 35.33 33.51 33.24 31.83 31.60 29.99 32.25 32.85 31.43 31.09 31.84 33.57 37.24 39.36 42.49 43.38 44.19 44.25 44.51 44.84 46.21 52.75 53.69 53.96 55.77 57.08 57.60 57.21 57.85 58.14 58.21 57.01 55.53 55.31 55.26 55.83 56.97 58.78 60.83 61.87 60.52
34.74 39.00 35.79 33.53 32.57 33.38 29.14 33.86 34.01 31.74 28.38 23.50 31.12 23.07 30.13 35.65 37.94 40.09 42.38 43.02 42.70 44.17 48.84 45.76 49.76 53.27 54.65 55.69 57.57 57.17 56.99 57.56 57.66 56.88 55.67 54.28 53.17 52.71 54.27 55.77 56.77 57.96 60.43 60.62
34.32 36.60 34.27 33.62 32.76 34.33 30.95 35.21 32.80 31.71 27.63 25.35 28.52 24.54 28.79 35.89 36.43 39.25 41.38 42.50 44.31 47.83 48.59 47.18 47.77 54.07 55.00 55.97 56.27 56.89 57.17 57.02 56.76 56.19 55.65 54.43 54.33 54.31 53.91 54.45 55.49 56.31 57.17 59.88
34.25 36.71 36.99 36.22 36.88 35.46 37.39 33.97 32.94 30.92 27.93 21.36 27.36 26.77 27.00 31.78 35.73 40.43 42.31 45.52 47.47 47.46 48.76 49.84 49.97 53.69 54.68 56.09 56.03 56.63 56.28 55.71 55.86 55.20 54.61 53.39 52.52 53.21 53.05 53.56 53.92 55.27 56.21 58.29
30.22 32.49 35.16 37.88 32.71 34.81 33.26 29.76 24.47 23.22 23.33 23.02 30.89 27.90 32.08 37.01 40.33 42.96 44.07 45.04 46.07 47.49 48.07 49.01 50.02 52.73 54.27 54.94 55.18 55.83 55.35 54.35 54.90 54.45 54.08 51.68 51.76 52.86 52.88 53.02 53.64 54.27 54.69 55.73
25.43 24.63 31.87 35.91 34.48 31.40 31.17 30.50 24.81 21.01 21.93 23.66 32.21 26.74 31.83 40.52 44.19 45.24 45.31 45.06 45.85 46.48 48.21 49.49 50.55 52.23 54.20 54.96 55.16 55.61 55.21 54.51 54.90 54.34 53.79 52.13 52.08 53.01 52.89 53.27 53.93 54.50 54.72 55.23
25.36 25.81 33.94 35.08 35.70 36.14 31.07 27.31 33.70 27.45 27.56 25.27 27.23 32.03 36.59 41.40 42.66 43.80 44.14 45.04 44.75 46.18 47.74 49.03 50.94 52.76 54.64 54.76 54.90 55.17 54.92 55.35 54.66 54.21 53.29 52.37 52.25 52.65 52.74 52.73 53.63 54.30 55.12 55.23
31.40 26.04 35.08 37.77 35.95 35.21 33.89 35.81 27.62 27.62 22.37 21.20 24.76 26.43 28.84 35.90 39.35 43.09 43.03 43.52 45.38 46.86 47.50 49.12 50.96 53.45 55.07 55.19 55.25 55.71 55.40 54.89 54.56 53.90 53.10 51.90 51.83 51.72 51.92 52.00 52.18 53.88 54.82 55.24
34.75 30.86 30.39 34.81 31.96 29.86 30.41 29.58 31.62 30.91 27.76 23.35 22.11 25.04 35.39 37.99 40.40 42.34 43.28 44.90 45.80 46.70 46.92 48.37 51.54 54.77 54.98 55.26 54.64 54.74 54.72 54.95 54.35 53.96 52.95 51.39 51.15 51.50 51.77 51.96 52.36 52.50 54.37 54.48
35.62 32.08 27.49 29.31 36.57 39.25 33.60 31.59 31.49 25.72 25.28 27.59 26.20 27.77 42.30 40.16 42.66 44.07 45.03 45.94 46.89 47.83 48.18 49.56 51.85 53.84 54.39 54.47 54.27 54.33 54.70 54.62 55.11 54.41 52.96 51.11 51.41 51.52 51.24 51.70 52.02 52.66 52.02 54.35
36.02 30.71 26.73 27.96 32.46 34.71 33.19 34.68 33.84 33.19 29.46 26.68 23.67 26.41 39.84 41.21 41.52 44.69 44.53 46.11 47.22 47.84 48.98 50.05 50.28 53.84 54.13 54.41 54.09 53.94 54.93 54.74 55.14 54.51 53.25 51.69 51.18 51.31 51.09 51.14 51.42 51.85 51.67 52.15
38.73 31.70 27.56 24.37 26.57 30.55 29.36 32.54 33.91 31.50 26.90 26.55 26.75 30.24 36.29 40.32 41.23 43.70 45.27 47.00 48.77 48.81 49.30 48.11 48.90 54.39 54.51 54.60 53.71 54.19 54.49 55.48 55.30 54.43 53.51 52.11 51.56 51.32 51.35 51.28 51.16 51.47 51.61 52.27
37.76 27.63 30.11 32.04 33.26 33.21 32.94 31.89 32.37 30.12 30.37 27.10 30.13 30.72 37.26 40.28 42.16 44.46 47.02 47.91 48.34 47.74 47.87 46.21 47.08 47.90 53.42 54.33 54.74 54.68 55.42 55.87 55.32 54.73 53.88 53.06 51.85 52.16 51.91 51.29 51.05 51.24 51.29 51.65
37.28 30.39 31.81 28.61 33.45 32.55 30.76 33.51 33.31 33.58 33.95 33.31 33.15 32.34 40.92 42.75 45.26 45.05 45.81 46.23 46.09 45.76 45.50 45.08 45.15 45.97 46.94 48.51 54.21 54.80 54.66 55.81 56.07 54.58 54.70 54.45 53.80 52.28 51.84 51.89 51.70 51.12 52.27 52.33
33.08 31.64 27.88 24.67 31.15 29.56 26.09 29.97 32.29 35.08 36.23 36.03 31.24 37.11 41.33 41.46 44.07 43.16 43.17 43.99 43.46 43.70 43.75 43.14 42.92 43.07 44.04 45.74 46.85 52.11 55.34 56.05 55.83 55.63 55.87 55.37 54.90 54.10 52.84 52.45 52.52 52.98 52.33 52.64
31.74 30.48 27.76 26.21 26.98 15.88 31.96 39.09 38.19 36.48 37.65 39.44 38.69 39.28 41.29 41.37 41.87 41.64 42.12 41.73 41.47 41.65 40.91 41.17 40.72 39.91 40.93 43.19 44.57 47.84 53.94 56.13 55.32 55.02 55.34 55.77 55.18 55.16 55.51 54.11 53.76 53.76 53.67 52.85
35.55 30.79 25.62 23.79 22.70 25.59 33.43 36.48 36.40 35.85 34.76 38.42 37.86 40.88 40.02 41.99 43.69 40.83 41.37 41.01 39.91 39.13 39.42 39.26 38.94 38.42 38.38 40.30 42.49 43.40 44.25 46.94 47.58 47.74 49.32 50.52 53.84 54.43 54.68 54.90 54.82 54.45 53.66 53.32
34.02 33.03 28.05 25.77 22.34 16.20 29.28 38.44 40.25 39.63 31.40 38.59 38.39 40.64 39.11 38.83 35.11 37.95 40.14 39.02 38.02 37.24 37.70 37.69 37.03 36.83 36.23 37.93 39.00 38.46 38.13 38.58 39.62 40.34 41.71 43.45 44.53 48.07 51.22 54.35 54.51 55.24 54.80 53.67
27.88 28.64 25.86 25.17 23.48 26.75 34.04 38.31 40.41 26.15 27.41 37.14 39.19 40.42 40.59 38.45 38.97 39.40 38.80 36.72 36.31 35.67 35.76 36.47 35.93 34.71 34.82 35.83 36.50 34.57 34.57 34.16 35.45 36.86 36.43 36.73 37.22 39.77 41.20 44.21 51.19 53.55 53.85 48.53
27.22 25.82 24.77 26.29 23.64 20.54 36.22 37.04 29.83 33.05 36.21 36.85 36.93 36.95 36.68 37.63 37.61 36.75 35.51 34.38 33.50 32.92 33.47 34.66 33.83 33.54 34.11 34.50 34.42 31.88 31.30 32.97 33.40 32.89 32.52 32.79 33.84 35.15 36.54 36.94 36.89 37.35 37.59 34.50
28.70 32.14 28.79 28.96 27.89 35.52 35.84 35.32 36.56 36.90 34.31 34.47 33.66 34.59 35.58 34.53 34.59 33.50 32.24 31.87 31.36 30.97 31.35 32.69 32.45 32.21 32.36 32.43 31.91 30.20 30.51 31.73 31.59 31.10 30.46 30.99 31.33 32.01 33.03 33.51 33.46 33.79 33.58 32.20
34.76 35.28 32.20 33.58 34.68 34.68 35.30 35.96 35.03 34.37 32.38 32.23 32.26 32.49 34.15 31.83 31.61 30.80 29.86 29.21 29.09 29.68 29.62 30.15 30.43 29.78 29.66 30.66 29.88 29.69 30.25 30.73 30.03 29.16 29.24 29.81 29.91 29.77 30.45 31.08 31.79 31.33 30.61 29.73
33.34 33.65 31.31 32.15 33.84 34.17 33.60 35.56 34.48 32.96 33.12 31.77 30.88 30.16 30.15 30.66 28.93 28.29 27.10 26.86 27.08 27.82 28.36 28.66 28.61 28.53 28.75 29.09 28.64 28.21 27.96 29.43 28.29 28.27 28.63 28.85 28.93 28.54 28.06 28.87 29.76 29.54 30.31 30.58
33.16 28.91 28.32 26.64 31.34 32.73 31.75 33.58 32.03 29.29 28.28 28.06 28.00 27.93 26.75 27.42 26.31 26.91 25.27 25.71 25.64 25.64 26.58 26.60 27.20 27.20 27.86 28.07 27.12 27.02 26.28 26.32 26.87 26.23 26.43 27.21 27.45 27.05 26.37 25.57 25.81 30.10 30.21 30.85

GFSCGP_sfc_wetblb_105.txt.gz
Wetbulb
38.66 34.45 32.65 36.21 38.31 38.47 38.11 36.82 36.91 39.43 42.62 41.89 42.33 43.05 43.70 45.72 46.45 46.44 46.96 46.93 47.48 48.79 52.08 52.90 53.89 55.88 56.58 57.23 60.32 61.53 62.09 62.73 62.04 60.07 59.63 60.24 60.54 61.33 61.61 62.56 62.53 62.21 62.59 62.60
35.08 31.42 37.74 38.38 38.51 37.62 37.38 35.89 36.15 38.87 41.38 41.03 40.98 40.04 42.65 43.06 43.85 44.94 45.13 45.52 46.81 49.13 50.86 53.03 53.91 56.31 58.15 58.43 60.19 60.93 61.35 61.19 62.63 61.49 61.64 61.83 61.42 61.03 61.09 62.21 62.04 62.01 62.42 62.26
32.76 36.40 39.36 36.57 35.63 34.62 35.87 35.00 35.60 35.59 38.26 38.48 36.89 35.89 38.20 40.92 41.90 43.36 44.93 46.99 48.43 48.98 50.55 53.60 53.53 53.86 57.27 58.56 59.37 59.95 60.82 59.85 62.51 62.57 61.60 60.93 59.43 59.18 59.00 59.27 61.00 61.56 62.67 61.02
34.44 38.80 36.26 34.55 33.76 35.41 31.13 37.15 36.94 36.13 34.49 30.56 36.51 29.90 36.46 40.70 41.12 43.46 45.76 47.06 47.76 51.41 52.74 53.25 53.40 54.06 54.99 57.55 59.96 59.78 59.98 59.45 61.12 61.30 59.35 59.12 58.50 57.15 57.59 58.27 59.78 61.73 62.51 60.85
35.29 37.13 35.83 33.95 34.25 36.19 33.26 37.21 36.60 36.25 33.59 32.19 32.96 31.48 35.63 38.84 39.76 42.28 45.12 48.06 50.62 51.63 51.88 52.07 53.05 54.44 55.97 57.55 59.20 59.35 58.76 58.81 59.74 60.17 60.07 58.59 57.28 57.80 57.88 58.32 57.98 59.95 61.24 61.18
37.24 39.16 39.16 38.58 38.26 37.95 38.56 35.89 35.37 34.15 32.92 27.28 31.96 32.94 33.52 37.65 40.18 43.52 46.84 48.96 49.58 50.44 51.06 52.32 53.87 54.92 55.61 58.25 59.16 58.95 57.45 57.65 58.49 59.22 58.31 56.77 56.66 57.56 56.82 56.00 55.89 58.01 57.79 59.05
32.69 34.52 37.73 39.33 35.28 37.26 37.93 35.04 27.97 26.45 25.95 26.71 33.47 30.87 36.00 40.82 43.56 46.22 46.98 48.19 49.14 50.04 50.79 51.81 52.53 53.10 54.34 56.36 58.38 58.10 56.81 56.64 57.57 57.75 56.65 56.22 56.92 57.30 56.56 55.77 55.47 56.46 56.58 57.53
26.67 25.28 33.73 37.87 37.16 34.08 34.48 35.31 29.84 22.45 24.71 28.35 33.55 29.64 36.60 43.10 47.01 47.23 47.46 48.08 49.22 49.66 50.69 51.54 52.21 52.79 53.83 56.68 57.98 56.98 56.24 55.94 56.85 56.57 55.53 55.45 57.74 57.55 57.72 57.01 56.31 56.43 57.88 57.69
28.20 28.70 35.45 36.38 38.39 38.64 33.58 30.73 36.93 31.17 31.56 28.28 32.02 35.84 40.31 44.82 44.71 45.71 46.04 46.99 47.95 49.33 50.20 51.10 52.59 53.25 53.96 55.82 57.40 56.86 55.85 55.89 55.90 55.65 55.63 55.71 57.22 57.61 57.38 56.83 55.54 55.74 57.39 57.63
34.02 28.81 36.12 37.46 38.23 37.87 36.64 38.67 30.83 31.51 23.64 22.43 29.16 31.17 33.54 38.95 41.51 44.82 45.24 46.69 47.75 49.27 50.01 51.09 52.42 53.33 54.65 55.71 57.82 57.02 56.70 55.86 55.93 55.51 57.25 56.11 56.51 57.45 57.44 57.12 54.74 55.91 57.77 57.56
35.90 33.29 32.93 37.15 34.55 32.52 33.23 32.18 34.25 34.36 32.08 26.13 24.73 30.28 39.13 41.38 43.39 44.14 45.95 47.18 47.55 48.65 49.51 50.80 52.51 53.09 53.34 54.74 57.70 56.61 56.54 56.05 55.44 55.86 56.61 54.59 55.30 56.72 56.88 56.51 56.39 56.54 57.56 57.02
36.71 33.84 29.75 31.92 37.88 40.91 37.34 34.78 34.52 29.23 27.81 31.47 30.59 30.76 44.12 43.65 45.00 46.21 46.69 47.78 48.40 49.50 49.88 50.10 49.96 50.14 53.16 54.35 56.13 56.15 55.96 55.62 55.25 55.82 55.11 53.53 54.67 55.97 56.00 55.83 56.45 57.44 56.13 56.60
36.37 32.15 28.36 30.00 35.38 37.41 35.22 36.26 35.65 35.27 33.76 30.44 28.15 31.46 42.85 45.05 45.21 46.65 46.96 48.68 48.59 48.83 49.22 48.94 47.92 47.76 51.26 55.38 54.83 55.04 55.24 55.46 55.29 55.43 53.81 52.62 53.53 54.94 55.34 55.52 56.25 56.69 56.87 55.46
38.67 32.54 29.26 26.64 28.85 32.96 31.16 34.08 35.68 35.25 30.95 30.98 32.14 33.91 39.05 42.40 43.78 46.03 47.54 49.14 49.39 49.15 48.51 47.27 45.97 45.74 48.06 55.08 54.65 54.39 55.02 55.62 55.49 54.72 53.52 52.25 52.89 54.37 55.24 55.65 55.90 55.82 56.35 56.23
36.83 29.57 31.31 32.35 33.66 33.98 33.17 33.35 34.09 33.05 33.38 31.20 33.04 33.80 37.54 41.83 44.17 45.56 46.99 47.96 47.34 46.18 45.94 44.91 44.22 43.60 44.38 47.60 52.92 54.80 55.16 55.54 55.76 54.80 53.48 52.58 53.07 53.55 54.93 55.08 55.33 55.60 55.49 56.06
36.11 29.69 30.97 30.19 33.75 33.45 30.65 33.61 35.07 35.16 35.05 35.22 35.84 35.21 42.25 44.74 45.71 43.52 43.49 43.98 43.37 42.97 42.58 42.44 42.05 41.30 41.10 42.72 46.12 54.48 55.06 55.48 55.67 54.78 54.26 54.02 53.21 53.61 54.25 54.93 54.90 55.03 55.12 55.18
34.18 32.08 29.79 25.49 31.76 30.73 26.90 31.65 34.09 35.01 37.64 36.93 32.53 37.67 42.29 41.95 41.28 40.31 40.64 41.12 40.59 40.25 40.14 39.77 39.05 38.84 39.27 40.64 43.84 47.62 53.60 56.50 55.52 55.38 55.07 54.51 53.73 53.34 54.00 54.74 54.62 54.27 54.52 55.16
32.29 30.99 30.63 26.80 29.03 19.22 33.77 40.08 39.37 37.21 37.64 38.57 38.35 40.45 40.18 41.55 40.91 40.38 39.95 38.97 37.96 37.87 38.06 38.04 37.58 37.44 37.56 39.61 40.82 43.43 52.21 55.84 55.56 55.66 55.58 55.20 54.69 53.69 53.83 54.02 54.36 54.37 54.52 53.90
35.82 32.40 28.05 24.66 25.02 28.43 33.26 37.27 36.93 36.03 34.42 39.20 38.58 40.89 40.44 41.90 41.78 38.34 38.60 38.01 36.97 36.63 36.85 37.11 37.04 36.40 36.69 37.45 38.54 39.41 40.14 42.03 42.68 42.48 43.77 45.94 48.01 52.44 54.89 53.49 53.53 54.97 54.78 53.97
35.15 35.02 30.29 27.17 22.24 20.02 31.52 38.95 41.03 41.07 30.82 38.89 39.50 40.19 40.47 40.67 35.45 36.20 37.26 35.97 35.38 35.38 36.00 36.02 35.57 35.11 34.66 35.45 37.01 36.50 35.49 36.13 36.35 37.42 38.08 39.44 40.70 42.89 43.36 44.75 52.59 54.55 54.67 53.96
29.05 30.64 27.52 26.33 24.31 28.10 35.12 37.66 41.14 29.57 30.60 38.90 39.09 38.81 39.00 36.80 36.53 36.35 36.07 34.26 33.92 34.18 33.63 35.50 34.74 32.98 32.94 34.11 34.14 32.71 32.95 32.48 33.97 35.05 35.39 35.52 36.28 37.63 38.24 40.11 40.60 42.18 51.27 39.55
28.56 27.11 26.80 27.49 24.08 21.13 36.08 37.60 33.23 35.33 36.82 36.72 36.11 36.45 36.39 36.32 35.69 34.55 33.23 32.09 31.57 31.15 31.92 32.96 32.90 32.03 32.04 32.40 32.67 30.62 30.33 32.24 32.90 33.20 32.92 32.83 33.48 34.23 35.43 35.98 36.43 36.43 35.97 33.82
28.72 32.35 30.51 30.04 29.72 35.13 36.18 34.84 35.82 37.58 34.71 34.21 34.51 35.06 35.11 33.21 32.36 31.34 30.56 29.91 29.60 29.54 30.35 31.99 31.41 31.22 31.01 30.86 30.48 29.69 30.13 31.66 31.54 31.36 31.12 31.06 31.61 32.05 32.53 32.57 32.92 33.19 32.70 31.22
34.85 35.93 32.28 32.81 34.00 34.21 34.05 33.97 34.31 34.28 32.59 32.52 32.76 33.37 33.66 30.87 30.41 28.89 28.20 28.03 27.87 28.31 28.43 29.60 29.78 29.20 28.39 29.33 28.90 29.18 30.73 31.49 31.15 29.98 29.46 29.40 29.38 29.83 30.60 30.74 30.97 31.06 31.25 30.80
32.98 34.27 30.19 31.23 33.05 34.30 33.34 33.87 33.41 32.16 32.31 31.04 29.99 29.42 29.54 30.20 27.94 27.21 26.07 26.03 26.25 26.89 27.63 28.13 27.86 27.68 27.48 28.03 27.72 28.11 29.39 31.05 29.79 29.71 28.96 28.32 28.44 28.43 28.03 28.74 29.29 29.00 29.96 30.33
31.58 27.71 26.87 26.37 31.07 31.38 30.67 31.59 31.65 29.09 27.87 28.02 28.37 26.54 26.31 27.67 26.65 26.77 25.07 25.57 25.29 25.11 26.02 25.57 25.90 26.20 26.50 26.56 26.63 27.31 27.80 28.64 29.29 28.10 27.75 27.99 27.68 27.69 27.35 26.64 26.64 29.75 29.76 30.14

GFSCGP_sfc_wetblb_108.txt.gz
Wetbulb
40.30 36.87 35.61 39.44 42.16 42.33 41.73 40.02 38.63 41.89 45.48 45.15 45.09 45.92 48.45 51.11 51.16 51.01 51.83 52.70 53.37 54.23 55.68 55.67 57.05 59.88 60.65 61.60 61.68 61.29 63.65 66.01 66.24 65.35 63.63 62.62 62.05 63.39 63.94 65.78 65.95 66.73 65.91 66.46
37.75 34.75 40.28 41.73 41.63 39.62 37.63 35.65 38.04 40.27 44.04 43.94 44.07 44.08 47.40 48.87 49.21 49.98 50.00 50.22 51.11 51.80 51.75 54.77 57.86 59.84 60.79 61.87 62.53 62.86 63.85 65.48 65.99 64.23 63.40 64.30 63.31 63.24 64.12 64.60 66.01 65.11 65.58 64.88
35.87 38.22 40.19 39.20 38.17 37.32 37.96 35.90 34.93 35.95 40.79 42.56 42.29 40.55 42.79 45.95 46.94 47.54 48.44 49.26 49.87 50.75 52.65 55.46 57.26 58.92 60.72 61.16 62.13 62.52 63.69 64.84 65.91 65.72 63.18 63.86 63.69 63.34 62.51 62.81 63.66 64.25 64.67 63.91
38.33 41.75 38.96 37.88 36.46 37.90 34.92 40.72 39.04 37.33 36.05 33.89 41.02 33.84 40.55 42.76 44.59 46.66 48.39 50.09 51.18 53.69 55.41 56.53 57.32 58.45 59.96 61.10 62.47 62.90 63.49 64.36 65.08 65.57 62.37 62.72 62.09 60.71 62.61 62.03 62.76 63.00 63.47 63.00
37.21 37.92 37.80 37.20 38.02 38.94 36.59 40.25 37.93 37.96 37.03 35.72 36.94 34.29 38.39 43.01 42.17 45.19 48.25 50.57 53.71 55.01 56.15 56.07 56.93 58.45 59.70 60.93 62.55 62.96 63.21 63.72 63.77 63.82 62.76 63.29 63.76 64.14 64.32 63.88 62.94 61.48 62.54 63.06
40.66 44.45 41.82 40.38 40.36 40.13 40.74 37.84 37.86 37.79 36.30 30.00 35.59 35.30 37.32 41.05 43.55 46.03 49.69 52.28 53.54 54.73 55.26 56.11 57.49 58.44 59.08 60.54 61.85 63.04 62.51 62.41 62.24 61.70 62.70 63.49 64.31 64.01 62.36 60.80 59.62 59.29 60.64 62.22
37.91 39.23 42.14 43.91 38.48 39.78 38.48 36.26 31.08 28.89 29.04 29.79 38.48 35.82 38.72 43.24 46.04 47.97 49.51 51.32 52.76 53.79 53.84 55.06 55.98 57.06 58.07 58.69 60.23 62.00 61.91 60.75 60.57 60.28 61.13 63.04 64.58 63.54 62.69 62.21 60.93 58.36 59.29 60.30
31.96 30.03 38.34 41.95 40.84 37.31 36.14 36.52 31.59 23.80 28.23 31.26 37.16 31.63 37.93 44.90 49.14 50.68 50.70 51.39 52.28 53.17 54.06 54.45 55.43 56.61 57.69 58.24 59.50 60.61 61.21 59.39 58.99 58.99 59.54 61.55 62.71 63.60 62.75 62.00 60.44 59.59 59.54 61.33
32.37 32.21 39.08 40.76 42.05 41.54 37.23 34.27 40.40 34.33 35.02 32.34 35.85 38.80 43.43 47.25 47.73 48.97 49.51 50.02 50.96 52.49 53.86 54.51 55.73 56.86 57.46 57.50 58.69 60.23 59.99 58.81 58.61 58.18 58.26 59.01 61.25 62.91 62.20 61.97 61.24 60.11 60.49 60.43
36.94 31.23 37.05 38.30 40.02 40.73 39.19 40.99 32.66 35.39 26.20 25.39 32.36 34.65 37.17 42.34 44.81 47.40 48.03 49.15 50.64 52.50 53.95 54.56 54.90 55.38 55.75 56.28 57.43 59.61 60.52 57.91 58.68 57.85 57.32 57.04 61.01 62.30 62.24 61.51 58.46 59.38 59.27 60.38
39.95 37.24 35.62 38.72 36.31 34.24 34.92 35.23 36.59 36.93 35.28 29.41 29.26 34.13 43.26 43.43 45.64 46.19 47.78 49.68 51.02 52.62 53.44 53.68 53.75 53.90 53.31 55.23 53.60 59.48 58.61 57.33 57.53 57.24 56.65 58.41 60.52 61.37 61.04 60.12 58.46 58.44 59.94 59.90
39.24 36.93 32.90 35.20 41.15 41.71 38.68 35.96 37.24 31.52 30.67 34.05 33.34 33.93 45.93 46.20 47.12 47.87 48.90 50.61 52.43 53.08 53.27 52.80 52.48 51.32 50.63 48.43 46.32 56.51 57.10 57.02 57.80 57.20 57.27 57.99 59.05 60.50 58.77 58.58 57.80 58.57 58.76 59.49
37.81 35.03 29.81 31.86 37.15 40.64 38.48 39.73 39.23 38.95 38.50 34.02 32.08 35.48 47.17 47.45 47.62 49.06 49.23 50.87 51.16 51.92 52.20 51.75 51.09 49.31 47.20 44.76 44.90 55.47 57.04 57.16 57.22 57.02 56.53 56.83 56.76 58.12 57.51 58.02 58.08 58.12 58.59 59.22
40.63 35.50 32.12 29.13 32.60 37.24 35.07 38.16 39.75 38.91 34.46 34.88 35.43 37.41 42.38 44.17 45.45 47.71 49.14 48.65 47.34 48.12 49.08 47.84 48.32 48.18 44.37 43.08 43.02 46.99 56.27 56.84 56.17 55.72 55.59 55.69 55.66 56.77 57.57 57.84 57.72 58.00 57.78 57.51
38.20 32.40 34.81 35.66 36.25 36.55 36.57 36.59 38.04 37.05 38.13 34.13 36.68 36.98 41.33 44.01 46.05 45.59 45.22 45.14 45.40 44.59 44.97 43.84 43.61 43.95 41.97 41.25 41.40 42.91 55.64 55.51 55.54 54.80 54.64 54.44 55.40 56.23 57.69 57.27 57.38 57.67 57.26 57.26
37.97 32.79 32.86 31.93 35.82 36.09 34.40 37.11 38.22 38.32 38.29 38.12 38.54 38.27 44.65 45.54 44.37 42.80 43.23 43.09 41.81 41.53 41.69 42.29 40.65 40.43 39.27 38.85 39.79 41.69 53.64 55.35 55.39 54.78 54.19 54.50 54.61 54.80 55.81 57.04 56.96 56.88 56.55 56.94
34.12 33.65 31.42 28.37 33.79 33.54 29.97 35.16 37.19 38.53 39.61 39.10 35.93 40.34 42.74 41.82 40.52 39.49 40.39 40.32 38.80 38.60 39.19 39.27 37.42 37.55 37.62 37.99 39.02 39.70 45.24 55.57 54.84 54.76 54.82 54.86 55.17 54.50 55.13 55.76 55.93 56.06 56.21 56.98
33.57 33.02 33.20 29.75 31.27 22.00 36.14 42.43 41.64 38.97 39.87 41.17 39.85 40.63 42.00 41.67 39.70 38.50 38.70 37.58 36.56 36.11 36.30 37.45 36.73 36.01 35.80 37.00 38.34 39.52 45.92 52.98 52.46 51.85 53.12 54.42 54.46 54.96 55.66 55.43 55.23 55.93 56.35 56.12
38.31 33.85 30.09 27.49 28.02 31.46 34.35 37.64 38.00 37.26 35.97 40.57 39.04 41.06 42.98 42.43 40.43 36.63 36.91 36.52 35.27 34.78 35.02 35.64 36.21 35.45 34.78 35.15 36.26 36.01 37.06 39.87 41.22 41.03 41.59 43.35 46.79 50.46 53.70 54.01 54.89 56.20 56.08 56.49
36.98 36.47 31.90 30.84 24.52 21.72 34.72 38.16 43.20 43.40 31.87 40.33 40.47 39.75 40.98 42.78 36.90 34.33 36.35 35.12 34.58 34.16 34.23 34.48 35.13 34.06 33.35 33.50 34.85 34.72 34.15 34.43 35.07 37.05 37.76 39.33 41.34 42.46 42.70 43.90 46.17 52.59 55.52 54.68
31.61 32.49 29.40 28.87 27.32 31.37 37.34 38.23 41.92 31.97 32.16 38.10 39.38 39.10 39.18 36.07 35.40 35.66 35.95 33.31 32.73 33.04 33.05 33.89 34.04 32.80 32.39 33.29 33.42 32.93 33.17 32.17 33.20 35.05 35.47 35.68 36.65 37.59 38.43 39.31 39.75 42.16 44.22 37.84
30.53 29.43 30.28 30.64 26.63 24.01 37.62 40.40 35.16 36.31 38.55 38.33 37.66 38.03 37.06 36.41 34.98 34.06 32.54 31.07 30.68 30.44 30.77 32.40 32.04 31.78 32.02 32.47 33.29 31.93 31.30 32.41 32.90 33.12 33.25 33.60 34.43 34.52 35.86 36.10 35.93 36.32 35.21 33.36
30.41 33.62 30.89 32.71 32.30 35.77 36.08 34.56 37.32 39.77 38.66 37.64 37.14 37.08 36.48 34.65 32.47 31.58 30.33 29.73 29.58 29.55 29.72 30.84 30.62 30.66 31.34 31.46 31.62 31.14 32.14 33.38 32.65 31.99 31.32 31.79 32.57 32.97 33.30 33.61 33.93 33.45 33.32 31.99
36.18 36.72 32.79 33.20 33.14 33.69 34.28 35.93 35.90 36.98 36.53 36.84 37.28 36.76 36.25 33.05 31.35 29.85 29.08 28.45 28.24 29.27 28.18 29.04 28.95 28.23 28.30 30.29 30.68 30.75 32.48 33.44 32.72 31.35 30.57 30.35 29.64 29.98 31.12 31.23 31.07 31.36 31.11 30.38
34.33 35.46 31.69 32.01 32.94 32.51 31.97 33.24 34.26 33.89 34.85 34.38 33.83 34.22 34.03 33.43 30.33 29.89 28.69 27.48 27.47 27.52 28.50 27.98 27.16 26.84 26.82 27.94 28.91 30.72 31.49 33.68 32.55 31.94 31.73 31.10 30.03 29.20 28.35 28.80 29.16 28.45 29.60 29.96
33.49 29.48 29.23 29.38 31.51 31.47 30.71 32.14 32.86 31.14 30.64 31.76 32.31 31.10 31.40 31.68 30.73 30.28 28.91 28.76 27.92 26.80 27.16 26.74 26.75 25.91 25.72 26.21 26.06 28.05 30.34 32.07 33.31 31.37 30.16 29.90 29.08 29.27 28.75 27.79 27.38 29.93 29.66 29.79

GFSCGP_sfc_wetblb_111.txt.gz
Wetbulb
42.16 37.52 36.12 39.78 42.48 44.49 44.03 42.22 42.04 45.35 48.31 47.57 46.97 47.15 48.85 50.91 52.46 52.59 53.46 54.20 54.92 55.78 57.69 58.73 59.67 59.61 60.04 61.55 61.59 61.87 62.45 65.90 68.52 67.62 67.98 68.73 65.21 65.35 66.01 68.44 68.56 68.07 67.36 66.68
39.43 34.99 40.59 43.01 43.20 42.85 43.26 41.12 41.16 45.00 46.46 45.13 45.21 45.36 48.42 49.87 51.30 52.85 53.14 53.59 54.36 55.22 56.32 57.58 57.30 58.49 60.83 61.72 62.53 63.27 63.44 63.75 65.35 67.05 67.68 67.88 64.51 64.68 65.44 66.84 68.23 67.91 67.04 66.13
36.84 38.48 41.65 41.75 41.12 40.24 41.59 40.64 40.40 40.04 42.55 42.97 43.35 42.18 44.69 47.68 49.26 50.80 52.42 53.02 53.08 53.21 53.55 54.77 55.77 59.15 60.90 61.57 62.43 62.93 63.63 64.19 65.43 66.82 67.61 65.52 65.11 64.21 63.72 64.16 65.87 66.68 66.70 66.00
39.22 41.61 40.21 39.85 39.51 41.17 37.85 43.07 41.00 39.13 37.32 32.62 41.79 34.42 42.31 45.61 45.42 48.22 49.52 50.13 50.80 51.57 52.79 54.63 57.26 58.79 60.22 61.44 62.54 64.05 64.08 64.25 65.12 66.96 66.40 63.81 62.50 61.40 62.81 64.00 65.04 65.51 66.48 65.67
38.73 39.51 39.62 38.34 39.54 41.99 39.26 42.87 40.55 39.70 37.67 37.45 38.49 36.21 41.14 45.32 43.35 45.62 48.11 49.84 51.82 53.90 55.92 56.31 57.45 58.33 59.05 60.33 62.01 63.65 64.44 64.42 65.08 65.77 66.43 64.36 62.37 64.33 65.43 65.19 64.83 63.88 65.28 64.29
40.68 44.37 42.63 41.73 42.47 42.86 42.87 39.62 39.09 39.09 37.78 31.52 37.61 37.12 37.87 39.92 43.57 45.75 47.96 50.61 53.70 55.05 55.67 56.20 57.33 58.03 58.52 60.22 61.49 62.67 63.41 64.00 64.65 65.46 65.49 64.36 62.88 65.06 64.82 65.11 64.35 62.64 63.83 64.46
39.09 40.26 43.21 44.19 40.84 42.97 41.04 37.47 27.86 26.02 27.91 29.17 39.02 35.70 38.82 43.65 45.48 47.58 49.22 51.77 53.27 54.70 54.55 55.09 55.30 56.29 57.51 58.68 60.14 60.97 61.50 62.87 64.16 64.27 63.89 63.63 63.32 64.91 65.64 65.38 64.29 62.86 62.27 62.65
32.51 30.52 40.35 44.46 41.17 38.32 38.88 37.81 31.22 23.94 26.11 29.49 38.38 33.82 39.37 44.89 47.94 50.40 51.16 52.31 52.71 53.54 54.71 54.78 55.65 56.98 57.63 58.50 59.29 59.81 60.37 61.30 63.26 63.23 61.20 63.04 63.15 63.56 64.65 64.68 63.84 62.75 62.17 62.57
32.63 33.43 42.58 44.11 43.88 43.13 38.60 35.53 40.98 34.45 36.73 33.32 36.76 39.83 44.91 46.14 47.55 49.76 49.69 50.35 51.14 52.36 53.38 55.13 56.30 56.78 57.19 57.16 57.35 58.64 58.68 60.03 62.17 62.75 61.12 61.89 62.52 62.70 63.33 65.29 65.10 63.31 62.50 62.21
39.30 32.20 39.35 41.33 44.10 43.41 41.13 42.47 34.66 35.92 26.70 26.56 33.86 35.97 38.01 42.53 45.12 47.84 47.87 48.72 50.27 52.18 53.77 54.76 55.46 55.59 55.56 55.71 55.88 57.50 57.96 59.77 61.48 61.67 60.51 60.82 60.53 63.26 63.66 64.85 63.13 62.66 61.55 61.92
41.29 38.25 35.91 39.51 36.91 36.80 38.07 37.55 38.42 37.95 35.66 29.44 28.52 33.53 44.21 43.89 45.79 46.53 48.43 49.67 50.51 51.80 53.41 54.29 54.09 54.41 54.38 54.34 53.86 54.22 54.74 59.51 61.35 60.25 59.78 59.81 59.33 61.70 62.93 63.35 62.62 61.94 61.50 61.30
40.24 37.91 33.39 36.28 42.22 43.07 40.19 38.39 39.11 33.40 31.91 35.17 33.59 32.53 46.72 47.47 47.90 47.88 48.43 50.03 52.15 53.75 52.11 52.95 53.76 53.89 53.37 52.27 51.17 50.35 49.20 56.06 60.03 59.11 58.59 58.05 58.61 60.51 61.87 61.92 60.75 61.19 60.90 61.32
38.50 36.36 29.25 32.29 38.89 41.04 37.62 38.81 39.90 39.75 38.83 33.17 30.66 33.63 47.07 48.05 48.28 49.34 49.39 50.69 51.76 51.44 50.76 51.47 51.42 50.84 50.84 50.59 49.27 46.52 45.95 46.37 58.12 57.83 57.28 57.36 57.40 59.54 60.29 60.29 59.71 59.50 60.58 59.60
40.84 36.07 32.79 29.61 32.37 38.18 36.56 38.16 38.98 38.53 33.89 34.88 36.06 36.63 43.11 45.78 45.92 47.02 47.89 47.95 48.35 48.56 47.91 48.09 48.27 48.07 49.13 48.68 46.83 43.41 43.50 44.22 57.34 57.47 56.88 56.78 57.63 58.87 58.96 58.91 59.23 58.42 59.82 58.94
39.24 33.40 35.71 35.94 37.02 38.64 36.80 37.52 39.30 37.47 38.36 34.31 37.07 37.93 41.47 44.09 45.83 44.85 44.67 45.05 45.12 44.37 44.49 44.78 44.50 44.21 45.71 45.45 43.79 41.31 42.51 43.95 56.06 56.27 56.07 55.73 56.73 57.73 58.79 57.98 58.38 57.87 58.74 58.99
38.72 33.39 36.15 34.04 37.70 37.94 36.11 38.31 38.94 39.37 39.11 38.97 39.51 38.87 47.43 46.91 46.06 43.27 42.58 43.04 41.87 41.10 41.02 41.72 41.85 41.28 41.71 41.33 39.37 39.20 40.05 41.60 46.51 54.98 54.32 55.12 56.01 56.88 58.19 57.66 57.29 57.16 58.02 58.91
35.29 33.92 33.52 29.71 35.61 35.41 31.78 36.97 38.40 39.20 40.62 40.15 36.61 41.68 45.07 41.92 41.14 39.18 39.57 38.65 38.30 37.83 39.38 38.26 37.75 38.16 38.90 38.62 37.71 37.47 38.53 39.54 47.04 54.44 54.30 54.66 55.02 55.72 56.73 56.54 56.73 56.96 56.75 57.71
35.66 34.12 34.02 30.71 32.42 23.87 37.09 43.25 42.24 39.91 41.36 42.53 41.69 42.98 44.50 41.72 38.87 37.18 37.28 37.37 37.37 36.92 37.31 35.50 35.86 35.47 36.90 36.90 37.06 37.44 37.07 39.02 49.45 50.80 52.34 54.62 55.02 55.02 55.33 55.84 55.95 56.38 57.07 56.45
38.84 35.38 31.87 29.02 29.41 33.64 36.49 39.77 38.83 38.22 36.70 41.94 40.94 41.94 42.46 39.80 38.45 35.58 37.32 38.46 36.96 35.49 35.19 34.47 35.27 34.33 34.76 34.40 35.94 35.89 34.86 34.72 37.95 39.29 41.21 43.94 47.78 51.78 55.22 54.86 55.89 56.51 56.32 56.39
38.68 39.25 33.18 31.93 26.22 23.44 32.90 38.77 41.61 41.56 33.63 40.04 40.71 39.99 40.76 41.66 36.66 34.24 37.77 37.83 36.48 35.90 34.58 33.58 34.06 33.46 33.33 32.55 34.55 33.42 32.52 32.77 33.00 35.02 36.34 38.08 40.71 43.02 43.53 44.67 47.51 50.19 56.06 52.95
32.65 33.42 30.46 30.80 28.94 33.13 38.08 41.42 41.05 31.62 31.36 39.29 40.67 40.21 40.19 36.14 36.24 36.57 37.05 35.78 35.63 33.63 32.55 33.62 33.60 32.96 32.26 32.37 32.58 32.03 31.79 31.15 32.03 33.72 34.45 34.80 35.62 37.47 38.80 40.00 40.71 42.21 39.27 36.43
31.25 30.28 30.56 32.81 28.74 25.60 39.14 39.97 33.32 34.58 38.83 39.10 39.07 38.75 36.88 36.82 36.10 35.03 34.41 34.34 33.35 32.13 31.26 32.10 31.90 31.72 32.46 32.41 32.03 31.85 31.25 31.85 32.40 32.76 32.20 32.72 32.67 33.65 35.99 35.59 35.88 36.07 35.09 33.12
31.37 34.03 30.22 33.60 30.88 35.59 36.93 35.19 37.19 39.29 38.34 38.70 38.52 38.78 38.16 36.68 35.07 34.31 33.32 32.12 30.91 30.81 30.42 30.79 29.92 29.91 30.84 32.02 31.93 31.74 31.87 32.75 32.50 31.49 30.74 31.02 31.68 31.75 32.60 32.72 33.14 32.86 32.49 31.08
37.24 39.09 34.49 34.09 31.02 31.80 34.49 35.90 36.95 38.08 38.11 38.75 39.43 38.81 38.11 35.59 35.13 33.94 32.61 30.73 30.38 30.12 29.72 29.76 28.58 27.78 27.47 30.14 30.79 31.32 34.33 34.57 33.05 30.94 30.16 30.04 29.12 28.87 29.98 29.81 29.97 30.30 30.12 29.00
36.54 37.53 32.91 32.58 32.79 33.67 33.71 34.27 35.67 35.55 36.81 37.23 37.04 36.86 36.73 36.70 35.16 34.81 33.03 31.37 30.67 29.62 29.67 29.32 28.37 27.48 27.14 28.36 28.31 30.19 32.40 34.38 32.09 31.44 31.13 30.20 29.19 28.23 27.74 28.23 28.29 27.96 29.03 29.23
35.18 30.64 31.23 29.65 31.67 33.60 31.90 33.89 34.86 33.01 33.12 34.58 34.99 34.31 34.31 34.96 33.80 34.57 32.57 32.21 32.03 30.88 30.58 29.08 27.86 28.02 27.69 27.93 28.35 29.19 30.87 32.00 31.32 30.05 29.62 29.63 28.86 28.71 28.16 26.61 26.31 29.67 29.96 30.37